<?xml version="1.0" encoding="UTF-8" standalone="yes"?>
<gpx xmlns="http://www.topografix.com/GPX/1/1" creator="www.gps-tour.info" version="1.1" xmlns:xsi="http://www.w3.org/2001/XMLSchema-instance" xsi:schemaLocation="http://www.topografix.com/GPX/1/1 http://www.topografix.com/GPX/1/1/gpx.xsd">
  <metadata>
    <name>120527 Köln - Eifel</name>
    <author>
      <name>Dieter Schuh</name>
    </author>
    <link href="www.gps-tour.info/de/touren/detail.101104.html">
      <text>120527 Köln - Eifel on www.gps-tour.info</text>
    </link>
    <time>2014-04-18T12:15:00Z</time>
    <bounds minlat="50.4390069935" minlon="6.46991696209" maxlat="50.9108170308" maxlon="7.02266399749"/>
  </metadata><wpt lat="50.5515289307" lon="6.76345825195">
    <ele>0</ele>
    <name>Bad Münstereifel</name>
    <sym>Waypoint</sym>
  </wpt><wpt lat="50.6332397461" lon="6.48124694824">
    <ele>0</ele>
    <name>Heimbach</name>
    <sym>Waypoint</sym>
  </wpt><wpt lat="50.5480957031" lon="6.99691772461">
    <ele>0</ele>
    <name>nach Altenahr</name>
    <sym>Waypoint</sym>
  </wpt><wpt lat="50.4471588135" lon="6.88911437988">
    <ele>0</ele>
    <name>Schuld</name>
    <sym>Waypoint</sym>
  </wpt><trk>
    <name>120527 Köln - Eifel</name>
    <trkseg><trkpt lat="50.9030829649" lon="7.02240298502">
        <ele>87.6</ele>
        <time>2014-04-18T12:15:00Z</time>
      </trkpt><trkpt lat="50.9030859824" lon="7.02246400528">
        <ele>87.6</ele>
        <time>2014-04-18T12:15:00Z</time>
      </trkpt><trkpt lat="50.903076008" lon="7.02266399749">
        <ele>62.6</ele>
        <time>2014-04-18T12:15:01Z</time>
      </trkpt><trkpt lat="50.903270971" lon="7.02248797752">
        <ele>61.7</ele>
        <time>2014-04-18T12:15:03Z</time>
      </trkpt><trkpt lat="50.9033200052" lon="7.02239401639">
        <ele>61.2</ele>
        <time>2014-04-18T12:15:04Z</time>
      </trkpt><trkpt lat="50.9039449599" lon="7.02118098736">
        <ele>57.8</ele>
        <time>2014-04-18T12:15:12Z</time>
      </trkpt><trkpt lat="50.905132005" lon="7.0188870281">
        <ele>57.8</ele>
        <time>2014-04-18T12:15:29Z</time>
      </trkpt><trkpt lat="50.9064669907" lon="7.0158569701">
        <ele>59.7</ele>
        <time>2014-04-18T12:15:49Z</time>
      </trkpt><trkpt lat="50.906722974" lon="7.01400096528">
        <ele>60.7</ele>
        <time>2014-04-18T12:16:00Z</time>
      </trkpt><trkpt lat="50.9068150073" lon="7.01302397065">
        <ele>61.2</ele>
        <time>2014-04-18T12:16:05Z</time>
      </trkpt><trkpt lat="50.9069030173" lon="7.01247503981">
        <ele>59.7</ele>
        <time>2014-04-18T12:16:09Z</time>
      </trkpt><trkpt lat="50.907244999" lon="7.01117198914">
        <ele>54.9</ele>
        <time>2014-04-18T12:16:16Z</time>
      </trkpt><trkpt lat="50.9077759925" lon="7.0090529602">
        <ele>50.6</ele>
        <time>2014-04-18T12:16:29Z</time>
      </trkpt><trkpt lat="50.9085209761" lon="7.00654501095">
        <ele>48.7</ele>
        <time>2014-04-18T12:16:44Z</time>
      </trkpt><trkpt lat="50.9092289954" lon="7.00459999032">
        <ele>48.2</ele>
        <time>2014-04-18T12:16:57Z</time>
      </trkpt><trkpt lat="50.9099879768" lon="7.00329501182">
        <ele>47.2</ele>
        <time>2014-04-18T12:17:07Z</time>
      </trkpt><trkpt lat="50.9102869593" lon="7.0028360188">
        <ele>46.8</ele>
        <time>2014-04-18T12:17:10Z</time>
      </trkpt><trkpt lat="50.9103110153" lon="7.00279603712">
        <ele>47.2</ele>
        <time>2014-04-18T12:17:11Z</time>
      </trkpt><trkpt lat="50.9103980195" lon="7.0026510302">
        <ele>47.2</ele>
        <time>2014-04-18T12:17:12Z</time>
      </trkpt><trkpt lat="50.9105199762" lon="7.00244701467">
        <ele>46.8</ele>
        <time>2014-04-18T12:17:13Z</time>
      </trkpt><trkpt lat="50.9108000156" lon="7.00199103914">
        <ele>48.2</ele>
        <time>2014-04-18T12:17:17Z</time>
      </trkpt><trkpt lat="50.9108170308" lon="7.00185399503">
        <ele>48.7</ele>
        <time>2014-04-18T12:17:18Z</time>
      </trkpt><trkpt lat="50.9107779711" lon="7.00181401335">
        <ele>48.7</ele>
        <time>2014-04-18T12:17:18Z</time>
      </trkpt><trkpt lat="50.910728015" lon="7.00176397339">
        <ele>49.2</ele>
        <time>2014-04-18T12:17:19Z</time>
      </trkpt><trkpt lat="50.9106629714" lon="7.00169901364">
        <ele>49.2</ele>
        <time>2014-04-18T12:17:19Z</time>
      </trkpt><trkpt lat="50.9105840139" lon="7.00161502697">
        <ele>49.2</ele>
        <time>2014-04-18T12:17:20Z</time>
      </trkpt><trkpt lat="50.909602996" lon="7.00050702319">
        <ele>50.6</ele>
        <time>2014-04-18T12:17:31Z</time>
      </trkpt><trkpt lat="50.9086870216" lon="6.99941502884">
        <ele>52.5</ele>
        <time>2014-04-18T12:17:41Z</time>
      </trkpt><trkpt lat="50.9085639752" lon="6.99935995974">
        <ele>52.5</ele>
        <time>2014-04-18T12:17:42Z</time>
      </trkpt><trkpt lat="50.9084310383" lon="6.99933297001">
        <ele>52.5</ele>
        <time>2014-04-18T12:17:43Z</time>
      </trkpt><trkpt lat="50.908295" lon="6.9993250072">
        <ele>52.5</ele>
        <time>2014-04-18T12:17:44Z</time>
      </trkpt><trkpt lat="50.9081550222" lon="6.99933196418">
        <ele>52.5</ele>
        <time>2014-04-18T12:17:46Z</time>
      </trkpt><trkpt lat="50.9080140386" lon="6.99934001081">
        <ele>52.5</ele>
        <time>2014-04-18T12:17:47Z</time>
      </trkpt><trkpt lat="50.9077400342" lon="6.99935400859">
        <ele>53</ele>
        <time>2014-04-18T12:17:49Z</time>
      </trkpt><trkpt lat="50.9076100308" lon="6.99936096556">
        <ele>53</ele>
        <time>2014-04-18T12:17:50Z</time>
      </trkpt><trkpt lat="50.9074950311" lon="6.99932903051">
        <ele>53.5</ele>
        <time>2014-04-18T12:17:52Z</time>
      </trkpt><trkpt lat="50.9073839709" lon="6.99926298112">
        <ele>53.5</ele>
        <time>2014-04-18T12:17:53Z</time>
      </trkpt><trkpt lat="50.9072689712" lon="6.99919600971">
        <ele>53.5</ele>
        <time>2014-04-18T12:17:54Z</time>
      </trkpt><trkpt lat="50.9071480203" lon="6.99912400916">
        <ele>53.5</ele>
        <time>2014-04-18T12:17:55Z</time>
      </trkpt><trkpt lat="50.9070220403" lon="6.99904999696">
        <ele>53.5</ele>
        <time>2014-04-18T12:17:56Z</time>
      </trkpt><trkpt lat="50.906886002" lon="6.9989700336">
        <ele>53.5</ele>
        <time>2014-04-18T12:17:57Z</time>
      </trkpt><trkpt lat="50.9057159722" lon="6.99764602818">
        <ele>54.5</ele>
        <time>2014-04-18T12:18:10Z</time>
      </trkpt><trkpt lat="50.9042929765" lon="6.9958989881">
        <ele>55.9</ele>
        <time>2014-04-18T12:18:26Z</time>
      </trkpt><trkpt lat="50.9027920291" lon="6.99402102269">
        <ele>57.8</ele>
        <time>2014-04-18T12:18:43Z</time>
      </trkpt><trkpt lat="50.9011559654" lon="6.99204599485">
        <ele>60.2</ele>
        <time>2014-04-18T12:19:01Z</time>
      </trkpt><trkpt lat="50.897813011" lon="6.988133993">
        <ele>61.2</ele>
        <time>2014-04-18T12:19:37Z</time>
      </trkpt><trkpt lat="50.8944520354" lon="6.98443497531">
        <ele>57.8</ele>
        <time>2014-04-18T12:20:13Z</time>
      </trkpt><trkpt lat="50.8908889722" lon="6.98014503345">
        <ele>52.1</ele>
        <time>2014-04-18T12:20:53Z</time>
      </trkpt><trkpt lat="50.8895209618" lon="6.977985017">
        <ele>49.7</ele>
        <time>2014-04-18T12:21:10Z</time>
      </trkpt><trkpt lat="50.8881810308" lon="6.97546902113">
        <ele>47.7</ele>
        <time>2014-04-18T12:21:28Z</time>
      </trkpt><trkpt lat="50.8869359829" lon="6.97234097868">
        <ele>45.8</ele>
        <time>2014-04-18T12:21:49Z</time>
      </trkpt><trkpt lat="50.8858589921" lon="6.96910195984">
        <ele>43.9</ele>
        <time>2014-04-18T12:22:09Z</time>
      </trkpt><trkpt lat="50.8857249655" lon="6.96864103898">
        <ele>43.4</ele>
        <time>2014-04-18T12:22:12Z</time>
      </trkpt><trkpt lat="50.8856650349" lon="6.96840802208">
        <ele>43.4</ele>
        <time>2014-04-18T12:22:13Z</time>
      </trkpt><trkpt lat="50.8852580097" lon="6.96662602946">
        <ele>42.9</ele>
        <time>2014-04-18T12:22:24Z</time>
      </trkpt><trkpt lat="50.8852509689" lon="6.96644104086">
        <ele>42.9</ele>
        <time>2014-04-18T12:22:25Z</time>
      </trkpt><trkpt lat="50.8852730133" lon="6.96626099758">
        <ele>42.9</ele>
        <time>2014-04-18T12:22:26Z</time>
      </trkpt><trkpt lat="50.885337973" lon="6.96610601619">
        <ele>43.4</ele>
        <time>2014-04-18T12:22:27Z</time>
      </trkpt><trkpt lat="50.8854239713" lon="6.9659770187">
        <ele>44.4</ele>
        <time>2014-04-18T12:22:28Z</time>
      </trkpt><trkpt lat="50.8855190221" lon="6.96588397957">
        <ele>44.8</ele>
        <time>2014-04-18T12:22:29Z</time>
      </trkpt><trkpt lat="50.8856200241" lon="6.96580803953">
        <ele>45.3</ele>
        <time>2014-04-18T12:22:30Z</time>
      </trkpt><trkpt lat="50.8857220318" lon="6.965818014">
        <ele>45.8</ele>
        <time>2014-04-18T12:22:31Z</time>
      </trkpt><trkpt lat="50.8858269732" lon="6.9658330176">
        <ele>46.3</ele>
        <time>2014-04-18T12:22:32Z</time>
      </trkpt><trkpt lat="50.8859259635" lon="6.96584701538">
        <ele>46.8</ele>
        <time>2014-04-18T12:22:33Z</time>
      </trkpt><trkpt lat="50.8860050049" lon="6.96592203341">
        <ele>46.3</ele>
        <time>2014-04-18T12:22:33Z</time>
      </trkpt><trkpt lat="50.8860859741" lon="6.96599897929">
        <ele>46.3</ele>
        <time>2014-04-18T12:22:34Z</time>
      </trkpt><trkpt lat="50.8861670271" lon="6.96607600898">
        <ele>46.8</ele>
        <time>2014-04-18T12:22:35Z</time>
      </trkpt><trkpt lat="50.8867870364" lon="6.96667699143">
        <ele>48.2</ele>
        <time>2014-04-18T12:22:41Z</time>
      </trkpt><trkpt lat="50.8868130203" lon="6.96680900641">
        <ele>48.2</ele>
        <time>2014-04-18T12:22:42Z</time>
      </trkpt><trkpt lat="50.8868400101" lon="6.96694202721">
        <ele>48.2</ele>
        <time>2014-04-18T12:22:43Z</time>
      </trkpt><trkpt lat="50.886865994" lon="6.96706901304">
        <ele>48.2</ele>
        <time>2014-04-18T12:22:44Z</time>
      </trkpt><trkpt lat="50.8868700173" lon="6.96716900915">
        <ele>48.7</ele>
        <time>2014-04-18T12:22:44Z</time>
      </trkpt><trkpt lat="50.8868700173" lon="6.96729398333">
        <ele>48.7</ele>
        <time>2014-04-18T12:22:45Z</time>
      </trkpt><trkpt lat="50.8868700173" lon="6.96739196777">
        <ele>49.2</ele>
        <time>2014-04-18T12:22:46Z</time>
      </trkpt><trkpt lat="50.8868179657" lon="6.96747897193">
        <ele>49.7</ele>
        <time>2014-04-18T12:22:46Z</time>
      </trkpt><trkpt lat="50.8867629804" lon="6.9675699994">
        <ele>49.7</ele>
        <time>2014-04-18T12:22:47Z</time>
      </trkpt><trkpt lat="50.8867169637" lon="6.96761501022">
        <ele>50.1</ele>
        <time>2014-04-18T12:22:47Z</time>
      </trkpt><trkpt lat="50.8866370004" lon="6.96764300577">
        <ele>50.6</ele>
        <time>2014-04-18T12:22:48Z</time>
      </trkpt><trkpt lat="50.8865499962" lon="6.96767401882">
        <ele>50.6</ele>
        <time>2014-04-18T12:22:49Z</time>
      </trkpt><trkpt lat="50.8864540234" lon="6.96770796552">
        <ele>51.1</ele>
        <time>2014-04-18T12:22:50Z</time>
      </trkpt><trkpt lat="50.8863410354" lon="6.96774803102">
        <ele>51.1</ele>
        <time>2014-04-18T12:22:51Z</time>
      </trkpt><trkpt lat="50.8852129988" lon="6.96794098243">
        <ele>52.5</ele>
        <time>2014-04-18T12:23:01Z</time>
      </trkpt><trkpt lat="50.8833839837" lon="6.96823895909">
        <ele>52.5</ele>
        <time>2014-04-18T12:23:17Z</time>
      </trkpt><trkpt lat="50.8825359866" lon="6.96846501902">
        <ele>51.1</ele>
        <time>2014-04-18T12:23:25Z</time>
      </trkpt><trkpt lat="50.8805529959" lon="6.96872200817">
        <ele>51.1</ele>
        <time>2014-04-18T12:23:42Z</time>
      </trkpt><trkpt lat="50.8773439843" lon="6.96902199648">
        <ele>49.2</ele>
        <time>2014-04-18T12:24:10Z</time>
      </trkpt><trkpt lat="50.8718909696" lon="6.96960504167">
        <ele>49.2</ele>
        <time>2014-04-18T12:24:59Z</time>
      </trkpt><trkpt lat="50.8681730088" lon="6.96966103278">
        <ele>50.6</ele>
        <time>2014-04-18T12:25:31Z</time>
      </trkpt><trkpt lat="50.8638399839" lon="6.96927797981">
        <ele>52.1</ele>
        <time>2014-04-18T12:26:10Z</time>
      </trkpt><trkpt lat="50.8604110312" lon="6.96896600537">
        <ele>53</ele>
        <time>2014-04-18T12:26:40Z</time>
      </trkpt><trkpt lat="50.8538940176" lon="6.96835999377">
        <ele>56.4</ele>
        <time>2014-04-18T12:27:37Z</time>
      </trkpt><trkpt lat="50.8493370283" lon="6.96793796495">
        <ele>55.9</ele>
        <time>2014-04-18T12:28:18Z</time>
      </trkpt><trkpt lat="50.8454749826" lon="6.96756497025">
        <ele>54.5</ele>
        <time>2014-04-18T12:28:52Z</time>
      </trkpt><trkpt lat="50.8411889803" lon="6.96694303304">
        <ele>54</ele>
        <time>2014-04-18T12:29:30Z</time>
      </trkpt><trkpt lat="50.8371619787" lon="6.965943994">
        <ele>55.9</ele>
        <time>2014-04-18T12:30:06Z</time>
      </trkpt><trkpt lat="50.8324899897" lon="6.96474898607">
        <ele>57.8</ele>
        <time>2014-04-18T12:30:47Z</time>
      </trkpt><trkpt lat="50.8282970265" lon="6.96399101056">
        <ele>56.4</ele>
        <time>2014-04-18T12:31:24Z</time>
      </trkpt><trkpt lat="50.8257269673" lon="6.96438102052">
        <ele>54.9</ele>
        <time>2014-04-18T12:31:47Z</time>
      </trkpt><trkpt lat="50.8234190103" lon="6.96565699764">
        <ele>55.4</ele>
        <time>2014-04-18T12:32:09Z</time>
      </trkpt><trkpt lat="50.8217139635" lon="6.96736296639">
        <ele>55.9</ele>
        <time>2014-04-18T12:32:27Z</time>
      </trkpt><trkpt lat="50.8197820187" lon="6.97022697888">
        <ele>54.9</ele>
        <time>2014-04-18T12:32:50Z</time>
      </trkpt><trkpt lat="50.8173120394" lon="6.97450904176">
        <ele>50.6</ele>
        <time>2014-04-18T12:33:22Z</time>
      </trkpt><trkpt lat="50.8148640208" lon="6.97889897972">
        <ele>54.5</ele>
        <time>2014-04-18T12:33:55Z</time>
      </trkpt><trkpt lat="50.8123640344" lon="6.98334801011">
        <ele>53.5</ele>
        <time>2014-04-18T12:34:28Z</time>
      </trkpt><trkpt lat="50.8105770126" lon="6.98651301675">
        <ele>53</ele>
        <time>2014-04-18T12:34:52Z</time>
      </trkpt><trkpt lat="50.8093749639" lon="6.988680996">
        <ele>53.5</ele>
        <time>2014-04-18T12:35:08Z</time>
      </trkpt><trkpt lat="50.807562964" lon="6.9896750059">
        <ele>54.5</ele>
        <time>2014-04-18T12:35:24Z</time>
      </trkpt><trkpt lat="50.8069619816" lon="6.99043801054">
        <ele>56.9</ele>
        <time>2014-04-18T12:35:31Z</time>
      </trkpt><trkpt lat="50.8067230135" lon="6.99050003663">
        <ele>56.9</ele>
        <time>2014-04-18T12:35:33Z</time>
      </trkpt><trkpt lat="50.8068329841" lon="6.99065200053">
        <ele>57.3</ele>
        <time>2014-04-18T12:35:35Z</time>
      </trkpt><trkpt lat="50.8047609776" lon="6.99040398002">
        <ele>56.9</ele>
        <time>2014-04-18T12:35:53Z</time>
      </trkpt><trkpt lat="50.8034689911" lon="6.99035201222">
        <ele>55.9</ele>
        <time>2014-04-18T12:36:04Z</time>
      </trkpt><trkpt lat="50.8032639697" lon="6.99030498974">
        <ele>55.4</ele>
        <time>2014-04-18T12:36:06Z</time>
      </trkpt><trkpt lat="50.8031600341" lon="6.99023298919">
        <ele>54.9</ele>
        <time>2014-04-18T12:36:07Z</time>
      </trkpt><trkpt lat="50.8030560147" lon="6.98990198784">
        <ele>54.9</ele>
        <time>2014-04-18T12:36:09Z</time>
      </trkpt><trkpt lat="50.8030560147" lon="6.98975203559">
        <ele>54.9</ele>
        <time>2014-04-18T12:36:10Z</time>
      </trkpt><trkpt lat="50.8030560147" lon="6.98961499147">
        <ele>55.4</ele>
        <time>2014-04-18T12:36:11Z</time>
      </trkpt><trkpt lat="50.8030560147" lon="6.98949596845">
        <ele>55.4</ele>
        <time>2014-04-18T12:36:12Z</time>
      </trkpt><trkpt lat="50.8030560147" lon="6.98939203285">
        <ele>55.9</ele>
        <time>2014-04-18T12:36:12Z</time>
      </trkpt><trkpt lat="50.8030990139" lon="6.98919296265">
        <ele>55.9</ele>
        <time>2014-04-18T12:36:13Z</time>
      </trkpt><trkpt lat="50.8031039592" lon="6.9891799707">
        <ele>55.9</ele>
        <time>2014-04-18T12:36:13Z</time>
      </trkpt><trkpt lat="50.8031280152" lon="6.98910696432">
        <ele>55.9</ele>
        <time>2014-04-18T12:36:14Z</time>
      </trkpt><trkpt lat="50.8031229861" lon="6.98904502206">
        <ele>55.4</ele>
        <time>2014-04-18T12:36:14Z</time>
      </trkpt><trkpt lat="50.8030700125" lon="6.98902096599">
        <ele>55.4</ele>
        <time>2014-04-18T12:36:15Z</time>
      </trkpt><trkpt lat="50.8030130155" lon="6.98902096599">
        <ele>54.9</ele>
        <time>2014-04-18T12:36:15Z</time>
      </trkpt><trkpt lat="50.8028550167" lon="6.98874997906">
        <ele>54.9</ele>
        <time>2014-04-18T12:36:17Z</time>
      </trkpt><trkpt lat="50.8021729812" lon="6.98742203414">
        <ele>54.5</ele>
        <time>2014-04-18T12:36:27Z</time>
      </trkpt><trkpt lat="50.8011580165" lon="6.98538498022">
        <ele>53.5</ele>
        <time>2014-04-18T12:36:41Z</time>
      </trkpt><trkpt lat="50.8003049903" lon="6.98418200947">
        <ele>53.5</ele>
        <time>2014-04-18T12:36:51Z</time>
      </trkpt><trkpt lat="50.80016803" lon="6.98402996175">
        <ele>53.5</ele>
        <time>2014-04-18T12:36:53Z</time>
      </trkpt><trkpt lat="50.7987769693" lon="6.98263898492">
        <ele>53.5</ele>
        <time>2014-04-18T12:37:07Z</time>
      </trkpt><trkpt lat="50.7981719635" lon="6.98195099831">
        <ele>53</ele>
        <time>2014-04-18T12:37:14Z</time>
      </trkpt><trkpt lat="50.7980719674" lon="6.98177397251">
        <ele>53</ele>
        <time>2014-04-18T12:37:15Z</time>
      </trkpt><trkpt lat="50.7979680318" lon="6.98158797808">
        <ele>52.5</ele>
        <time>2014-04-18T12:37:17Z</time>
      </trkpt><trkpt lat="50.7973330189" lon="6.97976499796">
        <ele>52.5</ele>
        <time>2014-04-18T12:37:28Z</time>
      </trkpt><trkpt lat="50.7964179665" lon="6.97763297707">
        <ele>52.5</ele>
        <time>2014-04-18T12:37:42Z</time>
      </trkpt><trkpt lat="50.7953289896" lon="6.97570203803">
        <ele>53.5</ele>
        <time>2014-04-18T12:37:57Z</time>
      </trkpt><trkpt lat="50.7935299817" lon="6.97289401665">
        <ele>54</ele>
        <time>2014-04-18T12:38:19Z</time>
      </trkpt><trkpt lat="50.7930040173" lon="6.97117798962">
        <ele>53.5</ele>
        <time>2014-04-18T12:38:30Z</time>
      </trkpt><trkpt lat="50.7928139996" lon="6.9686309807">
        <ele>53.5</ele>
        <time>2014-04-18T12:38:44Z</time>
      </trkpt><trkpt lat="50.7926480379" lon="6.9662729837">
        <ele>59.7</ele>
        <time>2014-04-18T12:38:57Z</time>
      </trkpt><trkpt lat="50.7924389932" lon="6.96421204135">
        <ele>66.5</ele>
        <time>2014-04-18T12:39:09Z</time>
      </trkpt><trkpt lat="50.792251993" lon="6.9633750245">
        <ele>68.9</ele>
        <time>2014-04-18T12:39:14Z</time>
      </trkpt><trkpt lat="50.7921809983" lon="6.96319003589">
        <ele>69.4</ele>
        <time>2014-04-18T12:39:15Z</time>
      </trkpt><trkpt lat="50.791817978" lon="6.96238403209">
        <ele>69.8</ele>
        <time>2014-04-18T12:39:21Z</time>
      </trkpt><trkpt lat="50.7917899825" lon="6.96219803765">
        <ele>69.8</ele>
        <time>2014-04-18T12:39:22Z</time>
      </trkpt><trkpt lat="50.7917639986" lon="6.96199502796">
        <ele>69.4</ele>
        <time>2014-04-18T12:39:23Z</time>
      </trkpt><trkpt lat="50.7917370088" lon="6.96178296581">
        <ele>69.4</ele>
        <time>2014-04-18T12:39:24Z</time>
      </trkpt><trkpt lat="50.7917080075" lon="6.9615640305">
        <ele>68.9</ele>
        <time>2014-04-18T12:39:25Z</time>
      </trkpt><trkpt lat="50.7916790061" lon="6.96133797057">
        <ele>68.4</ele>
        <time>2014-04-18T12:39:27Z</time>
      </trkpt><trkpt lat="50.7916500047" lon="6.9611099828">
        <ele>67.9</ele>
        <time>2014-04-18T12:39:28Z</time>
      </trkpt><trkpt lat="50.7915950194" lon="6.96088501252">
        <ele>67.4</ele>
        <time>2014-04-18T12:39:29Z</time>
      </trkpt><trkpt lat="50.79152897" lon="6.96066599339">
        <ele>67</ele>
        <time>2014-04-18T12:39:31Z</time>
      </trkpt><trkpt lat="50.7914640103" lon="6.96044596843">
        <ele>66.5</ele>
        <time>2014-04-18T12:39:32Z</time>
      </trkpt><trkpt lat="50.7905209623" lon="6.95738699287">
        <ele>64.6</ele>
        <time>2014-04-18T12:39:51Z</time>
      </trkpt><trkpt lat="50.7903750334" lon="6.95690696128">
        <ele>64.6</ele>
        <time>2014-04-18T12:39:54Z</time>
      </trkpt><trkpt lat="50.7903379854" lon="6.95672700182">
        <ele>64.1</ele>
        <time>2014-04-18T12:39:55Z</time>
      </trkpt><trkpt lat="50.7903290167" lon="6.95666296408">
        <ele>64.1</ele>
        <time>2014-04-18T12:39:55Z</time>
      </trkpt><trkpt lat="50.7903189585" lon="6.9565969985">
        <ele>64.1</ele>
        <time>2014-04-18T12:39:56Z</time>
      </trkpt><trkpt lat="50.7903099898" lon="6.95653396659">
        <ele>64.1</ele>
        <time>2014-04-18T12:39:56Z</time>
      </trkpt><trkpt lat="50.7902900409" lon="6.95647202432">
        <ele>64.1</ele>
        <time>2014-04-18T12:39:56Z</time>
      </trkpt><trkpt lat="50.7902679965" lon="6.95640597492">
        <ele>64.1</ele>
        <time>2014-04-18T12:39:57Z</time>
      </trkpt><trkpt lat="50.7901489735" lon="6.95635803044">
        <ele>64.1</ele>
        <time>2014-04-18T12:39:58Z</time>
      </trkpt><trkpt lat="50.7900669985" lon="6.95632500574">
        <ele>64.1</ele>
        <time>2014-04-18T12:39:59Z</time>
      </trkpt><trkpt lat="50.7896790002" lon="6.95624797605">
        <ele>64.6</ele>
        <time>2014-04-18T12:40:02Z</time>
      </trkpt><trkpt lat="50.7895739749" lon="6.95623800159">
        <ele>64.6</ele>
        <time>2014-04-18T12:40:03Z</time>
      </trkpt><trkpt lat="50.7894520182" lon="6.95622903295">
        <ele>64.6</ele>
        <time>2014-04-18T12:40:04Z</time>
      </trkpt><trkpt lat="50.7880039606" lon="6.95614202879">
        <ele>66.5</ele>
        <time>2014-04-18T12:40:17Z</time>
      </trkpt><trkpt lat="50.7863900252" lon="6.95589803159">
        <ele>67.4</ele>
        <time>2014-04-18T12:40:31Z</time>
      </trkpt><trkpt lat="50.785844028" lon="6.95573500358">
        <ele>67</ele>
        <time>2014-04-18T12:40:36Z</time>
      </trkpt><trkpt lat="50.7857179642" lon="6.95566300303">
        <ele>66.5</ele>
        <time>2014-04-18T12:40:37Z</time>
      </trkpt><trkpt lat="50.7855820097" lon="6.95558203384">
        <ele>66.5</ele>
        <time>2014-04-18T12:40:38Z</time>
      </trkpt><trkpt lat="50.7844139915" lon="6.95446296595">
        <ele>65</ele>
        <time>2014-04-18T12:40:51Z</time>
      </trkpt><trkpt lat="50.7841639593" lon="6.95425501093">
        <ele>65</ele>
        <time>2014-04-18T12:40:53Z</time>
      </trkpt><trkpt lat="50.7840929646" lon="6.95421997458">
        <ele>65</ele>
        <time>2014-04-18T12:40:54Z</time>
      </trkpt><trkpt lat="50.7839900348" lon="6.95401797071">
        <ele>65</ele>
        <time>2014-04-18T12:40:55Z</time>
      </trkpt><trkpt lat="50.7839809824" lon="6.95390498266">
        <ele>65</ele>
        <time>2014-04-18T12:40:56Z</time>
      </trkpt><trkpt lat="50.7837460376" lon="6.95220001973">
        <ele>64.1</ele>
        <time>2014-04-18T12:41:05Z</time>
      </trkpt><trkpt lat="50.7835010346" lon="6.95067702793">
        <ele>64.1</ele>
        <time>2014-04-18T12:41:14Z</time>
      </trkpt><trkpt lat="50.7829100266" lon="6.94855296984">
        <ele>65</ele>
        <time>2014-04-18T12:41:27Z</time>
      </trkpt><trkpt lat="50.7821939606" lon="6.9470540341">
        <ele>65.5</ele>
        <time>2014-04-18T12:41:38Z</time>
      </trkpt><trkpt lat="50.7813000306" lon="6.94534001872">
        <ele>67</ele>
        <time>2014-04-18T12:41:50Z</time>
      </trkpt><trkpt lat="50.7803689688" lon="6.94313499145">
        <ele>68.9</ele>
        <time>2014-04-18T12:42:05Z</time>
      </trkpt><trkpt lat="50.7790980209" lon="6.93983101286">
        <ele>71.3</ele>
        <time>2014-04-18T12:42:26Z</time>
      </trkpt><trkpt lat="50.778216999" lon="6.93804499693">
        <ele>73.2</ele>
        <time>2014-04-18T12:42:39Z</time>
      </trkpt><trkpt lat="50.7767800055" lon="6.93562698551">
        <ele>79.9</ele>
        <time>2014-04-18T12:42:57Z</time>
      </trkpt><trkpt lat="50.7756190281" lon="6.9342039898">
        <ele>80.9</ele>
        <time>2014-04-18T12:43:10Z</time>
      </trkpt><trkpt lat="50.7744090166" lon="6.93316597492">
        <ele>80.9</ele>
        <time>2014-04-18T12:43:22Z</time>
      </trkpt><trkpt lat="50.7736920286" lon="6.93261997774">
        <ele>82.3</ele>
        <time>2014-04-18T12:43:30Z</time>
      </trkpt><trkpt lat="50.7729450334" lon="6.93176301196">
        <ele>83.8</ele>
        <time>2014-04-18T12:43:38Z</time>
      </trkpt><trkpt lat="50.7719899993" lon="6.93041402847">
        <ele>86.7</ele>
        <time>2014-04-18T12:43:49Z</time>
      </trkpt><trkpt lat="50.7707570214" lon="6.92871803418">
        <ele>91.5</ele>
        <time>2014-04-18T12:44:03Z</time>
      </trkpt><trkpt lat="50.7696040068" lon="6.92731699906">
        <ele>97.7</ele>
        <time>2014-04-18T12:44:16Z</time>
      </trkpt><trkpt lat="50.7688130066" lon="6.9259879645">
        <ele>104.9</ele>
        <time>2014-04-18T12:44:26Z</time>
      </trkpt><trkpt lat="50.7679400314" lon="6.92432499491">
        <ele>119.8</ele>
        <time>2014-04-18T12:44:38Z</time>
      </trkpt><trkpt lat="50.7677719742" lon="6.92388603464">
        <ele>121.3</ele>
        <time>2014-04-18T12:44:41Z</time>
      </trkpt><trkpt lat="50.7677149773" lon="6.92365896888">
        <ele>123.2</ele>
        <time>2014-04-18T12:44:43Z</time>
      </trkpt><trkpt lat="50.7676699664" lon="6.9234339986">
        <ele>124.6</ele>
        <time>2014-04-18T12:44:44Z</time>
      </trkpt><trkpt lat="50.7676510233" lon="6.92319897003">
        <ele>125.6</ele>
        <time>2014-04-18T12:44:45Z</time>
      </trkpt><trkpt lat="50.7676800247" lon="6.9229610078">
        <ele>127</ele>
        <time>2014-04-18T12:44:47Z</time>
      </trkpt><trkpt lat="50.7677240297" lon="6.92273695953">
        <ele>128</ele>
        <time>2014-04-18T12:44:48Z</time>
      </trkpt><trkpt lat="50.7677680347" lon="6.92251802422">
        <ele>128.5</ele>
        <time>2014-04-18T12:44:49Z</time>
      </trkpt><trkpt lat="50.7678220142" lon="6.92231903784">
        <ele>129.4</ele>
        <time>2014-04-18T12:44:50Z</time>
      </trkpt><trkpt lat="50.7678769995" lon="6.92213597707">
        <ele>129.9</ele>
        <time>2014-04-18T12:44:51Z</time>
      </trkpt><trkpt lat="50.7680120319" lon="6.92147498019">
        <ele>131.8</ele>
        <time>2014-04-18T12:44:55Z</time>
      </trkpt><trkpt lat="50.7680280413" lon="6.92131203599">
        <ele>132.8</ele>
        <time>2014-04-18T12:44:56Z</time>
      </trkpt><trkpt lat="50.7680159714" lon="6.92114498466">
        <ele>133.3</ele>
        <time>2014-04-18T12:44:57Z</time>
      </trkpt><trkpt lat="50.7679709606" lon="6.92099302076">
        <ele>133.8</ele>
        <time>2014-04-18T12:44:58Z</time>
      </trkpt><trkpt lat="50.7679250278" lon="6.92083896138">
        <ele>134.2</ele>
        <time>2014-04-18T12:44:59Z</time>
      </trkpt><trkpt lat="50.7678699587" lon="6.92069303244">
        <ele>134.7</ele>
        <time>2014-04-18T12:45:00Z</time>
      </trkpt><trkpt lat="50.7673399709" lon="6.91948000342">
        <ele>140.5</ele>
        <time>2014-04-18T12:45:08Z</time>
      </trkpt><trkpt lat="50.7672669645" lon="6.91935603507">
        <ele>141.5</ele>
        <time>2014-04-18T12:45:09Z</time>
      </trkpt><trkpt lat="50.7666130085" lon="6.91827200353">
        <ele>151.5</ele>
        <time>2014-04-18T12:45:18Z</time>
      </trkpt><trkpt lat="50.7665010262" lon="6.91806295887">
        <ele>152.5</ele>
        <time>2014-04-18T12:45:19Z</time>
      </trkpt><trkpt lat="50.7664659899" lon="6.91793203354">
        <ele>153</ele>
        <time>2014-04-18T12:45:20Z</time>
      </trkpt><trkpt lat="50.7664329652" lon="6.91780203022">
        <ele>154</ele>
        <time>2014-04-18T12:45:21Z</time>
      </trkpt><trkpt lat="50.7664069813" lon="6.9176499825">
        <ele>154.4</ele>
        <time>2014-04-18T12:45:22Z</time>
      </trkpt><trkpt lat="50.7664069813" lon="6.91749298945">
        <ele>154.9</ele>
        <time>2014-04-18T12:45:22Z</time>
      </trkpt><trkpt lat="50.7664069813" lon="6.91732903942">
        <ele>155.9</ele>
        <time>2014-04-18T12:45:23Z</time>
      </trkpt><trkpt lat="50.7664069813" lon="6.91716500558">
        <ele>156.4</ele>
        <time>2014-04-18T12:45:24Z</time>
      </trkpt><trkpt lat="50.7664069813" lon="6.91699996591">
        <ele>156.8</ele>
        <time>2014-04-18T12:45:25Z</time>
      </trkpt><trkpt lat="50.766396001" lon="6.91637501121">
        <ele>158.3</ele>
        <time>2014-04-18T12:45:29Z</time>
      </trkpt><trkpt lat="50.7663749624" lon="6.91623201594">
        <ele>158.8</ele>
        <time>2014-04-18T12:45:29Z</time>
      </trkpt><trkpt lat="50.7663440332" lon="6.9161050301">
        <ele>159.2</ele>
        <time>2014-04-18T12:45:30Z</time>
      </trkpt><trkpt lat="50.7662889641" lon="6.91597703844">
        <ele>159.2</ele>
        <time>2014-04-18T12:45:31Z</time>
      </trkpt><trkpt lat="50.7662319671" lon="6.91584502347">
        <ele>159.7</ele>
        <time>2014-04-18T12:45:32Z</time>
      </trkpt><trkpt lat="50.7658230141" lon="6.91518603824">
        <ele>159.7</ele>
        <time>2014-04-18T12:45:37Z</time>
      </trkpt><trkpt lat="50.7657329924" lon="6.91511403769">
        <ele>159.7</ele>
        <time>2014-04-18T12:45:38Z</time>
      </trkpt><trkpt lat="50.7655540388" lon="6.91500498913">
        <ele>159.2</ele>
        <time>2014-04-18T12:45:40Z</time>
      </trkpt><trkpt lat="50.7654640172" lon="6.91497196443">
        <ele>159.2</ele>
        <time>2014-04-18T12:45:41Z</time>
      </trkpt><trkpt lat="50.7649760228" lon="6.91478798166">
        <ele>158.8</ele>
        <time>2014-04-18T12:45:45Z</time>
      </trkpt><trkpt lat="50.7648819778" lon="6.91470500082">
        <ele>158.8</ele>
        <time>2014-04-18T12:45:46Z</time>
      </trkpt><trkpt lat="50.7647910342" lon="6.91460399888">
        <ele>158.3</ele>
        <time>2014-04-18T12:45:47Z</time>
      </trkpt><trkpt lat="50.7646969892" lon="6.91449897364">
        <ele>158.3</ele>
        <time>2014-04-18T12:45:48Z</time>
      </trkpt><trkpt lat="50.7646010164" lon="6.91439302638">
        <ele>158.3</ele>
        <time>2014-04-18T12:45:49Z</time>
      </trkpt><trkpt lat="50.7637149654" lon="6.91277699545">
        <ele>156.8</ele>
        <time>2014-04-18T12:46:01Z</time>
      </trkpt><trkpt lat="50.7629559841" lon="6.91119801253">
        <ele>155.4</ele>
        <time>2014-04-18T12:46:12Z</time>
      </trkpt><trkpt lat="50.7622769661" lon="6.91047800705">
        <ele>154.4</ele>
        <time>2014-04-18T12:46:19Z</time>
      </trkpt><trkpt lat="50.7620700169" lon="6.91031699069">
        <ele>154.4</ele>
        <time>2014-04-18T12:46:21Z</time>
      </trkpt><trkpt lat="50.7603489608" lon="6.90905903466">
        <ele>151.5</ele>
        <time>2014-04-18T12:46:38Z</time>
      </trkpt><trkpt lat="50.7579079829" lon="6.90670698881">
        <ele>150.1</ele>
        <time>2014-04-18T12:47:03Z</time>
      </trkpt><trkpt lat="50.7566510327" lon="6.90523898229">
        <ele>149.6</ele>
        <time>2014-04-18T12:47:17Z</time>
      </trkpt><trkpt lat="50.7564460114" lon="6.9050769601">
        <ele>149.6</ele>
        <time>2014-04-18T12:47:19Z</time>
      </trkpt><trkpt lat="50.7562239747" lon="6.90498903394">
        <ele>149.6</ele>
        <time>2014-04-18T12:47:21Z</time>
      </trkpt><trkpt lat="50.7543089613" lon="6.9042859599">
        <ele>148.7</ele>
        <time>2014-04-18T12:47:38Z</time>
      </trkpt><trkpt lat="50.7522170059" lon="6.90379201435">
        <ele>148.7</ele>
        <time>2014-04-18T12:47:57Z</time>
      </trkpt><trkpt lat="50.7497160137" lon="6.90371800214">
        <ele>149.6</ele>
        <time>2014-04-18T12:48:19Z</time>
      </trkpt><trkpt lat="50.7483080216" lon="6.9031549897">
        <ele>151.1</ele>
        <time>2014-04-18T12:48:32Z</time>
      </trkpt><trkpt lat="50.7469010353" lon="6.9016390387">
        <ele>153.5</ele>
        <time>2014-04-18T12:48:47Z</time>
      </trkpt><trkpt lat="50.7452069689" lon="6.89985796809">
        <ele>157.3</ele>
        <time>2014-04-18T12:49:05Z</time>
      </trkpt><trkpt lat="50.7433620282" lon="6.89821301959">
        <ele>159.7</ele>
        <time>2014-04-18T12:49:23Z</time>
      </trkpt><trkpt lat="50.7419110369" lon="6.89760097302">
        <ele>158.3</ele>
        <time>2014-04-18T12:49:36Z</time>
      </trkpt><trkpt lat="50.7402769849" lon="6.89760901965">
        <ele>155.4</ele>
        <time>2014-04-18T12:49:51Z</time>
      </trkpt><trkpt lat="50.7381250151" lon="6.89821301959">
        <ele>152.5</ele>
        <time>2014-04-18T12:50:10Z</time>
      </trkpt><trkpt lat="50.7358700316" lon="6.89846196212">
        <ele>144.3</ele>
        <time>2014-04-18T12:50:30Z</time>
      </trkpt><trkpt lat="50.7344740257" lon="6.89782300964">
        <ele>136.6</ele>
        <time>2014-04-18T12:50:43Z</time>
      </trkpt><trkpt lat="50.7333269622" lon="6.89658198506">
        <ele>129.4</ele>
        <time>2014-04-18T12:50:55Z</time>
      </trkpt><trkpt lat="50.7324639615" lon="6.89500803128">
        <ele>126.1</ele>
        <time>2014-04-18T12:51:07Z</time>
      </trkpt><trkpt lat="50.7320460398" lon="6.89420102164">
        <ele>124.6</ele>
        <time>2014-04-18T12:51:13Z</time>
      </trkpt><trkpt lat="50.7319809962" lon="6.89407403581">
        <ele>124.2</ele>
        <time>2014-04-18T12:51:13Z</time>
      </trkpt><trkpt lat="50.7319590356" lon="6.89403296448">
        <ele>124.2</ele>
        <time>2014-04-18T12:51:14Z</time>
      </trkpt><trkpt lat="50.7318720315" lon="6.8941039592">
        <ele>124.6</ele>
        <time>2014-04-18T12:51:15Z</time>
      </trkpt><trkpt lat="50.7318029646" lon="6.89419297501">
        <ele>124.2</ele>
        <time>2014-04-18T12:51:15Z</time>
      </trkpt><trkpt lat="50.7317230012" lon="6.89430001192">
        <ele>124.2</ele>
        <time>2014-04-18T12:51:16Z</time>
      </trkpt><trkpt lat="50.7309610024" lon="6.89527398907">
        <ele>126.1</ele>
        <time>2014-04-18T12:51:25Z</time>
      </trkpt><trkpt lat="50.7296270225" lon="6.89691399224">
        <ele>129.9</ele>
        <time>2014-04-18T12:51:40Z</time>
      </trkpt><trkpt lat="50.7276000269" lon="6.89951397479">
        <ele>128.5</ele>
        <time>2014-04-18T12:52:03Z</time>
      </trkpt><trkpt lat="50.7249530219" lon="6.90311601385">
        <ele>128</ele>
        <time>2014-04-18T12:52:34Z</time>
      </trkpt><trkpt lat="50.7241020072" lon="6.9046219904">
        <ele>129</ele>
        <time>2014-04-18T12:52:45Z</time>
      </trkpt><trkpt lat="50.7238549925" lon="6.90500403754">
        <ele>129.4</ele>
        <time>2014-04-18T12:52:48Z</time>
      </trkpt><trkpt lat="50.7237109914" lon="6.9051760342">
        <ele>129.9</ele>
        <time>2014-04-18T12:52:50Z</time>
      </trkpt><trkpt lat="50.7235619612" lon="6.90535096452">
        <ele>129.9</ele>
        <time>2014-04-18T12:52:51Z</time>
      </trkpt><trkpt lat="50.7226329949" lon="6.906152023">
        <ele>129.9</ele>
        <time>2014-04-18T12:53:01Z</time>
      </trkpt><trkpt lat="50.7215450238" lon="6.90699700266">
        <ele>129.4</ele>
        <time>2014-04-18T12:53:11Z</time>
      </trkpt><trkpt lat="50.7214059681" lon="6.90706598572">
        <ele>129.4</ele>
        <time>2014-04-18T12:53:12Z</time>
      </trkpt><trkpt lat="50.721336985" lon="6.90710001625">
        <ele>129.9</ele>
        <time>2014-04-18T12:53:13Z</time>
      </trkpt><trkpt lat="50.7212690078" lon="6.90713396296">
        <ele>129.9</ele>
        <time>2014-04-18T12:53:14Z</time>
      </trkpt><trkpt lat="50.7212069817" lon="6.907164976">
        <ele>129.4</ele>
        <time>2014-04-18T12:53:14Z</time>
      </trkpt><trkpt lat="50.7211430278" lon="6.90719699487">
        <ele>129.9</ele>
        <time>2014-04-18T12:53:15Z</time>
      </trkpt><trkpt lat="50.7210739609" lon="6.90723203123">
        <ele>129.9</ele>
        <time>2014-04-18T12:53:16Z</time>
      </trkpt><trkpt lat="50.7209199853" lon="6.9073089771">
        <ele>130.4</ele>
        <time>2014-04-18T12:53:17Z</time>
      </trkpt><trkpt lat="50.7208390161" lon="6.90734895878">
        <ele>130.9</ele>
        <time>2014-04-18T12:53:18Z</time>
      </trkpt><trkpt lat="50.7207570411" lon="6.9073900301">
        <ele>130.9</ele>
        <time>2014-04-18T12:53:18Z</time>
      </trkpt><trkpt lat="50.7206759881" lon="6.90743101761">
        <ele>130.9</ele>
        <time>2014-04-18T12:53:19Z</time>
      </trkpt><trkpt lat="50.7205909956" lon="6.90747301094">
        <ele>130.9</ele>
        <time>2014-04-18T12:53:20Z</time>
      </trkpt><trkpt lat="50.7205210067" lon="6.90753503703">
        <ele>130.9</ele>
        <time>2014-04-18T12:53:21Z</time>
      </trkpt><trkpt lat="50.7204530295" lon="6.90760200843">
        <ele>130.9</ele>
        <time>2014-04-18T12:53:21Z</time>
      </trkpt><trkpt lat="50.7203839626" lon="6.9076709915">
        <ele>130.4</ele>
        <time>2014-04-18T12:53:22Z</time>
      </trkpt><trkpt lat="50.7194600254" lon="6.90853097476">
        <ele>129</ele>
        <time>2014-04-18T12:53:32Z</time>
      </trkpt><trkpt lat="50.7192880288" lon="6.90870196559">
        <ele>129</ele>
        <time>2014-04-18T12:53:33Z</time>
      </trkpt><trkpt lat="50.7192089874" lon="6.90881998278">
        <ele>129</ele>
        <time>2014-04-18T12:53:34Z</time>
      </trkpt><trkpt lat="50.7183019817" lon="6.91040500067">
        <ele>130.4</ele>
        <time>2014-04-18T12:53:46Z</time>
      </trkpt><trkpt lat="50.7178170048" lon="6.91125299782">
        <ele>131.4</ele>
        <time>2014-04-18T12:53:53Z</time>
      </trkpt><trkpt lat="50.7177200262" lon="6.91141200252">
        <ele>131.8</ele>
        <time>2014-04-18T12:53:54Z</time>
      </trkpt><trkpt lat="50.7176119834" lon="6.91154401749">
        <ele>132.3</ele>
        <time>2014-04-18T12:53:55Z</time>
      </trkpt><trkpt lat="50.7169430237" lon="6.9123240374">
        <ele>132.8</ele>
        <time>2014-04-18T12:54:02Z</time>
      </trkpt><trkpt lat="50.7159800269" lon="6.91332802176">
        <ele>134.7</ele>
        <time>2014-04-18T12:54:13Z</time>
      </trkpt><trkpt lat="50.7156959642" lon="6.9134959951">
        <ele>135.2</ele>
        <time>2014-04-18T12:54:15Z</time>
      </trkpt><trkpt lat="50.7156040147" lon="6.91354704089">
        <ele>135.2</ele>
        <time>2014-04-18T12:54:16Z</time>
      </trkpt><trkpt lat="50.7155519631" lon="6.91357595846">
        <ele>135.7</ele>
        <time>2014-04-18T12:54:17Z</time>
      </trkpt><trkpt lat="50.7155020069" lon="6.91341896541">
        <ele>136.2</ele>
        <time>2014-04-18T12:54:18Z</time>
      </trkpt><trkpt lat="50.7154659647" lon="6.91330698319">
        <ele>136.6</ele>
        <time>2014-04-18T12:54:18Z</time>
      </trkpt><trkpt lat="50.7148840092" lon="6.91331796348">
        <ele>137.6</ele>
        <time>2014-04-18T12:54:23Z</time>
      </trkpt><trkpt lat="50.7147929817" lon="6.91328099929">
        <ele>137.6</ele>
        <time>2014-04-18T12:54:24Z</time>
      </trkpt><trkpt lat="50.714677982" lon="6.91328602843">
        <ele>138.1</ele>
        <time>2014-04-18T12:54:25Z</time>
      </trkpt><trkpt lat="50.7145700231" lon="6.91329700872">
        <ele>138.1</ele>
        <time>2014-04-18T12:54:26Z</time>
      </trkpt><trkpt lat="50.7144570351" lon="6.91330798902">
        <ele>138.1</ele>
        <time>2014-04-18T12:54:27Z</time>
      </trkpt><trkpt lat="50.7138559688" lon="6.91353396513">
        <ele>138.6</ele>
        <time>2014-04-18T12:54:33Z</time>
      </trkpt><trkpt lat="50.7137699705" lon="6.91360797733">
        <ele>138.6</ele>
        <time>2014-04-18T12:54:33Z</time>
      </trkpt><trkpt lat="50.7137070224" lon="6.91372599453">
        <ele>138.6</ele>
        <time>2014-04-18T12:54:34Z</time>
      </trkpt><trkpt lat="50.7137070224" lon="6.9138910342">
        <ele>138.1</ele>
        <time>2014-04-18T12:54:35Z</time>
      </trkpt><trkpt lat="50.7137070224" lon="6.91413402557">
        <ele>138.1</ele>
        <time>2014-04-18T12:54:37Z</time>
      </trkpt><trkpt lat="50.713722026" lon="6.91425598226">
        <ele>137.6</ele>
        <time>2014-04-18T12:54:37Z</time>
      </trkpt><trkpt lat="50.713747004" lon="6.91444700584">
        <ele>137.6</ele>
        <time>2014-04-18T12:54:38Z</time>
      </trkpt><trkpt lat="50.7140120398" lon="6.91639596596">
        <ele>134.7</ele>
        <time>2014-04-18T12:54:50Z</time>
      </trkpt><trkpt lat="50.7140309829" lon="6.91717498004">
        <ele>134.2</ele>
        <time>2014-04-18T12:54:54Z</time>
      </trkpt><trkpt lat="50.714011034" lon="6.91739399917">
        <ele>134.2</ele>
        <time>2014-04-18T12:54:55Z</time>
      </trkpt><trkpt lat="50.713960994" lon="6.9175980147">
        <ele>134.2</ele>
        <time>2014-04-18T12:54:56Z</time>
      </trkpt><trkpt lat="50.7138910051" lon="6.91778702661">
        <ele>134.2</ele>
        <time>2014-04-18T12:54:58Z</time>
      </trkpt><trkpt lat="50.713791009" lon="6.91794795915">
        <ele>134.2</ele>
        <time>2014-04-18T12:54:59Z</time>
      </trkpt><trkpt lat="50.7136819605" lon="6.91810696386">
        <ele>134.2</ele>
        <time>2014-04-18T12:55:00Z</time>
      </trkpt><trkpt lat="50.7135470118" lon="6.91824199632">
        <ele>134.7</ele>
        <time>2014-04-18T12:55:02Z</time>
      </trkpt><trkpt lat="50.7128249947" lon="6.91903802566">
        <ele>136.2</ele>
        <time>2014-04-18T12:55:09Z</time>
      </trkpt><trkpt lat="50.7126669958" lon="6.91914003342">
        <ele>136.6</ele>
        <time>2014-04-18T12:55:11Z</time>
      </trkpt><trkpt lat="50.7125100028" lon="6.91924103536">
        <ele>137.1</ele>
        <time>2014-04-18T12:55:12Z</time>
      </trkpt><trkpt lat="50.7110099774" lon="6.91998702474">
        <ele>140</ele>
        <time>2014-04-18T12:55:26Z</time>
      </trkpt><trkpt lat="50.7096279692" lon="6.9214790035">
        <ele>139.5</ele>
        <time>2014-04-18T12:55:41Z</time>
      </trkpt><trkpt lat="50.7079889718" lon="6.92321196198">
        <ele>139.5</ele>
        <time>2014-04-18T12:55:58Z</time>
      </trkpt><trkpt lat="50.7065900322" lon="6.92451199517">
        <ele>141.5</ele>
        <time>2014-04-18T12:56:13Z</time>
      </trkpt><trkpt lat="50.7054120395" lon="6.92561295815">
        <ele>142.4</ele>
        <time>2014-04-18T12:56:25Z</time>
      </trkpt><trkpt lat="50.7031699643" lon="6.92761698738">
        <ele>140.5</ele>
        <time>2014-04-18T12:56:47Z</time>
      </trkpt><trkpt lat="50.7019030396" lon="6.92872700281">
        <ele>138.1</ele>
        <time>2014-04-18T12:57:00Z</time>
      </trkpt><trkpt lat="50.7014400233" lon="6.92912497558">
        <ele>136.6</ele>
        <time>2014-04-18T12:57:05Z</time>
      </trkpt><trkpt lat="50.701328041" lon="6.92920502275">
        <ele>136.6</ele>
        <time>2014-04-18T12:57:06Z</time>
      </trkpt><trkpt lat="50.7001369726" lon="6.9297579769">
        <ele>134.7</ele>
        <time>2014-04-18T12:57:17Z</time>
      </trkpt><trkpt lat="50.6989350077" lon="6.93036197685">
        <ele>134.7</ele>
        <time>2014-04-18T12:57:28Z</time>
      </trkpt><trkpt lat="50.6981900241" lon="6.93082700484">
        <ele>136.2</ele>
        <time>2014-04-18T12:57:35Z</time>
      </trkpt><trkpt lat="50.6974069867" lon="6.93128599785">
        <ele>137.6</ele>
        <time>2014-04-18T12:57:42Z</time>
      </trkpt><trkpt lat="50.6972889695" lon="6.93131399341">
        <ele>137.1</ele>
        <time>2014-04-18T12:57:43Z</time>
      </trkpt><trkpt lat="50.6970869657" lon="6.93136202171">
        <ele>137.1</ele>
        <time>2014-04-18T12:57:45Z</time>
      </trkpt><trkpt lat="50.6962989829" lon="6.93156503141">
        <ele>136.6</ele>
        <time>2014-04-18T12:57:52Z</time>
      </trkpt><trkpt lat="50.6952250097" lon="6.93192897364">
        <ele>135.7</ele>
        <time>2014-04-18T12:58:02Z</time>
      </trkpt><trkpt lat="50.6943100411" lon="6.9324629847">
        <ele>135.7</ele>
        <time>2014-04-18T12:58:10Z</time>
      </trkpt><trkpt lat="50.6941529643" lon="6.93263799883">
        <ele>135.7</ele>
        <time>2014-04-18T12:58:12Z</time>
      </trkpt><trkpt lat="50.6930499896" lon="6.93386997096">
        <ele>138.6</ele>
        <time>2014-04-18T12:58:24Z</time>
      </trkpt><trkpt lat="50.6914160214" lon="6.93557200022">
        <ele>141</ele>
        <time>2014-04-18T12:58:41Z</time>
      </trkpt><trkpt lat="50.6905039866" lon="6.93695099093">
        <ele>140.5</ele>
        <time>2014-04-18T12:58:52Z</time>
      </trkpt><trkpt lat="50.6903319899" lon="6.93712198175">
        <ele>140.5</ele>
        <time>2014-04-18T12:58:54Z</time>
      </trkpt><trkpt lat="50.6901449896" lon="6.93724100478">
        <ele>141.5</ele>
        <time>2014-04-18T12:58:56Z</time>
      </trkpt><trkpt lat="50.6884049904" lon="6.93819897249">
        <ele>143.9</ele>
        <time>2014-04-18T12:59:12Z</time>
      </trkpt><trkpt lat="50.6882019807" lon="6.93823300302">
        <ele>143.9</ele>
        <time>2014-04-18T12:59:14Z</time>
      </trkpt><trkpt lat="50.6863629911" lon="6.93868897855">
        <ele>144.8</ele>
        <time>2014-04-18T12:59:30Z</time>
      </trkpt><trkpt lat="50.6861780025" lon="6.93879903294">
        <ele>144.3</ele>
        <time>2014-04-18T12:59:32Z</time>
      </trkpt><trkpt lat="50.6859830394" lon="6.93893498741">
        <ele>144.3</ele>
        <time>2014-04-18T12:59:34Z</time>
      </trkpt><trkpt lat="50.6857790239" lon="6.93906700239">
        <ele>144.3</ele>
        <time>2014-04-18T12:59:36Z</time>
      </trkpt><trkpt lat="50.6855640281" lon="6.93918803707">
        <ele>144.8</ele>
        <time>2014-04-18T12:59:38Z</time>
      </trkpt><trkpt lat="50.6853399798" lon="6.93931401707">
        <ele>145.3</ele>
        <time>2014-04-18T12:59:40Z</time>
      </trkpt><trkpt lat="50.6851000059" lon="6.93942398764">
        <ele>145.3</ele>
        <time>2014-04-18T12:59:42Z</time>
      </trkpt><trkpt lat="50.684835976" lon="6.9394740276">
        <ele>145.3</ele>
        <time>2014-04-18T12:59:45Z</time>
      </trkpt><trkpt lat="50.6845609657" lon="6.93952700123">
        <ele>145.3</ele>
        <time>2014-04-18T12:59:47Z</time>
      </trkpt><trkpt lat="50.6824519951" lon="6.93982799537">
        <ele>146.7</ele>
        <time>2014-04-18T13:00:06Z</time>
      </trkpt><trkpt lat="50.6822280306" lon="6.93985900842">
        <ele>147.2</ele>
        <time>2014-04-18T13:00:08Z</time>
      </trkpt><trkpt lat="50.6805890333" lon="6.94022697397">
        <ele>148.7</ele>
        <time>2014-04-18T13:00:22Z</time>
      </trkpt><trkpt lat="50.6804170366" lon="6.94022697397">
        <ele>148.7</ele>
        <time>2014-04-18T13:00:24Z</time>
      </trkpt><trkpt lat="50.6794149801" lon="6.9403240364">
        <ele>148.2</ele>
        <time>2014-04-18T13:00:33Z</time>
      </trkpt><trkpt lat="50.6782160327" lon="6.94066199474">
        <ele>148.7</ele>
        <time>2014-04-18T13:00:43Z</time>
      </trkpt><trkpt lat="50.677089002" lon="6.94090297446">
        <ele>148.7</ele>
        <time>2014-04-18T13:00:53Z</time>
      </trkpt><trkpt lat="50.6754500046" lon="6.94125099108">
        <ele>148.7</ele>
        <time>2014-04-18T13:01:08Z</time>
      </trkpt><trkpt lat="50.6739750411" lon="6.94188298658">
        <ele>148.2</ele>
        <time>2014-04-18T13:01:22Z</time>
      </trkpt><trkpt lat="50.6731230207" lon="6.94193998352">
        <ele>148.2</ele>
        <time>2014-04-18T13:01:29Z</time>
      </trkpt><trkpt lat="50.6729960348" lon="6.94202195853">
        <ele>147.7</ele>
        <time>2014-04-18T13:01:30Z</time>
      </trkpt><trkpt lat="50.672882041" lon="6.94215296768">
        <ele>147.7</ele>
        <time>2014-04-18T13:01:31Z</time>
      </trkpt><trkpt lat="50.6727600005" lon="6.94229504094">
        <ele>147.7</ele>
        <time>2014-04-18T13:01:33Z</time>
      </trkpt><trkpt lat="50.6726460066" lon="6.94249402732">
        <ele>147.2</ele>
        <time>2014-04-18T13:01:34Z</time>
      </trkpt><trkpt lat="50.6715700217" lon="6.94398902357">
        <ele>147.7</ele>
        <time>2014-04-18T13:01:47Z</time>
      </trkpt><trkpt lat="50.6700630393" lon="6.94536399096">
        <ele>147.2</ele>
        <time>2014-04-18T13:02:02Z</time>
      </trkpt><trkpt lat="50.6691209972" lon="6.94620503113">
        <ele>147.2</ele>
        <time>2014-04-18T13:02:12Z</time>
      </trkpt><trkpt lat="50.6688989606" lon="6.94658297114">
        <ele>147.2</ele>
        <time>2014-04-18T13:02:15Z</time>
      </trkpt><trkpt lat="50.6687999703" lon="6.94682302885">
        <ele>147.2</ele>
        <time>2014-04-18T13:02:16Z</time>
      </trkpt><trkpt lat="50.6686950289" lon="6.94708102383">
        <ele>147.2</ele>
        <time>2014-04-18T13:02:18Z</time>
      </trkpt><trkpt lat="50.6677140109" lon="6.94983498193">
        <ele>145.8</ele>
        <time>2014-04-18T13:02:36Z</time>
      </trkpt><trkpt lat="50.6673740409" lon="6.95132897235">
        <ele>146.7</ele>
        <time>2014-04-18T13:02:45Z</time>
      </trkpt><trkpt lat="50.6671069935" lon="6.95218501613">
        <ele>147.2</ele>
        <time>2014-04-18T13:02:50Z</time>
      </trkpt><trkpt lat="50.6666879822" lon="6.95314097218">
        <ele>147.7</ele>
        <time>2014-04-18T13:02:56Z</time>
      </trkpt><trkpt lat="50.66661397" lon="6.95325102657">
        <ele>147.7</ele>
        <time>2014-04-18T13:02:57Z</time>
      </trkpt><trkpt lat="50.6663650274" lon="6.95371697657">
        <ele>148.2</ele>
        <time>2014-04-18T13:03:01Z</time>
      </trkpt><trkpt lat="50.666318005" lon="6.95383599959">
        <ele>148.2</ele>
        <time>2014-04-18T13:03:01Z</time>
      </trkpt><trkpt lat="50.6662849803" lon="6.95397203788">
        <ele>148.2</ele>
        <time>2014-04-18T13:03:02Z</time>
      </trkpt><trkpt lat="50.6662849803" lon="6.95411402732">
        <ele>148.7</ele>
        <time>2014-04-18T13:03:03Z</time>
      </trkpt><trkpt lat="50.6662849803" lon="6.95425702259">
        <ele>148.7</ele>
        <time>2014-04-18T13:03:04Z</time>
      </trkpt><trkpt lat="50.6662849803" lon="6.9543980062">
        <ele>148.7</ele>
        <time>2014-04-18T13:03:05Z</time>
      </trkpt><trkpt lat="50.6662849803" lon="6.9546679873">
        <ele>149.1</ele>
        <time>2014-04-18T13:03:06Z</time>
      </trkpt><trkpt lat="50.6662660372" lon="6.95478399284">
        <ele>149.1</ele>
        <time>2014-04-18T13:03:07Z</time>
      </trkpt><trkpt lat="50.6662220322" lon="6.95490603335">
        <ele>149.6</ele>
        <time>2014-04-18T13:03:08Z</time>
      </trkpt><trkpt lat="50.6657420006" lon="6.95640304126">
        <ele>151.5</ele>
        <time>2014-04-18T13:03:17Z</time>
      </trkpt><trkpt lat="50.6654909626" lon="6.95715799928">
        <ele>152</ele>
        <time>2014-04-18T13:03:22Z</time>
      </trkpt><trkpt lat="50.6653799862" lon="6.95731599815">
        <ele>152</ele>
        <time>2014-04-18T13:03:23Z</time>
      </trkpt><trkpt lat="50.6653379928" lon="6.95728599094">
        <ele>152</ele>
        <time>2014-04-18T13:03:23Z</time>
      </trkpt><trkpt lat="50.6652749609" lon="6.95724198595">
        <ele>152</ele>
        <time>2014-04-18T13:03:24Z</time>
      </trkpt><trkpt lat="50.665198015" lon="6.95718599483">
        <ele>152</ele>
        <time>2014-04-18T13:03:25Z</time>
      </trkpt><trkpt lat="50.6651110109" lon="6.95712396875">
        <ele>152</ele>
        <time>2014-04-18T13:03:26Z</time>
      </trkpt><trkpt lat="50.6648199912" lon="6.95690796711">
        <ele>151.5</ele>
        <time>2014-04-18T13:03:28Z</time>
      </trkpt><trkpt lat="50.6647579651" lon="6.95677704178">
        <ele>151.1</ele>
        <time>2014-04-18T13:03:29Z</time>
      </trkpt><trkpt lat="50.6646879762" lon="6.95662700571">
        <ele>150.6</ele>
        <time>2014-04-18T13:03:30Z</time>
      </trkpt><trkpt lat="50.6644620001" lon="6.95616901852">
        <ele>149.6</ele>
        <time>2014-04-18T13:03:34Z</time>
      </trkpt><trkpt lat="50.6643530354" lon="6.95605301298">
        <ele>149.1</ele>
        <time>2014-04-18T13:03:35Z</time>
      </trkpt><trkpt lat="50.6632339675" lon="6.95493897423">
        <ele>147.2</ele>
        <time>2014-04-18T13:03:46Z</time>
      </trkpt><trkpt lat="50.6630889606" lon="6.95474300534">
        <ele>146.7</ele>
        <time>2014-04-18T13:03:48Z</time>
      </trkpt><trkpt lat="50.6619200204" lon="6.95353098214">
        <ele>147.7</ele>
        <time>2014-04-18T13:04:00Z</time>
      </trkpt><trkpt lat="50.660444973" lon="6.9529089611">
        <ele>148.7</ele>
        <time>2014-04-18T13:04:14Z</time>
      </trkpt><trkpt lat="50.6569450255" lon="6.95171403699">
        <ele>150.6</ele>
        <time>2014-04-18T13:04:45Z</time>
      </trkpt><trkpt lat="50.6527359691" lon="6.95053000934">
        <ele>152</ele>
        <time>2014-04-18T13:05:23Z</time>
      </trkpt><trkpt lat="50.6498400215" lon="6.94988703355">
        <ele>153.5</ele>
        <time>2014-04-18T13:05:49Z</time>
      </trkpt><trkpt lat="50.6493289769" lon="6.94969701581">
        <ele>154</ele>
        <time>2014-04-18T13:05:54Z</time>
      </trkpt><trkpt lat="50.649177013" lon="6.94961403497">
        <ele>153.5</ele>
        <time>2014-04-18T13:05:55Z</time>
      </trkpt><trkpt lat="50.649038041" lon="6.9495120272">
        <ele>153</ele>
        <time>2014-04-18T13:05:56Z</time>
      </trkpt><trkpt lat="50.6489070319" lon="6.94939602166">
        <ele>153</ele>
        <time>2014-04-18T13:05:58Z</time>
      </trkpt><trkpt lat="50.6487709936" lon="6.94927297533">
        <ele>152.5</ele>
        <time>2014-04-18T13:05:59Z</time>
      </trkpt><trkpt lat="50.6486829836" lon="6.94909603335">
        <ele>152.5</ele>
        <time>2014-04-18T13:06:00Z</time>
      </trkpt><trkpt lat="50.6485979911" lon="6.94892898202">
        <ele>152</ele>
        <time>2014-04-18T13:06:01Z</time>
      </trkpt><trkpt lat="50.6484150141" lon="6.94866403006">
        <ele>152</ele>
        <time>2014-04-18T13:06:04Z</time>
      </trkpt><trkpt lat="50.648315018" lon="6.94856403396">
        <ele>152</ele>
        <time>2014-04-18T13:06:05Z</time>
      </trkpt><trkpt lat="50.6482170336" lon="6.94846495986">
        <ele>152</ele>
        <time>2014-04-18T13:06:06Z</time>
      </trkpt><trkpt lat="50.6481160317" lon="6.94840704091">
        <ele>152</ele>
        <time>2014-04-18T13:06:07Z</time>
      </trkpt><trkpt lat="50.6479939912" lon="6.94837200455">
        <ele>152</ele>
        <time>2014-04-18T13:06:08Z</time>
      </trkpt><trkpt lat="50.6477380078" lon="6.94833797403">
        <ele>151.5</ele>
        <time>2014-04-18T13:06:10Z</time>
      </trkpt><trkpt lat="50.6475990359" lon="6.94835297763">
        <ele>151.5</ele>
        <time>2014-04-18T13:06:11Z</time>
      </trkpt><trkpt lat="50.6463929638" lon="6.94863796234">
        <ele>149.6</ele>
        <time>2014-04-18T13:06:22Z</time>
      </trkpt><trkpt lat="50.6452459842" lon="6.94843000732">
        <ele>151.5</ele>
        <time>2014-04-18T13:06:32Z</time>
      </trkpt><trkpt lat="50.6432100199" lon="6.94805097766">
        <ele>159.7</ele>
        <time>2014-04-18T13:06:50Z</time>
      </trkpt><trkpt lat="50.6415720284" lon="6.94807000458">
        <ele>164.5</ele>
        <time>2014-04-18T13:07:05Z</time>
      </trkpt><trkpt lat="50.6385579798" lon="6.94859697483">
        <ele>160.7</ele>
        <time>2014-04-18T13:07:31Z</time>
      </trkpt><trkpt lat="50.6367579661" lon="6.94889201783">
        <ele>161.6</ele>
        <time>2014-04-18T13:07:47Z</time>
      </trkpt><trkpt lat="50.6360490248" lon="6.949016992">
        <ele>162.6</ele>
        <time>2014-04-18T13:07:54Z</time>
      </trkpt><trkpt lat="50.6356849987" lon="6.94908102974">
        <ele>163.6</ele>
        <time>2014-04-18T13:07:57Z</time>
      </trkpt><trkpt lat="50.6355150137" lon="6.94911003113">
        <ele>163.6</ele>
        <time>2014-04-18T13:07:58Z</time>
      </trkpt><trkpt lat="50.6347420346" lon="6.94921597838">
        <ele>164</ele>
        <time>2014-04-18T13:08:05Z</time>
      </trkpt><trkpt lat="50.634595016" lon="6.94922897033">
        <ele>164</ele>
        <time>2014-04-18T13:08:07Z</time>
      </trkpt><trkpt lat="50.6345350016" lon="6.94923399948">
        <ele>164</ele>
        <time>2014-04-18T13:08:07Z</time>
      </trkpt><trkpt lat="50.6344159786" lon="6.94911003113">
        <ele>164</ele>
        <time>2014-04-18T13:08:08Z</time>
      </trkpt><trkpt lat="50.6343540363" lon="6.94911003113">
        <ele>164</ele>
        <time>2014-04-18T13:08:09Z</time>
      </trkpt><trkpt lat="50.6342090294" lon="6.94928202778">
        <ele>164</ele>
        <time>2014-04-18T13:08:10Z</time>
      </trkpt><trkpt lat="50.6341149844" lon="6.94928202778">
        <ele>164.5</ele>
        <time>2014-04-18T13:08:11Z</time>
      </trkpt><trkpt lat="50.6330479681" lon="6.94922695868">
        <ele>167.4</ele>
        <time>2014-04-18T13:08:21Z</time>
      </trkpt><trkpt lat="50.6317429896" lon="6.94901003502">
        <ele>170.8</ele>
        <time>2014-04-18T13:08:32Z</time>
      </trkpt><trkpt lat="50.630520992" lon="6.94881096482">
        <ele>173.2</ele>
        <time>2014-04-18T13:08:43Z</time>
      </trkpt><trkpt lat="50.6300200056" lon="6.9486800395">
        <ele>173.7</ele>
        <time>2014-04-18T13:08:48Z</time>
      </trkpt><trkpt lat="50.6299340073" lon="6.94865103811">
        <ele>173.2</ele>
        <time>2014-04-18T13:08:48Z</time>
      </trkpt><trkpt lat="50.6298439857" lon="6.94856403396">
        <ele>172.7</ele>
        <time>2014-04-18T13:08:49Z</time>
      </trkpt><trkpt lat="50.6297890004" lon="6.94842497818">
        <ele>172.7</ele>
        <time>2014-04-18T13:08:50Z</time>
      </trkpt><trkpt lat="50.629759999" lon="6.94828600623">
        <ele>172.2</ele>
        <time>2014-04-18T13:08:51Z</time>
      </trkpt><trkpt lat="50.6297279801" lon="6.94813102484">
        <ele>172.2</ele>
        <time>2014-04-18T13:08:52Z</time>
      </trkpt><trkpt lat="50.6296910159" lon="6.94795902818">
        <ele>172.2</ele>
        <time>2014-04-18T13:08:53Z</time>
      </trkpt><trkpt lat="50.6292989943" lon="6.94567102008">
        <ele>171.3</ele>
        <time>2014-04-18T13:09:06Z</time>
      </trkpt><trkpt lat="50.6290919613" lon="6.94480600767">
        <ele>171.3</ele>
        <time>2014-04-18T13:09:11Z</time>
      </trkpt><trkpt lat="50.6290160213" lon="6.94449000992">
        <ele>170.8</ele>
        <time>2014-04-18T13:09:13Z</time>
      </trkpt><trkpt lat="50.6290089805" lon="6.94446100853">
        <ele>170.8</ele>
        <time>2014-04-18T13:09:13Z</time>
      </trkpt><trkpt lat="50.6289509777" lon="6.94442999549">
        <ele>170.8</ele>
        <time>2014-04-18T13:09:14Z</time>
      </trkpt><trkpt lat="50.6288980041" lon="6.94447902963">
        <ele>170.8</ele>
        <time>2014-04-18T13:09:15Z</time>
      </trkpt><trkpt lat="50.6288379896" lon="6.94450903684">
        <ele>170.8</ele>
        <time>2014-04-18T13:09:15Z</time>
      </trkpt><trkpt lat="50.6287779752" lon="6.94453896023">
        <ele>170.8</ele>
        <time>2014-04-18T13:09:16Z</time>
      </trkpt><trkpt lat="50.6287170388" lon="6.94456997328">
        <ele>171.3</ele>
        <time>2014-04-18T13:09:16Z</time>
      </trkpt><trkpt lat="50.6277640164" lon="6.9451100193">
        <ele>171.7</ele>
        <time>2014-04-18T13:09:25Z</time>
      </trkpt><trkpt lat="50.6276389584" lon="6.9451840315">
        <ele>172.7</ele>
        <time>2014-04-18T13:09:26Z</time>
      </trkpt><trkpt lat="50.6275879964" lon="6.94521496072">
        <ele>172.7</ele>
        <time>2014-04-18T13:09:27Z</time>
      </trkpt><trkpt lat="50.6274979748" lon="6.94519601762">
        <ele>172.7</ele>
        <time>2014-04-18T13:09:28Z</time>
      </trkpt><trkpt lat="50.6274669617" lon="6.94514899515">
        <ele>172.7</ele>
        <time>2014-04-18T13:09:28Z</time>
      </trkpt><trkpt lat="50.6273610145" lon="6.94516802207">
        <ele>172.7</ele>
        <time>2014-04-18T13:09:29Z</time>
      </trkpt><trkpt lat="50.6273610145" lon="6.94522501901">
        <ele>172.7</ele>
        <time>2014-04-18T13:09:29Z</time>
      </trkpt><trkpt lat="50.6273969728" lon="6.94539600983">
        <ele>172.7</ele>
        <time>2014-04-18T13:09:30Z</time>
      </trkpt><trkpt lat="50.6273740064" lon="6.9454649929">
        <ele>173.2</ele>
        <time>2014-04-18T13:09:31Z</time>
      </trkpt><trkpt lat="50.6273399759" lon="6.94554596208">
        <ele>173.2</ele>
        <time>2014-04-18T13:09:31Z</time>
      </trkpt><trkpt lat="50.6273060292" lon="6.94560899399">
        <ele>173.2</ele>
        <time>2014-04-18T13:09:32Z</time>
      </trkpt><trkpt lat="50.6268700026" lon="6.94643201306">
        <ele>174.1</ele>
        <time>2014-04-18T13:09:38Z</time>
      </trkpt><trkpt lat="50.6265229918" lon="6.94709502161">
        <ele>174.6</ele>
        <time>2014-04-18T13:09:42Z</time>
      </trkpt><trkpt lat="50.6264590379" lon="6.94719401188">
        <ele>175.1</ele>
        <time>2014-04-18T13:09:43Z</time>
      </trkpt><trkpt lat="50.6263069902" lon="6.94721798413">
        <ele>175.1</ele>
        <time>2014-04-18T13:09:45Z</time>
      </trkpt><trkpt lat="50.6262970157" lon="6.94720499218">
        <ele>175.6</ele>
        <time>2014-04-18T13:09:45Z</time>
      </trkpt><trkpt lat="50.6262850296" lon="6.94718898274">
        <ele>175.6</ele>
        <time>2014-04-18T13:09:45Z</time>
      </trkpt><trkpt lat="50.626232978" lon="6.94711999968">
        <ele>175.1</ele>
        <time>2014-04-18T13:09:45Z</time>
      </trkpt><trkpt lat="50.626182016" lon="6.94705202244">
        <ele>174.6</ele>
        <time>2014-04-18T13:09:46Z</time>
      </trkpt><trkpt lat="50.6261240132" lon="6.94697499275">
        <ele>174.1</ele>
        <time>2014-04-18T13:09:47Z</time>
      </trkpt><trkpt lat="50.6259250268" lon="6.94665698335">
        <ele>174.1</ele>
        <time>2014-04-18T13:09:49Z</time>
      </trkpt><trkpt lat="50.6258370169" lon="6.94658800028">
        <ele>174.1</ele>
        <time>2014-04-18T13:09:50Z</time>
      </trkpt><trkpt lat="50.6257350091" lon="6.94652899168">
        <ele>174.1</ele>
        <time>2014-04-18T13:09:51Z</time>
      </trkpt><trkpt lat="50.6256370246" lon="6.94646998309">
        <ele>174.1</ele>
        <time>2014-04-18T13:09:52Z</time>
      </trkpt><trkpt lat="50.6255419739" lon="6.94641399197">
        <ele>174.6</ele>
        <time>2014-04-18T13:09:53Z</time>
      </trkpt><trkpt lat="50.6245700084" lon="6.94624199532">
        <ele>176.5</ele>
        <time>2014-04-18T13:10:01Z</time>
      </trkpt><trkpt lat="50.6233670376" lon="6.94633402862">
        <ele>180.4</ele>
        <time>2014-04-18T13:10:12Z</time>
      </trkpt><trkpt lat="50.6221590377" lon="6.94616898894">
        <ele>183.8</ele>
        <time>2014-04-18T13:10:23Z</time>
      </trkpt><trkpt lat="50.6210740004" lon="6.94569096901">
        <ele>188.1</ele>
        <time>2014-04-18T13:10:33Z</time>
      </trkpt><trkpt lat="50.6197250169" lon="6.94511203095">
        <ele>191</ele>
        <time>2014-04-18T13:10:45Z</time>
      </trkpt><trkpt lat="50.6194780022" lon="6.94504899904">
        <ele>191.4</ele>
        <time>2014-04-18T13:10:47Z</time>
      </trkpt><trkpt lat="50.6193520222" lon="6.94503701292">
        <ele>191.4</ele>
        <time>2014-04-18T13:10:48Z</time>
      </trkpt><trkpt lat="50.6179990154" lon="6.94522996433">
        <ele>196.7</ele>
        <time>2014-04-18T13:11:00Z</time>
      </trkpt><trkpt lat="50.6169360224" lon="6.94527002983">
        <ele>199.6</ele>
        <time>2014-04-18T13:11:10Z</time>
      </trkpt><trkpt lat="50.6165419891" lon="6.94518696517">
        <ele>200.1</ele>
        <time>2014-04-18T13:11:13Z</time>
      </trkpt><trkpt lat="50.6158319581" lon="6.94492100738">
        <ele>200.6</ele>
        <time>2014-04-18T13:11:20Z</time>
      </trkpt><trkpt lat="50.6139549986" lon="6.94442597218">
        <ele>201.5</ele>
        <time>2014-04-18T13:11:36Z</time>
      </trkpt><trkpt lat="50.6116990093" lon="6.94436402991">
        <ele>204.4</ele>
        <time>2014-04-18T13:11:56Z</time>
      </trkpt><trkpt lat="50.610141987" lon="6.944300998">
        <ele>207.3</ele>
        <time>2014-04-18T13:12:10Z</time>
      </trkpt><trkpt lat="50.6096239854" lon="6.94415599108">
        <ele>209.2</ele>
        <time>2014-04-18T13:12:15Z</time>
      </trkpt><trkpt lat="50.6095890328" lon="6.94414400496">
        <ele>209.7</ele>
        <time>2014-04-18T13:12:15Z</time>
      </trkpt><trkpt lat="50.6095059682" lon="6.94411399774">
        <ele>209.7</ele>
        <time>2014-04-18T13:12:16Z</time>
      </trkpt><trkpt lat="50.6094160303" lon="6.94407803938">
        <ele>210.7</ele>
        <time>2014-04-18T13:12:17Z</time>
      </trkpt><trkpt lat="50.6086540315" lon="6.94503399543">
        <ele>214</ele>
        <time>2014-04-18T13:12:25Z</time>
      </trkpt><trkpt lat="50.6075480394" lon="6.94602197036">
        <ele>219.8</ele>
        <time>2014-04-18T13:12:36Z</time>
      </trkpt><trkpt lat="50.6058249716" lon="6.94754404016">
        <ele>229.9</ele>
        <time>2014-04-18T13:12:54Z</time>
      </trkpt><trkpt lat="50.6042839587" lon="6.94890500978">
        <ele>238.1</ele>
        <time>2014-04-18T13:13:09Z</time>
      </trkpt><trkpt lat="50.6033710018" lon="6.94971101359">
        <ele>242.9</ele>
        <time>2014-04-18T13:13:18Z</time>
      </trkpt><trkpt lat="50.6020749919" lon="6.95084500127">
        <ele>245.8</ele>
        <time>2014-04-18T13:13:32Z</time>
      </trkpt><trkpt lat="50.6015450042" lon="6.95141497068">
        <ele>245.8</ele>
        <time>2014-04-18T13:13:37Z</time>
      </trkpt><trkpt lat="50.6011239812" lon="6.95195904002">
        <ele>246.7</ele>
        <time>2014-04-18T13:13:42Z</time>
      </trkpt><trkpt lat="50.6010330375" lon="6.95204998367">
        <ele>246.7</ele>
        <time>2014-04-18T13:13:43Z</time>
      </trkpt><trkpt lat="50.6009369809" lon="6.95205903612">
        <ele>246.7</ele>
        <time>2014-04-18T13:13:44Z</time>
      </trkpt><trkpt lat="50.6008349732" lon="6.95204202086">
        <ele>247.2</ele>
        <time>2014-04-18T13:13:45Z</time>
      </trkpt><trkpt lat="50.6007529981" lon="6.95202802308">
        <ele>247.2</ele>
        <time>2014-04-18T13:13:45Z</time>
      </trkpt><trkpt lat="50.6006690115" lon="6.95194403641">
        <ele>247.2</ele>
        <time>2014-04-18T13:13:46Z</time>
      </trkpt><trkpt lat="50.6005590409" lon="6.95183398202">
        <ele>247.2</ele>
        <time>2014-04-18T13:13:47Z</time>
      </trkpt><trkpt lat="50.6004370004" lon="6.95171202533">
        <ele>247.2</ele>
        <time>2014-04-18T13:13:49Z</time>
      </trkpt><trkpt lat="50.5992529728" lon="6.95027100854">
        <ele>249.1</ele>
        <time>2014-04-18T13:14:02Z</time>
      </trkpt><trkpt lat="50.5991210416" lon="6.95013899356">
        <ele>249.6</ele>
        <time>2014-04-18T13:14:03Z</time>
      </trkpt><trkpt lat="50.5989900324" lon="6.95000697859">
        <ele>250.1</ele>
        <time>2014-04-18T13:14:05Z</time>
      </trkpt><trkpt lat="50.5976930168" lon="6.94898203947">
        <ele>253.4</ele>
        <time>2014-04-18T13:14:17Z</time>
      </trkpt><trkpt lat="50.5971060321" lon="6.94855196401">
        <ele>255.4</ele>
        <time>2014-04-18T13:14:23Z</time>
      </trkpt><trkpt lat="50.5969610251" lon="6.94845599122">
        <ele>255.9</ele>
        <time>2014-04-18T13:14:25Z</time>
      </trkpt><trkpt lat="50.5956650153" lon="6.94759701379">
        <ele>258.3</ele>
        <time>2014-04-18T13:14:37Z</time>
      </trkpt><trkpt lat="50.5949020106" lon="6.94713802077">
        <ele>258.7</ele>
        <time>2014-04-18T13:14:44Z</time>
      </trkpt><trkpt lat="50.5947349593" lon="6.94709502161">
        <ele>259.2</ele>
        <time>2014-04-18T13:14:46Z</time>
      </trkpt><trkpt lat="50.5945580173" lon="6.94709996693">
        <ele>260.2</ele>
        <time>2014-04-18T13:14:47Z</time>
      </trkpt><trkpt lat="50.5926069617" lon="6.94712796248">
        <ele>268.4</ele>
        <time>2014-04-18T13:15:04Z</time>
      </trkpt><trkpt lat="50.5921300314" lon="6.94709803909">
        <ele>270.8</ele>
        <time>2014-04-18T13:15:09Z</time>
      </trkpt><trkpt lat="50.5919789895" lon="6.94707197137">
        <ele>271.2</ele>
        <time>2014-04-18T13:15:10Z</time>
      </trkpt><trkpt lat="50.5918329768" lon="6.94702402689">
        <ele>272.2</ele>
        <time>2014-04-18T13:15:11Z</time>
      </trkpt><trkpt lat="50.5916970223" lon="6.94692000747">
        <ele>273.2</ele>
        <time>2014-04-18T13:15:13Z</time>
      </trkpt><trkpt lat="50.5915759876" lon="6.94676402025">
        <ele>274.1</ele>
        <time>2014-04-18T13:15:14Z</time>
      </trkpt><trkpt lat="50.5914619938" lon="6.94659898058">
        <ele>275.6</ele>
        <time>2014-04-18T13:15:15Z</time>
      </trkpt><trkpt lat="50.5901890341" lon="6.94469503127">
        <ele>286.6</ele>
        <time>2014-04-18T13:15:31Z</time>
      </trkpt><trkpt lat="50.5889539607" lon="6.9428260345">
        <ele>294.3</ele>
        <time>2014-04-18T13:15:46Z</time>
      </trkpt><trkpt lat="50.5880990066" lon="6.94187401794">
        <ele>299.1</ele>
        <time>2014-04-18T13:15:55Z</time>
      </trkpt><trkpt lat="50.5881000124" lon="6.94187401794">
        <ele>300.1</ele>
        <time>2014-04-18T13:15:55Z</time>
      </trkpt><trkpt lat="50.587901026" lon="6.94188700989">
        <ele>300.6</ele>
        <time>2014-04-18T13:15:57Z</time>
      </trkpt><trkpt lat="50.5878170393" lon="6.94191098213">
        <ele>301.5</ele>
        <time>2014-04-18T13:15:58Z</time>
      </trkpt><trkpt lat="50.5877160374" lon="6.9419689849">
        <ele>302</ele>
        <time>2014-04-18T13:15:59Z</time>
      </trkpt><trkpt lat="50.587618975" lon="6.94202397019">
        <ele>302.5</ele>
        <time>2014-04-18T13:15:59Z</time>
      </trkpt><trkpt lat="50.5875209905" lon="6.94209697656">
        <ele>303.4</ele>
        <time>2014-04-18T13:16:00Z</time>
      </trkpt><trkpt lat="50.587429041" lon="6.94224902429">
        <ele>303.9</ele>
        <time>2014-04-18T13:16:02Z</time>
      </trkpt><trkpt lat="50.586392032" lon="6.94345400669">
        <ele>314.5</ele>
        <time>2014-04-18T13:16:13Z</time>
      </trkpt><trkpt lat="50.5854410212" lon="6.94442396052">
        <ele>325.5</ele>
        <time>2014-04-18T13:16:23Z</time>
      </trkpt><trkpt lat="50.5853309669" lon="6.94448296912">
        <ele>326.5</ele>
        <time>2014-04-18T13:16:24Z</time>
      </trkpt><trkpt lat="50.5842849892" lon="6.94492603652">
        <ele>335.6</ele>
        <time>2014-04-18T13:16:33Z</time>
      </trkpt><trkpt lat="50.5829960201" lon="6.94494699128">
        <ele>344.8</ele>
        <time>2014-04-18T13:16:45Z</time>
      </trkpt><trkpt lat="50.5828609876" lon="6.94497196935">
        <ele>345.3</ele>
        <time>2014-04-18T13:16:46Z</time>
      </trkpt><trkpt lat="50.5824829638" lon="6.94520498626">
        <ele>347.2</ele>
        <time>2014-04-18T13:16:50Z</time>
      </trkpt><trkpt lat="50.5823569838" lon="6.94528201595">
        <ele>347.7</ele>
        <time>2014-04-18T13:16:51Z</time>
      </trkpt><trkpt lat="50.5822220352" lon="6.94530397654">
        <ele>348.1</ele>
        <time>2014-04-18T13:16:52Z</time>
      </trkpt><trkpt lat="50.5816929694" lon="6.94536298513">
        <ele>352</ele>
        <time>2014-04-18T13:16:57Z</time>
      </trkpt><trkpt lat="50.5814580247" lon="6.94545602426">
        <ele>352.5</ele>
        <time>2014-04-18T13:16:59Z</time>
      </trkpt><trkpt lat="50.5813469645" lon="6.94553397596">
        <ele>352.9</ele>
        <time>2014-04-18T13:17:00Z</time>
      </trkpt><trkpt lat="50.5812379997" lon="6.94561100565">
        <ele>353.4</ele>
        <time>2014-04-18T13:17:01Z</time>
      </trkpt><trkpt lat="50.5811349861" lon="6.94568401203">
        <ele>353.9</ele>
        <time>2014-04-18T13:17:02Z</time>
      </trkpt><trkpt lat="50.5810339842" lon="6.94575500675">
        <ele>354.4</ele>
        <time>2014-04-18T13:17:03Z</time>
      </trkpt><trkpt lat="50.5809339881" lon="6.94582499564">
        <ele>355.3</ele>
        <time>2014-04-18T13:17:04Z</time>
      </trkpt><trkpt lat="50.5808349978" lon="6.94589096121">
        <ele>355.8</ele>
        <time>2014-04-18T13:17:05Z</time>
      </trkpt><trkpt lat="50.5807199981" lon="6.94589096121">
        <ele>356.8</ele>
        <time>2014-04-18T13:17:06Z</time>
      </trkpt><trkpt lat="50.579821961" lon="6.94587402977">
        <ele>364.5</ele>
        <time>2014-04-18T13:17:14Z</time>
      </trkpt><trkpt lat="50.5797359627" lon="6.94582600147">
        <ele>365.9</ele>
        <time>2014-04-18T13:17:15Z</time>
      </trkpt><trkpt lat="50.5795959849" lon="6.94574796595">
        <ele>367.8</ele>
        <time>2014-04-18T13:17:16Z</time>
      </trkpt><trkpt lat="50.5795409996" lon="6.94571703672">
        <ele>368.8</ele>
        <time>2014-04-18T13:17:16Z</time>
      </trkpt><trkpt lat="50.5792799871" lon="6.94573899731">
        <ele>372.2</ele>
        <time>2014-04-18T13:17:19Z</time>
      </trkpt><trkpt lat="50.5792039633" lon="6.94576598704">
        <ele>372.7</ele>
        <time>2014-04-18T13:17:19Z</time>
      </trkpt><trkpt lat="50.5788410269" lon="6.94597997703">
        <ele>376</ele>
        <time>2014-04-18T13:17:23Z</time>
      </trkpt><trkpt lat="50.5787690263" lon="6.94602197036">
        <ele>376.5</ele>
        <time>2014-04-18T13:17:23Z</time>
      </trkpt><trkpt lat="50.578387985" lon="6.94622900337">
        <ele>378.9</ele>
        <time>2014-04-18T13:17:27Z</time>
      </trkpt><trkpt lat="50.578312967" lon="6.94625901058">
        <ele>379.4</ele>
        <time>2014-04-18T13:17:28Z</time>
      </trkpt><trkpt lat="50.5782299861" lon="6.94625096396">
        <ele>380.3</ele>
        <time>2014-04-18T13:17:28Z</time>
      </trkpt><trkpt lat="50.5781520344" lon="6.94619203918">
        <ele>380.8</ele>
        <time>2014-04-18T13:17:29Z</time>
      </trkpt><trkpt lat="50.5780579895" lon="6.94612800144">
        <ele>381.3</ele>
        <time>2014-04-18T13:17:30Z</time>
      </trkpt><trkpt lat="50.5771020334" lon="6.94569197483">
        <ele>388.5</ele>
        <time>2014-04-18T13:17:39Z</time>
      </trkpt><trkpt lat="50.5767830182" lon="6.94555199705">
        <ele>391.4</ele>
        <time>2014-04-18T13:17:42Z</time>
      </trkpt><trkpt lat="50.5766759813" lon="6.9455059804">
        <ele>392.4</ele>
        <time>2014-04-18T13:17:43Z</time>
      </trkpt><trkpt lat="50.5765569583" lon="6.94552903064">
        <ele>393.3</ele>
        <time>2014-04-18T13:17:44Z</time>
      </trkpt><trkpt lat="50.5764339957" lon="6.94556297734">
        <ele>393.8</ele>
        <time>2014-04-18T13:17:45Z</time>
      </trkpt><trkpt lat="50.5762920063" lon="6.94563397206">
        <ele>394.3</ele>
        <time>2014-04-18T13:17:46Z</time>
      </trkpt><trkpt lat="50.5749570206" lon="6.94627895951">
        <ele>399.1</ele>
        <time>2014-04-18T13:17:59Z</time>
      </trkpt><trkpt lat="50.5746629834" lon="6.94636303">
        <ele>399.1</ele>
        <time>2014-04-18T13:18:01Z</time>
      </trkpt><trkpt lat="50.5745250173" lon="6.94636403583">
        <ele>398.6</ele>
        <time>2014-04-18T13:18:02Z</time>
      </trkpt><trkpt lat="50.5743830279" lon="6.94636403583">
        <ele>398.6</ele>
        <time>2014-04-18T13:18:04Z</time>
      </trkpt><trkpt lat="50.5742370151" lon="6.94630896673">
        <ele>398.1</ele>
        <time>2014-04-18T13:18:05Z</time>
      </trkpt><trkpt lat="50.5740790162" lon="6.94623797201">
        <ele>397.6</ele>
        <time>2014-04-18T13:18:06Z</time>
      </trkpt><trkpt lat="50.5739100371" lon="6.94612800144">
        <ele>397.2</ele>
        <time>2014-04-18T13:18:08Z</time>
      </trkpt><trkpt lat="50.5729270075" lon="6.94564101286">
        <ele>393.8</ele>
        <time>2014-04-18T13:18:17Z</time>
      </trkpt><trkpt lat="50.5727779772" lon="6.94565501064">
        <ele>393.3</ele>
        <time>2014-04-18T13:18:18Z</time>
      </trkpt><trkpt lat="50.572628025" lon="6.94568702951">
        <ele>392.8</ele>
        <time>2014-04-18T13:18:20Z</time>
      </trkpt><trkpt lat="50.5724840239" lon="6.9457759615">
        <ele>392.4</ele>
        <time>2014-04-18T13:18:21Z</time>
      </trkpt><trkpt lat="50.5723420344" lon="6.94586296566">
        <ele>391.9</ele>
        <time>2014-04-18T13:18:22Z</time>
      </trkpt><trkpt lat="50.5718009826" lon="6.94633604027">
        <ele>389.5</ele>
        <time>2014-04-18T13:18:28Z</time>
      </trkpt><trkpt lat="50.5717299879" lon="6.94641600363">
        <ele>389</ele>
        <time>2014-04-18T13:18:29Z</time>
      </trkpt><trkpt lat="50.5716750026" lon="6.94649202749">
        <ele>388.5</ele>
        <time>2014-04-18T13:18:29Z</time>
      </trkpt><trkpt lat="50.5713060312" lon="6.94734103046">
        <ele>388.5</ele>
        <time>2014-04-18T13:18:35Z</time>
      </trkpt><trkpt lat="50.5706899613" lon="6.94923299365">
        <ele>387.6</ele>
        <time>2014-04-18T13:18:47Z</time>
      </trkpt><trkpt lat="50.5704560224" lon="6.94992399774">
        <ele>384.7</ele>
        <time>2014-04-18T13:18:51Z</time>
      </trkpt><trkpt lat="50.5703649949" lon="6.9501479622">
        <ele>384.2</ele>
        <time>2014-04-18T13:18:53Z</time>
      </trkpt><trkpt lat="50.5693350267" lon="6.95190799423">
        <ele>383.2</ele>
        <time>2014-04-18T13:19:06Z</time>
      </trkpt><trkpt lat="50.5686150212" lon="6.9532709755">
        <ele>377.9</ele>
        <time>2014-04-18T13:19:16Z</time>
      </trkpt><trkpt lat="50.5684600398" lon="6.95343400352">
        <ele>377</ele>
        <time>2014-04-18T13:19:18Z</time>
      </trkpt><trkpt lat="50.5677200016" lon="6.9542720262">
        <ele>372.2</ele>
        <time>2014-04-18T13:19:26Z</time>
      </trkpt><trkpt lat="50.5676050019" lon="6.9544900395">
        <ele>371.7</ele>
        <time>2014-04-18T13:19:27Z</time>
      </trkpt><trkpt lat="50.5674879905" lon="6.95470998064">
        <ele>370.7</ele>
        <time>2014-04-18T13:19:29Z</time>
      </trkpt><trkpt lat="50.5673780199" lon="6.95493302308">
        <ele>369.8</ele>
        <time>2014-04-18T13:19:31Z</time>
      </trkpt><trkpt lat="50.5672800355" lon="6.95516796783">
        <ele>369.3</ele>
        <time>2014-04-18T13:19:32Z</time>
      </trkpt><trkpt lat="50.5670669675" lon="6.95559795946">
        <ele>368.3</ele>
        <time>2014-04-18T13:19:35Z</time>
      </trkpt><trkpt lat="50.5669500399" lon="6.95580197498">
        <ele>367.8</ele>
        <time>2014-04-18T13:19:37Z</time>
      </trkpt><trkpt lat="50.5661479756" lon="6.95708096959">
        <ele>365.4</ele>
        <time>2014-04-18T13:19:47Z</time>
      </trkpt><trkpt lat="50.5660420284" lon="6.95729403757">
        <ele>365</ele>
        <time>2014-04-18T13:19:48Z</time>
      </trkpt><trkpt lat="50.5652790237" lon="6.95939001627">
        <ele>360.6</ele>
        <time>2014-04-18T13:20:02Z</time>
      </trkpt><trkpt lat="50.5643180385" lon="6.9618080277">
        <ele>359.2</ele>
        <time>2014-04-18T13:20:18Z</time>
      </trkpt><trkpt lat="50.563391" lon="6.96467002854">
        <ele>356.3</ele>
        <time>2014-04-18T13:20:36Z</time>
      </trkpt><trkpt lat="50.5627600104" lon="6.96698502637">
        <ele>361.1</ele>
        <time>2014-04-18T13:20:50Z</time>
      </trkpt><trkpt lat="50.5621349718" lon="6.96890699677">
        <ele>365.9</ele>
        <time>2014-04-18T13:21:02Z</time>
      </trkpt><trkpt lat="50.5610660277" lon="6.97128796019">
        <ele>371.2</ele>
        <time>2014-04-18T13:21:18Z</time>
      </trkpt><trkpt lat="50.5595329776" lon="6.97400797158">
        <ele>373.6</ele>
        <time>2014-04-18T13:21:39Z</time>
      </trkpt><trkpt lat="50.5594120268" lon="6.97415800765">
        <ele>373.6</ele>
        <time>2014-04-18T13:21:40Z</time>
      </trkpt><trkpt lat="50.5592840351" lon="6.97430502623">
        <ele>373.6</ele>
        <time>2014-04-18T13:21:41Z</time>
      </trkpt><trkpt lat="50.5591299757" lon="6.97441197932">
        <ele>374.1</ele>
        <time>2014-04-18T13:21:43Z</time>
      </trkpt><trkpt lat="50.5589540396" lon="6.97446595877">
        <ele>373.6</ele>
        <time>2014-04-18T13:21:44Z</time>
      </trkpt><trkpt lat="50.5587729905" lon="6.97452203371">
        <ele>373.6</ele>
        <time>2014-04-18T13:21:46Z</time>
      </trkpt><trkpt lat="50.5574799981" lon="6.97498203255">
        <ele>371.2</ele>
        <time>2014-04-18T13:21:58Z</time>
      </trkpt><trkpt lat="50.5571479909" lon="6.97521496564">
        <ele>371.2</ele>
        <time>2014-04-18T13:22:01Z</time>
      </trkpt><trkpt lat="50.556996027" lon="6.97537698783">
        <ele>370.7</ele>
        <time>2014-04-18T13:22:03Z</time>
      </trkpt><trkpt lat="50.5566790234" lon="6.97571502998">
        <ele>370.7</ele>
        <time>2014-04-18T13:22:06Z</time>
      </trkpt><trkpt lat="50.5555509869" lon="6.97727800347">
        <ele>370.2</ele>
        <time>2014-04-18T13:22:19Z</time>
      </trkpt><trkpt lat="50.5539060384" lon="6.97957699187">
        <ele>367.4</ele>
        <time>2014-04-18T13:22:39Z</time>
      </trkpt><trkpt lat="50.5522180069" lon="6.98210899718">
        <ele>364.5</ele>
        <time>2014-04-18T13:22:59Z</time>
      </trkpt><trkpt lat="50.5511840153" lon="6.98417496867">
        <ele>365</ele>
        <time>2014-04-18T13:23:14Z</time>
      </trkpt><trkpt lat="50.5500129797" lon="6.98594103567">
        <ele>363</ele>
        <time>2014-04-18T13:23:28Z</time>
      </trkpt><trkpt lat="50.5487810075" lon="6.98804296553">
        <ele>363</ele>
        <time>2014-04-18T13:23:44Z</time>
      </trkpt><trkpt lat="50.5484830309" lon="6.98917896487">
        <ele>364</ele>
        <time>2014-04-18T13:23:51Z</time>
      </trkpt><trkpt lat="50.5484400317" lon="6.9893649593">
        <ele>364.5</ele>
        <time>2014-04-18T13:23:52Z</time>
      </trkpt><trkpt lat="50.5484289676" lon="6.98946596123">
        <ele>364.5</ele>
        <time>2014-04-18T13:23:53Z</time>
      </trkpt><trkpt lat="50.5483279657" lon="6.99044496752">
        <ele>365.4</ele>
        <time>2014-04-18T13:23:58Z</time>
      </trkpt><trkpt lat="50.5482680351" lon="6.99218597263">
        <ele>362.6</ele>
        <time>2014-04-18T13:24:08Z</time>
      </trkpt><trkpt lat="50.5482050031" lon="6.99409201741">
        <ele>362.1</ele>
        <time>2014-04-18T13:24:19Z</time>
      </trkpt><trkpt lat="50.5482390337" lon="6.99471403845">
        <ele>363.5</ele>
        <time>2014-04-18T13:24:22Z</time>
      </trkpt><trkpt lat="50.5483080167" lon="6.99533899315">
        <ele>364.5</ele>
        <time>2014-04-18T13:24:26Z</time>
      </trkpt><trkpt lat="50.5482979584" lon="6.99549900368">
        <ele>365</ele>
        <time>2014-04-18T13:24:27Z</time>
      </trkpt><trkpt lat="50.5482820328" lon="6.99565800838">
        <ele>365</ele>
        <time>2014-04-18T13:24:28Z</time>
      </trkpt><trkpt lat="50.5482620001" lon="6.99582497589">
        <ele>365.4</ele>
        <time>2014-04-18T13:24:29Z</time>
      </trkpt><trkpt lat="50.5482200067" lon="6.99598196894">
        <ele>365.9</ele>
        <time>2014-04-18T13:24:29Z</time>
      </trkpt><trkpt lat="50.5481760018" lon="6.99614499696">
        <ele>366.4</ele>
        <time>2014-04-18T13:24:30Z</time>
      </trkpt><trkpt lat="50.5480869859" lon="6.99648396112">
        <ele>367.8</ele>
        <time>2014-04-18T13:24:33Z</time>
      </trkpt><trkpt lat="50.5478569865" lon="6.99756103568">
        <ele>371.7</ele>
        <time>2014-04-18T13:24:39Z</time>
      </trkpt><trkpt lat="50.5478109699" lon="6.99788197875">
        <ele>372.2</ele>
        <time>2014-04-18T13:24:41Z</time>
      </trkpt><trkpt lat="50.5477940384" lon="6.99800401926">
        <ele>372.2</ele>
        <time>2014-04-18T13:24:41Z</time>
      </trkpt><trkpt lat="50.5476269871" lon="6.99911797419">
        <ele>370.7</ele>
        <time>2014-04-18T13:24:48Z</time>
      </trkpt><trkpt lat="50.5474180263" lon="7.0003190171">
        <ele>367.4</ele>
        <time>2014-04-18T13:24:55Z</time>
      </trkpt><trkpt lat="50.5467889644" lon="7.00218700804">
        <ele>360.6</ele>
        <time>2014-04-18T13:25:07Z</time>
      </trkpt><trkpt lat="50.5463439692" lon="7.00401199982">
        <ele>351.5</ele>
        <time>2014-04-18T13:25:18Z</time>
      </trkpt><trkpt lat="50.5461520236" lon="7.00436797924">
        <ele>348.6</ele>
        <time>2014-04-18T13:25:20Z</time>
      </trkpt><trkpt lat="50.5460989662" lon="7.00436001644">
        <ele>348.6</ele>
        <time>2014-04-18T13:25:21Z</time>
      </trkpt><trkpt lat="50.5460259598" lon="7.00434803031">
        <ele>348.6</ele>
        <time>2014-04-18T13:25:21Z</time>
      </trkpt><trkpt lat="50.5459459964" lon="7.00432799757">
        <ele>348.1</ele>
        <time>2014-04-18T13:25:22Z</time>
      </trkpt><trkpt lat="50.5458589923" lon="7.00430201367">
        <ele>347.7</ele>
        <time>2014-04-18T13:25:23Z</time>
      </trkpt><trkpt lat="50.5457630195" lon="7.00427301228">
        <ele>346.7</ele>
        <time>2014-04-18T13:25:24Z</time>
      </trkpt><trkpt lat="50.5452089757" lon="7.00398501009">
        <ele>342.4</ele>
        <time>2014-04-18T13:25:29Z</time>
      </trkpt><trkpt lat="50.5451109912" lon="7.0039079804">
        <ele>341.9</ele>
        <time>2014-04-18T13:25:30Z</time>
      </trkpt><trkpt lat="50.5450109951" lon="7.00383103453">
        <ele>340.9</ele>
        <time>2014-04-18T13:25:31Z</time>
      </trkpt><trkpt lat="50.5449199677" lon="7.0037120115">
        <ele>340.4</ele>
        <time>2014-04-18T13:25:32Z</time>
      </trkpt><trkpt lat="50.5448179599" lon="7.00357697904">
        <ele>339.5</ele>
        <time>2014-04-18T13:25:33Z</time>
      </trkpt><trkpt lat="50.5443820171" lon="7.00317003764">
        <ele>336.1</ele>
        <time>2014-04-18T13:25:37Z</time>
      </trkpt><trkpt lat="50.5442680232" lon="7.00314698741">
        <ele>335.2</ele>
        <time>2014-04-18T13:25:38Z</time>
      </trkpt><trkpt lat="50.5441579688" lon="7.00314103626">
        <ele>334.2</ele>
        <time>2014-04-18T13:25:39Z</time>
      </trkpt><trkpt lat="50.5440500099" lon="7.00321102515">
        <ele>333.2</ele>
        <time>2014-04-18T13:25:40Z</time>
      </trkpt><trkpt lat="50.5439390335" lon="7.00328998268">
        <ele>332.3</ele>
        <time>2014-04-18T13:25:42Z</time>
      </trkpt><trkpt lat="50.5438250396" lon="7.00337103568">
        <ele>331.3</ele>
        <time>2014-04-18T13:25:43Z</time>
      </trkpt><trkpt lat="50.5434940383" lon="7.00358301401">
        <ele>328.9</ele>
        <time>2014-04-18T13:25:46Z</time>
      </trkpt><trkpt lat="50.5433819722" lon="7.00361100957">
        <ele>328.4</ele>
        <time>2014-04-18T13:25:47Z</time>
      </trkpt><trkpt lat="50.54326999" lon="7.00363900512">
        <ele>327.5</ele>
        <time>2014-04-18T13:25:48Z</time>
      </trkpt><trkpt lat="50.5431539845" lon="7.00363297015">
        <ele>327</ele>
        <time>2014-04-18T13:25:49Z</time>
      </trkpt><trkpt lat="50.5430369731" lon="7.00358100235">
        <ele>326.5</ele>
        <time>2014-04-18T13:25:50Z</time>
      </trkpt><trkpt lat="50.5429180339" lon="7.00352802873">
        <ele>325.5</ele>
        <time>2014-04-18T13:25:51Z</time>
      </trkpt><trkpt lat="50.5425379984" lon="7.00335997157">
        <ele>322.7</ele>
        <time>2014-04-18T13:25:54Z</time>
      </trkpt><trkpt lat="50.5424079951" lon="7.0032830257">
        <ele>321.7</ele>
        <time>2014-04-18T13:25:56Z</time>
      </trkpt><trkpt lat="50.5423000362" lon="7.00314799324">
        <ele>321.2</ele>
        <time>2014-04-18T13:25:57Z</time>
      </trkpt><trkpt lat="50.5421940051" lon="7.00298203155">
        <ele>320.3</ele>
        <time>2014-04-18T13:25:58Z</time>
      </trkpt><trkpt lat="50.542094009" lon="7.00280802324">
        <ele>319.3</ele>
        <time>2014-04-18T13:26:00Z</time>
      </trkpt><trkpt lat="50.5412569921" lon="7.00061297044">
        <ele>308.2</ele>
        <time>2014-04-18T13:26:14Z</time>
      </trkpt><trkpt lat="50.5411300063" lon="7.00029403903">
        <ele>306.3</ele>
        <time>2014-04-18T13:26:16Z</time>
      </trkpt><trkpt lat="50.541037973" lon="7.00017199852">
        <ele>305.8</ele>
        <time>2014-04-18T13:26:17Z</time>
      </trkpt><trkpt lat="50.5409430061" lon="7.00009496883">
        <ele>305.4</ele>
        <time>2014-04-18T13:26:18Z</time>
      </trkpt><trkpt lat="50.5408460274" lon="7.00005901046">
        <ele>304.4</ele>
        <time>2014-04-18T13:26:19Z</time>
      </trkpt><trkpt lat="50.540742008" lon="7.00007996522">
        <ele>303.9</ele>
        <time>2014-04-18T13:26:20Z</time>
      </trkpt><trkpt lat="50.5406519864" lon="7.00010703877">
        <ele>303.4</ele>
        <time>2014-04-18T13:26:21Z</time>
      </trkpt><trkpt lat="50.540565988" lon="7.00016403571">
        <ele>303</ele>
        <time>2014-04-18T13:26:21Z</time>
      </trkpt><trkpt lat="50.5405270122" lon="7.00026101433">
        <ele>302.5</ele>
        <time>2014-04-18T13:26:22Z</time>
      </trkpt><trkpt lat="50.5404959992" lon="7.00041498989">
        <ele>302</ele>
        <time>2014-04-18T13:26:23Z</time>
      </trkpt><trkpt lat="50.5404609628" lon="7.00059201568">
        <ele>302</ele>
        <time>2014-04-18T13:26:24Z</time>
      </trkpt><trkpt lat="50.5404459592" lon="7.00075596571">
        <ele>301.5</ele>
        <time>2014-04-18T13:26:25Z</time>
      </trkpt><trkpt lat="50.5404199753" lon="7.00109099038">
        <ele>300.1</ele>
        <time>2014-04-18T13:26:27Z</time>
      </trkpt><trkpt lat="50.5404199753" lon="7.00122904032">
        <ele>299.6</ele>
        <time>2014-04-18T13:26:28Z</time>
      </trkpt><trkpt lat="50.5404319614" lon="7.00138100423">
        <ele>299.1</ele>
        <time>2014-04-18T13:26:28Z</time>
      </trkpt><trkpt lat="50.5404450372" lon="7.0015310403">
        <ele>298.6</ele>
        <time>2014-04-18T13:26:29Z</time>
      </trkpt><trkpt lat="50.5404509883" lon="7.00170102529">
        <ele>298.2</ele>
        <time>2014-04-18T13:26:30Z</time>
      </trkpt><trkpt lat="50.5404049717" lon="7.00181300752">
        <ele>297.7</ele>
        <time>2014-04-18T13:26:31Z</time>
      </trkpt><trkpt lat="50.5403509922" lon="7.00182599947">
        <ele>297.2</ele>
        <time>2014-04-18T13:26:31Z</time>
      </trkpt><trkpt lat="50.5402810033" lon="7.00184402056">
        <ele>296.2</ele>
        <time>2014-04-18T13:26:32Z</time>
      </trkpt><trkpt lat="50.5402430333" lon="7.0018529892">
        <ele>295.7</ele>
        <time>2014-04-18T13:26:32Z</time>
      </trkpt><trkpt lat="50.54020104" lon="7.00180202723">
        <ele>295.7</ele>
        <time>2014-04-18T13:26:33Z</time>
      </trkpt><trkpt lat="50.5401390139" lon="7.00172600336">
        <ele>295.7</ele>
        <time>2014-04-18T13:26:34Z</time>
      </trkpt><trkpt lat="50.5400579609" lon="7.00162701309">
        <ele>295.7</ele>
        <time>2014-04-18T13:26:34Z</time>
      </trkpt><trkpt lat="50.5397189967" lon="7.00128897093">
        <ele>295.7</ele>
        <time>2014-04-18T13:26:38Z</time>
      </trkpt><trkpt lat="50.5396019854" lon="7.00121101923">
        <ele>295.7</ele>
        <time>2014-04-18T13:26:39Z</time>
      </trkpt><trkpt lat="50.5384779721" lon="7.00079896487">
        <ele>294.8</ele>
        <time>2014-04-18T13:26:49Z</time>
      </trkpt><trkpt lat="50.5383669958" lon="7.00078899041">
        <ele>294.3</ele>
        <time>2014-04-18T13:26:50Z</time>
      </trkpt><trkpt lat="50.5379049852" lon="7.00074699707">
        <ele>291.9</ele>
        <time>2014-04-18T13:26:54Z</time>
      </trkpt><trkpt lat="50.5377800111" lon="7.00072897598">
        <ele>291.4</ele>
        <time>2014-04-18T13:26:55Z</time>
      </trkpt><trkpt lat="50.5376660172" lon="7.00067197904">
        <ele>290.9</ele>
        <time>2014-04-18T13:26:57Z</time>
      </trkpt><trkpt lat="50.5375550408" lon="7.00057701208">
        <ele>290.5</ele>
        <time>2014-04-18T13:26:58Z</time>
      </trkpt><trkpt lat="50.5374490097" lon="7.00046301819">
        <ele>289.5</ele>
        <time>2014-04-18T13:26:59Z</time>
      </trkpt><trkpt lat="50.5373449903" lon="7.00035103597">
        <ele>289</ele>
        <time>2014-04-18T13:27:00Z</time>
      </trkpt><trkpt lat="50.5372409709" lon="7.00023896992">
        <ele>288.5</ele>
        <time>2014-04-18T13:27:01Z</time>
      </trkpt><trkpt lat="50.5362250004" lon="6.99918402359">
        <ele>281.8</ele>
        <time>2014-04-18T13:27:12Z</time>
      </trkpt><trkpt lat="50.5352599919" lon="6.99828104116">
        <ele>274.6</ele>
        <time>2014-04-18T13:27:22Z</time>
      </trkpt><trkpt lat="50.5347719975" lon="6.99797300622">
        <ele>274.1</ele>
        <time>2014-04-18T13:27:26Z</time>
      </trkpt><trkpt lat="50.5341049656" lon="6.99776697904">
        <ele>273.6</ele>
        <time>2014-04-18T13:27:32Z</time>
      </trkpt><trkpt lat="50.5339339748" lon="6.99773303233">
        <ele>273.2</ele>
        <time>2014-04-18T13:27:34Z</time>
      </trkpt><trkpt lat="50.5337680131" lon="6.99778097682">
        <ele>272.7</ele>
        <time>2014-04-18T13:27:35Z</time>
      </trkpt><trkpt lat="50.5335950106" lon="6.99783001095">
        <ele>271.7</ele>
        <time>2014-04-18T13:27:37Z</time>
      </trkpt><trkpt lat="50.5334250256" lon="6.99787896127">
        <ele>271.2</ele>
        <time>2014-04-18T13:27:38Z</time>
      </trkpt><trkpt lat="50.5329969618" lon="6.99810703285">
        <ele>269.3</ele>
        <time>2014-04-18T13:27:42Z</time>
      </trkpt><trkpt lat="50.5328750052" lon="6.99820300564">
        <ele>269.3</ele>
        <time>2014-04-18T13:27:43Z</time>
      </trkpt><trkpt lat="50.5327620171" lon="6.99835597537">
        <ele>268.8</ele>
        <time>2014-04-18T13:27:45Z</time>
      </trkpt><trkpt lat="50.5326439999" lon="6.99851498008">
        <ele>268.4</ele>
        <time>2014-04-18T13:27:46Z</time>
      </trkpt><trkpt lat="50.5325269885" lon="6.99867398478">
        <ele>267.9</ele>
        <time>2014-04-18T13:27:48Z</time>
      </trkpt><trkpt lat="50.5322829913" lon="6.99898403138">
        <ele>266.4</ele>
        <time>2014-04-18T13:27:50Z</time>
      </trkpt><trkpt lat="50.5321629625" lon="6.99901797809">
        <ele>265.5</ele>
        <time>2014-04-18T13:27:51Z</time>
      </trkpt><trkpt lat="50.5320450291" lon="6.99905200861">
        <ele>264.5</ele>
        <time>2014-04-18T13:27:52Z</time>
      </trkpt><trkpt lat="50.531932041" lon="6.99904597364">
        <ele>264</ele>
        <time>2014-04-18T13:27:53Z</time>
      </trkpt><trkpt lat="50.5318310391" lon="6.99902099557">
        <ele>263.1</ele>
        <time>2014-04-18T13:27:54Z</time>
      </trkpt><trkpt lat="50.5317509919" lon="6.99891303666">
        <ele>262.6</ele>
        <time>2014-04-18T13:27:55Z</time>
      </trkpt><trkpt lat="50.5316700228" lon="6.99879200198">
        <ele>262.1</ele>
        <time>2014-04-18T13:27:56Z</time>
      </trkpt><trkpt lat="50.5315899756" lon="6.99865596369">
        <ele>261.1</ele>
        <time>2014-04-18T13:27:57Z</time>
      </trkpt><trkpt lat="50.5315009598" lon="6.99850399978">
        <ele>260.7</ele>
        <time>2014-04-18T13:27:58Z</time>
      </trkpt><trkpt lat="50.5307019968" lon="6.99718401767">
        <ele>258.3</ele>
        <time>2014-04-18T13:28:09Z</time>
      </trkpt><trkpt lat="50.5303870048" lon="6.99668303132">
        <ele>256.8</ele>
        <time>2014-04-18T13:28:13Z</time>
      </trkpt><trkpt lat="50.5297759641" lon="6.99518996291">
        <ele>252.5</ele>
        <time>2014-04-18T13:28:23Z</time>
      </trkpt><trkpt lat="50.528833" lon="6.99285401031">
        <ele>239.5</ele>
        <time>2014-04-18T13:28:38Z</time>
      </trkpt><trkpt lat="50.5277980026" lon="6.99152296409">
        <ele>237.6</ele>
        <time>2014-04-18T13:28:50Z</time>
      </trkpt><trkpt lat="50.526933996" lon="6.98999796063">
        <ele>239.5</ele>
        <time>2014-04-18T13:29:01Z</time>
      </trkpt><trkpt lat="50.5258829892" lon="6.98779301718">
        <ele>243.8</ele>
        <time>2014-04-18T13:29:17Z</time>
      </trkpt><trkpt lat="50.5247309804" lon="6.98697502725">
        <ele>247.2</ele>
        <time>2014-04-18T13:29:28Z</time>
      </trkpt><trkpt lat="50.5234320369" lon="6.98702297173">
        <ele>251</ele>
        <time>2014-04-18T13:29:39Z</time>
      </trkpt><trkpt lat="50.5215649679" lon="6.98758497834">
        <ele>255.9</ele>
        <time>2014-04-18T13:29:56Z</time>
      </trkpt><trkpt lat="50.5203780066" lon="6.98749797419">
        <ele>257.3</ele>
        <time>2014-04-18T13:30:07Z</time>
      </trkpt><trkpt lat="50.5193140078" lon="6.98670404032">
        <ele>255.4</ele>
        <time>2014-04-18T13:30:17Z</time>
      </trkpt><trkpt lat="50.5143540166" lon="6.98309496045">
        <ele>200.6</ele>
        <time>2014-04-18T13:31:05Z</time>
      </trkpt><trkpt lat="50.5141909886" lon="6.98314198293">
        <ele>199.1</ele>
        <time>2014-04-18T13:31:07Z</time>
      </trkpt><trkpt lat="50.5140240211" lon="6.98314198293">
        <ele>198.7</ele>
        <time>2014-04-18T13:31:08Z</time>
      </trkpt><trkpt lat="50.5133660417" lon="6.98304198682">
        <ele>194.3</ele>
        <time>2014-04-18T13:31:14Z</time>
      </trkpt><trkpt lat="50.5131790414" lon="6.98293997906">
        <ele>193.4</ele>
        <time>2014-04-18T13:31:16Z</time>
      </trkpt><trkpt lat="50.512792971" lon="6.98270696215">
        <ele>192.9</ele>
        <time>2014-04-18T13:31:19Z</time>
      </trkpt><trkpt lat="50.5126189627" lon="6.98253999464">
        <ele>190.5</ele>
        <time>2014-04-18T13:31:21Z</time>
      </trkpt><trkpt lat="50.512453001" lon="6.98235400021">
        <ele>188.6</ele>
        <time>2014-04-18T13:31:23Z</time>
      </trkpt><trkpt lat="50.5122939963" lon="6.98215803131">
        <ele>187.6</ele>
        <time>2014-04-18T13:31:25Z</time>
      </trkpt><trkpt lat="50.5121390149" lon="6.98195602745">
        <ele>187.1</ele>
        <time>2014-04-18T13:31:26Z</time>
      </trkpt><trkpt lat="50.5109180231" lon="6.98073897511">
        <ele>180.4</ele>
        <time>2014-04-18T13:31:39Z</time>
      </trkpt><trkpt lat="50.5097690318" lon="6.98000597768">
        <ele>176.5</ele>
        <time>2014-04-18T13:31:50Z</time>
      </trkpt><trkpt lat="50.5078380089" lon="6.98016900569">
        <ele>167.4</ele>
        <time>2014-04-18T13:32:07Z</time>
      </trkpt><trkpt lat="50.5066890176" lon="6.98084701784">
        <ele>176.1</ele>
        <time>2014-04-18T13:32:18Z</time>
      </trkpt><trkpt lat="50.5062710121" lon="6.98107299395">
        <ele>176.1</ele>
        <time>2014-04-18T13:32:22Z</time>
      </trkpt><trkpt lat="50.5061610416" lon="6.98106997646">
        <ele>176.5</ele>
        <time>2014-04-18T13:32:23Z</time>
      </trkpt><trkpt lat="50.5060550105" lon="6.98105698451">
        <ele>176.5</ele>
        <time>2014-04-18T13:32:24Z</time>
      </trkpt><trkpt lat="50.5059459619" lon="6.98104298674">
        <ele>176.5</ele>
        <time>2014-04-18T13:32:25Z</time>
      </trkpt><trkpt lat="50.5058329739" lon="6.98101901449">
        <ele>177</ele>
        <time>2014-04-18T13:32:26Z</time>
      </trkpt><trkpt lat="50.5044939648" lon="6.98066999204">
        <ele>177.5</ele>
        <time>2014-04-18T13:32:38Z</time>
      </trkpt><trkpt lat="50.5032690335" lon="6.98035198264">
        <ele>179.4</ele>
        <time>2014-04-18T13:32:49Z</time>
      </trkpt><trkpt lat="50.5025439989" lon="6.98019398376">
        <ele>179.9</ele>
        <time>2014-04-18T13:32:55Z</time>
      </trkpt><trkpt lat="50.501505984" lon="6.98029096238">
        <ele>180.9</ele>
        <time>2014-04-18T13:33:04Z</time>
      </trkpt><trkpt lat="50.5000860058" lon="6.98075003922">
        <ele>180.4</ele>
        <time>2014-04-18T13:33:17Z</time>
      </trkpt><trkpt lat="50.4991739709" lon="6.98111599311">
        <ele>180.9</ele>
        <time>2014-04-18T13:33:25Z</time>
      </trkpt><trkpt lat="50.4990469851" lon="6.981229987">
        <ele>180.4</ele>
        <time>2014-04-18T13:33:26Z</time>
      </trkpt><trkpt lat="50.4989120364" lon="6.98135102168">
        <ele>180.9</ele>
        <time>2014-04-18T13:33:28Z</time>
      </trkpt><trkpt lat="50.4987780098" lon="6.98150298558">
        <ele>180.9</ele>
        <time>2014-04-18T13:33:29Z</time>
      </trkpt><trkpt lat="50.498631997" lon="6.98172602803">
        <ele>180.9</ele>
        <time>2014-04-18T13:33:31Z</time>
      </trkpt><trkpt lat="50.4976399988" lon="6.98330299929">
        <ele>182.8</ele>
        <time>2014-04-18T13:33:44Z</time>
      </trkpt><trkpt lat="50.4972879589" lon="6.9840759784">
        <ele>183.3</ele>
        <time>2014-04-18T13:33:49Z</time>
      </trkpt><trkpt lat="50.4964640178" lon="6.98651603423">
        <ele>182.8</ele>
        <time>2014-04-18T13:34:04Z</time>
      </trkpt><trkpt lat="50.4958040267" lon="6.988259973">
        <ele>184.7</ele>
        <time>2014-04-18T13:34:16Z</time>
      </trkpt><trkpt lat="50.4957030248" lon="6.98841202073">
        <ele>184.7</ele>
        <time>2014-04-18T13:34:17Z</time>
      </trkpt><trkpt lat="50.4956059624" lon="6.98855199851">
        <ele>184.7</ele>
        <time>2014-04-18T13:34:18Z</time>
      </trkpt><trkpt lat="50.4954740312" lon="6.98864000849">
        <ele>184.7</ele>
        <time>2014-04-18T13:34:19Z</time>
      </trkpt><trkpt lat="50.4953329638" lon="6.98873497546">
        <ele>184.7</ele>
        <time>2014-04-18T13:34:21Z</time>
      </trkpt><trkpt lat="50.4951850232" lon="6.98881502263">
        <ele>184.7</ele>
        <time>2014-04-18T13:34:22Z</time>
      </trkpt><trkpt lat="50.495010009" lon="6.98884997517">
        <ele>184.7</ele>
        <time>2014-04-18T13:34:24Z</time>
      </trkpt><trkpt lat="50.4948520102" lon="6.98884997517">
        <ele>184.7</ele>
        <time>2014-04-18T13:34:25Z</time>
      </trkpt><trkpt lat="50.4946840368" lon="6.98881502263">
        <ele>184.7</ele>
        <time>2014-04-18T13:34:27Z</time>
      </trkpt><trkpt lat="50.494513968" lon="6.98873003013">
        <ele>184.7</ele>
        <time>2014-04-18T13:34:28Z</time>
      </trkpt><trkpt lat="50.4943480063" lon="6.98862299323">
        <ele>185.2</ele>
        <time>2014-04-18T13:34:30Z</time>
      </trkpt><trkpt lat="50.4941959586" lon="6.98848703876">
        <ele>185.2</ele>
        <time>2014-04-18T13:34:31Z</time>
      </trkpt><trkpt lat="50.4940679669" lon="6.98829500936">
        <ele>185.2</ele>
        <time>2014-04-18T13:34:33Z</time>
      </trkpt><trkpt lat="50.4939969722" lon="6.9880490005">
        <ele>185.7</ele>
        <time>2014-04-18T13:34:34Z</time>
      </trkpt><trkpt lat="50.4939180147" lon="6.98777399026">
        <ele>185.7</ele>
        <time>2014-04-18T13:34:36Z</time>
      </trkpt><trkpt lat="50.4938509595" lon="6.98746201582">
        <ele>185.7</ele>
        <time>2014-04-18T13:34:38Z</time>
      </trkpt><trkpt lat="50.4934669845" lon="6.98523201048">
        <ele>185.7</ele>
        <time>2014-04-18T13:34:51Z</time>
      </trkpt><trkpt lat="50.4929899704" lon="6.98217001744">
        <ele>187.1</ele>
        <time>2014-04-18T13:35:08Z</time>
      </trkpt><trkpt lat="50.4925909918" lon="6.97982098907">
        <ele>188.1</ele>
        <time>2014-04-18T13:35:22Z</time>
      </trkpt><trkpt lat="50.4921589885" lon="6.97723299265">
        <ele>189.5</ele>
        <time>2014-04-18T13:35:37Z</time>
      </trkpt><trkpt lat="50.4915460199" lon="6.97512896731">
        <ele>191.9</ele>
        <time>2014-04-18T13:35:50Z</time>
      </trkpt><trkpt lat="50.4914209619" lon="6.97494498454">
        <ele>191.9</ele>
        <time>2014-04-18T13:35:52Z</time>
      </trkpt><trkpt lat="50.4912799783" lon="6.97477097623">
        <ele>192.4</ele>
        <time>2014-04-18T13:35:53Z</time>
      </trkpt><trkpt lat="50.4903429653" lon="6.97366800159">
        <ele>193.8</ele>
        <time>2014-04-18T13:36:03Z</time>
      </trkpt><trkpt lat="50.4893350415" lon="6.97268597782">
        <ele>194.8</ele>
        <time>2014-04-18T13:36:14Z</time>
      </trkpt><trkpt lat="50.4892259929" lon="6.97259604">
        <ele>194.8</ele>
        <time>2014-04-18T13:36:15Z</time>
      </trkpt><trkpt lat="50.4891199619" lon="6.97251004167">
        <ele>194.8</ele>
        <time>2014-04-18T13:36:16Z</time>
      </trkpt><trkpt lat="50.4887049738" lon="6.97216998786">
        <ele>194.3</ele>
        <time>2014-04-18T13:36:20Z</time>
      </trkpt><trkpt lat="50.4876959603" lon="6.97181199677">
        <ele>192.4</ele>
        <time>2014-04-18T13:36:29Z</time>
      </trkpt><trkpt lat="50.4866880365" lon="6.97213302366">
        <ele>192.4</ele>
        <time>2014-04-18T13:36:38Z</time>
      </trkpt><trkpt lat="50.4866020381" lon="6.97221097536">
        <ele>192.4</ele>
        <time>2014-04-18T13:36:39Z</time>
      </trkpt><trkpt lat="50.4865240026" lon="6.97232396342">
        <ele>192.4</ele>
        <time>2014-04-18T13:36:40Z</time>
      </trkpt><trkpt lat="50.4864390101" lon="6.97244600393">
        <ele>192.4</ele>
        <time>2014-04-18T13:36:41Z</time>
      </trkpt><trkpt lat="50.4863469768" lon="6.97257600725">
        <ele>192.4</ele>
        <time>2014-04-18T13:36:42Z</time>
      </trkpt><trkpt lat="50.4862729646" lon="6.97272101417">
        <ele>192.4</ele>
        <time>2014-04-18T13:36:43Z</time>
      </trkpt><trkpt lat="50.486175986" lon="6.97298001498">
        <ele>192.4</ele>
        <time>2014-04-18T13:36:45Z</time>
      </trkpt><trkpt lat="50.4861489963" lon="6.97308101691">
        <ele>192.4</ele>
        <time>2014-04-18T13:36:46Z</time>
      </trkpt><trkpt lat="50.4861260299" lon="6.97316500358">
        <ele>192.4</ele>
        <time>2014-04-18T13:36:46Z</time>
      </trkpt><trkpt lat="50.4860179871" lon="6.97351402603">
        <ele>191.9</ele>
        <time>2014-04-18T13:36:48Z</time>
      </trkpt><trkpt lat="50.4859719705" lon="6.9735720288">
        <ele>191.9</ele>
        <time>2014-04-18T13:36:49Z</time>
      </trkpt><trkpt lat="50.485917991" lon="6.97363900021">
        <ele>191.9</ele>
        <time>2014-04-18T13:36:49Z</time>
      </trkpt><trkpt lat="50.4858589824" lon="6.97370303795">
        <ele>192.4</ele>
        <time>2014-04-18T13:36:50Z</time>
      </trkpt><trkpt lat="50.4857689608" lon="6.97372097522">
        <ele>191.9</ele>
        <time>2014-04-18T13:36:51Z</time>
      </trkpt><trkpt lat="50.4856709763" lon="6.97374000214">
        <ele>191.9</ele>
        <time>2014-04-18T13:36:52Z</time>
      </trkpt><trkpt lat="50.4855719861" lon="6.97376003489">
        <ele>191.9</ele>
        <time>2014-04-18T13:36:53Z</time>
      </trkpt><trkpt lat="50.4846949875" lon="6.97367202491">
        <ele>191.4</ele>
        <time>2014-04-18T13:37:00Z</time>
      </trkpt><trkpt lat="50.4832790326" lon="6.97307397611">
        <ele>192.4</ele>
        <time>2014-04-18T13:37:13Z</time>
      </trkpt><trkpt lat="50.4820540175" lon="6.9722930342">
        <ele>194.8</ele>
        <time>2014-04-18T13:37:25Z</time>
      </trkpt><trkpt lat="50.4815999698" lon="6.97189698927">
        <ele>195.3</ele>
        <time>2014-04-18T13:37:29Z</time>
      </trkpt><trkpt lat="50.4807699937" lon="6.97060902603">
        <ele>196.3</ele>
        <time>2014-04-18T13:37:40Z</time>
      </trkpt><trkpt lat="50.4794749897" lon="6.96839896962">
        <ele>195.8</ele>
        <time>2014-04-18T13:37:57Z</time>
      </trkpt><trkpt lat="50.4793210141" lon="6.96819897741">
        <ele>195.3</ele>
        <time>2014-04-18T13:37:58Z</time>
      </trkpt><trkpt lat="50.4779000301" lon="6.96684697643">
        <ele>195.3</ele>
        <time>2014-04-18T13:38:13Z</time>
      </trkpt><trkpt lat="50.4764789622" lon="6.96526598185">
        <ele>196.7</ele>
        <time>2014-04-18T13:38:28Z</time>
      </trkpt><trkpt lat="50.4753790051" lon="6.9631829951">
        <ele>197.7</ele>
        <time>2014-04-18T13:38:44Z</time>
      </trkpt><trkpt lat="50.4744989891" lon="6.96120603941">
        <ele>198.7</ele>
        <time>2014-04-18T13:38:57Z</time>
      </trkpt><trkpt lat="50.4744409863" lon="6.96088199504">
        <ele>199.1</ele>
        <time>2014-04-18T13:38:59Z</time>
      </trkpt><trkpt lat="50.4744150024" lon="6.96056096815">
        <ele>199.6</ele>
        <time>2014-04-18T13:39:01Z</time>
      </trkpt><trkpt lat="50.4743890185" lon="6.96023197845">
        <ele>200.6</ele>
        <time>2014-04-18T13:39:03Z</time>
      </trkpt><trkpt lat="50.4743640404" lon="6.95989502594">
        <ele>201.1</ele>
        <time>2014-04-18T13:39:05Z</time>
      </trkpt><trkpt lat="50.4740910418" lon="6.95697896183">
        <ele>203.5</ele>
        <time>2014-04-18T13:39:21Z</time>
      </trkpt><trkpt lat="50.4740939755" lon="6.95458701812">
        <ele>202</ele>
        <time>2014-04-18T13:39:34Z</time>
      </trkpt><trkpt lat="50.4739539977" lon="6.95227503777">
        <ele>202.5</ele>
        <time>2014-04-18T13:39:47Z</time>
      </trkpt><trkpt lat="50.4738970008" lon="6.95200497285">
        <ele>202.5</ele>
        <time>2014-04-18T13:39:49Z</time>
      </trkpt><trkpt lat="50.4731009714" lon="6.95043101907">
        <ele>203</ele>
        <time>2014-04-18T13:40:00Z</time>
      </trkpt><trkpt lat="50.4719499685" lon="6.94950599223">
        <ele>203</ele>
        <time>2014-04-18T13:40:12Z</time>
      </trkpt><trkpt lat="50.4717629682" lon="6.94944296032">
        <ele>203</ele>
        <time>2014-04-18T13:40:13Z</time>
      </trkpt><trkpt lat="50.471575968" lon="6.94938101806">
        <ele>203.5</ele>
        <time>2014-04-18T13:40:15Z</time>
      </trkpt><trkpt lat="50.4713830166" lon="6.94939803332">
        <ele>203.5</ele>
        <time>2014-04-18T13:40:17Z</time>
      </trkpt><trkpt lat="50.4711879697" lon="6.94943700917">
        <ele>203.9</ele>
        <time>2014-04-18T13:40:19Z</time>
      </trkpt><trkpt lat="50.4709950183" lon="6.94947598502">
        <ele>203.9</ele>
        <time>2014-04-18T13:40:20Z</time>
      </trkpt><trkpt lat="50.4708039947" lon="6.94953599945">
        <ele>203.9</ele>
        <time>2014-04-18T13:40:22Z</time>
      </trkpt><trkpt lat="50.4706139769" lon="6.94962400943">
        <ele>203.9</ele>
        <time>2014-04-18T13:40:24Z</time>
      </trkpt><trkpt lat="50.4691779893" lon="6.95038600825">
        <ele>205.9</ele>
        <time>2014-04-18T13:40:37Z</time>
      </trkpt><trkpt lat="50.4690110218" lon="6.95053696632">
        <ele>205.9</ele>
        <time>2014-04-18T13:40:39Z</time>
      </trkpt><trkpt lat="50.4683159944" lon="6.95114901289">
        <ele>205.9</ele>
        <time>2014-04-18T13:40:46Z</time>
      </trkpt><trkpt lat="50.4666189943" lon="6.95194495842">
        <ele>205.4</ele>
        <time>2014-04-18T13:41:01Z</time>
      </trkpt><trkpt lat="50.4650169611" lon="6.95216297172">
        <ele>204.9</ele>
        <time>2014-04-18T13:41:16Z</time>
      </trkpt><trkpt lat="50.4648260213" lon="6.95209700614">
        <ele>204.9</ele>
        <time>2014-04-18T13:41:17Z</time>
      </trkpt><trkpt lat="50.4646349978" lon="6.9520179648">
        <ele>204.4</ele>
        <time>2014-04-18T13:41:19Z</time>
      </trkpt><trkpt lat="50.4644479975" lon="6.95193699561">
        <ele>204.4</ele>
        <time>2014-04-18T13:41:21Z</time>
      </trkpt><trkpt lat="50.4642719775" lon="6.95179400034">
        <ele>204.4</ele>
        <time>2014-04-18T13:41:23Z</time>
      </trkpt><trkpt lat="50.4640950356" lon="6.95164899342">
        <ele>203.9</ele>
        <time>2014-04-18T13:41:24Z</time>
      </trkpt><trkpt lat="50.4622289725" lon="6.95004302077">
        <ele>203.9</ele>
        <time>2014-04-18T13:41:43Z</time>
      </trkpt><trkpt lat="50.4606560245" lon="6.94874198176">
        <ele>203</ele>
        <time>2014-04-18T13:41:59Z</time>
      </trkpt><trkpt lat="50.4604759812" lon="6.9486809615">
        <ele>203</ele>
        <time>2014-04-18T13:42:00Z</time>
      </trkpt><trkpt lat="50.460282024" lon="6.9486809615">
        <ele>203</ele>
        <time>2014-04-18T13:42:02Z</time>
      </trkpt><trkpt lat="50.4600839596" lon="6.94869495928">
        <ele>203.5</ele>
        <time>2014-04-18T13:42:04Z</time>
      </trkpt><trkpt lat="50.4598749988" lon="6.94873200729">
        <ele>203.9</ele>
        <time>2014-04-18T13:42:06Z</time>
      </trkpt><trkpt lat="50.4582860414" lon="6.94901598617">
        <ele>206.8</ele>
        <time>2014-04-18T13:42:20Z</time>
      </trkpt><trkpt lat="50.4581029806" lon="6.9489689637">
        <ele>206.8</ele>
        <time>2014-04-18T13:42:21Z</time>
      </trkpt><trkpt lat="50.4579269607" lon="6.94889302365">
        <ele>206.8</ele>
        <time>2014-04-18T13:42:23Z</time>
      </trkpt><trkpt lat="50.4577439837" lon="6.94881498814">
        <ele>207.3</ele>
        <time>2014-04-18T13:42:25Z</time>
      </trkpt><trkpt lat="50.4575589951" lon="6.94873603061">
        <ele>207.8</ele>
        <time>2014-04-18T13:42:26Z</time>
      </trkpt><trkpt lat="50.4573740065" lon="6.94865598343">
        <ele>208.3</ele>
        <time>2014-04-18T13:42:28Z</time>
      </trkpt><trkpt lat="50.4571890179" lon="6.94857702591">
        <ele>208.3</ele>
        <time>2014-04-18T13:42:30Z</time>
      </trkpt><trkpt lat="50.4564649891" lon="6.94828298874">
        <ele>209.7</ele>
        <time>2014-04-18T13:42:36Z</time>
      </trkpt><trkpt lat="50.456289975" lon="6.94815801457">
        <ele>209.7</ele>
        <time>2014-04-18T13:42:38Z</time>
      </trkpt><trkpt lat="50.456113033" lon="6.94803203456">
        <ele>209.7</ele>
        <time>2014-04-18T13:42:40Z</time>
      </trkpt><trkpt lat="50.4559410363" lon="6.94786699489">
        <ele>210.2</ele>
        <time>2014-04-18T13:42:41Z</time>
      </trkpt><trkpt lat="50.4557879828" lon="6.94764898159">
        <ele>210.2</ele>
        <time>2014-04-18T13:42:43Z</time>
      </trkpt><trkpt lat="50.4556330014" lon="6.94742702879">
        <ele>210.2</ele>
        <time>2014-04-18T13:42:45Z</time>
      </trkpt><trkpt lat="50.45547802" lon="6.947205998">
        <ele>210.7</ele>
        <time>2014-04-18T13:42:47Z</time>
      </trkpt><trkpt lat="50.4552060273" lon="6.94673996419">
        <ele>211.2</ele>
        <time>2014-04-18T13:42:51Z</time>
      </trkpt><trkpt lat="50.4551089648" lon="6.94648901001">
        <ele>211.2</ele>
        <time>2014-04-18T13:42:52Z</time>
      </trkpt><trkpt lat="50.4550429992" lon="6.94622598588">
        <ele>211.2</ele>
        <time>2014-04-18T13:42:54Z</time>
      </trkpt><trkpt lat="50.454805959" lon="6.94550296292">
        <ele>211.6</ele>
        <time>2014-04-18T13:42:58Z</time>
      </trkpt><trkpt lat="50.4547140095" lon="6.94527396932">
        <ele>211.6</ele>
        <time>2014-04-18T13:43:00Z</time>
      </trkpt><trkpt lat="50.4545880295" lon="6.94507397711">
        <ele>212.1</ele>
        <time>2014-04-18T13:43:01Z</time>
      </trkpt><trkpt lat="50.4544379935" lon="6.94491296075">
        <ele>212.6</ele>
        <time>2014-04-18T13:43:03Z</time>
      </trkpt><trkpt lat="50.4542820062" lon="6.94474398158">
        <ele>212.6</ele>
        <time>2014-04-18T13:43:05Z</time>
      </trkpt><trkpt lat="50.4541199841" lon="6.94456997328">
        <ele>212.6</ele>
        <time>2014-04-18T13:43:06Z</time>
      </trkpt><trkpt lat="50.4529699869" lon="6.94388399832">
        <ele>213.1</ele>
        <time>2014-04-18T13:43:17Z</time>
      </trkpt><trkpt lat="50.4516279604" lon="6.94340497255">
        <ele>213.6</ele>
        <time>2014-04-18T13:43:29Z</time>
      </trkpt><trkpt lat="50.4508600105" lon="6.94270399399">
        <ele>213.1</ele>
        <time>2014-04-18T13:43:37Z</time>
      </trkpt><trkpt lat="50.4506350402" lon="6.94229302928">
        <ele>212.6</ele>
        <time>2014-04-18T13:43:40Z</time>
      </trkpt><trkpt lat="50.4502669908" lon="6.94171601906">
        <ele>212.1</ele>
        <time>2014-04-18T13:43:45Z</time>
      </trkpt><trkpt lat="50.4501229897" lon="6.94154301658">
        <ele>212.1</ele>
        <time>2014-04-18T13:43:46Z</time>
      </trkpt><trkpt lat="50.4492380284" lon="6.94059200585">
        <ele>214</ele>
        <time>2014-04-18T13:43:56Z</time>
      </trkpt><trkpt lat="50.4491009843" lon="6.94047499448">
        <ele>214</ele>
        <time>2014-04-18T13:43:57Z</time>
      </trkpt><trkpt lat="50.4489620123" lon="6.94035496563">
        <ele>214</ele>
        <time>2014-04-18T13:43:59Z</time>
      </trkpt><trkpt lat="50.448794039" lon="6.94029201753">
        <ele>214.5</ele>
        <time>2014-04-18T13:44:00Z</time>
      </trkpt><trkpt lat="50.4486229643" lon="6.94022797979">
        <ele>214.5</ele>
        <time>2014-04-18T13:44:02Z</time>
      </trkpt><trkpt lat="50.4484539852" lon="6.94020601921">
        <ele>214.5</ele>
        <time>2014-04-18T13:44:03Z</time>
      </trkpt><trkpt lat="50.4473500047" lon="6.93976404145">
        <ele>214.5</ele>
        <time>2014-04-18T13:44:13Z</time>
      </trkpt><trkpt lat="50.4468979686" lon="6.93940303288">
        <ele>214.5</ele>
        <time>2014-04-18T13:44:18Z</time>
      </trkpt><trkpt lat="50.4460769612" lon="6.93859602325">
        <ele>214</ele>
        <time>2014-04-18T13:44:26Z</time>
      </trkpt><trkpt lat="50.4457160365" lon="6.93823996">
        <ele>216.9</ele>
        <time>2014-04-18T13:44:30Z</time>
      </trkpt><trkpt lat="50.4456400126" lon="6.93813501857">
        <ele>216.9</ele>
        <time>2014-04-18T13:44:31Z</time>
      </trkpt><trkpt lat="50.4455639888" lon="6.93800099194">
        <ele>217.4</ele>
        <time>2014-04-18T13:44:32Z</time>
      </trkpt><trkpt lat="50.4448790196" lon="6.93688502535">
        <ele>217.9</ele>
        <time>2014-04-18T13:44:41Z</time>
      </trkpt><trkpt lat="50.4446149897" lon="6.9365800079">
        <ele>217.9</ele>
        <time>2014-04-18T13:44:44Z</time>
      </trkpt><trkpt lat="50.4436300322" lon="6.93593099713">
        <ele>217.9</ele>
        <time>2014-04-18T13:44:53Z</time>
      </trkpt><trkpt lat="50.4430270381" lon="6.93553796969">
        <ele>217.9</ele>
        <time>2014-04-18T13:44:59Z</time>
      </trkpt><trkpt lat="50.4423529655" lon="6.93484595977">
        <ele>218.4</ele>
        <time>2014-04-18T13:45:06Z</time>
      </trkpt><trkpt lat="50.4422940407" lon="6.9347769767">
        <ele>217.9</ele>
        <time>2014-04-18T13:45:06Z</time>
      </trkpt><trkpt lat="50.4422010016" lon="6.93467102945">
        <ele>217.9</ele>
        <time>2014-04-18T13:45:07Z</time>
      </trkpt><trkpt lat="50.4422399774" lon="6.93456499837">
        <ele>216.9</ele>
        <time>2014-04-18T13:45:08Z</time>
      </trkpt><trkpt lat="50.442254981" lon="6.9345439598">
        <ele>216.9</ele>
        <time>2014-04-18T13:45:08Z</time>
      </trkpt><trkpt lat="50.4422750138" lon="6.93451596424">
        <ele>216.9</ele>
        <time>2014-04-18T13:45:09Z</time>
      </trkpt><trkpt lat="50.4423020035" lon="6.93447799422">
        <ele>216.9</ele>
        <time>2014-04-18T13:45:09Z</time>
      </trkpt><trkpt lat="50.442336034" lon="6.93442996591">
        <ele>216.9</ele>
        <time>2014-04-18T13:45:09Z</time>
      </trkpt><trkpt lat="50.4423790332" lon="6.93437003531">
        <ele>216.9</ele>
        <time>2014-04-18T13:45:10Z</time>
      </trkpt><trkpt lat="50.4424460046" lon="6.93428303115">
        <ele>216.9</ele>
        <time>2014-04-18T13:45:11Z</time>
      </trkpt><trkpt lat="50.4429080151" lon="6.93333000876">
        <ele>220.3</ele>
        <time>2014-04-18T13:45:17Z</time>
      </trkpt><trkpt lat="50.4433390126" lon="6.93224698305">
        <ele>224.6</ele>
        <time>2014-04-18T13:45:24Z</time>
      </trkpt><trkpt lat="50.4433909804" lon="6.93209099583">
        <ele>224.6</ele>
        <time>2014-04-18T13:45:25Z</time>
      </trkpt><trkpt lat="50.4434260167" lon="6.93193601444">
        <ele>224.6</ele>
        <time>2014-04-18T13:45:26Z</time>
      </trkpt><trkpt lat="50.4434850253" lon="6.93027899601">
        <ele>227.5</ele>
        <time>2014-04-18T13:45:36Z</time>
      </trkpt><trkpt lat="50.4435550142" lon="6.9298240263">
        <ele>228</ele>
        <time>2014-04-18T13:45:38Z</time>
      </trkpt><trkpt lat="50.4436059762" lon="6.92960198969">
        <ele>228</ele>
        <time>2014-04-18T13:45:40Z</time>
      </trkpt><trkpt lat="50.4437690042" lon="6.92889698781">
        <ele>228.5</ele>
        <time>2014-04-18T13:45:44Z</time>
      </trkpt><trkpt lat="50.4437919706" lon="6.92816097289">
        <ele>229.4</ele>
        <time>2014-04-18T13:45:48Z</time>
      </trkpt><trkpt lat="50.4438219778" lon="6.92585796118">
        <ele>230.4</ele>
        <time>2014-04-18T13:46:01Z</time>
      </trkpt><trkpt lat="50.443789959" lon="6.92559896037">
        <ele>230.4</ele>
        <time>2014-04-18T13:46:02Z</time>
      </trkpt><trkpt lat="50.443738997" lon="6.92532202229">
        <ele>230.4</ele>
        <time>2014-04-18T13:46:04Z</time>
      </trkpt><trkpt lat="50.4436619673" lon="6.92507098429">
        <ele>230.4</ele>
        <time>2014-04-18T13:46:06Z</time>
      </trkpt><trkpt lat="50.4435649887" lon="6.92480200902">
        <ele>230.4</ele>
        <time>2014-04-18T13:46:07Z</time>
      </trkpt><trkpt lat="50.4428169876" lon="6.92311096005">
        <ele>229.9</ele>
        <time>2014-04-18T13:46:19Z</time>
      </trkpt><trkpt lat="50.442084996" lon="6.92176599987">
        <ele>228</ele>
        <time>2014-04-18T13:46:29Z</time>
      </trkpt><trkpt lat="50.4412879609" lon="6.91997403279">
        <ele>224.6</ele>
        <time>2014-04-18T13:46:41Z</time>
      </trkpt><trkpt lat="50.4405109584" lon="6.91784997471">
        <ele>223.6</ele>
        <time>2014-04-18T13:46:55Z</time>
      </trkpt><trkpt lat="50.4403399676" lon="6.91734999418">
        <ele>223.6</ele>
        <time>2014-04-18T13:46:58Z</time>
      </trkpt><trkpt lat="50.4402859882" lon="6.91719098948">
        <ele>224.1</ele>
        <time>2014-04-18T13:46:59Z</time>
      </trkpt><trkpt lat="50.440104017" lon="6.91655295901">
        <ele>225.1</ele>
        <time>2014-04-18T13:47:03Z</time>
      </trkpt><trkpt lat="50.4400839843" lon="6.91637702286">
        <ele>225.1</ele>
        <time>2014-04-18T13:47:04Z</time>
      </trkpt><trkpt lat="50.4400210362" lon="6.91587100737">
        <ele>225.1</ele>
        <time>2014-04-18T13:47:07Z</time>
      </trkpt><trkpt lat="50.439984994" lon="6.91571099684">
        <ele>225.6</ele>
        <time>2014-04-18T13:47:08Z</time>
      </trkpt><trkpt lat="50.4398119915" lon="6.9152400177">
        <ele>226.1</ele>
        <time>2014-04-18T13:47:11Z</time>
      </trkpt><trkpt lat="50.4397809785" lon="6.91505704075">
        <ele>226.1</ele>
        <time>2014-04-18T13:47:12Z</time>
      </trkpt><trkpt lat="50.4397489596" lon="6.91486299969">
        <ele>226.1</ele>
        <time>2014-04-18T13:47:13Z</time>
      </trkpt><trkpt lat="50.4395239893" lon="6.91391299479">
        <ele>227</ele>
        <time>2014-04-18T13:47:19Z</time>
      </trkpt><trkpt lat="50.4390140343" lon="6.91248295829">
        <ele>228</ele>
        <time>2014-04-18T13:47:28Z</time>
      </trkpt><trkpt lat="50.4390069935" lon="6.91231498495">
        <ele>228</ele>
        <time>2014-04-18T13:47:29Z</time>
      </trkpt><trkpt lat="50.4390199855" lon="6.91215497442">
        <ele>228.5</ele>
        <time>2014-04-18T13:47:30Z</time>
      </trkpt><trkpt lat="50.4390339833" lon="6.91199001856">
        <ele>228.5</ele>
        <time>2014-04-18T13:47:31Z</time>
      </trkpt><trkpt lat="50.4390520044" lon="6.91180502996">
        <ele>228.5</ele>
        <time>2014-04-18T13:47:32Z</time>
      </trkpt><trkpt lat="50.4391090013" lon="6.91163403913">
        <ele>228.5</ele>
        <time>2014-04-18T13:47:33Z</time>
      </trkpt><trkpt lat="50.4395870212" lon="6.91008799709">
        <ele>229.9</ele>
        <time>2014-04-18T13:47:42Z</time>
      </trkpt><trkpt lat="50.4396939743" lon="6.90974702127">
        <ele>229.9</ele>
        <time>2014-04-18T13:47:45Z</time>
      </trkpt><trkpt lat="50.4397489596" lon="6.90957100131">
        <ele>230.4</ele>
        <time>2014-04-18T13:47:46Z</time>
      </trkpt><trkpt lat="50.4401740059" lon="6.9081220217">
        <ele>230.9</ele>
        <time>2014-04-18T13:47:55Z</time>
      </trkpt><trkpt lat="50.4412899725" lon="6.90473196097">
        <ele>232.3</ele>
        <time>2014-04-18T13:48:16Z</time>
      </trkpt><trkpt lat="50.442097988" lon="6.90352303907">
        <ele>233.3</ele>
        <time>2014-04-18T13:48:26Z</time>
      </trkpt><trkpt lat="50.443229964" lon="6.90283999778">
        <ele>235.7</ele>
        <time>2014-04-18T13:48:37Z</time>
      </trkpt><trkpt lat="50.4442129936" lon="6.90250396729">
        <ele>238.1</ele>
        <time>2014-04-18T13:48:45Z</time>
      </trkpt><trkpt lat="50.4449510202" lon="6.90232803114">
        <ele>240.5</ele>
        <time>2014-04-18T13:48:52Z</time>
      </trkpt><trkpt lat="50.4450380243" lon="6.90226600505">
        <ele>240.5</ele>
        <time>2014-04-18T13:48:53Z</time>
      </trkpt><trkpt lat="50.4451270401" lon="6.90220297314">
        <ele>240.5</ele>
        <time>2014-04-18T13:48:54Z</time>
      </trkpt><trkpt lat="50.4452009685" lon="6.90213399008">
        <ele>240.5</ele>
        <time>2014-04-18T13:48:54Z</time>
      </trkpt><trkpt lat="50.4452670179" lon="6.90201899037">
        <ele>241</ele>
        <time>2014-04-18T13:48:55Z</time>
      </trkpt><trkpt lat="50.4453349952" lon="6.9018980395">
        <ele>241</ele>
        <time>2014-04-18T13:48:56Z</time>
      </trkpt><trkpt lat="50.4453779943" lon="6.90176401287">
        <ele>241.4</ele>
        <time>2014-04-18T13:48:57Z</time>
      </trkpt><trkpt lat="50.4454130307" lon="6.90160701983">
        <ele>241.4</ele>
        <time>2014-04-18T13:48:58Z</time>
      </trkpt><trkpt lat="50.4454449657" lon="6.90146000125">
        <ele>241.9</ele>
        <time>2014-04-18T13:48:59Z</time>
      </trkpt><trkpt lat="50.4454649985" lon="6.90131801181">
        <ele>241.9</ele>
        <time>2014-04-18T13:49:00Z</time>
      </trkpt><trkpt lat="50.4455479793" lon="6.90050697885">
        <ele>241</ele>
        <time>2014-04-18T13:49:04Z</time>
      </trkpt><trkpt lat="50.4455079976" lon="6.89942495897">
        <ele>239</ele>
        <time>2014-04-18T13:49:10Z</time>
      </trkpt><trkpt lat="50.4453390185" lon="6.89840898849">
        <ele>236.6</ele>
        <time>2014-04-18T13:49:16Z</time>
      </trkpt><trkpt lat="50.4450520221" lon="6.89738203771">
        <ele>234.7</ele>
        <time>2014-04-18T13:49:23Z</time>
      </trkpt><trkpt lat="50.4448449891" lon="6.89676102251">
        <ele>235.2</ele>
        <time>2014-04-18T13:49:27Z</time>
      </trkpt><trkpt lat="50.4444450047" lon="6.89556098543">
        <ele>235.2</ele>
        <time>2014-04-18T13:49:34Z</time>
      </trkpt><trkpt lat="50.44416002" lon="6.89439296722">
        <ele>235.2</ele>
        <time>2014-04-18T13:49:41Z</time>
      </trkpt><trkpt lat="50.4440000094" lon="6.89361303113">
        <ele>233.7</ele>
        <time>2014-04-18T13:49:46Z</time>
      </trkpt><trkpt lat="50.443984" lon="6.89350398257">
        <ele>233.3</ele>
        <time>2014-04-18T13:49:46Z</time>
      </trkpt><trkpt lat="50.443984" lon="6.89336199313">
        <ele>232.8</ele>
        <time>2014-04-18T13:49:47Z</time>
      </trkpt><trkpt lat="50.443984" lon="6.89321799204">
        <ele>232.3</ele>
        <time>2014-04-18T13:49:48Z</time>
      </trkpt><trkpt lat="50.443984" lon="6.89307399094">
        <ele>231.8</ele>
        <time>2014-04-18T13:49:49Z</time>
      </trkpt><trkpt lat="50.443984" lon="6.89294298179">
        <ele>231.8</ele>
        <time>2014-04-18T13:49:50Z</time>
      </trkpt><trkpt lat="50.4440040328" lon="6.89285698347">
        <ele>231.8</ele>
        <time>2014-04-18T13:49:50Z</time>
      </trkpt><trkpt lat="50.44403404" lon="6.89274399541">
        <ele>231.3</ele>
        <time>2014-04-18T13:49:51Z</time>
      </trkpt><trkpt lat="50.4440630414" lon="6.89263503067">
        <ele>231.3</ele>
        <time>2014-04-18T13:49:51Z</time>
      </trkpt><trkpt lat="50.4440900311" lon="6.8925360404">
        <ele>230.9</ele>
        <time>2014-04-18T13:49:52Z</time>
      </trkpt><trkpt lat="50.4441150092" lon="6.89243998379">
        <ele>230.4</ele>
        <time>2014-04-18T13:49:53Z</time>
      </trkpt><trkpt lat="50.4442200344" lon="6.89216103405">
        <ele>229.9</ele>
        <time>2014-04-18T13:49:54Z</time>
      </trkpt><trkpt lat="50.4442669731" lon="6.89206698909">
        <ele>229.4</ele>
        <time>2014-04-18T13:49:55Z</time>
      </trkpt><trkpt lat="50.4449709691" lon="6.89108898863">
        <ele>228.5</ele>
        <time>2014-04-18T13:50:03Z</time>
      </trkpt><trkpt lat="50.445549991" lon="6.89033998176">
        <ele>231.3</ele>
        <time>2014-04-18T13:50:10Z</time>
      </trkpt><trkpt lat="50.4460779671" lon="6.88996698707">
        <ele>237.1</ele>
        <time>2014-04-18T13:50:15Z</time>
      </trkpt><trkpt lat="50.446813982" lon="6.88954101875">
        <ele>246.2</ele>
        <time>2014-04-18T13:50:22Z</time>
      </trkpt><trkpt lat="50.4468610045" lon="6.88950397074">
        <ele>247.2</ele>
        <time>2014-04-18T13:50:22Z</time>
      </trkpt><trkpt lat="50.446901992" lon="6.88947203569">
        <ele>247.7</ele>
        <time>2014-04-18T13:50:23Z</time>
      </trkpt><trkpt lat="50.4469350167" lon="6.88944596797">
        <ele>247.7</ele>
        <time>2014-04-18T13:50:23Z</time>
      </trkpt><trkpt lat="50.4469630122" lon="6.88942400739">
        <ele>248.2</ele>
        <time>2014-04-18T13:50:23Z</time>
      </trkpt><trkpt lat="50.4469900019" lon="6.88940397464">
        <ele>248.6</ele>
        <time>2014-04-18T13:50:24Z</time>
      </trkpt><trkpt lat="50.4470370244" lon="6.88931797631">
        <ele>250.6</ele>
        <time>2014-04-18T13:50:24Z</time>
      </trkpt><trkpt lat="50.4470640142" lon="6.88907096162">
        <ele>251</ele>
        <time>2014-04-18T13:50:26Z</time>
      </trkpt><trkpt lat="50.447096033" lon="6.88876099885">
        <ele>251.5</ele>
        <time>2014-04-18T13:50:28Z</time>
      </trkpt><trkpt lat="50.4471279681" lon="6.88873501495">
        <ele>251.5</ele>
        <time>2014-04-18T13:50:28Z</time>
      </trkpt><trkpt lat="50.447398033" lon="6.88851599582">
        <ele>254.4</ele>
        <time>2014-04-18T13:50:31Z</time>
      </trkpt><trkpt lat="50.4474139586" lon="6.88850300387">
        <ele>254.9</ele>
        <time>2014-04-18T13:50:31Z</time>
      </trkpt><trkpt lat="50.4474309739" lon="6.88848900609">
        <ele>255.4</ele>
        <time>2014-04-18T13:50:31Z</time>
      </trkpt><trkpt lat="50.4470309895" lon="6.88881397247">
        <ele>257.3</ele>
        <time>2014-04-18T13:50:35Z</time>
      </trkpt><trkpt lat="50.4474339914" lon="6.8884859886">
        <ele>257.3</ele>
        <time>2014-04-18T13:50:39Z</time>
      </trkpt><trkpt lat="50.446901992" lon="6.88859897666">
        <ele>257.8</ele>
        <time>2014-04-18T13:50:44Z</time>
      </trkpt><trkpt lat="50.4474579636" lon="6.88846603967">
        <ele>258.3</ele>
        <time>2014-04-18T13:50:48Z</time>
      </trkpt><trkpt lat="50.4474459775" lon="6.88847701997">
        <ele>257.8</ele>
        <time>2014-04-18T13:50:49Z</time>
      </trkpt><trkpt lat="50.4474309739" lon="6.88848800026">
        <ele>257.8</ele>
        <time>2014-04-18T13:50:49Z</time>
      </trkpt><trkpt lat="50.4473130405" lon="6.88858497888">
        <ele>257.3</ele>
        <time>2014-04-18T13:50:50Z</time>
      </trkpt><trkpt lat="50.4472650122" lon="6.88862403855">
        <ele>256.8</ele>
        <time>2014-04-18T13:50:50Z</time>
      </trkpt><trkpt lat="50.447222013" lon="6.88865798526">
        <ele>256.8</ele>
        <time>2014-04-18T13:50:51Z</time>
      </trkpt><trkpt lat="50.4470770061" lon="6.88877600245">
        <ele>255.9</ele>
        <time>2014-04-18T13:50:52Z</time>
      </trkpt><trkpt lat="50.4470179975" lon="6.88879301772">
        <ele>255.4</ele>
        <time>2014-04-18T13:50:53Z</time>
      </trkpt><trkpt lat="50.4469879903" lon="6.88874297775">
        <ele>254.9</ele>
        <time>2014-04-18T13:50:53Z</time>
      </trkpt><trkpt lat="50.4468419775" lon="6.88863996416">
        <ele>253.9</ele>
        <time>2014-04-18T13:50:55Z</time>
      </trkpt><trkpt lat="50.4467220325" lon="6.88867902383">
        <ele>253.9</ele>
        <time>2014-04-18T13:50:56Z</time>
      </trkpt><trkpt lat="50.4466409795" lon="6.88866896555">
        <ele>253.4</ele>
        <time>2014-04-18T13:50:56Z</time>
      </trkpt><trkpt lat="50.4465519637" lon="6.88865697943">
        <ele>253.4</ele>
        <time>2014-04-18T13:50:57Z</time>
      </trkpt><trkpt lat="50.44646102" lon="6.88864599913">
        <ele>253</ele>
        <time>2014-04-18T13:50:58Z</time>
      </trkpt><trkpt lat="50.4462949745" lon="6.88835196197">
        <ele>252</ele>
        <time>2014-04-18T13:51:00Z</time>
      </trkpt><trkpt lat="50.4462129995" lon="6.88828800805">
        <ele>252</ele>
        <time>2014-04-18T13:51:01Z</time>
      </trkpt><trkpt lat="50.4461460281" lon="6.88820796087">
        <ele>251.5</ele>
        <time>2014-04-18T13:51:02Z</time>
      </trkpt><trkpt lat="50.4460819904" lon="6.888131015">
        <ele>251</ele>
        <time>2014-04-18T13:51:02Z</time>
      </trkpt><trkpt lat="50.4460290167" lon="6.88802498393">
        <ele>250.6</ele>
        <time>2014-04-18T13:51:03Z</time>
      </trkpt><trkpt lat="50.4460010212" lon="6.8879059609">
        <ele>250.1</ele>
        <time>2014-04-18T13:51:04Z</time>
      </trkpt><trkpt lat="50.4459720198" lon="6.8877870217">
        <ele>249.6</ele>
        <time>2014-04-18T13:51:05Z</time>
      </trkpt><trkpt lat="50.4459460359" lon="6.88767596148">
        <ele>249.1</ele>
        <time>2014-04-18T13:51:05Z</time>
      </trkpt><trkpt lat="50.4457059782" lon="6.88665496185">
        <ele>243.4</ele>
        <time>2014-04-18T13:51:11Z</time>
      </trkpt><trkpt lat="50.4456919804" lon="6.88659402542">
        <ele>243.4</ele>
        <time>2014-04-18T13:51:12Z</time>
      </trkpt><trkpt lat="50.4456270207" lon="6.88630803488">
        <ele>242.9</ele>
        <time>2014-04-18T13:51:13Z</time>
      </trkpt><trkpt lat="50.4455130268" lon="6.88580302522">
        <ele>242.4</ele>
        <time>2014-04-18T13:51:16Z</time>
      </trkpt><trkpt lat="50.4454980232" lon="6.88573697582">
        <ele>242.4</ele>
        <time>2014-04-18T13:51:17Z</time>
      </trkpt><trkpt lat="50.4454869591" lon="6.88567000441">
        <ele>242.9</ele>
        <time>2014-04-18T13:51:17Z</time>
      </trkpt><trkpt lat="50.4454980232" lon="6.88554301858">
        <ele>242.9</ele>
        <time>2014-04-18T13:51:18Z</time>
      </trkpt><trkpt lat="50.4455049802" lon="6.88547302969">
        <ele>243.4</ele>
        <time>2014-04-18T13:51:18Z</time>
      </trkpt><trkpt lat="50.445512021" lon="6.88539398834">
        <ele>243.4</ele>
        <time>2014-04-18T13:51:19Z</time>
      </trkpt><trkpt lat="50.4455270246" lon="6.88522199169">
        <ele>243.4</ele>
        <time>2014-04-18T13:51:20Z</time>
      </trkpt><trkpt lat="50.4456659965" lon="6.88466903754">
        <ele>243.4</ele>
        <time>2014-04-18T13:51:23Z</time>
      </trkpt><trkpt lat="50.4456870351" lon="6.88460399397">
        <ele>243.8</ele>
        <time>2014-04-18T13:51:24Z</time>
      </trkpt><trkpt lat="50.4457310401" lon="6.88447499648">
        <ele>243.8</ele>
        <time>2014-04-18T13:51:24Z</time>
      </trkpt><trkpt lat="50.4459939804" lon="6.88385599293">
        <ele>244.3</ele>
        <time>2014-04-18T13:51:29Z</time>
      </trkpt><trkpt lat="50.4460639693" lon="6.8836850021">
        <ele>244.8</ele>
        <time>2014-04-18T13:51:30Z</time>
      </trkpt><trkpt lat="50.4465300031" lon="6.8825240247">
        <ele>246.7</ele>
        <time>2014-04-18T13:51:37Z</time>
      </trkpt><trkpt lat="50.44715303" lon="6.88064002432">
        <ele>248.6</ele>
        <time>2014-04-18T13:51:49Z</time>
      </trkpt><trkpt lat="50.4474100191" lon="6.87840901315">
        <ele>251</ele>
        <time>2014-04-18T13:52:02Z</time>
      </trkpt><trkpt lat="50.4472759925" lon="6.87661796808">
        <ele>253.9</ele>
        <time>2014-04-18T13:52:12Z</time>
      </trkpt><trkpt lat="50.4471739847" lon="6.87607700005">
        <ele>253.9</ele>
        <time>2014-04-18T13:52:15Z</time>
      </trkpt><trkpt lat="50.447146995" lon="6.87592897564">
        <ele>253.4</ele>
        <time>2014-04-18T13:52:16Z</time>
      </trkpt><trkpt lat="50.4471240286" lon="6.87581003644">
        <ele>253</ele>
        <time>2014-04-18T13:52:17Z</time>
      </trkpt><trkpt lat="50.44710299" lon="6.87571498565">
        <ele>253</ele>
        <time>2014-04-18T13:52:17Z</time>
      </trkpt><trkpt lat="50.4472559597" lon="6.87541902065">
        <ele>252.5</ele>
        <time>2014-04-18T13:52:20Z</time>
      </trkpt><trkpt lat="50.4478599597" lon="6.87437899411">
        <ele>252.5</ele>
        <time>2014-04-18T13:52:27Z</time>
      </trkpt><trkpt lat="50.4493090231" lon="6.87212903984">
        <ele>257.8</ele>
        <time>2014-04-18T13:52:45Z</time>
      </trkpt><trkpt lat="50.4503600299" lon="6.87062499113">
        <ele>260.2</ele>
        <time>2014-04-18T13:52:58Z</time>
      </trkpt><trkpt lat="50.4517380148" lon="6.86823296361">
        <ele>265</ele>
        <time>2014-04-18T13:53:16Z</time>
      </trkpt><trkpt lat="50.451900037" lon="6.86808703467">
        <ele>265.5</ele>
        <time>2014-04-18T13:53:18Z</time>
      </trkpt><trkpt lat="50.452063987" lon="6.86795300804">
        <ele>265.5</ele>
        <time>2014-04-18T13:53:19Z</time>
      </trkpt><trkpt lat="50.452246964" lon="6.86788603663">
        <ele>265.9</ele>
        <time>2014-04-18T13:53:21Z</time>
      </trkpt><trkpt lat="50.4524329584" lon="6.86781898141">
        <ele>266.4</ele>
        <time>2014-04-18T13:53:23Z</time>
      </trkpt><trkpt lat="50.4525239859" lon="6.86778604053">
        <ele>266.9</ele>
        <time>2014-04-18T13:53:24Z</time>
      </trkpt><trkpt lat="50.4531989805" lon="6.86795602553">
        <ele>268.4</ele>
        <time>2014-04-18T13:53:30Z</time>
      </trkpt><trkpt lat="50.4533979669" lon="6.86806297861">
        <ele>268.8</ele>
        <time>2014-04-18T13:53:31Z</time>
      </trkpt><trkpt lat="50.4548340384" lon="6.86873001046">
        <ele>271.7</ele>
        <time>2014-04-18T13:53:45Z</time>
      </trkpt><trkpt lat="50.4550470226" lon="6.86873001046">
        <ele>272.2</ele>
        <time>2014-04-18T13:53:46Z</time>
      </trkpt><trkpt lat="50.4564850219" lon="6.86850897968">
        <ele>276</ele>
        <time>2014-04-18T13:53:59Z</time>
      </trkpt><trkpt lat="50.4568270035" lon="6.86828903854">
        <ele>277</ele>
        <time>2014-04-18T13:54:02Z</time>
      </trkpt><trkpt lat="50.4569699988" lon="6.86810597777">
        <ele>278</ele>
        <time>2014-04-18T13:54:04Z</time>
      </trkpt><trkpt lat="50.4570989963" lon="6.86790397391">
        <ele>278.4</ele>
        <time>2014-04-18T13:54:06Z</time>
      </trkpt><trkpt lat="50.4572239704" lon="6.86767397448">
        <ele>278.9</ele>
        <time>2014-04-18T13:54:07Z</time>
      </trkpt><trkpt lat="50.4573139921" lon="6.86740499921">
        <ele>279.4</ele>
        <time>2014-04-18T13:54:09Z</time>
      </trkpt><trkpt lat="50.4574060254" lon="6.86712797731">
        <ele>279.4</ele>
        <time>2014-04-18T13:54:11Z</time>
      </trkpt><trkpt lat="50.457471991" lon="6.86681902036">
        <ele>279.4</ele>
        <time>2014-04-18T13:54:13Z</time>
      </trkpt><trkpt lat="50.4575350229" lon="6.86650302261">
        <ele>279.4</ele>
        <time>2014-04-18T13:54:15Z</time>
      </trkpt><trkpt lat="50.4580210056" lon="6.86313400045">
        <ele>279.4</ele>
        <time>2014-04-18T13:54:34Z</time>
      </trkpt><trkpt lat="50.4582769889" lon="6.86194402166">
        <ele>281.3</ele>
        <time>2014-04-18T13:54:41Z</time>
      </trkpt><trkpt lat="50.4583810084" lon="6.86176003888">
        <ele>281.3</ele>
        <time>2014-04-18T13:54:42Z</time>
      </trkpt><trkpt lat="50.4584860336" lon="6.86157303862">
        <ele>281.8</ele>
        <time>2014-04-18T13:54:44Z</time>
      </trkpt><trkpt lat="50.4585899692" lon="6.8613879662">
        <ele>282.3</ele>
        <time>2014-04-18T13:54:45Z</time>
      </trkpt><trkpt lat="50.4588389955" lon="6.86108403839">
        <ele>282.8</ele>
        <time>2014-04-18T13:54:48Z</time>
      </trkpt><trkpt lat="50.4600340035" lon="6.8603340257">
        <ele>285.7</ele>
        <time>2014-04-18T13:54:59Z</time>
      </trkpt><trkpt lat="50.4609059729" lon="6.86010402627">
        <ele>287.1</ele>
        <time>2014-04-18T13:55:07Z</time>
      </trkpt><trkpt lat="50.4610730242" lon="6.86015096493">
        <ele>287.6</ele>
        <time>2014-04-18T13:55:09Z</time>
      </trkpt><trkpt lat="50.4612379801" lon="6.86023402959">
        <ele>287.6</ele>
        <time>2014-04-18T13:55:10Z</time>
      </trkpt><trkpt lat="50.4614160117" lon="6.86033201404">
        <ele>288.1</ele>
        <time>2014-04-18T13:55:12Z</time>
      </trkpt><trkpt lat="50.4615470208" lon="6.86053502373">
        <ele>288.5</ele>
        <time>2014-04-18T13:55:13Z</time>
      </trkpt><trkpt lat="50.4616829753" lon="6.86074700207">
        <ele>288.5</ele>
        <time>2014-04-18T13:55:15Z</time>
      </trkpt><trkpt lat="50.4618159961" lon="6.8609660212">
        <ele>289</ele>
        <time>2014-04-18T13:55:17Z</time>
      </trkpt><trkpt lat="50.4619320016" lon="6.86120599508">
        <ele>290</ele>
        <time>2014-04-18T13:55:18Z</time>
      </trkpt><trkpt lat="50.4620449897" lon="6.86144102365">
        <ele>290.5</ele>
        <time>2014-04-18T13:55:20Z</time>
      </trkpt><trkpt lat="50.4622530285" lon="6.86187403277">
        <ele>291.4</ele>
        <time>2014-04-18T13:55:23Z</time>
      </trkpt><trkpt lat="50.4623540305" lon="6.86208098195">
        <ele>291.9</ele>
        <time>2014-04-18T13:55:25Z</time>
      </trkpt><trkpt lat="50.4624919966" lon="6.86221802607">
        <ele>292.4</ele>
        <time>2014-04-18T13:55:26Z</time>
      </trkpt><trkpt lat="50.4626309685" lon="6.86235699803">
        <ele>292.9</ele>
        <time>2014-04-18T13:55:27Z</time>
      </trkpt><trkpt lat="50.4627799988" lon="6.8624409847">
        <ele>293.8</ele>
        <time>2014-04-18T13:55:29Z</time>
      </trkpt><trkpt lat="50.4629499838" lon="6.86247996055">
        <ele>294.3</ele>
        <time>2014-04-18T13:55:30Z</time>
      </trkpt><trkpt lat="50.4631300271" lon="6.86252103187">
        <ele>294.8</ele>
        <time>2014-04-18T13:55:32Z</time>
      </trkpt><trkpt lat="50.4633099865" lon="6.86254399829">
        <ele>295.3</ele>
        <time>2014-04-18T13:55:34Z</time>
      </trkpt><trkpt lat="50.4635089729" lon="6.86252295971">
        <ele>295.7</ele>
        <time>2014-04-18T13:55:35Z</time>
      </trkpt><trkpt lat="50.4637099709" lon="6.86250200495">
        <ele>296.2</ele>
        <time>2014-04-18T13:55:37Z</time>
      </trkpt><trkpt lat="50.4644660186" lon="6.86251700856">
        <ele>297.7</ele>
        <time>2014-04-18T13:55:44Z</time>
      </trkpt><trkpt lat="50.4646510072" lon="6.86254198663">
        <ele>297.7</ele>
        <time>2014-04-18T13:55:45Z</time>
      </trkpt><trkpt lat="50.4648329783" lon="6.86263401993">
        <ele>298.2</ele>
        <time>2014-04-18T13:55:47Z</time>
      </trkpt><trkpt lat="50.4650039691" lon="6.86275203712">
        <ele>298.2</ele>
        <time>2014-04-18T13:55:49Z</time>
      </trkpt><trkpt lat="50.4651779775" lon="6.86287198216">
        <ele>298.6</ele>
        <time>2014-04-18T13:55:50Z</time>
      </trkpt><trkpt lat="50.4653369822" lon="6.86303400435">
        <ele>298.6</ele>
        <time>2014-04-18T13:55:52Z</time>
      </trkpt><trkpt lat="50.4654750321" lon="6.86323500238">
        <ele>299.1</ele>
        <time>2014-04-18T13:55:54Z</time>
      </trkpt><trkpt lat="50.4656180274" lon="6.86344304122">
        <ele>299.6</ele>
        <time>2014-04-18T13:55:55Z</time>
      </trkpt><trkpt lat="50.4657569993" lon="6.86365602538">
        <ele>300.1</ele>
        <time>2014-04-18T13:55:57Z</time>
      </trkpt><trkpt lat="50.465871999" lon="6.86390899122">
        <ele>300.6</ele>
        <time>2014-04-18T13:55:59Z</time>
      </trkpt><trkpt lat="50.4659890104" lon="6.86416598037">
        <ele>301</ele>
        <time>2014-04-18T13:56:01Z</time>
      </trkpt><trkpt lat="50.466853017" lon="6.86583196744">
        <ele>304.9</ele>
        <time>2014-04-18T13:56:13Z</time>
      </trkpt><trkpt lat="50.4669990297" lon="6.86602097936">
        <ele>305.4</ele>
        <time>2014-04-18T13:56:14Z</time>
      </trkpt><trkpt lat="50.4671449587" lon="6.86620999128">
        <ele>305.8</ele>
        <time>2014-04-18T13:56:16Z</time>
      </trkpt><trkpt lat="50.4672990181" lon="6.86636296101">
        <ele>306.3</ele>
        <time>2014-04-18T13:56:18Z</time>
      </trkpt><trkpt lat="50.4674700089" lon="6.86650402844">
        <ele>306.3</ele>
        <time>2014-04-18T13:56:19Z</time>
      </trkpt><trkpt lat="50.4676420055" lon="6.86664400622">
        <ele>306.8</ele>
        <time>2014-04-18T13:56:21Z</time>
      </trkpt><trkpt lat="50.4678239767" lon="6.86673302203">
        <ele>306.8</ele>
        <time>2014-04-18T13:56:23Z</time>
      </trkpt><trkpt lat="50.4680109769" lon="6.86680996791">
        <ele>307.3</ele>
        <time>2014-04-18T13:56:24Z</time>
      </trkpt><trkpt lat="50.4681959655" lon="6.86688398011">
        <ele>307.8</ele>
        <time>2014-04-18T13:56:26Z</time>
      </trkpt><trkpt lat="50.4683890007" lon="6.86688398011">
        <ele>308.2</ele>
        <time>2014-04-18T13:56:28Z</time>
      </trkpt><trkpt lat="50.4685839638" lon="6.86688398011">
        <ele>308.2</ele>
        <time>2014-04-18T13:56:30Z</time>
      </trkpt><trkpt lat="50.4687790107" lon="6.86688004062">
        <ele>308.7</ele>
        <time>2014-04-18T13:56:31Z</time>
      </trkpt><trkpt lat="50.4689759854" lon="6.86685196124">
        <ele>308.7</ele>
        <time>2014-04-18T13:56:33Z</time>
      </trkpt><trkpt lat="50.4691639915" lon="6.8667689804">
        <ele>308.7</ele>
        <time>2014-04-18T13:56:35Z</time>
      </trkpt><trkpt lat="50.4693479743" lon="6.86665599234">
        <ele>309.2</ele>
        <time>2014-04-18T13:56:36Z</time>
      </trkpt><trkpt lat="50.4695339687" lon="6.86654099263">
        <ele>309.2</ele>
        <time>2014-04-18T13:56:38Z</time>
      </trkpt><trkpt lat="50.4697000142" lon="6.86639598571">
        <ele>309.7</ele>
        <time>2014-04-18T13:56:40Z</time>
      </trkpt><trkpt lat="50.4698600248" lon="6.86622499488">
        <ele>310.2</ele>
        <time>2014-04-18T13:56:42Z</time>
      </trkpt><trkpt lat="50.4700200353" lon="6.86605400406">
        <ele>310.6</ele>
        <time>2014-04-18T13:56:43Z</time>
      </trkpt><trkpt lat="50.47017904" lon="6.86588401906">
        <ele>310.6</ele>
        <time>2014-04-18T13:56:45Z</time>
      </trkpt><trkpt lat="50.4703190178" lon="6.86568603851">
        <ele>311.1</ele>
        <time>2014-04-18T13:56:47Z</time>
      </trkpt><trkpt lat="50.4704480153" lon="6.86545997858">
        <ele>311.1</ele>
        <time>2014-04-18T13:56:48Z</time>
      </trkpt><trkpt lat="50.4705780186" lon="6.86523400247">
        <ele>311.6</ele>
        <time>2014-04-18T13:56:50Z</time>
      </trkpt><trkpt lat="50.4715110082" lon="6.8634759821">
        <ele>314.5</ele>
        <time>2014-04-18T13:57:03Z</time>
      </trkpt><trkpt lat="50.4716359824" lon="6.86331597157">
        <ele>315</ele>
        <time>2014-04-18T13:57:04Z</time>
      </trkpt><trkpt lat="50.4717799835" lon="6.8632130418">
        <ele>315.5</ele>
        <time>2014-04-18T13:57:06Z</time>
      </trkpt><trkpt lat="50.471933037" lon="6.86312603764">
        <ele>315.9</ele>
        <time>2014-04-18T13:57:07Z</time>
      </trkpt><trkpt lat="50.4720939696" lon="6.86308597215">
        <ele>316.4</ele>
        <time>2014-04-18T13:57:09Z</time>
      </trkpt><trkpt lat="50.4722620267" lon="6.8630729802">
        <ele>317.4</ele>
        <time>2014-04-18T13:57:10Z</time>
      </trkpt><trkpt lat="50.4724310059" lon="6.86310600489">
        <ele>317.9</ele>
        <time>2014-04-18T13:57:12Z</time>
      </trkpt><trkpt lat="50.4725829698" lon="6.86322997324">
        <ele>318.3</ele>
        <time>2014-04-18T13:57:13Z</time>
      </trkpt><trkpt lat="50.4727320001" lon="6.86337003484">
        <ele>318.8</ele>
        <time>2014-04-18T13:57:15Z</time>
      </trkpt><trkpt lat="50.4728739895" lon="6.86354697682">
        <ele>319.3</ele>
        <time>2014-04-18T13:57:16Z</time>
      </trkpt><trkpt lat="50.4730159789" lon="6.86372500844">
        <ele>319.8</ele>
        <time>2014-04-18T13:57:18Z</time>
      </trkpt><trkpt lat="50.4731230158" lon="6.8639489729">
        <ele>320.3</ele>
        <time>2014-04-18T13:57:19Z</time>
      </trkpt><trkpt lat="50.4732299689" lon="6.86419699341">
        <ele>320.7</ele>
        <time>2014-04-18T13:57:21Z</time>
      </trkpt><trkpt lat="50.4733380117" lon="6.86444501393">
        <ele>321.2</ele>
        <time>2014-04-18T13:57:23Z</time>
      </trkpt><trkpt lat="50.4736530036" lon="6.86515403911">
        <ele>322.7</ele>
        <time>2014-04-18T13:57:28Z</time>
      </trkpt><trkpt lat="50.4737779777" lon="6.86535101384">
        <ele>323.1</ele>
        <time>2014-04-18T13:57:29Z</time>
      </trkpt><trkpt lat="50.4739260022" lon="6.86549803242">
        <ele>323.6</ele>
        <time>2014-04-18T13:57:31Z</time>
      </trkpt><trkpt lat="50.4740730207" lon="6.86564303935">
        <ele>324.1</ele>
        <time>2014-04-18T13:57:32Z</time>
      </trkpt><trkpt lat="50.4742409941" lon="6.86572702602">
        <ele>324.6</ele>
        <time>2014-04-18T13:57:34Z</time>
      </trkpt><trkpt lat="50.4744109791" lon="6.86581101269">
        <ele>325.1</ele>
        <time>2014-04-18T13:57:35Z</time>
      </trkpt><trkpt lat="50.4745890107" lon="6.86581101269">
        <ele>325.1</ele>
        <time>2014-04-18T13:57:37Z</time>
      </trkpt><trkpt lat="50.4747689702" lon="6.86581101269">
        <ele>325.5</ele>
        <time>2014-04-18T13:57:39Z</time>
      </trkpt><trkpt lat="50.4749449901" lon="6.8657820113">
        <ele>326</ele>
        <time>2014-04-18T13:57:40Z</time>
      </trkpt><trkpt lat="50.4751060065" lon="6.86569299549">
        <ele>326</ele>
        <time>2014-04-18T13:57:42Z</time>
      </trkpt><trkpt lat="50.4752700403" lon="6.86556198634">
        <ele>326</ele>
        <time>2014-04-18T13:57:43Z</time>
      </trkpt><trkpt lat="50.4754349962" lon="6.86542997137">
        <ele>326.5</ele>
        <time>2014-04-18T13:57:45Z</time>
      </trkpt><trkpt lat="50.4755769856" lon="6.86524397694">
        <ele>327</ele>
        <time>2014-04-18T13:57:46Z</time>
      </trkpt><trkpt lat="50.4757240042" lon="6.86504398473">
        <ele>327</ele>
        <time>2014-04-18T13:57:48Z</time>
      </trkpt><trkpt lat="50.4770009872" lon="6.86338998377">
        <ele>329.9</ele>
        <time>2014-04-18T13:58:03Z</time>
      </trkpt><trkpt lat="50.4785519745" lon="6.86130196787">
        <ele>334.7</ele>
        <time>2014-04-18T13:58:21Z</time>
      </trkpt><trkpt lat="50.4808150046" lon="6.85832597315">
        <ele>342.9</ele>
        <time>2014-04-18T13:58:47Z</time>
      </trkpt><trkpt lat="50.4815709684" lon="6.85655303299">
        <ele>346.7</ele>
        <time>2014-04-18T13:58:59Z</time>
      </trkpt><trkpt lat="50.4821929894" lon="6.85477699153">
        <ele>350.5</ele>
        <time>2014-04-18T13:59:10Z</time>
      </trkpt><trkpt lat="50.4829620291" lon="6.8528720364">
        <ele>353.4</ele>
        <time>2014-04-18T13:59:23Z</time>
      </trkpt><trkpt lat="50.4838090204" lon="6.85182102956">
        <ele>354.9</ele>
        <time>2014-04-18T13:59:32Z</time>
      </trkpt><trkpt lat="50.4840489943" lon="6.85163796879">
        <ele>355.3</ele>
        <time>2014-04-18T13:59:35Z</time>
      </trkpt><trkpt lat="50.4841430392" lon="6.85154501349">
        <ele>355.3</ele>
        <time>2014-04-18T13:59:36Z</time>
      </trkpt><trkpt lat="50.4841520078" lon="6.85156404041">
        <ele>355.3</ele>
        <time>2014-04-18T13:59:36Z</time>
      </trkpt><trkpt lat="50.4842069931" lon="6.85154601932">
        <ele>356.3</ele>
        <time>2014-04-18T13:59:36Z</time>
      </trkpt><trkpt lat="50.4842130281" lon="6.85154501349">
        <ele>358.2</ele>
        <time>2014-04-18T13:59:36Z</time>
      </trkpt><trkpt lat="50.4841520078" lon="6.85156596825">
        <ele>358.2</ele>
        <time>2014-04-18T13:59:37Z</time>
      </trkpt><trkpt lat="50.4841520078" lon="6.85156404041">
        <ele>358.7</ele>
        <time>2014-04-18T13:59:37Z</time>
      </trkpt><trkpt lat="50.4842850287" lon="6.85152196325">
        <ele>358.7</ele>
        <time>2014-04-18T13:59:38Z</time>
      </trkpt><trkpt lat="50.4843440372" lon="6.85150402598">
        <ele>359.2</ele>
        <time>2014-04-18T13:59:39Z</time>
      </trkpt><trkpt lat="50.4844219889" lon="6.85147896409">
        <ele>359.2</ele>
        <time>2014-04-18T13:59:39Z</time>
      </trkpt><trkpt lat="50.4845089931" lon="6.85145197436">
        <ele>359.2</ele>
        <time>2014-04-18T13:59:40Z</time>
      </trkpt><trkpt lat="50.4846030381" lon="6.85142297298">
        <ele>359.7</ele>
        <time>2014-04-18T13:59:41Z</time>
      </trkpt><trkpt lat="50.4854159988" lon="6.85138500296">
        <ele>360.6</ele>
        <time>2014-04-18T13:59:48Z</time>
      </trkpt><trkpt lat="50.4865860287" lon="6.85187702067">
        <ele>362.1</ele>
        <time>2014-04-18T13:59:59Z</time>
      </trkpt><trkpt lat="50.4883370083" lon="6.85276499949">
        <ele>365</ele>
        <time>2014-04-18T14:00:15Z</time>
      </trkpt><trkpt lat="50.4885290377" lon="6.85276499949">
        <ele>365.4</ele>
        <time>2014-04-18T14:00:17Z</time>
      </trkpt><trkpt lat="50.4887199774" lon="6.85273901559">
        <ele>365.9</ele>
        <time>2014-04-18T14:00:18Z</time>
      </trkpt><trkpt lat="50.4889099952" lon="6.85269199312">
        <ele>366.4</ele>
        <time>2014-04-18T14:00:20Z</time>
      </trkpt><trkpt lat="50.4890929721" lon="6.8525840342">
        <ele>366.4</ele>
        <time>2014-04-18T14:00:22Z</time>
      </trkpt><trkpt lat="50.4892699979" lon="6.85245201923">
        <ele>366.9</ele>
        <time>2014-04-18T14:00:23Z</time>
      </trkpt><trkpt lat="50.4894219618" lon="6.85226099566">
        <ele>367.4</ele>
        <time>2014-04-18T14:00:25Z</time>
      </trkpt><trkpt lat="50.489577027" lon="6.85206796043">
        <ele>367.4</ele>
        <time>2014-04-18T14:00:27Z</time>
      </trkpt><trkpt lat="50.4897129815" lon="6.85185195878">
        <ele>367.8</ele>
        <time>2014-04-18T14:00:29Z</time>
      </trkpt><trkpt lat="50.4898529593" lon="6.85161902569">
        <ele>367.4</ele>
        <time>2014-04-18T14:00:30Z</time>
      </trkpt><trkpt lat="50.4899309948" lon="6.85135801323">
        <ele>367.4</ele>
        <time>2014-04-18T14:00:32Z</time>
      </trkpt><trkpt lat="50.4900109582" lon="6.85107897967">
        <ele>367.8</ele>
        <time>2014-04-18T14:00:34Z</time>
      </trkpt><trkpt lat="50.4900879879" lon="6.85080799274">
        <ele>368.3</ele>
        <time>2014-04-18T14:00:35Z</time>
      </trkpt><trkpt lat="50.4901670292" lon="6.85026501305">
        <ele>369.3</ele>
        <time>2014-04-18T14:00:39Z</time>
      </trkpt><trkpt lat="50.4901979584" lon="6.84997902252">
        <ele>369.8</ele>
        <time>2014-04-18T14:00:40Z</time>
      </trkpt><trkpt lat="50.4901780095" lon="6.84969898313">
        <ele>370.2</ele>
        <time>2014-04-18T14:00:42Z</time>
      </trkpt><trkpt lat="50.4901469965" lon="6.8494020123">
        <ele>370.7</ele>
        <time>2014-04-18T14:00:43Z</time>
      </trkpt><trkpt lat="50.4901139718" lon="6.84909800068">
        <ele>370.7</ele>
        <time>2014-04-18T14:00:45Z</time>
      </trkpt><trkpt lat="50.490080025" lon="6.84878200293">
        <ele>371.2</ele>
        <time>2014-04-18T14:00:47Z</time>
      </trkpt><trkpt lat="50.4898940306" lon="6.84627003036">
        <ele>372.2</ele>
        <time>2014-04-18T14:01:01Z</time>
      </trkpt><trkpt lat="50.4899889976" lon="6.84367197566">
        <ele>375.1</ele>
        <time>2014-04-18T14:01:16Z</time>
      </trkpt><trkpt lat="50.4900109582" lon="6.8422430288">
        <ele>377.5</ele>
        <time>2014-04-18T14:01:24Z</time>
      </trkpt><trkpt lat="50.4899930209" lon="6.84193197638">
        <ele>378.9</ele>
        <time>2014-04-18T14:01:25Z</time>
      </trkpt><trkpt lat="50.4899269715" lon="6.84163399972">
        <ele>379.9</ele>
        <time>2014-04-18T14:01:27Z</time>
      </trkpt><trkpt lat="50.4898510315" lon="6.84134800918">
        <ele>381.3</ele>
        <time>2014-04-18T14:01:29Z</time>
      </trkpt><trkpt lat="50.489753969" lon="6.84107903391">
        <ele>383.2</ele>
        <time>2014-04-18T14:01:31Z</time>
      </trkpt><trkpt lat="50.489634024" lon="6.84081198648">
        <ele>385.2</ele>
        <time>2014-04-18T14:01:33Z</time>
      </trkpt><trkpt lat="50.4895109776" lon="6.84053697623">
        <ele>387.1</ele>
        <time>2014-04-18T14:01:34Z</time>
      </trkpt><trkpt lat="50.4886339791" lon="6.83805501089">
        <ele>402</ele>
        <time>2014-04-18T14:01:50Z</time>
      </trkpt><trkpt lat="50.4878780153" lon="6.83443101123">
        <ele>415.4</ele>
        <time>2014-04-18T14:02:12Z</time>
      </trkpt><trkpt lat="50.48791104" lon="6.83238096535">
        <ele>422.6</ele>
        <time>2014-04-18T14:02:23Z</time>
      </trkpt><trkpt lat="50.4882560391" lon="6.83109803125">
        <ele>427.4</ele>
        <time>2014-04-18T14:02:31Z</time>
      </trkpt><trkpt lat="50.4883599747" lon="6.83078798465">
        <ele>429.4</ele>
        <time>2014-04-18T14:02:33Z</time>
      </trkpt><trkpt lat="50.4885079991" lon="6.8305230327">
        <ele>430.3</ele>
        <time>2014-04-18T14:02:35Z</time>
      </trkpt><trkpt lat="50.4886639863" lon="6.83027400635">
        <ele>431.8</ele>
        <time>2014-04-18T14:02:37Z</time>
      </trkpt><trkpt lat="50.4888280202" lon="6.8300359603">
        <ele>433.2</ele>
        <time>2014-04-18T14:02:39Z</time>
      </trkpt><trkpt lat="50.4889909644" lon="6.82979799807">
        <ele>434.7</ele>
        <time>2014-04-18T14:02:41Z</time>
      </trkpt><trkpt lat="50.4891720135" lon="6.82959297672">
        <ele>436.1</ele>
        <time>2014-04-18T14:02:43Z</time>
      </trkpt><trkpt lat="50.4893639591" lon="6.82940497063">
        <ele>437.5</ele>
        <time>2014-04-18T14:02:45Z</time>
      </trkpt><trkpt lat="50.4895699862" lon="6.82925099507">
        <ele>438.5</ele>
        <time>2014-04-18T14:02:47Z</time>
      </trkpt><trkpt lat="50.4897770192" lon="6.82909500785">
        <ele>439.9</ele>
        <time>2014-04-18T14:02:49Z</time>
      </trkpt><trkpt lat="50.4900029954" lon="6.82898503728">
        <ele>440.9</ele>
        <time>2014-04-18T14:02:51Z</time>
      </trkpt><trkpt lat="50.4902340006" lon="6.82890901342">
        <ele>442.3</ele>
        <time>2014-04-18T14:02:53Z</time>
      </trkpt><trkpt lat="50.4911260027" lon="6.82848002762">
        <ele>448.1</ele>
        <time>2014-04-18T14:03:01Z</time>
      </trkpt><trkpt lat="50.4913310241" lon="6.82833200321">
        <ele>449.6</ele>
        <time>2014-04-18T14:03:03Z</time>
      </trkpt><trkpt lat="50.491514001" lon="6.82811901905">
        <ele>450.5</ele>
        <time>2014-04-18T14:03:05Z</time>
      </trkpt><trkpt lat="50.4917020071" lon="6.82789999992">
        <ele>452</ele>
        <time>2014-04-18T14:03:07Z</time>
      </trkpt><trkpt lat="50.4918940365" lon="6.82767603546">
        <ele>453.4</ele>
        <time>2014-04-18T14:03:09Z</time>
      </trkpt><trkpt lat="50.4936969839" lon="6.82542197406">
        <ele>465.4</ele>
        <time>2014-04-18T14:03:30Z</time>
      </trkpt><trkpt lat="50.494676996" lon="6.82422403246">
        <ele>471.7</ele>
        <time>2014-04-18T14:03:41Z</time>
      </trkpt><trkpt lat="50.4956470337" lon="6.82385698892">
        <ele>475</ele>
        <time>2014-04-18T14:03:49Z</time>
      </trkpt><trkpt lat="50.4972939938" lon="6.82338500395">
        <ele>482.2</ele>
        <time>2014-04-18T14:04:04Z</time>
      </trkpt><trkpt lat="50.4983139876" lon="6.82244899683">
        <ele>489</ele>
        <time>2014-04-18T14:04:15Z</time>
      </trkpt><trkpt lat="50.4996160325" lon="6.8203080073">
        <ele>495.2</ele>
        <time>2014-04-18T14:04:31Z</time>
      </trkpt><trkpt lat="50.5002569966" lon="6.81949496269">
        <ele>495.2</ele>
        <time>2014-04-18T14:04:38Z</time>
      </trkpt><trkpt lat="50.5005200207" lon="6.8193139974">
        <ele>494.7</ele>
        <time>2014-04-18T14:04:41Z</time>
      </trkpt><trkpt lat="50.5006320029" lon="6.8192989938">
        <ele>494.3</ele>
        <time>2014-04-18T14:04:42Z</time>
      </trkpt><trkpt lat="50.5007610004" lon="6.81933403015">
        <ele>492.8</ele>
        <time>2014-04-18T14:04:43Z</time>
      </trkpt><trkpt lat="50.5008039996" lon="6.81923503987">
        <ele>492.3</ele>
        <time>2014-04-18T14:04:44Z</time>
      </trkpt><trkpt lat="50.5008060113" lon="6.81907502934">
        <ele>491.9</ele>
        <time>2014-04-18T14:04:45Z</time>
      </trkpt><trkpt lat="50.5008680373" lon="6.81903404184">
        <ele>491.4</ele>
        <time>2014-04-18T14:04:45Z</time>
      </trkpt><trkpt lat="50.500945989" lon="6.81898199022">
        <ele>490.9</ele>
        <time>2014-04-18T14:04:46Z</time>
      </trkpt><trkpt lat="50.5010429677" lon="6.81891703047">
        <ele>490.4</ele>
        <time>2014-04-18T14:04:47Z</time>
      </trkpt><trkpt lat="50.5011670198" lon="6.81884997524">
        <ele>489.9</ele>
        <time>2014-04-18T14:04:48Z</time>
      </trkpt><trkpt lat="50.5024600122" lon="6.81811102666">
        <ele>486.6</ele>
        <time>2014-04-18T14:05:00Z</time>
      </trkpt><trkpt lat="50.5034840293" lon="6.8170929607">
        <ele>483.7</ele>
        <time>2014-04-18T14:05:11Z</time>
      </trkpt><trkpt lat="50.504379971" lon="6.81531096809">
        <ele>473.1</ele>
        <time>2014-04-18T14:05:24Z</time>
      </trkpt><trkpt lat="50.5056080036" lon="6.81225802749">
        <ele>455.8</ele>
        <time>2014-04-18T14:05:44Z</time>
      </trkpt><trkpt lat="50.5059939902" lon="6.81041702628">
        <ele>447.6</ele>
        <time>2014-04-18T14:05:55Z</time>
      </trkpt><trkpt lat="50.50602098" lon="6.81007697247">
        <ele>445.7</ele>
        <time>2014-04-18T14:05:57Z</time>
      </trkpt><trkpt lat="50.5060239974" lon="6.80972602218">
        <ele>444.3</ele>
        <time>2014-04-18T14:05:59Z</time>
      </trkpt><trkpt lat="50.5059799924" lon="6.80937599391">
        <ele>442.8</ele>
        <time>2014-04-18T14:06:01Z</time>
      </trkpt><trkpt lat="50.5059400108" lon="6.80901599117">
        <ele>441.4</ele>
        <time>2014-04-18T14:06:03Z</time>
      </trkpt><trkpt lat="50.5059020407" lon="6.80866101757">
        <ele>439.5</ele>
        <time>2014-04-18T14:06:05Z</time>
      </trkpt><trkpt lat="50.50580699" lon="6.80832901038">
        <ele>438</ele>
        <time>2014-04-18T14:06:07Z</time>
      </trkpt><trkpt lat="50.5057130288" lon="6.80800102651">
        <ele>436.6</ele>
        <time>2014-04-18T14:06:09Z</time>
      </trkpt><trkpt lat="50.5052510183" lon="6.80582902394">
        <ele>427.4</ele>
        <time>2014-04-18T14:06:22Z</time>
      </trkpt><trkpt lat="50.5052340031" lon="6.80553297512">
        <ele>426</ele>
        <time>2014-04-18T14:06:23Z</time>
      </trkpt><trkpt lat="50.505240038" lon="6.80524597876">
        <ele>425</ele>
        <time>2014-04-18T14:06:25Z</time>
      </trkpt><trkpt lat="50.5052859709" lon="6.80496996269">
        <ele>423.6</ele>
        <time>2014-04-18T14:06:27Z</time>
      </trkpt><trkpt lat="50.5053329933" lon="6.80468698964">
        <ele>422.6</ele>
        <time>2014-04-18T14:06:28Z</time>
      </trkpt><trkpt lat="50.5054019764" lon="6.80442295969">
        <ele>421.7</ele>
        <time>2014-04-18T14:06:30Z</time>
      </trkpt><trkpt lat="50.5054909922" lon="6.80415499024">
        <ele>420.7</ele>
        <time>2014-04-18T14:06:31Z</time>
      </trkpt><trkpt lat="50.5055820197" lon="6.80388199165">
        <ele>419.8</ele>
        <time>2014-04-18T14:06:33Z</time>
      </trkpt><trkpt lat="50.5056720413" lon="6.80361201055">
        <ele>418.8</ele>
        <time>2014-04-18T14:06:35Z</time>
      </trkpt><trkpt lat="50.50584496" lon="6.80309501477">
        <ele>416.4</ele>
        <time>2014-04-18T14:06:38Z</time>
      </trkpt><trkpt lat="50.5059339758" lon="6.80251901038">
        <ele>415.4</ele>
        <time>2014-04-18T14:06:41Z</time>
      </trkpt><trkpt lat="50.5059720296" lon="6.80222597905">
        <ele>415</ele>
        <time>2014-04-18T14:06:43Z</time>
      </trkpt><trkpt lat="50.5059960019" lon="6.80194401182">
        <ele>414.5</ele>
        <time>2014-04-18T14:06:45Z</time>
      </trkpt><trkpt lat="50.5059960019" lon="6.80165802129">
        <ele>413.5</ele>
        <time>2014-04-18T14:06:46Z</time>
      </trkpt><trkpt lat="50.5059960019" lon="6.80137697607">
        <ele>413</ele>
        <time>2014-04-18T14:06:48Z</time>
      </trkpt><trkpt lat="50.5060239974" lon="6.80056300946">
        <ele>410.6</ele>
        <time>2014-04-18T14:06:52Z</time>
      </trkpt><trkpt lat="50.506039001" lon="6.80028699338">
        <ele>410.1</ele>
        <time>2014-04-18T14:06:54Z</time>
      </trkpt><trkpt lat="50.506102033" lon="6.80001097731">
        <ele>409.2</ele>
        <time>2014-04-18T14:06:56Z</time>
      </trkpt><trkpt lat="50.5061679985" lon="6.79973403923">
        <ele>408.2</ele>
        <time>2014-04-18T14:06:57Z</time>
      </trkpt><trkpt lat="50.5062430166" lon="6.79945902899">
        <ele>407.7</ele>
        <time>2014-04-18T14:06:59Z</time>
      </trkpt><trkpt lat="50.5063339602" lon="6.7991970107">
        <ele>406.8</ele>
        <time>2014-04-18T14:07:01Z</time>
      </trkpt><trkpt lat="50.5067289993" lon="6.79783998057">
        <ele>403.9</ele>
        <time>2014-04-18T14:07:09Z</time>
      </trkpt><trkpt lat="50.5067740101" lon="6.79754200391">
        <ele>403.4</ele>
        <time>2014-04-18T14:07:11Z</time>
      </trkpt><trkpt lat="50.5067920312" lon="6.79724402726">
        <ele>402.9</ele>
        <time>2014-04-18T14:07:12Z</time>
      </trkpt><trkpt lat="50.5068119802" lon="6.79693599232">
        <ele>402</ele>
        <time>2014-04-18T14:07:14Z</time>
      </trkpt><trkpt lat="50.506806029" lon="6.79658898152">
        <ele>401.5</ele>
        <time>2014-04-18T14:07:16Z</time>
      </trkpt><trkpt lat="50.5067640357" lon="6.79404700175">
        <ele>397.2</ele>
        <time>2014-04-18T14:07:30Z</time>
      </trkpt><trkpt lat="50.5067419913" lon="6.79101501592">
        <ele>390.9</ele>
        <time>2014-04-18T14:07:47Z</time>
      </trkpt><trkpt lat="50.507196961" lon="6.78912104107">
        <ele>385.2</ele>
        <time>2014-04-18T14:07:59Z</time>
      </trkpt><trkpt lat="50.5082440283" lon="6.78693504073">
        <ele>379.9</ele>
        <time>2014-04-18T14:08:14Z</time>
      </trkpt><trkpt lat="50.5088020116" lon="6.78468802013">
        <ele>375.5</ele>
        <time>2014-04-18T14:08:28Z</time>
      </trkpt><trkpt lat="50.5092070252" lon="6.78271802142">
        <ele>370.2</ele>
        <time>2014-04-18T14:08:39Z</time>
      </trkpt><trkpt lat="50.5097650085" lon="6.78143399768">
        <ele>365.9</ele>
        <time>2014-04-18T14:08:48Z</time>
      </trkpt><trkpt lat="50.5106769595" lon="6.78055398166">
        <ele>361.6</ele>
        <time>2014-04-18T14:08:57Z</time>
      </trkpt><trkpt lat="50.5116800219" lon="6.77989499643">
        <ele>357.8</ele>
        <time>2014-04-18T14:09:07Z</time>
      </trkpt><trkpt lat="50.5117830355" lon="6.77989499643">
        <ele>357.3</ele>
        <time>2014-04-18T14:09:08Z</time>
      </trkpt><trkpt lat="50.5118869711" lon="6.77989499643">
        <ele>357.3</ele>
        <time>2014-04-18T14:09:09Z</time>
      </trkpt><trkpt lat="50.511987973" lon="6.77993003279">
        <ele>356.8</ele>
        <time>2014-04-18T14:09:10Z</time>
      </trkpt><trkpt lat="50.5120929983" lon="6.77998300642">
        <ele>356.8</ele>
        <time>2014-04-18T14:09:11Z</time>
      </trkpt><trkpt lat="50.5121929944" lon="6.78007596172">
        <ele>356.8</ele>
        <time>2014-04-18T14:09:12Z</time>
      </trkpt><trkpt lat="50.5122939963" lon="6.78017101251">
        <ele>356.8</ele>
        <time>2014-04-18T14:09:13Z</time>
      </trkpt><trkpt lat="50.5133610126" lon="6.78125898354">
        <ele>354.9</ele>
        <time>2014-04-18T14:09:24Z</time>
      </trkpt><trkpt lat="50.5146629736" lon="6.7827320192">
        <ele>350.1</ele>
        <time>2014-04-18T14:09:38Z</time>
      </trkpt><trkpt lat="50.5157269724" lon="6.78383298218">
        <ele>347.7</ele>
        <time>2014-04-18T14:09:49Z</time>
      </trkpt><trkpt lat="50.5172559991" lon="6.78466203623">
        <ele>345.7</ele>
        <time>2014-04-18T14:10:03Z</time>
      </trkpt><trkpt lat="50.5189619679" lon="6.78475599736">
        <ele>345.3</ele>
        <time>2014-04-18T14:10:19Z</time>
      </trkpt><trkpt lat="50.5208230019" lon="6.78403900936">
        <ele>347.2</ele>
        <time>2014-04-18T14:10:35Z</time>
      </trkpt><trkpt lat="50.5216539837" lon="6.7838000413">
        <ele>347.7</ele>
        <time>2014-04-18T14:10:43Z</time>
      </trkpt><trkpt lat="50.521853976" lon="6.7838000413">
        <ele>348.1</ele>
        <time>2014-04-18T14:10:45Z</time>
      </trkpt><trkpt lat="50.5220529623" lon="6.78385100327">
        <ele>347.7</ele>
        <time>2014-04-18T14:10:46Z</time>
      </trkpt><trkpt lat="50.5222530384" lon="6.78393398412">
        <ele>347.7</ele>
        <time>2014-04-18T14:10:48Z</time>
      </trkpt><trkpt lat="50.5224530306" lon="6.78405895829">
        <ele>347.7</ele>
        <time>2014-04-18T14:10:50Z</time>
      </trkpt><trkpt lat="50.5226589739" lon="6.78420597687">
        <ele>347.7</ele>
        <time>2014-04-18T14:10:52Z</time>
      </trkpt><trkpt lat="50.5228719581" lon="6.78436498158">
        <ele>347.7</ele>
        <time>2014-04-18T14:10:54Z</time>
      </trkpt><trkpt lat="50.5247159768" lon="6.78556703031">
        <ele>347.2</ele>
        <time>2014-04-18T14:11:12Z</time>
      </trkpt><trkpt lat="50.5249309726" lon="6.78558496758">
        <ele>347.2</ele>
        <time>2014-04-18T14:11:14Z</time>
      </trkpt><trkpt lat="50.5251430348" lon="6.78560097702">
        <ele>346.7</ele>
        <time>2014-04-18T14:11:16Z</time>
      </trkpt><trkpt lat="50.5253530014" lon="6.78552201949">
        <ele>346.2</ele>
        <time>2014-04-18T14:11:17Z</time>
      </trkpt><trkpt lat="50.5255590286" lon="6.78544398397">
        <ele>345.7</ele>
        <time>2014-04-18T14:11:19Z</time>
      </trkpt><trkpt lat="50.525764972" lon="6.7853670381">
        <ele>345.7</ele>
        <time>2014-04-18T14:11:21Z</time>
      </trkpt><trkpt lat="50.525959013" lon="6.78524801508">
        <ele>345.7</ele>
        <time>2014-04-18T14:11:23Z</time>
      </trkpt><trkpt lat="50.5261490308" lon="6.78510501981">
        <ele>345.7</ele>
        <time>2014-04-18T14:11:25Z</time>
      </trkpt><trkpt lat="50.5263279844" lon="6.78492598236">
        <ele>345.7</ele>
        <time>2014-04-18T14:11:27Z</time>
      </trkpt><trkpt lat="50.5264989752" lon="6.78474199958">
        <ele>345.7</ele>
        <time>2014-04-18T14:11:29Z</time>
      </trkpt><trkpt lat="50.5266549625" lon="6.78452499211">
        <ele>345.7</ele>
        <time>2014-04-18T14:11:30Z</time>
      </trkpt><trkpt lat="50.5276799854" lon="6.78261098452">
        <ele>343.3</ele>
        <time>2014-04-18T14:11:44Z</time>
      </trkpt><trkpt lat="50.528826965" lon="6.78029900417">
        <ele>334.2</ele>
        <time>2014-04-18T14:12:01Z</time>
      </trkpt><trkpt lat="50.5303030182" lon="6.77837602794">
        <ele>326</ele>
        <time>2014-04-18T14:12:18Z</time>
      </trkpt><trkpt lat="50.5310119595" lon="6.77731202915">
        <ele>324.6</ele>
        <time>2014-04-18T14:12:26Z</time>
      </trkpt><trkpt lat="50.5310790148" lon="6.77714900114">
        <ele>324.6</ele>
        <time>2014-04-18T14:12:27Z</time>
      </trkpt><trkpt lat="50.5311439745" lon="6.77698999643">
        <ele>324.6</ele>
        <time>2014-04-18T14:12:29Z</time>
      </trkpt><trkpt lat="50.5318219867" lon="6.77494296804">
        <ele>320.7</ele>
        <time>2014-04-18T14:12:41Z</time>
      </trkpt><trkpt lat="50.5320690013" lon="6.77416495979">
        <ele>319.3</ele>
        <time>2014-04-18T14:12:46Z</time>
      </trkpt><trkpt lat="50.532115018" lon="6.77395599894">
        <ele>319.3</ele>
        <time>2014-04-18T14:12:48Z</time>
      </trkpt><trkpt lat="50.5321549997" lon="6.7737399973">
        <ele>318.8</ele>
        <time>2014-04-18T14:12:49Z</time>
      </trkpt><trkpt lat="50.532587003" lon="6.77109902725">
        <ele>315</ele>
        <time>2014-04-18T14:13:04Z</time>
      </trkpt><trkpt lat="50.5326389708" lon="6.77091496065">
        <ele>315</ele>
        <time>2014-04-18T14:13:05Z</time>
      </trkpt><trkpt lat="50.5327020027" lon="6.77074195817">
        <ele>315</ele>
        <time>2014-04-18T14:13:06Z</time>
      </trkpt><trkpt lat="50.5327630229" lon="6.77057499066">
        <ele>314.5</ele>
        <time>2014-04-18T14:13:07Z</time>
      </trkpt><trkpt lat="50.5328399688" lon="6.77042302676">
        <ele>314</ele>
        <time>2014-04-18T14:13:09Z</time>
      </trkpt><trkpt lat="50.5329159927" lon="6.77028698847">
        <ele>313.5</ele>
        <time>2014-04-18T14:13:10Z</time>
      </trkpt><trkpt lat="50.5329839699" lon="6.77016402595">
        <ele>313.5</ele>
        <time>2014-04-18T14:13:10Z</time>
      </trkpt><trkpt lat="50.5330680404" lon="6.77007601596">
        <ele>313.1</ele>
        <time>2014-04-18T14:13:11Z</time>
      </trkpt><trkpt lat="50.5331390351" lon="6.77000401542">
        <ele>313.1</ele>
        <time>2014-04-18T14:13:12Z</time>
      </trkpt><trkpt lat="50.5332899932" lon="6.76985297352">
        <ele>312.6</ele>
        <time>2014-04-18T14:13:14Z</time>
      </trkpt><trkpt lat="50.5333230179" lon="6.76986102015">
        <ele>313.1</ele>
        <time>2014-04-18T14:13:14Z</time>
      </trkpt><trkpt lat="50.5334619898" lon="6.76983796991">
        <ele>313.1</ele>
        <time>2014-04-18T14:13:15Z</time>
      </trkpt><trkpt lat="50.5334619898" lon="6.76978600211">
        <ele>313.1</ele>
        <time>2014-04-18T14:13:15Z</time>
      </trkpt><trkpt lat="50.5335719604" lon="6.76965398714">
        <ele>312.6</ele>
        <time>2014-04-18T14:13:17Z</time>
      </trkpt><trkpt lat="50.5336489901" lon="6.76963403821">
        <ele>312.1</ele>
        <time>2014-04-18T14:13:17Z</time>
      </trkpt><trkpt lat="50.5337410234" lon="6.76961098798">
        <ele>312.1</ele>
        <time>2014-04-18T14:13:18Z</time>
      </trkpt><trkpt lat="50.5338479765" lon="6.76958500408">
        <ele>312.1</ele>
        <time>2014-04-18T14:13:19Z</time>
      </trkpt><trkpt lat="50.533963982" lon="6.76955600269">
        <ele>312.1</ele>
        <time>2014-04-18T14:13:20Z</time>
      </trkpt><trkpt lat="50.5340840109" lon="6.76952599548">
        <ele>312.1</ele>
        <time>2014-04-18T14:13:21Z</time>
      </trkpt><trkpt lat="50.5351060163" lon="6.76967603154">
        <ele>311.1</ele>
        <time>2014-04-18T14:13:30Z</time>
      </trkpt><trkpt lat="50.5360860284" lon="6.76979899406">
        <ele>310.2</ele>
        <time>2014-04-18T14:13:39Z</time>
      </trkpt><trkpt lat="50.5362509843" lon="6.76976202987">
        <ele>310.2</ele>
        <time>2014-04-18T14:13:40Z</time>
      </trkpt><trkpt lat="50.5364150181" lon="6.76972598769">
        <ele>310.2</ele>
        <time>2014-04-18T14:13:42Z</time>
      </trkpt><trkpt lat="50.5375670269" lon="6.76916901022">
        <ele>309.2</ele>
        <time>2014-04-18T14:13:53Z</time>
      </trkpt><trkpt lat="50.5377279595" lon="6.76913699135">
        <ele>309.2</ele>
        <time>2014-04-18T14:13:54Z</time>
      </trkpt><trkpt lat="50.5378840305" lon="6.76912299357">
        <ele>309.2</ele>
        <time>2014-04-18T14:13:55Z</time>
      </trkpt><trkpt lat="50.5380390119" lon="6.76912299357">
        <ele>308.7</ele>
        <time>2014-04-18T14:13:57Z</time>
      </trkpt><trkpt lat="50.53818997" lon="6.76912198775">
        <ele>308.7</ele>
        <time>2014-04-18T14:13:58Z</time>
      </trkpt><trkpt lat="50.539195966" lon="6.76888100803">
        <ele>309.2</ele>
        <time>2014-04-18T14:14:07Z</time>
      </trkpt><trkpt lat="50.5404939875" lon="6.76819696091">
        <ele>312.1</ele>
        <time>2014-04-18T14:14:19Z</time>
      </trkpt><trkpt lat="50.5422860384" lon="6.7679379601">
        <ele>312.1</ele>
        <time>2014-04-18T14:14:35Z</time>
      </trkpt><trkpt lat="50.5438839644" lon="6.76757896319">
        <ele>310.2</ele>
        <time>2014-04-18T14:14:49Z</time>
      </trkpt><trkpt lat="50.5451020226" lon="6.76666701213">
        <ele>306.8</ele>
        <time>2014-04-18T14:15:01Z</time>
      </trkpt><trkpt lat="50.5466950033" lon="6.7651769612">
        <ele>301</ele>
        <time>2014-04-18T14:15:17Z</time>
      </trkpt><trkpt lat="50.5480100401" lon="6.7643599771">
        <ele>298.2</ele>
        <time>2014-04-18T14:15:30Z</time>
      </trkpt><trkpt lat="50.548488982" lon="6.76415503956">
        <ele>297.2</ele>
        <time>2014-04-18T14:15:34Z</time>
      </trkpt><trkpt lat="50.5486199912" lon="6.76411103457">
        <ele>296.7</ele>
        <time>2014-04-18T14:15:35Z</time>
      </trkpt><trkpt lat="50.5486619845" lon="6.76415302791">
        <ele>296.2</ele>
        <time>2014-04-18T14:15:36Z</time>
      </trkpt><trkpt lat="50.5487140361" lon="6.76420499571">
        <ele>295.7</ele>
        <time>2014-04-18T14:15:36Z</time>
      </trkpt><trkpt lat="50.5487710331" lon="6.76421002485">
        <ele>295.7</ele>
        <time>2014-04-18T14:15:37Z</time>
      </trkpt><trkpt lat="50.5488250125" lon="6.76417398266">
        <ele>295.7</ele>
        <time>2014-04-18T14:15:37Z</time>
      </trkpt><trkpt lat="50.548910005" lon="6.76405495964">
        <ele>295.7</ele>
        <time>2014-04-18T14:15:38Z</time>
      </trkpt><trkpt lat="50.5488870386" lon="6.7639979627">
        <ele>295.7</ele>
        <time>2014-04-18T14:15:39Z</time>
      </trkpt><trkpt lat="50.5488580372" lon="6.76376402378">
        <ele>296.2</ele>
        <time>2014-04-18T14:15:40Z</time>
      </trkpt><trkpt lat="50.5488919839" lon="6.76367802545">
        <ele>295.7</ele>
        <time>2014-04-18T14:15:41Z</time>
      </trkpt><trkpt lat="50.5489530042" lon="6.76362102851">
        <ele>295.3</ele>
        <time>2014-04-18T14:15:41Z</time>
      </trkpt><trkpt lat="50.549011007" lon="6.76360803656">
        <ele>295.3</ele>
        <time>2014-04-18T14:15:42Z</time>
      </trkpt><trkpt lat="50.5490740389" lon="6.76359403878">
        <ele>295.3</ele>
        <time>2014-04-18T14:15:42Z</time>
      </trkpt><trkpt lat="50.5491440278" lon="6.76357802935">
        <ele>294.8</ele>
        <time>2014-04-18T14:15:43Z</time>
      </trkpt><trkpt lat="50.5492170341" lon="6.76356201991">
        <ele>294.8</ele>
        <time>2014-04-18T14:15:44Z</time>
      </trkpt><trkpt lat="50.5501210224" lon="6.7634580005">
        <ele>291.9</ele>
        <time>2014-04-18T14:15:52Z</time>
      </trkpt><trkpt lat="50.5512519926" lon="6.76319497637">
        <ele>291.4</ele>
        <time>2014-04-18T14:16:02Z</time>
      </trkpt><trkpt lat="50.5515480414" lon="6.76312096417">
        <ele>290</ele>
        <time>2014-04-18T14:16:04Z</time>
      </trkpt><trkpt lat="50.5515829939" lon="6.76305298693">
        <ele>289.5</ele>
        <time>2014-04-18T14:16:05Z</time>
      </trkpt><trkpt lat="50.5515929684" lon="6.76299397834">
        <ele>289.5</ele>
        <time>2014-04-18T14:16:05Z</time>
      </trkpt><trkpt lat="50.5516030267" lon="6.76293203607">
        <ele>289.5</ele>
        <time>2014-04-18T14:16:06Z</time>
      </trkpt><trkpt lat="50.5516150128" lon="6.76286104135">
        <ele>289.5</ele>
        <time>2014-04-18T14:16:06Z</time>
      </trkpt><trkpt lat="50.551695982" lon="6.76237396896">
        <ele>289.5</ele>
        <time>2014-04-18T14:16:09Z</time>
      </trkpt><trkpt lat="50.5517379753" lon="6.76225796342">
        <ele>289</ele>
        <time>2014-04-18T14:16:10Z</time>
      </trkpt><trkpt lat="50.5517880153" lon="6.76213902421">
        <ele>289</ele>
        <time>2014-04-18T14:16:10Z</time>
      </trkpt><trkpt lat="50.5518480297" lon="6.76202896982">
        <ele>289</ele>
        <time>2014-04-18T14:16:11Z</time>
      </trkpt><trkpt lat="50.5519300047" lon="6.76196702756">
        <ele>288.5</ele>
        <time>2014-04-18T14:16:12Z</time>
      </trkpt><trkpt lat="50.5520190205" lon="6.76190902479">
        <ele>288.5</ele>
        <time>2014-04-18T14:16:13Z</time>
      </trkpt><trkpt lat="50.552123962" lon="6.7618800234">
        <ele>288.1</ele>
        <time>2014-04-18T14:16:14Z</time>
      </trkpt><trkpt lat="50.5522320047" lon="6.76185102202">
        <ele>288.1</ele>
        <time>2014-04-18T14:16:15Z</time>
      </trkpt><trkpt lat="50.5525400396" lon="6.76173501648">
        <ele>287.1</ele>
        <time>2014-04-18T14:16:17Z</time>
      </trkpt><trkpt lat="50.5526350066" lon="6.76166402176">
        <ele>287.1</ele>
        <time>2014-04-18T14:16:18Z</time>
      </trkpt><trkpt lat="50.5527260341" lon="6.76157500595">
        <ele>287.6</ele>
        <time>2014-04-18T14:16:19Z</time>
      </trkpt><trkpt lat="50.552821001" lon="6.76148096099">
        <ele>287.6</ele>
        <time>2014-04-18T14:16:20Z</time>
      </trkpt><trkpt lat="50.552909011" lon="6.76137501374">
        <ele>288.1</ele>
        <time>2014-04-18T14:16:21Z</time>
      </trkpt><trkpt lat="50.5529540218" lon="6.76122103818">
        <ele>288.5</ele>
        <time>2014-04-18T14:16:22Z</time>
      </trkpt><trkpt lat="50.5529990327" lon="6.76106203347">
        <ele>289</ele>
        <time>2014-04-18T14:16:23Z</time>
      </trkpt><trkpt lat="50.5530830193" lon="6.76074704155">
        <ele>289.5</ele>
        <time>2014-04-18T14:16:25Z</time>
      </trkpt><trkpt lat="50.5531110149" lon="6.76057697274">
        <ele>290.5</ele>
        <time>2014-04-18T14:16:26Z</time>
      </trkpt><trkpt lat="50.5531019624" lon="6.76041402854">
        <ele>290.9</ele>
        <time>2014-04-18T14:16:27Z</time>
      </trkpt><trkpt lat="50.5530810077" lon="6.76022803411">
        <ele>291.4</ele>
        <time>2014-04-18T14:16:28Z</time>
      </trkpt><trkpt lat="50.552840028" lon="6.75866397098">
        <ele>297.2</ele>
        <time>2014-04-18T14:16:37Z</time>
      </trkpt><trkpt lat="50.5528189894" lon="6.7584649846">
        <ele>297.7</ele>
        <time>2014-04-18T14:16:38Z</time>
      </trkpt><trkpt lat="50.5528439675" lon="6.75827899016">
        <ele>298.6</ele>
        <time>2014-04-18T14:16:39Z</time>
      </trkpt><trkpt lat="50.5529059935" lon="6.75782603212">
        <ele>300.6</ele>
        <time>2014-04-18T14:16:42Z</time>
      </trkpt><trkpt lat="50.5529339891" lon="6.75774196163">
        <ele>301.5</ele>
        <time>2014-04-18T14:16:42Z</time>
      </trkpt><trkpt lat="50.552997021" lon="6.75770801492">
        <ele>302</ele>
        <time>2014-04-18T14:16:43Z</time>
      </trkpt><trkpt lat="50.5530530121" lon="6.75774397328">
        <ele>302.5</ele>
        <time>2014-04-18T14:16:44Z</time>
      </trkpt><trkpt lat="50.5531059857" lon="6.75783198327">
        <ele>303</ele>
        <time>2014-04-18T14:16:44Z</time>
      </trkpt><trkpt lat="50.5531649943" lon="6.75795997493">
        <ele>303.4</ele>
        <time>2014-04-18T14:16:45Z</time>
      </trkpt><trkpt lat="50.5531830154" lon="6.75812903792">
        <ele>303.9</ele>
        <time>2014-04-18T14:16:46Z</time>
      </trkpt><trkpt lat="50.5532039702" lon="6.75831100903">
        <ele>304.4</ele>
        <time>2014-04-18T14:16:47Z</time>
      </trkpt><trkpt lat="50.5532250088" lon="6.75850203261">
        <ele>305.4</ele>
        <time>2014-04-18T14:16:48Z</time>
      </trkpt><trkpt lat="50.553286029" lon="6.75905096345">
        <ele>307.3</ele>
        <time>2014-04-18T14:16:51Z</time>
      </trkpt><trkpt lat="50.5533120129" lon="6.75921499729">
        <ele>307.8</ele>
        <time>2014-04-18T14:16:52Z</time>
      </trkpt><trkpt lat="50.5533469655" lon="6.75936796702">
        <ele>308.2</ele>
        <time>2014-04-18T14:16:53Z</time>
      </trkpt><trkpt lat="50.5534069799" lon="6.75948799588">
        <ele>309.2</ele>
        <time>2014-04-18T14:16:54Z</time>
      </trkpt><trkpt lat="50.5534659885" lon="6.7595999781">
        <ele>309.7</ele>
        <time>2014-04-18T14:16:55Z</time>
      </trkpt><trkpt lat="50.5535369832" lon="6.75965303555">
        <ele>310.2</ele>
        <time>2014-04-18T14:16:56Z</time>
      </trkpt><trkpt lat="50.5536020268" lon="6.75970198587">
        <ele>311.1</ele>
        <time>2014-04-18T14:16:56Z</time>
      </trkpt><trkpt lat="50.553632034" lon="6.7597250361">
        <ele>311.6</ele>
        <time>2014-04-18T14:16:56Z</time>
      </trkpt><trkpt lat="50.553676039" lon="6.75968103111">
        <ele>312.1</ele>
        <time>2014-04-18T14:16:57Z</time>
      </trkpt><trkpt lat="50.5537430104" lon="6.75961397588">
        <ele>312.1</ele>
        <time>2014-04-18T14:16:58Z</time>
      </trkpt><trkpt lat="50.5537949782" lon="6.75949503668">
        <ele>312.6</ele>
        <time>2014-04-18T14:16:58Z</time>
      </trkpt><trkpt lat="50.5538129993" lon="6.75932002254">
        <ele>313.1</ele>
        <time>2014-04-18T14:16:59Z</time>
      </trkpt><trkpt lat="50.5538129993" lon="6.75932102837">
        <ele>313.5</ele>
        <time>2014-04-18T14:16:59Z</time>
      </trkpt><trkpt lat="50.5538349599" lon="6.75893898122">
        <ele>314.5</ele>
        <time>2014-04-18T14:17:02Z</time>
      </trkpt><trkpt lat="50.5538450181" lon="6.75872599706">
        <ele>315.5</ele>
        <time>2014-04-18T14:17:03Z</time>
      </trkpt><trkpt lat="50.5538069643" lon="6.7585389968">
        <ele>316.4</ele>
        <time>2014-04-18T14:17:04Z</time>
      </trkpt><trkpt lat="50.5537689943" lon="6.75834897906">
        <ele>317.9</ele>
        <time>2014-04-18T14:17:05Z</time>
      </trkpt><trkpt lat="50.5537330359" lon="6.75815301016">
        <ele>319.3</ele>
        <time>2014-04-18T14:17:06Z</time>
      </trkpt><trkpt lat="50.5536160246" lon="6.75659196451">
        <ele>327</ele>
        <time>2014-04-18T14:17:15Z</time>
      </trkpt><trkpt lat="50.5535980035" lon="6.75591303036">
        <ele>330.8</ele>
        <time>2014-04-18T14:17:19Z</time>
      </trkpt><trkpt lat="50.5535170343" lon="6.755500976">
        <ele>333.7</ele>
        <time>2014-04-18T14:17:21Z</time>
      </trkpt><trkpt lat="50.553456014" lon="6.75528598018">
        <ele>334.7</ele>
        <time>2014-04-18T14:17:22Z</time>
      </trkpt><trkpt lat="50.5533929821" lon="6.75506897271">
        <ele>336.1</ele>
        <time>2014-04-18T14:17:24Z</time>
      </trkpt><trkpt lat="50.5533000268" lon="6.75489697605">
        <ele>337.6</ele>
        <time>2014-04-18T14:17:25Z</time>
      </trkpt><trkpt lat="50.5531919841" lon="6.75474199466">
        <ele>339</ele>
        <time>2014-04-18T14:17:26Z</time>
      </trkpt><trkpt lat="50.5530769844" lon="6.75457796082">
        <ele>340.4</ele>
        <time>2014-04-18T14:17:28Z</time>
      </trkpt><trkpt lat="50.5518959742" lon="6.75310500897">
        <ele>352</ele>
        <time>2014-04-18T14:17:41Z</time>
      </trkpt><trkpt lat="50.5510339793" lon="6.75221602432">
        <ele>361.1</ele>
        <time>2014-04-18T14:17:50Z</time>
      </trkpt><trkpt lat="50.5508550256" lon="6.75202399492">
        <ele>364</ele>
        <time>2014-04-18T14:17:52Z</time>
      </trkpt><trkpt lat="50.5507859588" lon="6.75188703462">
        <ele>365</ele>
        <time>2014-04-18T14:17:53Z</time>
      </trkpt><trkpt lat="50.5507120304" lon="6.75173901021">
        <ele>366.4</ele>
        <time>2014-04-18T14:17:54Z</time>
      </trkpt><trkpt lat="50.5504619982" lon="6.75130298361">
        <ele>370.7</ele>
        <time>2014-04-18T14:17:57Z</time>
      </trkpt><trkpt lat="50.5503670312" lon="6.7511879839">
        <ele>372.2</ele>
        <time>2014-04-18T14:17:58Z</time>
      </trkpt><trkpt lat="50.5502770096" lon="6.75113098696">
        <ele>373.6</ele>
        <time>2014-04-18T14:17:59Z</time>
      </trkpt><trkpt lat="50.550048016" lon="6.75109896809">
        <ele>376.5</ele>
        <time>2014-04-18T14:18:01Z</time>
      </trkpt><trkpt lat="50.5499239638" lon="6.75109896809">
        <ele>377.5</ele>
        <time>2014-04-18T14:18:02Z</time>
      </trkpt><trkpt lat="50.5494359694" lon="6.7510879878">
        <ele>382.3</ele>
        <time>2014-04-18T14:18:07Z</time>
      </trkpt><trkpt lat="50.5493079778" lon="6.75105001777">
        <ele>383.2</ele>
        <time>2014-04-18T14:18:08Z</time>
      </trkpt><trkpt lat="50.5478350259" lon="6.7504819762">
        <ele>395.7</ele>
        <time>2014-04-18T14:18:21Z</time>
      </trkpt><trkpt lat="50.5477050226" lon="6.75040603615">
        <ele>397.2</ele>
        <time>2014-04-18T14:18:22Z</time>
      </trkpt><trkpt lat="50.5475969799" lon="6.75027603284">
        <ele>398.6</ele>
        <time>2014-04-18T14:18:24Z</time>
      </trkpt><trkpt lat="50.5475959741" lon="6.75027502701">
        <ele>399.6</ele>
        <time>2014-04-18T14:18:24Z</time>
      </trkpt><trkpt lat="50.5474099796" lon="6.7499830015">
        <ele>401</ele>
        <time>2014-04-18T14:18:26Z</time>
      </trkpt><trkpt lat="50.5473720096" lon="6.74980798736">
        <ele>402.5</ele>
        <time>2014-04-18T14:18:27Z</time>
      </trkpt><trkpt lat="50.5473290104" lon="6.74960698932">
        <ele>403.9</ele>
        <time>2014-04-18T14:18:28Z</time>
      </trkpt><trkpt lat="50.5472850055" lon="6.7494029738">
        <ele>404.9</ele>
        <time>2014-04-18T14:18:29Z</time>
      </trkpt><trkpt lat="50.5472720135" lon="6.749181021">
        <ele>405.8</ele>
        <time>2014-04-18T14:18:31Z</time>
      </trkpt><trkpt lat="50.5471600313" lon="6.74629798159">
        <ele>405.8</ele>
        <time>2014-04-18T14:18:47Z</time>
      </trkpt><trkpt lat="50.5470540002" lon="6.74322601408">
        <ele>402</ele>
        <time>2014-04-18T14:19:04Z</time>
      </trkpt><trkpt lat="50.546979988" lon="6.73999403603">
        <ele>400.1</ele>
        <time>2014-04-18T14:19:22Z</time>
      </trkpt><trkpt lat="50.5470400024" lon="6.73967099749">
        <ele>400.1</ele>
        <time>2014-04-18T14:19:24Z</time>
      </trkpt><trkpt lat="50.5476829782" lon="6.73602302559">
        <ele>395.7</ele>
        <time>2014-04-18T14:19:45Z</time>
      </trkpt><trkpt lat="50.5481899995" lon="6.7339429725">
        <ele>386.1</ele>
        <time>2014-04-18T14:19:58Z</time>
      </trkpt><trkpt lat="50.5482869782" lon="6.73369302414">
        <ele>384.2</ele>
        <time>2014-04-18T14:19:59Z</time>
      </trkpt><trkpt lat="50.5493929703" lon="6.73162696883">
        <ele>368.3</ele>
        <time>2014-04-18T14:20:14Z</time>
      </trkpt><trkpt lat="50.5495819822" lon="6.73119203188">
        <ele>366.9</ele>
        <time>2014-04-18T14:20:17Z</time>
      </trkpt><trkpt lat="50.5496300105" lon="6.73095499165">
        <ele>365.4</ele>
        <time>2014-04-18T14:20:19Z</time>
      </trkpt><trkpt lat="50.549670998" lon="6.7307089828">
        <ele>364</ele>
        <time>2014-04-18T14:20:20Z</time>
      </trkpt><trkpt lat="50.5496760271" lon="6.73047202639">
        <ele>362.6</ele>
        <time>2014-04-18T14:20:22Z</time>
      </trkpt><trkpt lat="50.5496620294" lon="6.73021897674">
        <ele>361.6</ele>
        <time>2014-04-18T14:20:23Z</time>
      </trkpt><trkpt lat="50.5496480316" lon="6.72997104004">
        <ele>360.2</ele>
        <time>2014-04-18T14:20:24Z</time>
      </trkpt><trkpt lat="50.5496069603" lon="6.7297479976">
        <ele>358.7</ele>
        <time>2014-04-18T14:20:26Z</time>
      </trkpt><trkpt lat="50.5495340377" lon="6.72951699235">
        <ele>357.3</ele>
        <time>2014-04-18T14:20:27Z</time>
      </trkpt><trkpt lat="50.5494590197" lon="6.72928397544">
        <ele>356.3</ele>
        <time>2014-04-18T14:20:29Z</time>
      </trkpt><trkpt lat="50.5493339617" lon="6.72879396938">
        <ele>353.4</ele>
        <time>2014-04-18T14:20:32Z</time>
      </trkpt><trkpt lat="50.5493170302" lon="6.72853698023">
        <ele>352</ele>
        <time>2014-04-18T14:20:33Z</time>
      </trkpt><trkpt lat="50.5493010208" lon="6.72827001661">
        <ele>350.5</ele>
        <time>2014-04-18T14:20:34Z</time>
      </trkpt><trkpt lat="50.549324993" lon="6.72800498083">
        <ele>349.1</ele>
        <time>2014-04-18T14:20:36Z</time>
      </trkpt><trkpt lat="50.5493600294" lon="6.72772795893">
        <ele>347.7</ele>
        <time>2014-04-18T14:20:38Z</time>
      </trkpt><trkpt lat="50.5494040344" lon="6.72745496035">
        <ele>346.2</ele>
        <time>2014-04-18T14:20:39Z</time>
      </trkpt><trkpt lat="50.5494770408" lon="6.72718103975">
        <ele>344.8</ele>
        <time>2014-04-18T14:20:41Z</time>
      </trkpt><trkpt lat="50.5496020149" lon="6.72695699148">
        <ele>343.3</ele>
        <time>2014-04-18T14:20:42Z</time>
      </trkpt><trkpt lat="50.5497269891" lon="6.72673101537">
        <ele>341.9</ele>
        <time>2014-04-18T14:20:44Z</time>
      </trkpt><trkpt lat="50.550418999" lon="6.72536903992">
        <ele>333.7</ele>
        <time>2014-04-18T14:20:54Z</time>
      </trkpt><trkpt lat="50.5508149602" lon="6.72393196262">
        <ele>330.4</ele>
        <time>2014-04-18T14:21:03Z</time>
      </trkpt><trkpt lat="50.550972037" lon="6.72238801606">
        <ele>328.4</ele>
        <time>2014-04-18T14:21:11Z</time>
      </trkpt><trkpt lat="50.550985029" lon="6.72236798331">
        <ele>328</ele>
        <time>2014-04-18T14:21:12Z</time>
      </trkpt><trkpt lat="50.5511240009" lon="6.72222800553">
        <ele>327</ele>
        <time>2014-04-18T14:21:13Z</time>
      </trkpt><trkpt lat="50.551223997" lon="6.72217997722">
        <ele>326.5</ele>
        <time>2014-04-18T14:21:14Z</time>
      </trkpt><trkpt lat="50.5513410084" lon="6.72212298028">
        <ele>325.5</ele>
        <time>2014-04-18T14:21:15Z</time>
      </trkpt><trkpt lat="50.5523109622" lon="6.72164496034">
        <ele>318.8</ele>
        <time>2014-04-18T14:21:24Z</time>
      </trkpt><trkpt lat="50.5535260029" lon="6.72052295879">
        <ele>312.6</ele>
        <time>2014-04-18T14:21:36Z</time>
      </trkpt><trkpt lat="50.5539890192" lon="6.72008802183">
        <ele>311.1</ele>
        <time>2014-04-18T14:21:41Z</time>
      </trkpt><trkpt lat="50.5541519634" lon="6.71997000463">
        <ele>310.6</ele>
        <time>2014-04-18T14:21:43Z</time>
      </trkpt><trkpt lat="50.5543180089" lon="6.71984695829">
        <ele>310.2</ele>
        <time>2014-04-18T14:21:44Z</time>
      </trkpt><trkpt lat="50.5545050092" lon="6.71980496496">
        <ele>309.7</ele>
        <time>2014-04-18T14:21:46Z</time>
      </trkpt><trkpt lat="50.5546979606" lon="6.71979398467">
        <ele>309.2</ele>
        <time>2014-04-18T14:21:48Z</time>
      </trkpt><trkpt lat="50.5548820272" lon="6.71978300437">
        <ele>309.2</ele>
        <time>2014-04-18T14:21:49Z</time>
      </trkpt><trkpt lat="50.555053018" lon="6.71977302991">
        <ele>309.7</ele>
        <time>2014-04-18T14:21:51Z</time>
      </trkpt><trkpt lat="50.5553540122" lon="6.71963900328">
        <ele>311.1</ele>
        <time>2014-04-18T14:21:54Z</time>
      </trkpt><trkpt lat="50.5554820038" lon="6.71952802688">
        <ele>312.1</ele>
        <time>2014-04-18T14:21:55Z</time>
      </trkpt><trkpt lat="50.5555779766" lon="6.71934002079">
        <ele>313.1</ele>
        <time>2014-04-18T14:21:56Z</time>
      </trkpt><trkpt lat="50.5556710158" lon="6.71913198195">
        <ele>314.5</ele>
        <time>2014-04-18T14:21:58Z</time>
      </trkpt><trkpt lat="50.5557069741" lon="6.71891899779">
        <ele>315.5</ele>
        <time>2014-04-18T14:21:59Z</time>
      </trkpt><trkpt lat="50.5557310302" lon="6.71865999699">
        <ele>316.4</ele>
        <time>2014-04-18T14:22:00Z</time>
      </trkpt><trkpt lat="50.5557199661" lon="6.71839898452">
        <ele>317.4</ele>
        <time>2014-04-18T14:22:02Z</time>
      </trkpt><trkpt lat="50.5556990113" lon="6.71810000204">
        <ele>319.3</ele>
        <time>2014-04-18T14:22:04Z</time>
      </trkpt><trkpt lat="50.5556959938" lon="6.71647097915">
        <ele>327.5</ele>
        <time>2014-04-18T14:22:13Z</time>
      </trkpt><trkpt lat="50.5557479616" lon="6.7161399778">
        <ele>329.4</ele>
        <time>2014-04-18T14:22:15Z</time>
      </trkpt><trkpt lat="50.5558160227" lon="6.7158180289">
        <ele>330.8</ele>
        <time>2014-04-18T14:22:16Z</time>
      </trkpt><trkpt lat="50.5559050385" lon="6.71550597064">
        <ele>332.8</ele>
        <time>2014-04-18T14:22:18Z</time>
      </trkpt><trkpt lat="50.5559929647" lon="6.71519902535">
        <ele>334.2</ele>
        <time>2014-04-18T14:22:20Z</time>
      </trkpt><trkpt lat="50.5560949724" lon="6.71491202898">
        <ele>336.1</ele>
        <time>2014-04-18T14:22:22Z</time>
      </trkpt><trkpt lat="50.5562129896" lon="6.71464900486">
        <ele>338</ele>
        <time>2014-04-18T14:22:24Z</time>
      </trkpt><trkpt lat="50.5574769806" lon="6.71196402982">
        <ele>352.5</ele>
        <time>2014-04-18T14:22:43Z</time>
      </trkpt><trkpt lat="50.5581180286" lon="6.70975296758">
        <ele>357.3</ele>
        <time>2014-04-18T14:22:56Z</time>
      </trkpt><trkpt lat="50.558933001" lon="6.70680597425">
        <ele>359.7</ele>
        <time>2014-04-18T14:23:14Z</time>
      </trkpt><trkpt lat="50.5601069704" lon="6.70504099689">
        <ele>359.2</ele>
        <time>2014-04-18T14:23:29Z</time>
      </trkpt><trkpt lat="50.5618219916" lon="6.70375303365">
        <ele>360.2</ele>
        <time>2014-04-18T14:23:45Z</time>
      </trkpt><trkpt lat="50.5633439776" lon="6.70281996019">
        <ele>361.6</ele>
        <time>2014-04-18T14:24:00Z</time>
      </trkpt><trkpt lat="50.5651170015" lon="6.70174296945">
        <ele>364</ele>
        <time>2014-04-18T14:24:16Z</time>
      </trkpt><trkpt lat="50.5667310208" lon="6.7007020209">
        <ele>365.4</ele>
        <time>2014-04-18T14:24:32Z</time>
      </trkpt><trkpt lat="50.5691160075" lon="6.69861802831">
        <ele>365.9</ele>
        <time>2014-04-18T14:24:56Z</time>
      </trkpt><trkpt lat="50.5704899691" lon="6.69688699767">
        <ele>361.6</ele>
        <time>2014-04-18T14:25:11Z</time>
      </trkpt><trkpt lat="50.5715439934" lon="6.69501498342">
        <ele>356.8</ele>
        <time>2014-04-18T14:25:25Z</time>
      </trkpt><trkpt lat="50.57265996" lon="6.6924160067">
        <ele>350.5</ele>
        <time>2014-04-18T14:25:43Z</time>
      </trkpt><trkpt lat="50.574187981" lon="6.68897003867">
        <ele>340.9</ele>
        <time>2014-04-18T14:26:06Z</time>
      </trkpt><trkpt lat="50.5754279997" lon="6.68707497418">
        <ele>336.6</ele>
        <time>2014-04-18T14:26:22Z</time>
      </trkpt><trkpt lat="50.5769430287" lon="6.68584803119">
        <ele>331.8</ele>
        <time>2014-04-18T14:26:37Z</time>
      </trkpt><trkpt lat="50.5787240155" lon="6.68473902158">
        <ele>323.6</ele>
        <time>2014-04-18T14:26:54Z</time>
      </trkpt><trkpt lat="50.5803800281" lon="6.68318904005">
        <ele>314</ele>
        <time>2014-04-18T14:27:10Z</time>
      </trkpt><trkpt lat="50.5816779658" lon="6.68093103915">
        <ele>305.4</ele>
        <time>2014-04-18T14:27:28Z</time>
      </trkpt><trkpt lat="50.5824480113" lon="6.678656023">
        <ele>297.7</ele>
        <time>2014-04-18T14:27:42Z</time>
      </trkpt><trkpt lat="50.583116971" lon="6.67598999105">
        <ele>288.5</ele>
        <time>2014-04-18T14:27:58Z</time>
      </trkpt><trkpt lat="50.5840350408" lon="6.67258601636">
        <ele>279.4</ele>
        <time>2014-04-18T14:28:19Z</time>
      </trkpt><trkpt lat="50.584921008" lon="6.66971496306">
        <ele>279.4</ele>
        <time>2014-04-18T14:28:37Z</time>
      </trkpt><trkpt lat="50.5860639643" lon="6.66789801791">
        <ele>283.7</ele>
        <time>2014-04-18T14:28:51Z</time>
      </trkpt><trkpt lat="50.5871240236" lon="6.66690199636">
        <ele>290.9</ele>
        <time>2014-04-18T14:29:02Z</time>
      </trkpt><trkpt lat="50.5880499724" lon="6.66561101563">
        <ele>298.6</ele>
        <time>2014-04-18T14:29:13Z</time>
      </trkpt><trkpt lat="50.588115016" lon="6.66546198539">
        <ele>299.1</ele>
        <time>2014-04-18T14:29:14Z</time>
      </trkpt><trkpt lat="50.5881979968" lon="6.66526802815">
        <ele>299.6</ele>
        <time>2014-04-18T14:29:15Z</time>
      </trkpt><trkpt lat="50.5885060318" lon="6.66410797276">
        <ele>303</ele>
        <time>2014-04-18T14:29:22Z</time>
      </trkpt><trkpt lat="50.5885249749" lon="6.66400998831">
        <ele>302.5</ele>
        <time>2014-04-18T14:29:23Z</time>
      </trkpt><trkpt lat="50.5885409843" lon="6.66393103078">
        <ele>302.5</ele>
        <time>2014-04-18T14:29:23Z</time>
      </trkpt><trkpt lat="50.5885910243" lon="6.66380203329">
        <ele>302.5</ele>
        <time>2014-04-18T14:29:24Z</time>
      </trkpt><trkpt lat="50.5886330176" lon="6.66379197501">
        <ele>302</ele>
        <time>2014-04-18T14:29:24Z</time>
      </trkpt><trkpt lat="50.5886780284" lon="6.66378099471">
        <ele>302</ele>
        <time>2014-04-18T14:29:25Z</time>
      </trkpt><trkpt lat="50.5887259729" lon="6.66376900859">
        <ele>302</ele>
        <time>2014-04-18T14:29:25Z</time>
      </trkpt><trkpt lat="50.5887529626" lon="6.66370002553">
        <ele>302</ele>
        <time>2014-04-18T14:29:26Z</time>
      </trkpt><trkpt lat="50.5887740012" lon="6.66361897253">
        <ele>301.5</ele>
        <time>2014-04-18T14:29:26Z</time>
      </trkpt><trkpt lat="50.5887800362" lon="6.66359399445">
        <ele>301.5</ele>
        <time>2014-04-18T14:29:26Z</time>
      </trkpt><trkpt lat="50.5887709837" lon="6.66349500418">
        <ele>301.5</ele>
        <time>2014-04-18T14:29:27Z</time>
      </trkpt><trkpt lat="50.588706024" lon="6.66333097033">
        <ele>301.5</ele>
        <time>2014-04-18T14:29:28Z</time>
      </trkpt><trkpt lat="50.5887210276" lon="6.66326701641">
        <ele>302</ele>
        <time>2014-04-18T14:29:28Z</time>
      </trkpt><trkpt lat="50.5887399707" lon="6.66318898089">
        <ele>302</ele>
        <time>2014-04-18T14:29:29Z</time>
      </trkpt><trkpt lat="50.5887579918" lon="6.66311102919">
        <ele>301.5</ele>
        <time>2014-04-18T14:29:29Z</time>
      </trkpt><trkpt lat="50.5887760129" lon="6.66303500533">
        <ele>301.5</ele>
        <time>2014-04-18T14:29:30Z</time>
      </trkpt><trkpt lat="50.5887930281" lon="6.66296300478">
        <ele>301.5</ele>
        <time>2014-04-18T14:29:30Z</time>
      </trkpt><trkpt lat="50.5890190043" lon="6.66207502596">
        <ele>301</ele>
        <time>2014-04-18T14:29:35Z</time>
      </trkpt><trkpt lat="50.5895400234" lon="6.65994099341">
        <ele>299.1</ele>
        <time>2014-04-18T14:29:48Z</time>
      </trkpt><trkpt lat="50.5896230042" lon="6.65837600827">
        <ele>298.6</ele>
        <time>2014-04-18T14:29:57Z</time>
      </trkpt><trkpt lat="50.5895960145" lon="6.65802002884">
        <ele>298.6</ele>
        <time>2014-04-18T14:29:59Z</time>
      </trkpt><trkpt lat="50.5895499978" lon="6.65786697529">
        <ele>298.6</ele>
        <time>2014-04-18T14:30:00Z</time>
      </trkpt><trkpt lat="50.5892200023" lon="6.65675402619">
        <ele>299.6</ele>
        <time>2014-04-18T14:30:07Z</time>
      </trkpt><trkpt lat="50.5892439745" lon="6.65671798401">
        <ele>299.6</ele>
        <time>2014-04-18T14:30:07Z</time>
      </trkpt><trkpt lat="50.5892510153" lon="6.65655302815">
        <ele>299.6</ele>
        <time>2014-04-18T14:30:08Z</time>
      </trkpt><trkpt lat="50.5892189965" lon="6.65648999624">
        <ele>299.6</ele>
        <time>2014-04-18T14:30:08Z</time>
      </trkpt><trkpt lat="50.5889279768" lon="6.65571198799">
        <ele>300.1</ele>
        <time>2014-04-18T14:30:13Z</time>
      </trkpt><trkpt lat="50.5885630287" lon="6.65468797088">
        <ele>302</ele>
        <time>2014-04-18T14:30:20Z</time>
      </trkpt><trkpt lat="50.5885519646" lon="6.65456702001">
        <ele>302.5</ele>
        <time>2014-04-18T14:30:21Z</time>
      </trkpt><trkpt lat="50.5885440018" lon="6.6544709634">
        <ele>303</ele>
        <time>2014-04-18T14:30:21Z</time>
      </trkpt><trkpt lat="50.5885259807" lon="6.65428203531">
        <ele>304.4</ele>
        <time>2014-04-18T14:30:22Z</time>
      </trkpt><trkpt lat="50.5885340273" lon="6.6541269701">
        <ele>304.4</ele>
        <time>2014-04-18T14:30:23Z</time>
      </trkpt><trkpt lat="50.5885320157" lon="6.65307504125">
        <ele>305.4</ele>
        <time>2014-04-18T14:30:29Z</time>
      </trkpt><trkpt lat="50.5885249749" lon="6.65292399935">
        <ele>305.8</ele>
        <time>2014-04-18T14:30:30Z</time>
      </trkpt><trkpt lat="50.5884900223" lon="6.6527850274">
        <ele>306.3</ele>
        <time>2014-04-18T14:30:31Z</time>
      </trkpt><trkpt lat="50.5884379707" lon="6.65265896358">
        <ele>306.3</ele>
        <time>2014-04-18T14:30:32Z</time>
      </trkpt><trkpt lat="50.5883860029" lon="6.65253197774">
        <ele>306.8</ele>
        <time>2014-04-18T14:30:32Z</time>
      </trkpt><trkpt lat="50.5883340351" lon="6.65240398608">
        <ele>306.8</ele>
        <time>2014-04-18T14:30:33Z</time>
      </trkpt><trkpt lat="50.5877659936" lon="6.65101602674">
        <ele>309.7</ele>
        <time>2014-04-18T14:30:43Z</time>
      </trkpt><trkpt lat="50.5877179652" lon="6.650782004">
        <ele>310.2</ele>
        <time>2014-04-18T14:30:44Z</time>
      </trkpt><trkpt lat="50.5876639858" lon="6.65059098043">
        <ele>310.2</ele>
        <time>2014-04-18T14:30:45Z</time>
      </trkpt><trkpt lat="50.5876820069" lon="6.6505380068">
        <ele>310.2</ele>
        <time>2014-04-18T14:30:45Z</time>
      </trkpt><trkpt lat="50.5876639858" lon="6.65033298545">
        <ele>310.2</ele>
        <time>2014-04-18T14:30:47Z</time>
      </trkpt><trkpt lat="50.5876850244" lon="6.65025302209">
        <ele>310.6</ele>
        <time>2014-04-18T14:30:47Z</time>
      </trkpt><trkpt lat="50.5877219886" lon="6.65011296049">
        <ele>310.6</ele>
        <time>2014-04-18T14:30:48Z</time>
      </trkpt><trkpt lat="50.5881379824" lon="6.64853196591">
        <ele>311.6</ele>
        <time>2014-04-18T14:30:58Z</time>
      </trkpt><trkpt lat="50.5883499607" lon="6.64772202261">
        <ele>312.1</ele>
        <time>2014-04-18T14:31:02Z</time>
      </trkpt><trkpt lat="50.5883649644" lon="6.64766301401">
        <ele>312.1</ele>
        <time>2014-04-18T14:31:03Z</time>
      </trkpt><trkpt lat="50.5883760285" lon="6.64761900902">
        <ele>311.6</ele>
        <time>2014-04-18T14:31:03Z</time>
      </trkpt><trkpt lat="50.5883849971" lon="6.64758397266">
        <ele>312.1</ele>
        <time>2014-04-18T14:31:03Z</time>
      </trkpt><trkpt lat="50.5883920379" lon="6.64755497128">
        <ele>312.1</ele>
        <time>2014-04-18T14:31:03Z</time>
      </trkpt><trkpt lat="50.5884070415" lon="6.64749898016">
        <ele>312.1</ele>
        <time>2014-04-18T14:31:04Z</time>
      </trkpt><trkpt lat="50.5884139985" lon="6.64747098461">
        <ele>311.6</ele>
        <time>2014-04-18T14:31:04Z</time>
      </trkpt><trkpt lat="50.5884190276" lon="6.64744902402">
        <ele>311.1</ele>
        <time>2014-04-18T14:31:04Z</time>
      </trkpt><trkpt lat="50.5884249788" lon="6.64742697962">
        <ele>310.2</ele>
        <time>2014-04-18T14:31:04Z</time>
      </trkpt><trkpt lat="50.5884519685" lon="6.6473190207">
        <ele>307.8</ele>
        <time>2014-04-18T14:31:05Z</time>
      </trkpt><trkpt lat="50.5884600151" lon="6.64729001932">
        <ele>307.8</ele>
        <time>2014-04-18T14:31:05Z</time>
      </trkpt><trkpt lat="50.5882939696" lon="6.64787901565">
        <ele>306.8</ele>
        <time>2014-04-18T14:31:09Z</time>
      </trkpt><trkpt lat="50.5884569976" lon="6.64730301127">
        <ele>306.8</ele>
        <time>2014-04-18T14:31:12Z</time>
      </trkpt><trkpt lat="50.5884679779" lon="6.64725699462">
        <ele>307.3</ele>
        <time>2014-04-18T14:31:12Z</time>
      </trkpt><trkpt lat="50.5884870049" lon="6.64718398824">
        <ele>307.3</ele>
        <time>2014-04-18T14:31:13Z</time>
      </trkpt><trkpt lat="50.5885119829" lon="6.64708298631">
        <ele>307.8</ele>
        <time>2014-04-18T14:31:13Z</time>
      </trkpt><trkpt lat="50.5885419901" lon="6.64696597494">
        <ele>307.8</ele>
        <time>2014-04-18T14:31:14Z</time>
      </trkpt><trkpt lat="50.588907022" lon="6.64552998729">
        <ele>309.7</ele>
        <time>2014-04-18T14:31:23Z</time>
      </trkpt><trkpt lat="50.5889800284" lon="6.64527098648">
        <ele>310.2</ele>
        <time>2014-04-18T14:31:24Z</time>
      </trkpt><trkpt lat="50.5890230276" lon="6.64515598677">
        <ele>310.2</ele>
        <time>2014-04-18T14:31:25Z</time>
      </trkpt><trkpt lat="50.5891139712" lon="6.64501198567">
        <ele>310.2</ele>
        <time>2014-04-18T14:31:26Z</time>
      </trkpt><trkpt lat="50.5891680345" lon="6.64500896819">
        <ele>310.2</ele>
        <time>2014-04-18T14:31:27Z</time>
      </trkpt><trkpt lat="50.5892640073" lon="6.64488298818">
        <ele>310.2</ele>
        <time>2014-04-18T14:31:28Z</time>
      </trkpt><trkpt lat="50.5893569626" lon="6.64488298818">
        <ele>310.2</ele>
        <time>2014-04-18T14:31:29Z</time>
      </trkpt><trkpt lat="50.5894550309" lon="6.64488298818">
        <ele>309.7</ele>
        <time>2014-04-18T14:31:30Z</time>
      </trkpt><trkpt lat="50.589555027" lon="6.64488298818">
        <ele>309.7</ele>
        <time>2014-04-18T14:31:30Z</time>
      </trkpt><trkpt lat="50.5896570347" lon="6.64489296265">
        <ele>309.2</ele>
        <time>2014-04-18T14:31:31Z</time>
      </trkpt><trkpt lat="50.5902910419" lon="6.64496303536">
        <ele>308.7</ele>
        <time>2014-04-18T14:31:37Z</time>
      </trkpt><trkpt lat="50.5903760344" lon="6.64496999234">
        <ele>307.8</ele>
        <time>2014-04-18T14:31:38Z</time>
      </trkpt><trkpt lat="50.5904539861" lon="6.64497602731">
        <ele>307.3</ele>
        <time>2014-04-18T14:31:38Z</time>
      </trkpt><trkpt lat="50.5907099694" lon="6.64499698207">
        <ele>306.8</ele>
        <time>2014-04-18T14:31:41Z</time>
      </trkpt><trkpt lat="50.5912119616" lon="6.64507803507">
        <ele>304.4</ele>
        <time>2014-04-18T14:31:45Z</time>
      </trkpt><trkpt lat="50.5912930146" lon="6.64509396069">
        <ele>303.9</ele>
        <time>2014-04-18T14:31:46Z</time>
      </trkpt><trkpt lat="50.5913370196" lon="6.64509002119">
        <ele>303.9</ele>
        <time>2014-04-18T14:31:46Z</time>
      </trkpt><trkpt lat="50.5913830362" lon="6.64507401176">
        <ele>303.9</ele>
        <time>2014-04-18T14:31:47Z</time>
      </trkpt><trkpt lat="50.5914339982" lon="6.64505699649">
        <ele>303.9</ele>
        <time>2014-04-18T14:31:47Z</time>
      </trkpt><trkpt lat="50.591479009" lon="6.64497896098">
        <ele>303.9</ele>
        <time>2014-04-18T14:31:48Z</time>
      </trkpt><trkpt lat="50.5915220082" lon="6.64489296265">
        <ele>303.9</ele>
        <time>2014-04-18T14:31:48Z</time>
      </trkpt><trkpt lat="50.5915459804" lon="6.64479598403">
        <ele>303.9</ele>
        <time>2014-04-18T14:31:49Z</time>
      </trkpt><trkpt lat="50.5915700365" lon="6.64468903095">
        <ele>303.9</ele>
        <time>2014-04-18T14:31:50Z</time>
      </trkpt><trkpt lat="50.5915950146" lon="6.64457595907">
        <ele>303.9</ele>
        <time>2014-04-18T14:31:50Z</time>
      </trkpt><trkpt lat="50.5916169751" lon="6.64446297102">
        <ele>303.9</ele>
        <time>2014-04-18T14:31:51Z</time>
      </trkpt><trkpt lat="50.5917499959" lon="6.64301902056">
        <ele>303.9</ele>
        <time>2014-04-18T14:31:59Z</time>
      </trkpt><trkpt lat="50.5917909835" lon="6.64213003591">
        <ele>303.9</ele>
        <time>2014-04-18T14:32:04Z</time>
      </trkpt><trkpt lat="50.5918589607" lon="6.64066596888">
        <ele>304.4</ele>
        <time>2014-04-18T14:32:12Z</time>
      </trkpt><trkpt lat="50.5919990223" lon="6.63808702491">
        <ele>302</ele>
        <time>2014-04-18T14:32:27Z</time>
      </trkpt><trkpt lat="50.5920560192" lon="6.63784001023">
        <ele>301</ele>
        <time>2014-04-18T14:32:28Z</time>
      </trkpt><trkpt lat="50.5920759682" lon="6.63775501773">
        <ele>300.6</ele>
        <time>2014-04-18T14:32:29Z</time>
      </trkpt><trkpt lat="50.5920659937" lon="6.63758603856">
        <ele>298.6</ele>
        <time>2014-04-18T14:32:30Z</time>
      </trkpt><trkpt lat="50.5920560192" lon="6.63751303218">
        <ele>298.2</ele>
        <time>2014-04-18T14:32:30Z</time>
      </trkpt><trkpt lat="50.5920420215" lon="6.63741596974">
        <ele>297.7</ele>
        <time>2014-04-18T14:32:31Z</time>
      </trkpt><trkpt lat="50.5920079909" lon="6.63718001917">
        <ele>297.2</ele>
        <time>2014-04-18T14:32:32Z</time>
      </trkpt><trkpt lat="50.5919879582" lon="6.63704398088">
        <ele>297.2</ele>
        <time>2014-04-18T14:32:33Z</time>
      </trkpt><trkpt lat="50.5919670034" lon="6.63689503446">
        <ele>297.2</ele>
        <time>2014-04-18T14:32:34Z</time>
      </trkpt><trkpt lat="50.5919639859" lon="6.63674198091">
        <ele>297.2</ele>
        <time>2014-04-18T14:32:34Z</time>
      </trkpt><trkpt lat="50.5919840187" lon="6.63656101562">
        <ele>297.2</ele>
        <time>2014-04-18T14:32:35Z</time>
      </trkpt><trkpt lat="50.5920250062" lon="6.63636596873">
        <ele>297.2</ele>
        <time>2014-04-18T14:32:37Z</time>
      </trkpt><trkpt lat="50.5920970067" lon="6.63619296625">
        <ele>297.2</ele>
        <time>2014-04-18T14:32:38Z</time>
      </trkpt><trkpt lat="50.5921690073" lon="6.6360209696">
        <ele>297.2</ele>
        <time>2014-04-18T14:32:39Z</time>
      </trkpt><trkpt lat="50.5922280159" lon="6.63582298905">
        <ele>297.2</ele>
        <time>2014-04-18T14:32:40Z</time>
      </trkpt><trkpt lat="50.592246037" lon="6.63559600711">
        <ele>297.2</ele>
        <time>2014-04-18T14:32:41Z</time>
      </trkpt><trkpt lat="50.5922099948" lon="6.63538000546">
        <ele>296.7</ele>
        <time>2014-04-18T14:32:43Z</time>
      </trkpt><trkpt lat="50.5921710189" lon="6.6351449769">
        <ele>296.7</ele>
        <time>2014-04-18T14:32:44Z</time>
      </trkpt><trkpt lat="50.5921310373" lon="6.63490299135">
        <ele>296.2</ele>
        <time>2014-04-18T14:32:45Z</time>
      </trkpt><trkpt lat="50.5919680092" lon="6.63423897699">
        <ele>295.3</ele>
        <time>2014-04-18T14:32:49Z</time>
      </trkpt><trkpt lat="50.5918700248" lon="6.63406798616">
        <ele>294.8</ele>
        <time>2014-04-18T14:32:51Z</time>
      </trkpt><trkpt lat="50.5917540193" lon="6.63389297202">
        <ele>293.8</ele>
        <time>2014-04-18T14:32:52Z</time>
      </trkpt><trkpt lat="50.5916339904" lon="6.63370798342">
        <ele>293.8</ele>
        <time>2014-04-18T14:32:54Z</time>
      </trkpt><trkpt lat="50.5915100221" lon="6.63351695985">
        <ele>293.3</ele>
        <time>2014-04-18T14:32:55Z</time>
      </trkpt><trkpt lat="50.5913859699" lon="6.63332501426">
        <ele>293.3</ele>
        <time>2014-04-18T14:32:57Z</time>
      </trkpt><trkpt lat="50.5912699644" lon="6.6331159696">
        <ele>293.3</ele>
        <time>2014-04-18T14:32:58Z</time>
      </trkpt><trkpt lat="50.5911739916" lon="6.63289996795">
        <ele>292.9</ele>
        <time>2014-04-18T14:33:00Z</time>
      </trkpt><trkpt lat="50.5901379883" lon="6.63090599701">
        <ele>291.4</ele>
        <time>2014-04-18T14:33:14Z</time>
      </trkpt><trkpt lat="50.5888230354" lon="6.62951502018">
        <ele>291.4</ele>
        <time>2014-04-18T14:33:28Z</time>
      </trkpt><trkpt lat="50.5874919891" lon="6.62823200226">
        <ele>295.3</ele>
        <time>2014-04-18T14:33:42Z</time>
      </trkpt><trkpt lat="50.5862989929" lon="6.62707395852">
        <ele>300.1</ele>
        <time>2014-04-18T14:33:54Z</time>
      </trkpt><trkpt lat="50.5850500055" lon="6.6255430039">
        <ele>301</ele>
        <time>2014-04-18T14:34:08Z</time>
      </trkpt><trkpt lat="50.5848859716" lon="6.62532901391">
        <ele>301.5</ele>
        <time>2014-04-18T14:34:10Z</time>
      </trkpt><trkpt lat="50.5848309863" lon="6.62518199533">
        <ele>301.5</ele>
        <time>2014-04-18T14:34:11Z</time>
      </trkpt><trkpt lat="50.5848090257" lon="6.62501201034">
        <ele>301.5</ele>
        <time>2014-04-18T14:34:12Z</time>
      </trkpt><trkpt lat="50.5846409686" lon="6.62368498743">
        <ele>301</ele>
        <time>2014-04-18T14:34:19Z</time>
      </trkpt><trkpt lat="50.5846169963" lon="6.62335398607">
        <ele>300.6</ele>
        <time>2014-04-18T14:34:21Z</time>
      </trkpt><trkpt lat="50.5846429802" lon="6.62319003604">
        <ele>300.6</ele>
        <time>2014-04-18T14:34:22Z</time>
      </trkpt><trkpt lat="50.5847050063" lon="6.62303597666">
        <ele>300.6</ele>
        <time>2014-04-18T14:34:23Z</time>
      </trkpt><trkpt lat="50.5847869813" lon="6.62288099527">
        <ele>301</ele>
        <time>2014-04-18T14:34:24Z</time>
      </trkpt><trkpt lat="50.5852260254" lon="6.6219540406">
        <ele>301.5</ele>
        <time>2014-04-18T14:34:31Z</time>
      </trkpt><trkpt lat="50.5854039732" lon="6.62135297433">
        <ele>300.6</ele>
        <time>2014-04-18T14:34:35Z</time>
      </trkpt><trkpt lat="50.5854520015" lon="6.62115801126">
        <ele>300.1</ele>
        <time>2014-04-18T14:34:36Z</time>
      </trkpt><trkpt lat="50.585593991" lon="6.62059298716">
        <ele>299.1</ele>
        <time>2014-04-18T14:34:39Z</time>
      </trkpt><trkpt lat="50.5856769718" lon="6.62043800578">
        <ele>298.6</ele>
        <time>2014-04-18T14:34:40Z</time>
      </trkpt><trkpt lat="50.5857740343" lon="6.62028604187">
        <ele>298.2</ele>
        <time>2014-04-18T14:34:42Z</time>
      </trkpt><trkpt lat="50.5867610034" lon="6.6188310273">
        <ele>294.3</ele>
        <time>2014-04-18T14:34:53Z</time>
      </trkpt><trkpt lat="50.5871510133" lon="6.61821202375">
        <ele>295.7</ele>
        <time>2014-04-18T14:34:58Z</time>
      </trkpt><trkpt lat="50.5872270372" lon="6.61815301515">
        <ele>296.2</ele>
        <time>2014-04-18T14:34:59Z</time>
      </trkpt><trkpt lat="50.5872980319" lon="6.61816399544">
        <ele>296.2</ele>
        <time>2014-04-18T14:35:00Z</time>
      </trkpt><trkpt lat="50.5873779953" lon="6.61817799322">
        <ele>296.2</ele>
        <time>2014-04-18T14:35:00Z</time>
      </trkpt><trkpt lat="50.5874510016" lon="6.618191991">
        <ele>296.2</ele>
        <time>2014-04-18T14:35:01Z</time>
      </trkpt><trkpt lat="50.5875159614" lon="6.61827798933">
        <ele>296.7</ele>
        <time>2014-04-18T14:35:02Z</time>
      </trkpt><trkpt lat="50.5875820108" lon="6.61836700514">
        <ele>296.7</ele>
        <time>2014-04-18T14:35:03Z</time>
      </trkpt><trkpt lat="50.5876420252" lon="6.6184469685">
        <ele>297.2</ele>
        <time>2014-04-18T14:35:03Z</time>
      </trkpt><trkpt lat="50.5876929872" lon="6.61851402372">
        <ele>297.7</ele>
        <time>2014-04-18T14:35:04Z</time>
      </trkpt><trkpt lat="50.5877710227" lon="6.61853296682">
        <ele>298.2</ele>
        <time>2014-04-18T14:35:05Z</time>
      </trkpt><trkpt lat="50.5878529977" lon="6.61847999319">
        <ele>299.6</ele>
        <time>2014-04-18T14:35:05Z</time>
      </trkpt><trkpt lat="50.5878560152" lon="6.6183879599">
        <ele>299.6</ele>
        <time>2014-04-18T14:35:06Z</time>
      </trkpt><trkpt lat="50.5878250021" lon="6.61830900237">
        <ele>299.6</ele>
        <time>2014-04-18T14:35:06Z</time>
      </trkpt><trkpt lat="50.587782003" lon="6.6181990318">
        <ele>299.1</ele>
        <time>2014-04-18T14:35:07Z</time>
      </trkpt><trkpt lat="50.5877339747" lon="6.6180739738">
        <ele>299.1</ele>
        <time>2014-04-18T14:35:08Z</time>
      </trkpt><trkpt lat="50.5876160413" lon="6.61776996218">
        <ele>298.6</ele>
        <time>2014-04-18T14:35:10Z</time>
      </trkpt><trkpt lat="50.5876359902" lon="6.61759796552">
        <ele>298.6</ele>
        <time>2014-04-18T14:35:11Z</time>
      </trkpt><trkpt lat="50.5876779836" lon="6.61754197441">
        <ele>298.6</ele>
        <time>2014-04-18T14:35:11Z</time>
      </trkpt><trkpt lat="50.587725006" lon="6.61748003215">
        <ele>299.1</ele>
        <time>2014-04-18T14:35:12Z</time>
      </trkpt><trkpt lat="50.5882219691" lon="6.61681702361">
        <ele>302</ele>
        <time>2014-04-18T14:35:18Z</time>
      </trkpt><trkpt lat="50.5892080162" lon="6.61572100595">
        <ele>307.8</ele>
        <time>2014-04-18T14:35:28Z</time>
      </trkpt><trkpt lat="50.5895789992" lon="6.61551699042">
        <ele>307.3</ele>
        <time>2014-04-18T14:35:32Z</time>
      </trkpt><trkpt lat="50.5913540348" lon="6.61484995857">
        <ele>304.4</ele>
        <time>2014-04-18T14:35:48Z</time>
      </trkpt><trkpt lat="50.5935340002" lon="6.61411302164">
        <ele>304.9</ele>
        <time>2014-04-18T14:36:07Z</time>
      </trkpt><trkpt lat="50.5937280413" lon="6.61411302164">
        <ele>304.9</ele>
        <time>2014-04-18T14:36:09Z</time>
      </trkpt><trkpt lat="50.5950809643" lon="6.61411402747">
        <ele>302.5</ele>
        <time>2014-04-18T14:36:21Z</time>
      </trkpt><trkpt lat="50.5952510331" lon="6.61402802914">
        <ele>302</ele>
        <time>2014-04-18T14:36:23Z</time>
      </trkpt><trkpt lat="50.5954269692" lon="6.61393599585">
        <ele>301.5</ele>
        <time>2014-04-18T14:36:24Z</time>
      </trkpt><trkpt lat="50.5957940128" lon="6.61374396645">
        <ele>301</ele>
        <time>2014-04-18T14:36:28Z</time>
      </trkpt><trkpt lat="50.595981013" lon="6.61364497617">
        <ele>301</ele>
        <time>2014-04-18T14:36:29Z</time>
      </trkpt><trkpt lat="50.5975679588" lon="6.61306603812">
        <ele>303.9</ele>
        <time>2014-04-18T14:36:44Z</time>
      </trkpt><trkpt lat="50.5984479748" lon="6.61247301847">
        <ele>309.7</ele>
        <time>2014-04-18T14:36:52Z</time>
      </trkpt><trkpt lat="50.598810995" lon="6.61215500906">
        <ele>312.6</ele>
        <time>2014-04-18T14:36:56Z</time>
      </trkpt><trkpt lat="50.5988840014" lon="6.61204696633">
        <ele>313.5</ele>
        <time>2014-04-18T14:36:57Z</time>
      </trkpt><trkpt lat="50.5991200358" lon="6.61171101965">
        <ele>315</ele>
        <time>2014-04-18T14:37:00Z</time>
      </trkpt><trkpt lat="50.5992099736" lon="6.6116169747">
        <ele>315.5</ele>
        <time>2014-04-18T14:37:01Z</time>
      </trkpt><trkpt lat="50.6002560351" lon="6.61050603725">
        <ele>321.2</ele>
        <time>2014-04-18T14:37:12Z</time>
      </trkpt><trkpt lat="50.6010789704" lon="6.6094919946">
        <ele>322.7</ele>
        <time>2014-04-18T14:37:21Z</time>
      </trkpt><trkpt lat="50.6015109736" lon="6.60880300216">
        <ele>322.2</ele>
        <time>2014-04-18T14:37:26Z</time>
      </trkpt><trkpt lat="50.6015630253" lon="6.60868699662">
        <ele>321.7</ele>
        <time>2014-04-18T14:37:27Z</time>
      </trkpt><trkpt lat="50.6016119756" lon="6.60856302828">
        <ele>321.7</ele>
        <time>2014-04-18T14:37:28Z</time>
      </trkpt><trkpt lat="50.6016119756" lon="6.60841098055">
        <ele>321.7</ele>
        <time>2014-04-18T14:37:29Z</time>
      </trkpt><trkpt lat="50.6016360316" lon="6.60823102109">
        <ele>321.2</ele>
        <time>2014-04-18T14:37:30Z</time>
      </trkpt><trkpt lat="50.6019470003" lon="6.6063170135">
        <ele>317.9</ele>
        <time>2014-04-18T14:37:41Z</time>
      </trkpt><trkpt lat="50.6019319966" lon="6.60612196662">
        <ele>316.9</ele>
        <time>2014-04-18T14:37:42Z</time>
      </trkpt><trkpt lat="50.601916993" lon="6.60591803491">
        <ele>315.9</ele>
        <time>2014-04-18T14:37:43Z</time>
      </trkpt><trkpt lat="50.6015709881" lon="6.60381602123">
        <ele>308.2</ele>
        <time>2014-04-18T14:37:55Z</time>
      </trkpt><trkpt lat="50.6011430081" lon="6.60108896904">
        <ele>297.7</ele>
        <time>2014-04-18T14:38:11Z</time>
      </trkpt><trkpt lat="50.6008860189" lon="6.59937696531">
        <ele>293.3</ele>
        <time>2014-04-18T14:38:21Z</time>
      </trkpt><trkpt lat="50.6008000206" lon="6.59923497587">
        <ele>292.4</ele>
        <time>2014-04-18T14:38:22Z</time>
      </trkpt><trkpt lat="50.6007140223" lon="6.59911402501">
        <ele>291.9</ele>
        <time>2014-04-18T14:38:23Z</time>
      </trkpt><trkpt lat="50.600608997" lon="6.59900296479">
        <ele>291.4</ele>
        <time>2014-04-18T14:38:24Z</time>
      </trkpt><trkpt lat="50.6004919857" lon="6.59890900366">
        <ele>290.9</ele>
        <time>2014-04-18T14:38:25Z</time>
      </trkpt><trkpt lat="50.5997879896" lon="6.59822897986">
        <ele>289</ele>
        <time>2014-04-18T14:38:32Z</time>
      </trkpt><trkpt lat="50.5997070204" lon="6.59811699763">
        <ele>288.5</ele>
        <time>2014-04-18T14:38:33Z</time>
      </trkpt><trkpt lat="50.5993220396" lon="6.59737796523">
        <ele>287.1</ele>
        <time>2014-04-18T14:38:39Z</time>
      </trkpt><trkpt lat="50.5992419925" lon="6.59722600132">
        <ele>286.6</ele>
        <time>2014-04-18T14:38:40Z</time>
      </trkpt><trkpt lat="50.598861035" lon="6.5966410283">
        <ele>285.7</ele>
        <time>2014-04-18T14:38:45Z</time>
      </trkpt><trkpt lat="50.5987740308" lon="6.59650398418">
        <ele>285.2</ele>
        <time>2014-04-18T14:38:46Z</time>
      </trkpt><trkpt lat="50.5987140164" lon="6.59633902833">
        <ele>284.7</ele>
        <time>2014-04-18T14:38:47Z</time>
      </trkpt><trkpt lat="50.5986590311" lon="6.59618798643">
        <ele>284.2</ele>
        <time>2014-04-18T14:38:48Z</time>
      </trkpt><trkpt lat="50.5986079853" lon="6.59604499117">
        <ele>283.7</ele>
        <time>2014-04-18T14:38:49Z</time>
      </trkpt><trkpt lat="50.5986079853" lon="6.59588104114">
        <ele>283.3</ele>
        <time>2014-04-18T14:38:49Z</time>
      </trkpt><trkpt lat="50.5986079853" lon="6.59571801312">
        <ele>282.8</ele>
        <time>2014-04-18T14:38:50Z</time>
      </trkpt><trkpt lat="50.5986170378" lon="6.59557803534">
        <ele>281.8</ele>
        <time>2014-04-18T14:38:51Z</time>
      </trkpt><trkpt lat="50.5986499786" lon="6.59544602036">
        <ele>280.8</ele>
        <time>2014-04-18T14:38:52Z</time>
      </trkpt><trkpt lat="50.5987079814" lon="6.59535801038">
        <ele>279.9</ele>
        <time>2014-04-18T14:38:53Z</time>
      </trkpt><trkpt lat="50.5987759586" lon="6.59531601705">
        <ele>278.9</ele>
        <time>2014-04-18T14:38:53Z</time>
      </trkpt><trkpt lat="50.5988600291" lon="6.59531601705">
        <ele>278</ele>
        <time>2014-04-18T14:38:54Z</time>
      </trkpt><trkpt lat="50.5989470333" lon="6.59531601705">
        <ele>277</ele>
        <time>2014-04-18T14:38:55Z</time>
      </trkpt><trkpt lat="50.5990399886" lon="6.59535096958">
        <ele>276.5</ele>
        <time>2014-04-18T14:38:56Z</time>
      </trkpt><trkpt lat="50.5996460002" lon="6.59578599036">
        <ele>274.6</ele>
        <time>2014-04-18T14:39:02Z</time>
      </trkpt><trkpt lat="50.5997380335" lon="6.59585899673">
        <ele>274.6</ele>
        <time>2014-04-18T14:39:02Z</time>
      </trkpt><trkpt lat="50.5999070127" lon="6.59599503502">
        <ele>274.6</ele>
        <time>2014-04-18T14:39:04Z</time>
      </trkpt><trkpt lat="50.6000569649" lon="6.59605597146">
        <ele>274.6</ele>
        <time>2014-04-18T14:39:05Z</time>
      </trkpt><trkpt lat="50.6001159735" lon="6.59599201754">
        <ele>275.1</ele>
        <time>2014-04-18T14:39:06Z</time>
      </trkpt><trkpt lat="50.6001749821" lon="6.59589000978">
        <ele>275.6</ele>
        <time>2014-04-18T14:39:07Z</time>
      </trkpt><trkpt lat="50.600238014" lon="6.59578196704">
        <ele>276.5</ele>
        <time>2014-04-18T14:39:08Z</time>
      </trkpt><trkpt lat="50.6003029738" lon="6.59567099065">
        <ele>277</ele>
        <time>2014-04-18T14:39:09Z</time>
      </trkpt><trkpt lat="50.6003680173" lon="6.59555900842">
        <ele>278.4</ele>
        <time>2014-04-18T14:39:09Z</time>
      </trkpt><trkpt lat="50.6004489865" lon="6.59545800649">
        <ele>278.9</ele>
        <time>2014-04-18T14:39:10Z</time>
      </trkpt><trkpt lat="50.6005329732" lon="6.59539204091">
        <ele>279.4</ele>
        <time>2014-04-18T14:39:11Z</time>
      </trkpt><trkpt lat="50.600615032" lon="6.59532800317">
        <ele>279.9</ele>
        <time>2014-04-18T14:39:12Z</time>
      </trkpt><trkpt lat="50.6007720251" lon="6.59520696849">
        <ele>280.8</ele>
        <time>2014-04-18T14:39:13Z</time>
      </trkpt><trkpt lat="50.6008619629" lon="6.59520302899">
        <ele>280.8</ele>
        <time>2014-04-18T14:39:14Z</time>
      </trkpt><trkpt lat="50.6009539962" lon="6.59522498958">
        <ele>281.3</ele>
        <time>2014-04-18T14:39:15Z</time>
      </trkpt><trkpt lat="50.6010509748" lon="6.59524803981">
        <ele>281.3</ele>
        <time>2014-04-18T14:39:16Z</time>
      </trkpt><trkpt lat="50.6011509709" lon="6.59527201205">
        <ele>281.8</ele>
        <time>2014-04-18T14:39:17Z</time>
      </trkpt><trkpt lat="50.6022909936" lon="6.59528600983">
        <ele>283.7</ele>
        <time>2014-04-18T14:39:27Z</time>
      </trkpt><trkpt lat="50.6028170418" lon="6.59515600652">
        <ele>286.1</ele>
        <time>2014-04-18T14:39:32Z</time>
      </trkpt><trkpt lat="50.6028889585" lon="6.59510797821">
        <ele>286.6</ele>
        <time>2014-04-18T14:39:32Z</time>
      </trkpt><trkpt lat="50.6029700115" lon="6.59505399875">
        <ele>287.6</ele>
        <time>2014-04-18T14:39:33Z</time>
      </trkpt><trkpt lat="50.6037900131" lon="6.59430499189">
        <ele>294.8</ele>
        <time>2014-04-18T14:39:41Z</time>
      </trkpt><trkpt lat="50.6038409751" lon="6.59424900077">
        <ele>295.3</ele>
        <time>2014-04-18T14:39:42Z</time>
      </trkpt><trkpt lat="50.6038859859" lon="6.59419996664">
        <ele>295.7</ele>
        <time>2014-04-18T14:39:42Z</time>
      </trkpt><trkpt lat="50.6039099582" lon="6.59410499968">
        <ele>296.2</ele>
        <time>2014-04-18T14:39:43Z</time>
      </trkpt><trkpt lat="50.6039289851" lon="6.59399796277">
        <ele>296.2</ele>
        <time>2014-04-18T14:39:44Z</time>
      </trkpt><trkpt lat="50.6039289851" lon="6.59372203052">
        <ele>296.7</ele>
        <time>2014-04-18T14:39:45Z</time>
      </trkpt><trkpt lat="50.6039279792" lon="6.59358196892">
        <ele>297.2</ele>
        <time>2014-04-18T14:39:46Z</time>
      </trkpt><trkpt lat="50.6038569845" lon="6.59251000732">
        <ele>299.6</ele>
        <time>2014-04-18T14:39:52Z</time>
      </trkpt><trkpt lat="50.6040279754" lon="6.59148397855">
        <ele>301</ele>
        <time>2014-04-18T14:39:58Z</time>
      </trkpt><trkpt lat="50.6040689629" lon="6.59138197079">
        <ele>301</ele>
        <time>2014-04-18T14:39:59Z</time>
      </trkpt><trkpt lat="50.6041129678" lon="6.59127401188">
        <ele>300.6</ele>
        <time>2014-04-18T14:39:59Z</time>
      </trkpt><trkpt lat="50.6046410277" lon="6.59053397365">
        <ele>297.7</ele>
        <time>2014-04-18T14:40:06Z</time>
      </trkpt><trkpt lat="50.6047230028" lon="6.59050103277">
        <ele>297.7</ele>
        <time>2014-04-18T14:40:06Z</time>
      </trkpt><trkpt lat="50.6048069894" lon="6.59046700224">
        <ele>297.7</ele>
        <time>2014-04-18T14:40:07Z</time>
      </trkpt><trkpt lat="50.6048870366" lon="6.59043498337">
        <ele>297.2</ele>
        <time>2014-04-18T14:40:08Z</time>
      </trkpt><trkpt lat="50.6049599592" lon="6.59040598199">
        <ele>297.2</ele>
        <time>2014-04-18T14:40:08Z</time>
      </trkpt><trkpt lat="50.6050850172" lon="6.59035602584">
        <ele>297.7</ele>
        <time>2014-04-18T14:40:10Z</time>
      </trkpt><trkpt lat="50.6051379908" lon="6.59031503834">
        <ele>297.7</ele>
        <time>2014-04-18T14:40:10Z</time>
      </trkpt><trkpt lat="50.6051639747" lon="6.59022702836">
        <ele>298.2</ele>
        <time>2014-04-18T14:40:11Z</time>
      </trkpt><trkpt lat="50.6054489594" lon="6.58914903179">
        <ele>301.5</ele>
        <time>2014-04-18T14:40:17Z</time>
      </trkpt><trkpt lat="50.6054850016" lon="6.58901098184">
        <ele>302.5</ele>
        <time>2014-04-18T14:40:18Z</time>
      </trkpt><trkpt lat="50.6055600196" lon="6.58874996938">
        <ele>303</ele>
        <time>2014-04-18T14:40:20Z</time>
      </trkpt><trkpt lat="50.6055610254" lon="6.58871803433">
        <ele>303.9</ele>
        <time>2014-04-18T14:40:20Z</time>
      </trkpt><trkpt lat="50.6056300085" lon="6.58669103868">
        <ele>312.6</ele>
        <time>2014-04-18T14:40:31Z</time>
      </trkpt><trkpt lat="50.6056730077" lon="6.58648903482">
        <ele>313.5</ele>
        <time>2014-04-18T14:40:32Z</time>
      </trkpt><trkpt lat="50.6057170127" lon="6.58628703095">
        <ele>314.5</ele>
        <time>2014-04-18T14:40:33Z</time>
      </trkpt><trkpt lat="50.6057910249" lon="6.58611302264">
        <ele>315.5</ele>
        <time>2014-04-18T14:40:35Z</time>
      </trkpt><trkpt lat="50.605884986" lon="6.5859489888">
        <ele>316.4</ele>
        <time>2014-04-18T14:40:36Z</time>
      </trkpt><trkpt lat="50.6059829704" lon="6.58577799797">
        <ele>317.4</ele>
        <time>2014-04-18T14:40:37Z</time>
      </trkpt><trkpt lat="50.6060819607" lon="6.58560499549">
        <ele>317.9</ele>
        <time>2014-04-18T14:40:38Z</time>
      </trkpt><trkpt lat="50.606180029" lon="6.58543299884">
        <ele>318.8</ele>
        <time>2014-04-18T14:40:40Z</time>
      </trkpt><trkpt lat="50.606268961" lon="6.58524499275">
        <ele>319.3</ele>
        <time>2014-04-18T14:40:41Z</time>
      </trkpt><trkpt lat="50.6063409615" lon="6.58501801081">
        <ele>320.3</ele>
        <time>2014-04-18T14:40:43Z</time>
      </trkpt><trkpt lat="50.6071290281" lon="6.58246303909">
        <ele>328</ele>
        <time>2014-04-18T14:40:58Z</time>
      </trkpt><trkpt lat="50.6072870269" lon="6.58191000111">
        <ele>329.9</ele>
        <time>2014-04-18T14:41:02Z</time>
      </trkpt><trkpt lat="50.6073349714" lon="6.58161495812">
        <ele>331.3</ele>
        <time>2014-04-18T14:41:03Z</time>
      </trkpt><trkpt lat="50.6073610391" lon="6.58129703254">
        <ele>332.3</ele>
        <time>2014-04-18T14:41:05Z</time>
      </trkpt><trkpt lat="50.6076539867" lon="6.57892595977">
        <ele>338</ele>
        <time>2014-04-18T14:41:19Z</time>
      </trkpt><trkpt lat="50.608412968" lon="6.57663200051">
        <ele>348.6</ele>
        <time>2014-04-18T14:41:33Z</time>
      </trkpt><trkpt lat="50.6096789706" lon="6.57374602742">
        <ele>357.8</ele>
        <time>2014-04-18T14:41:53Z</time>
      </trkpt><trkpt lat="50.6109790038" lon="6.57040600665">
        <ele>366.9</ele>
        <time>2014-04-18T14:42:15Z</time>
      </trkpt><trkpt lat="50.6114720274" lon="6.56930596568">
        <ele>369.3</ele>
        <time>2014-04-18T14:42:22Z</time>
      </trkpt><trkpt lat="50.6116059702" lon="6.5690290276">
        <ele>369.3</ele>
        <time>2014-04-18T14:42:24Z</time>
      </trkpt><trkpt lat="50.6132329814" lon="6.56592596322">
        <ele>370.2</ele>
        <time>2014-04-18T14:42:47Z</time>
      </trkpt><trkpt lat="50.6149449851" lon="6.56289598905">
        <ele>369.3</ele>
        <time>2014-04-18T14:43:09Z</time>
      </trkpt><trkpt lat="50.615102984" lon="6.56272801571">
        <ele>369.3</ele>
        <time>2014-04-18T14:43:11Z</time>
      </trkpt><trkpt lat="50.6152619887" lon="6.56256800517">
        <ele>369.8</ele>
        <time>2014-04-18T14:43:13Z</time>
      </trkpt><trkpt lat="50.6154140364" lon="6.56241696328">
        <ele>370.2</ele>
        <time>2014-04-18T14:43:14Z</time>
      </trkpt><trkpt lat="50.6159209739" lon="6.56191002578">
        <ele>373.1</ele>
        <time>2014-04-18T14:43:20Z</time>
      </trkpt><trkpt lat="50.6160170306" lon="6.56179100275">
        <ele>374.1</ele>
        <time>2014-04-18T14:43:21Z</time>
      </trkpt><trkpt lat="50.6161040347" lon="6.5616340097">
        <ele>374.6</ele>
        <time>2014-04-18T14:43:22Z</time>
      </trkpt><trkpt lat="50.6161939725" lon="6.56147098169">
        <ele>375.1</ele>
        <time>2014-04-18T14:43:23Z</time>
      </trkpt><trkpt lat="50.6162760314" lon="6.56129596755">
        <ele>375.5</ele>
        <time>2014-04-18T14:43:24Z</time>
      </trkpt><trkpt lat="50.6163559947" lon="6.56111902557">
        <ele>376</ele>
        <time>2014-04-18T14:43:26Z</time>
      </trkpt><trkpt lat="50.6167360302" lon="6.56018796377">
        <ele>378.4</ele>
        <time>2014-04-18T14:43:32Z</time>
      </trkpt><trkpt lat="50.6168159936" lon="6.55998797156">
        <ele>378.9</ele>
        <time>2014-04-18T14:43:33Z</time>
      </trkpt><trkpt lat="50.616787998" lon="6.55986199155">
        <ele>379.4</ele>
        <time>2014-04-18T14:43:34Z</time>
      </trkpt><trkpt lat="50.6167320069" lon="6.55981496908">
        <ele>379.4</ele>
        <time>2014-04-18T14:43:34Z</time>
      </trkpt><trkpt lat="50.6160170306" lon="6.55922002159">
        <ele>382.3</ele>
        <time>2014-04-18T14:43:42Z</time>
      </trkpt><trkpt lat="50.6146520376" lon="6.55808502808">
        <ele>389.5</ele>
        <time>2014-04-18T14:43:55Z</time>
      </trkpt><trkpt lat="50.6137110014" lon="6.55729000457">
        <ele>395.7</ele>
        <time>2014-04-18T14:44:05Z</time>
      </trkpt><trkpt lat="50.6136189681" lon="6.55716100708">
        <ele>395.7</ele>
        <time>2014-04-18T14:44:06Z</time>
      </trkpt><trkpt lat="50.6127719767" lon="6.5557169728">
        <ele>392.8</ele>
        <time>2014-04-18T14:44:17Z</time>
      </trkpt><trkpt lat="50.6116860174" lon="6.55385904014">
        <ele>389.5</ele>
        <time>2014-04-18T14:44:31Z</time>
      </trkpt><trkpt lat="50.6113939919" lon="6.5533589758">
        <ele>391.4</ele>
        <time>2014-04-18T14:44:35Z</time>
      </trkpt><trkpt lat="50.6113300379" lon="6.55325001106">
        <ele>392.4</ele>
        <time>2014-04-18T14:44:35Z</time>
      </trkpt><trkpt lat="50.6110360008" lon="6.5527529642">
        <ele>392.8</ele>
        <time>2014-04-18T14:44:39Z</time>
      </trkpt><trkpt lat="50.6103149895" lon="6.55153599568">
        <ele>394.3</ele>
        <time>2014-04-18T14:44:48Z</time>
      </trkpt><trkpt lat="50.6092029624" lon="6.54963498004">
        <ele>390.4</ele>
        <time>2014-04-18T14:45:03Z</time>
      </trkpt><trkpt lat="50.608481029" lon="6.54838901013">
        <ele>390.4</ele>
        <time>2014-04-18T14:45:12Z</time>
      </trkpt><trkpt lat="50.6082249619" lon="6.54794703238">
        <ele>390.9</ele>
        <time>2014-04-18T14:45:16Z</time>
      </trkpt><trkpt lat="50.6078870036" lon="6.54737203382">
        <ele>390.9</ele>
        <time>2014-04-18T14:45:20Z</time>
      </trkpt><trkpt lat="50.6078620255" lon="6.54733599164">
        <ele>391.4</ele>
        <time>2014-04-18T14:45:20Z</time>
      </trkpt><trkpt lat="50.6078340299" lon="6.54725200497">
        <ele>391.4</ele>
        <time>2014-04-18T14:45:21Z</time>
      </trkpt><trkpt lat="50.6078340299" lon="6.54721898027">
        <ele>391.9</ele>
        <time>2014-04-18T14:45:21Z</time>
      </trkpt><trkpt lat="50.6078549847" lon="6.5471240133">
        <ele>391.9</ele>
        <time>2014-04-18T14:45:22Z</time>
      </trkpt><trkpt lat="50.6077959761" lon="6.54709300026">
        <ele>391.9</ele>
        <time>2014-04-18T14:45:22Z</time>
      </trkpt><trkpt lat="50.6076340377" lon="6.5469579678">
        <ele>392.4</ele>
        <time>2014-04-18T14:45:24Z</time>
      </trkpt><trkpt lat="50.6075450219" lon="6.54685202055">
        <ele>392.4</ele>
        <time>2014-04-18T14:45:25Z</time>
      </trkpt><trkpt lat="50.607437985" lon="6.5467139706">
        <ele>392.4</ele>
        <time>2014-04-18T14:45:26Z</time>
      </trkpt><trkpt lat="50.6065830309" lon="6.54493901879">
        <ele>394.3</ele>
        <time>2014-04-18T14:45:38Z</time>
      </trkpt><trkpt lat="50.6056160107" lon="6.54290095903">
        <ele>397.2</ele>
        <time>2014-04-18T14:45:53Z</time>
      </trkpt><trkpt lat="50.604746975" lon="6.54108401388">
        <ele>401</ele>
        <time>2014-04-18T14:46:05Z</time>
      </trkpt><trkpt lat="50.6040009856" lon="6.53951902874">
        <ele>404.4</ele>
        <time>2014-04-18T14:46:16Z</time>
      </trkpt><trkpt lat="50.602966994" lon="6.53733696789">
        <ele>407.7</ele>
        <time>2014-04-18T14:46:32Z</time>
      </trkpt><trkpt lat="50.6018220261" lon="6.53490001336">
        <ele>415.9</ele>
        <time>2014-04-18T14:46:49Z</time>
      </trkpt><trkpt lat="50.6009450275" lon="6.5330350399">
        <ele>423.6</ele>
        <time>2014-04-18T14:47:02Z</time>
      </trkpt><trkpt lat="50.6000169832" lon="6.53106202371">
        <ele>432.7</ele>
        <time>2014-04-18T14:47:15Z</time>
      </trkpt><trkpt lat="50.5986300297" lon="6.52811301872">
        <ele>448.6</ele>
        <time>2014-04-18T14:47:36Z</time>
      </trkpt><trkpt lat="50.5975559726" lon="6.52583003975">
        <ele>462.1</ele>
        <time>2014-04-18T14:47:52Z</time>
      </trkpt><trkpt lat="50.5964120105" lon="6.52339803055">
        <ele>473.6</ele>
        <time>2014-04-18T14:48:09Z</time>
      </trkpt><trkpt lat="50.5954490136" lon="6.52161302045">
        <ele>482.2</ele>
        <time>2014-04-18T14:48:22Z</time>
      </trkpt><trkpt lat="50.5938270316" lon="6.5199330356">
        <ele>489.5</ele>
        <time>2014-04-18T14:48:39Z</time>
      </trkpt><trkpt lat="50.5918710306" lon="6.51791802607">
        <ele>488</ele>
        <time>2014-04-18T14:48:59Z</time>
      </trkpt><trkpt lat="50.5903760344" lon="6.51632697321">
        <ele>487.5</ele>
        <time>2014-04-18T14:49:15Z</time>
      </trkpt><trkpt lat="50.5898240022" lon="6.51562096551">
        <ele>488</ele>
        <time>2014-04-18T14:49:22Z</time>
      </trkpt><trkpt lat="50.5896980222" lon="6.51544100605">
        <ele>488.5</ele>
        <time>2014-04-18T14:49:23Z</time>
      </trkpt><trkpt lat="50.5895899795" lon="6.5152250044">
        <ele>488</ele>
        <time>2014-04-18T14:49:25Z</time>
      </trkpt><trkpt lat="50.5894930009" lon="6.51500900276">
        <ele>488</ele>
        <time>2014-04-18T14:49:26Z</time>
      </trkpt><trkpt lat="50.5894149654" lon="6.51475603692">
        <ele>488.5</ele>
        <time>2014-04-18T14:49:28Z</time>
      </trkpt><trkpt lat="50.5893360078" lon="6.51449996978">
        <ele>488.5</ele>
        <time>2014-04-18T14:49:29Z</time>
      </trkpt><trkpt lat="50.5886989832" lon="6.51219100691">
        <ele>489.9</ele>
        <time>2014-04-18T14:49:43Z</time>
      </trkpt><trkpt lat="50.5879629683" lon="6.50971700437">
        <ele>493.3</ele>
        <time>2014-04-18T14:49:59Z</time>
      </trkpt><trkpt lat="50.5874950066" lon="6.50814296678">
        <ele>496.7</ele>
        <time>2014-04-18T14:50:08Z</time>
      </trkpt><trkpt lat="50.5871830322" lon="6.50724702515">
        <ele>498.1</ele>
        <time>2014-04-18T14:50:14Z</time>
      </trkpt><trkpt lat="50.5871550366" lon="6.50715499185">
        <ele>498.6</ele>
        <time>2014-04-18T14:50:15Z</time>
      </trkpt><trkpt lat="50.5872550327" lon="6.50688501075">
        <ele>500</ele>
        <time>2014-04-18T14:50:16Z</time>
      </trkpt><trkpt lat="50.5873280391" lon="6.50683002546">
        <ele>501</ele>
        <time>2014-04-18T14:50:17Z</time>
      </trkpt><trkpt lat="50.5874199886" lon="6.50676095858">
        <ele>501.5</ele>
        <time>2014-04-18T14:50:18Z</time>
      </trkpt><trkpt lat="50.587537" lon="6.506694993">
        <ele>502</ele>
        <time>2014-04-18T14:50:19Z</time>
      </trkpt><trkpt lat="50.5876810011" lon="6.50662299246">
        <ele>502</ele>
        <time>2014-04-18T14:50:20Z</time>
      </trkpt><trkpt lat="50.5878319591" lon="6.50654797442">
        <ele>502</ele>
        <time>2014-04-18T14:50:22Z</time>
      </trkpt><trkpt lat="50.5889399629" lon="6.50574398227">
        <ele>502.4</ele>
        <time>2014-04-18T14:50:33Z</time>
      </trkpt><trkpt lat="50.5896029714" lon="6.5048359707">
        <ele>503.4</ele>
        <time>2014-04-18T14:50:40Z</time>
      </trkpt><trkpt lat="50.5896970164" lon="6.50461100042">
        <ele>503.4</ele>
        <time>2014-04-18T14:50:42Z</time>
      </trkpt><trkpt lat="50.5897589587" lon="6.50434495881">
        <ele>503.9</ele>
        <time>2014-04-18T14:50:43Z</time>
      </trkpt><trkpt lat="50.5902549997" lon="6.5020309668">
        <ele>507.7</ele>
        <time>2014-04-18T14:50:57Z</time>
      </trkpt><trkpt lat="50.5906590074" lon="6.50074300356">
        <ele>510.1</ele>
        <time>2014-04-18T14:51:05Z</time>
      </trkpt><trkpt lat="50.5915520154" lon="6.498822961">
        <ele>513.5</ele>
        <time>2014-04-18T14:51:18Z</time>
      </trkpt><trkpt lat="50.5926379748" lon="6.49662103504">
        <ele>510.6</ele>
        <time>2014-04-18T14:51:34Z</time>
      </trkpt><trkpt lat="50.5929429922" lon="6.49605299346">
        <ele>511.1</ele>
        <time>2014-04-18T14:51:38Z</time>
      </trkpt><trkpt lat="50.5934579764" lon="6.49553800933">
        <ele>511.6</ele>
        <time>2014-04-18T14:51:44Z</time>
      </trkpt><trkpt lat="50.5932810344" lon="6.49565602653">
        <ele>512</ele>
        <time>2014-04-18T14:51:45Z</time>
      </trkpt><trkpt lat="50.5934260413" lon="6.49555896409">
        <ele>512</ele>
        <time>2014-04-18T14:51:47Z</time>
      </trkpt><trkpt lat="50.5934579764" lon="6.49553800933">
        <ele>512</ele>
        <time>2014-04-18T14:51:47Z</time>
      </trkpt><trkpt lat="50.5937289633" lon="6.49535402656">
        <ele>512</ele>
        <time>2014-04-18T14:51:50Z</time>
      </trkpt><trkpt lat="50.5954689626" lon="6.49409699254">
        <ele>515.4</ele>
        <time>2014-04-18T14:52:06Z</time>
      </trkpt><trkpt lat="50.5956210103" lon="6.49396900088">
        <ele>515.4</ele>
        <time>2014-04-18T14:52:08Z</time>
      </trkpt><trkpt lat="50.5957559589" lon="6.49378200062">
        <ele>515.9</ele>
        <time>2014-04-18T14:52:10Z</time>
      </trkpt><trkpt lat="50.5970829818" lon="6.49187696166">
        <ele>515.4</ele>
        <time>2014-04-18T14:52:25Z</time>
      </trkpt><trkpt lat="50.5975190084" lon="6.49130498059">
        <ele>514.4</ele>
        <time>2014-04-18T14:52:30Z</time>
      </trkpt><trkpt lat="50.597685976" lon="6.49116600864">
        <ele>514</ele>
        <time>2014-04-18T14:52:32Z</time>
      </trkpt><trkpt lat="50.5978670251" lon="6.49106299505">
        <ele>513.5</ele>
        <time>2014-04-18T14:52:34Z</time>
      </trkpt><trkpt lat="50.5996569805" lon="6.48982297629">
        <ele>507.7</ele>
        <time>2014-04-18T14:52:51Z</time>
      </trkpt><trkpt lat="50.6006290298" lon="6.48862796836">
        <ele>502.4</ele>
        <time>2014-04-18T14:53:02Z</time>
      </trkpt><trkpt lat="50.6020749919" lon="6.48586898111">
        <ele>493.8</ele>
        <time>2014-04-18T14:53:22Z</time>
      </trkpt><trkpt lat="50.6032919604" lon="6.4835620299">
        <ele>484.6</ele>
        <time>2014-04-18T14:53:39Z</time>
      </trkpt><trkpt lat="50.6044960208" lon="6.48132598959">
        <ele>476.5</ele>
        <time>2014-04-18T14:53:55Z</time>
      </trkpt><trkpt lat="50.6045919936" lon="6.48119003512">
        <ele>476</ele>
        <time>2014-04-18T14:53:56Z</time>
      </trkpt><trkpt lat="50.6046830211" lon="6.4810600318">
        <ele>475.5</ele>
        <time>2014-04-18T14:53:57Z</time>
      </trkpt><trkpt lat="50.604797015" lon="6.48102197796">
        <ele>475.5</ele>
        <time>2014-04-18T14:53:58Z</time>
      </trkpt><trkpt lat="50.6049300358" lon="6.48100697435">
        <ele>475.5</ele>
        <time>2014-04-18T14:53:59Z</time>
      </trkpt><trkpt lat="50.6050690077" lon="6.48099197075">
        <ele>475.5</ele>
        <time>2014-04-18T14:54:01Z</time>
      </trkpt><trkpt lat="50.6052170321" lon="6.48098995909">
        <ele>475.5</ele>
        <time>2014-04-18T14:54:02Z</time>
      </trkpt><trkpt lat="50.6061770115" lon="6.48109800182">
        <ele>477</ele>
        <time>2014-04-18T14:54:10Z</time>
      </trkpt><trkpt lat="50.6063299812" lon="6.48114996962">
        <ele>477.4</ele>
        <time>2014-04-18T14:54:12Z</time>
      </trkpt><trkpt lat="50.6064719707" lon="6.48126396351">
        <ele>477.9</ele>
        <time>2014-04-18T14:54:13Z</time>
      </trkpt><trkpt lat="50.6066169776" lon="6.48137996905">
        <ele>478.4</ele>
        <time>2014-04-18T14:54:15Z</time>
      </trkpt><trkpt lat="50.6067609787" lon="6.48149496876">
        <ele>478.9</ele>
        <time>2014-04-18T14:54:16Z</time>
      </trkpt><trkpt lat="50.6070430297" lon="6.48167702369">
        <ele>479.4</ele>
        <time>2014-04-18T14:54:19Z</time>
      </trkpt><trkpt lat="50.6071809959" lon="6.48170602508">
        <ele>479.8</ele>
        <time>2014-04-18T14:54:20Z</time>
      </trkpt><trkpt lat="50.6073109992" lon="6.48165598512">
        <ele>479.8</ele>
        <time>2014-04-18T14:54:21Z</time>
      </trkpt><trkpt lat="50.6074499711" lon="6.48160301149">
        <ele>480.3</ele>
        <time>2014-04-18T14:54:22Z</time>
      </trkpt><trkpt lat="50.6075949781" lon="6.48154702038">
        <ele>480.3</ele>
        <time>2014-04-18T14:54:24Z</time>
      </trkpt><trkpt lat="50.6079989858" lon="6.48133101873">
        <ele>480.8</ele>
        <time>2014-04-18T14:54:28Z</time>
      </trkpt><trkpt lat="50.6081350241" lon="6.48116103373">
        <ele>480.8</ele>
        <time>2014-04-18T14:54:29Z</time>
      </trkpt><trkpt lat="50.6081630196" lon="6.48104997352">
        <ele>480.8</ele>
        <time>2014-04-18T14:54:30Z</time>
      </trkpt><trkpt lat="50.6081999838" lon="6.48087998852">
        <ele>480.8</ele>
        <time>2014-04-18T14:54:31Z</time>
      </trkpt><trkpt lat="50.608236026" lon="6.48069701158">
        <ele>480.8</ele>
        <time>2014-04-18T14:54:32Z</time>
      </trkpt><trkpt lat="50.6082709786" lon="6.48052400909">
        <ele>480.8</ele>
        <time>2014-04-18T14:54:33Z</time>
      </trkpt><trkpt lat="50.6083019916" lon="6.48037003353">
        <ele>480.8</ele>
        <time>2014-04-18T14:54:34Z</time>
      </trkpt><trkpt lat="50.6083439849" lon="6.48023298942">
        <ele>480.8</ele>
        <time>2014-04-18T14:54:35Z</time>
      </trkpt><trkpt lat="50.6083910074" lon="6.47998798639">
        <ele>480.3</ele>
        <time>2014-04-18T14:54:36Z</time>
      </trkpt><trkpt lat="50.6084409636" lon="6.48048997857">
        <ele>480.3</ele>
        <time>2014-04-18T14:54:39Z</time>
      </trkpt><trkpt lat="50.6087270379" lon="6.48044999689">
        <ele>480.3</ele>
        <time>2014-04-18T14:54:41Z</time>
      </trkpt><trkpt lat="50.6088530179" lon="6.4806499891">
        <ele>480.3</ele>
        <time>2014-04-18T14:54:43Z</time>
      </trkpt><trkpt lat="50.6090199854" lon="6.48091301322">
        <ele>480.8</ele>
        <time>2014-04-18T14:54:45Z</time>
      </trkpt><trkpt lat="50.6090870406" lon="6.4810199663">
        <ele>480.8</ele>
        <time>2014-04-18T14:54:46Z</time>
      </trkpt><trkpt lat="50.6091659982" lon="6.48114100099">
        <ele>480.8</ele>
        <time>2014-04-18T14:54:47Z</time>
      </trkpt><trkpt lat="50.6095189601" lon="6.48151399568">
        <ele>480.8</ele>
        <time>2014-04-18T14:54:51Z</time>
      </trkpt><trkpt lat="50.6099969801" lon="6.48134501651">
        <ele>480.8</ele>
        <time>2014-04-18T14:54:55Z</time>
      </trkpt><trkpt lat="50.6102809589" lon="6.48103203624">
        <ele>480.8</ele>
        <time>2014-04-18T14:54:58Z</time>
      </trkpt><trkpt lat="50.6103699747" lon="6.48096104153">
        <ele>480.8</ele>
        <time>2014-04-18T14:54:59Z</time>
      </trkpt><trkpt lat="50.6105559692" lon="6.48085098714">
        <ele>481.3</ele>
        <time>2014-04-18T14:55:01Z</time>
      </trkpt><trkpt lat="50.610720003" lon="6.48082299158">
        <ele>481.3</ele>
        <time>2014-04-18T14:55:02Z</time>
      </trkpt><trkpt lat="50.6115990132" lon="6.48103203624">
        <ele>480.8</ele>
        <time>2014-04-18T14:55:10Z</time>
      </trkpt><trkpt lat="50.6116969977" lon="6.48103203624">
        <ele>480.3</ele>
        <time>2014-04-18T14:55:11Z</time>
      </trkpt><trkpt lat="50.6117669865" lon="6.480927011">
        <ele>479.8</ele>
        <time>2014-04-18T14:55:12Z</time>
      </trkpt><trkpt lat="50.6118389871" lon="6.48081896827">
        <ele>479.4</ele>
        <time>2014-04-18T14:55:12Z</time>
      </trkpt><trkpt lat="50.6118809804" lon="6.4807089977">
        <ele>478.9</ele>
        <time>2014-04-18T14:55:13Z</time>
      </trkpt><trkpt lat="50.611908976" lon="6.48055502214">
        <ele>478.4</ele>
        <time>2014-04-18T14:55:14Z</time>
      </trkpt><trkpt lat="50.6119349599" lon="6.48040800355">
        <ele>477.9</ele>
        <time>2014-04-18T14:55:15Z</time>
      </trkpt><trkpt lat="50.6119799707" lon="6.48027800024">
        <ele>477.4</ele>
        <time>2014-04-18T14:55:16Z</time>
      </trkpt><trkpt lat="50.6120249815" lon="6.48023198359">
        <ele>477</ele>
        <time>2014-04-18T14:55:16Z</time>
      </trkpt><trkpt lat="50.6120549887" lon="6.48022502661">
        <ele>476</ele>
        <time>2014-04-18T14:55:17Z</time>
      </trkpt><trkpt lat="50.6120880134" lon="6.48024296388">
        <ele>475.5</ele>
        <time>2014-04-18T14:55:17Z</time>
      </trkpt><trkpt lat="50.6121290009" lon="6.48026601411">
        <ele>474.6</ele>
        <time>2014-04-18T14:55:17Z</time>
      </trkpt><trkpt lat="50.6121959724" lon="6.48030297831">
        <ele>473.6</ele>
        <time>2014-04-18T14:55:18Z</time>
      </trkpt><trkpt lat="50.6130449753" lon="6.48047002964">
        <ele>467.3</ele>
        <time>2014-04-18T14:55:25Z</time>
      </trkpt><trkpt lat="50.6131769903" lon="6.48045997135">
        <ele>466.4</ele>
        <time>2014-04-18T14:55:27Z</time>
      </trkpt><trkpt lat="50.61329199" lon="6.48043298163">
        <ele>465.9</ele>
        <time>2014-04-18T14:55:28Z</time>
      </trkpt><trkpt lat="50.6135599595" lon="6.48037103936">
        <ele>463.5</ele>
        <time>2014-04-18T14:55:30Z</time>
      </trkpt><trkpt lat="50.6136440299" lon="6.48035201244">
        <ele>463</ele>
        <time>2014-04-18T14:55:31Z</time>
      </trkpt><trkpt lat="50.6137460377" lon="6.48040498607">
        <ele>462.5</ele>
        <time>2014-04-18T14:55:32Z</time>
      </trkpt><trkpt lat="50.6138249952" lon="6.48046701215">
        <ele>462.1</ele>
        <time>2014-04-18T14:55:32Z</time>
      </trkpt><trkpt lat="50.6139079761" lon="6.4805319719">
        <ele>461.6</ele>
        <time>2014-04-18T14:55:33Z</time>
      </trkpt><trkpt lat="50.6142020132" lon="6.48076297715">
        <ele>459.7</ele>
        <time>2014-04-18T14:55:36Z</time>
      </trkpt><trkpt lat="50.6143160071" lon="6.48084000684">
        <ele>459.2</ele>
        <time>2014-04-18T14:55:37Z</time>
      </trkpt><trkpt lat="50.6146760099" lon="6.48098995909">
        <ele>457.2</ele>
        <time>2014-04-18T14:55:41Z</time>
      </trkpt><trkpt lat="50.6147950329" lon="6.48098995909">
        <ele>456.8</ele>
        <time>2014-04-18T14:55:42Z</time>
      </trkpt><trkpt lat="50.6148989685" lon="6.48096196353">
        <ele>456.3</ele>
        <time>2014-04-18T14:55:43Z</time>
      </trkpt><trkpt lat="50.6150070112" lon="6.48091896437">
        <ele>455.3</ele>
        <time>2014-04-18T14:55:43Z</time>
      </trkpt><trkpt lat="50.6150930095" lon="6.48083799519">
        <ele>454.8</ele>
        <time>2014-04-18T14:55:44Z</time>
      </trkpt><trkpt lat="50.6151800137" lon="6.48072198965">
        <ele>454.8</ele>
        <time>2014-04-18T14:55:45Z</time>
      </trkpt><trkpt lat="50.615266012" lon="6.48060698994">
        <ele>453.9</ele>
        <time>2014-04-18T14:55:46Z</time>
      </trkpt><trkpt lat="50.6153410301" lon="6.48046902381">
        <ele>453.9</ele>
        <time>2014-04-18T14:55:47Z</time>
      </trkpt><trkpt lat="50.615411019" lon="6.48030599579">
        <ele>453.4</ele>
        <time>2014-04-18T14:55:48Z</time>
      </trkpt><trkpt lat="50.6154430378" lon="6.48015998304">
        <ele>453.4</ele>
        <time>2014-04-18T14:55:49Z</time>
      </trkpt><trkpt lat="50.6154639926" lon="6.4799920097">
        <ele>452.9</ele>
        <time>2014-04-18T14:55:50Z</time>
      </trkpt><trkpt lat="50.6155329756" lon="6.47965799086">
        <ele>451.5</ele>
        <time>2014-04-18T14:55:52Z</time>
      </trkpt><trkpt lat="50.6155710295" lon="6.47949596867">
        <ele>451</ele>
        <time>2014-04-18T14:55:53Z</time>
      </trkpt><trkpt lat="50.6156199798" lon="6.47933101282">
        <ele>450</ele>
        <time>2014-04-18T14:55:54Z</time>
      </trkpt><trkpt lat="50.6156980153" lon="6.47920603864">
        <ele>449.1</ele>
        <time>2014-04-18T14:55:55Z</time>
      </trkpt><trkpt lat="50.6157769728" lon="6.47907896899">
        <ele>448.1</ele>
        <time>2014-04-18T14:55:56Z</time>
      </trkpt><trkpt lat="50.6158730295" lon="6.47897503339">
        <ele>447.2</ele>
        <time>2014-04-18T14:55:57Z</time>
      </trkpt><trkpt lat="50.615983" lon="6.47889699787">
        <ele>446.7</ele>
        <time>2014-04-18T14:55:58Z</time>
      </trkpt><trkpt lat="50.6160939764" lon="6.47881703451">
        <ele>445.7</ele>
        <time>2014-04-18T14:55:59Z</time>
      </trkpt><trkpt lat="50.6162219681" lon="6.47880102508">
        <ele>444.8</ele>
        <time>2014-04-18T14:56:01Z</time>
      </trkpt><trkpt lat="50.6163480319" lon="6.47880102508">
        <ele>444.3</ele>
        <time>2014-04-18T14:56:02Z</time>
      </trkpt><trkpt lat="50.6164740119" lon="6.47880102508">
        <ele>443.3</ele>
        <time>2014-04-18T14:56:03Z</time>
      </trkpt><trkpt lat="50.6174360029" lon="6.47898098454">
        <ele>433.7</ele>
        <time>2014-04-18T14:56:11Z</time>
      </trkpt><trkpt lat="50.6179369893" lon="6.47939999588">
        <ele>428.9</ele>
        <time>2014-04-18T14:56:16Z</time>
      </trkpt><trkpt lat="50.6180369854" lon="6.47951700725">
        <ele>427.9</ele>
        <time>2014-04-18T14:56:17Z</time>
      </trkpt><trkpt lat="50.618127007" lon="6.47967098281">
        <ele>427.4</ele>
        <time>2014-04-18T14:56:19Z</time>
      </trkpt><trkpt lat="50.6182170287" lon="6.47983401082">
        <ele>426.5</ele>
        <time>2014-04-18T14:56:20Z</time>
      </trkpt><trkpt lat="50.6183059607" lon="6.48001195863">
        <ele>426</ele>
        <time>2014-04-18T14:56:21Z</time>
      </trkpt><trkpt lat="50.6191849709" lon="6.48201095872">
        <ele>418.8</ele>
        <time>2014-04-18T14:56:35Z</time>
      </trkpt><trkpt lat="50.619875975" lon="6.48324603215">
        <ele>414</ele>
        <time>2014-04-18T14:56:44Z</time>
      </trkpt><trkpt lat="50.6199929863" lon="6.4833590202">
        <ele>413</ele>
        <time>2014-04-18T14:56:45Z</time>
      </trkpt><trkpt lat="50.6201219838" lon="6.48344501853">
        <ele>412.5</ele>
        <time>2014-04-18T14:56:46Z</time>
      </trkpt><trkpt lat="50.6202410068" lon="6.48352095857">
        <ele>411.6</ele>
        <time>2014-04-18T14:56:47Z</time>
      </trkpt><trkpt lat="50.6203819904" lon="6.48349296302">
        <ele>411.1</ele>
        <time>2014-04-18T14:56:49Z</time>
      </trkpt><trkpt lat="50.6205200404" lon="6.48343797773">
        <ele>410.1</ele>
        <time>2014-04-18T14:56:50Z</time>
      </trkpt><trkpt lat="50.6206600182" lon="6.48335399106">
        <ele>409.2</ele>
        <time>2014-04-18T14:56:51Z</time>
      </trkpt><trkpt lat="50.6207669713" lon="6.48320898414">
        <ele>408.2</ele>
        <time>2014-04-18T14:56:52Z</time>
      </trkpt><trkpt lat="50.6208809651" lon="6.48304897361">
        <ele>407.3</ele>
        <time>2014-04-18T14:56:54Z</time>
      </trkpt><trkpt lat="50.6209600065" lon="6.4828380011">
        <ele>406.3</ele>
        <time>2014-04-18T14:56:55Z</time>
      </trkpt><trkpt lat="50.6210259721" lon="6.48262300529">
        <ele>405.3</ele>
        <time>2014-04-18T14:56:57Z</time>
      </trkpt><trkpt lat="50.6210750062" lon="6.4823759906">
        <ele>404.4</ele>
        <time>2014-04-18T14:56:58Z</time>
      </trkpt><trkpt lat="50.621095039" lon="6.48215495981">
        <ele>403.4</ele>
        <time>2014-04-18T14:56:59Z</time>
      </trkpt><trkpt lat="50.621095039" lon="6.48190802895">
        <ele>402.5</ele>
        <time>2014-04-18T14:57:01Z</time>
      </trkpt><trkpt lat="50.621095039" lon="6.4816180151">
        <ele>401</ele>
        <time>2014-04-18T14:57:02Z</time>
      </trkpt><trkpt lat="50.621095039" lon="6.48134300485">
        <ele>400.1</ele>
        <time>2014-04-18T14:57:04Z</time>
      </trkpt><trkpt lat="50.6210360304" lon="6.48084796965">
        <ele>398.1</ele>
        <time>2014-04-18T14:57:07Z</time>
      </trkpt><trkpt lat="50.6209340226" lon="6.48043298163">
        <ele>395.7</ele>
        <time>2014-04-18T14:57:09Z</time>
      </trkpt><trkpt lat="50.6208730023" lon="6.48026299663">
        <ele>394.8</ele>
        <time>2014-04-18T14:57:10Z</time>
      </trkpt><trkpt lat="50.6208180171" lon="6.48010902107">
        <ele>393.8</ele>
        <time>2014-04-18T14:57:11Z</time>
      </trkpt><trkpt lat="50.6207529735" lon="6.48000298999">
        <ele>392.4</ele>
        <time>2014-04-18T14:57:12Z</time>
      </trkpt><trkpt lat="50.6206849962" lon="6.47993601859">
        <ele>391.4</ele>
        <time>2014-04-18T14:57:13Z</time>
      </trkpt><trkpt lat="50.6206140015" lon="6.47982101887">
        <ele>390.4</ele>
        <time>2014-04-18T14:57:14Z</time>
      </trkpt><trkpt lat="50.6205949746" lon="6.47970501333">
        <ele>389.5</ele>
        <time>2014-04-18T14:57:14Z</time>
      </trkpt><trkpt lat="50.6205949746" lon="6.47958599031">
        <ele>389</ele>
        <time>2014-04-18T14:57:15Z</time>
      </trkpt><trkpt lat="50.6206379738" lon="6.47950099781">
        <ele>388.5</ele>
        <time>2014-04-18T14:57:16Z</time>
      </trkpt><trkpt lat="50.6206819788" lon="6.479411982">
        <ele>388</ele>
        <time>2014-04-18T14:57:16Z</time>
      </trkpt><trkpt lat="50.6207089685" lon="6.47935900837">
        <ele>387.6</ele>
        <time>2014-04-18T14:57:17Z</time>
      </trkpt><trkpt lat="50.6208640337" lon="6.47935900837">
        <ele>383.7</ele>
        <time>2014-04-18T14:57:18Z</time>
      </trkpt><trkpt lat="50.6225580163" lon="6.48059902713">
        <ele>377.9</ele>
        <time>2014-04-18T14:57:34Z</time>
      </trkpt><trkpt lat="50.6227839924" lon="6.48082097992">
        <ele>375.1</ele>
        <time>2014-04-18T14:57:37Z</time>
      </trkpt><trkpt lat="50.6228900235" lon="6.48084503599">
        <ele>375.5</ele>
        <time>2014-04-18T14:57:38Z</time>
      </trkpt><trkpt lat="50.6230050232" lon="6.48087001406">
        <ele>376.5</ele>
        <time>2014-04-18T14:57:39Z</time>
      </trkpt><trkpt lat="50.6232510321" lon="6.48091301322">
        <ele>377</ele>
        <time>2014-04-18T14:57:41Z</time>
      </trkpt><trkpt lat="50.6245379895" lon="6.48114200681">
        <ele>370.2</ele>
        <time>2014-04-18T14:57:52Z</time>
      </trkpt><trkpt lat="50.6249359623" lon="6.48132699542">
        <ele>370.7</ele>
        <time>2014-04-18T14:57:56Z</time>
      </trkpt><trkpt lat="50.6253170036" lon="6.48150402121">
        <ele>370.2</ele>
        <time>2014-04-18T14:57:59Z</time>
      </trkpt><trkpt lat="50.6255419739" lon="6.48160804063">
        <ele>368.8</ele>
        <time>2014-04-18T14:58:02Z</time>
      </trkpt><trkpt lat="50.6256469991" lon="6.48165699095">
        <ele>368.3</ele>
        <time>2014-04-18T14:58:02Z</time>
      </trkpt><trkpt lat="50.6257370207" lon="6.48164701648">
        <ele>368.3</ele>
        <time>2014-04-18T14:58:03Z</time>
      </trkpt><trkpt lat="50.625842968" lon="6.48158297874">
        <ele>366.4</ele>
        <time>2014-04-18T14:58:04Z</time>
      </trkpt><trkpt lat="50.6259449758" lon="6.48149304092">
        <ele>365</ele>
        <time>2014-04-18T14:58:05Z</time>
      </trkpt><trkpt lat="50.6260420382" lon="6.48137200624">
        <ele>364.5</ele>
        <time>2014-04-18T14:58:06Z</time>
      </trkpt><trkpt lat="50.6261169724" lon="6.48122398183">
        <ele>364</ele>
        <time>2014-04-18T14:58:07Z</time>
      </trkpt><trkpt lat="50.6261850335" lon="6.48105500266">
        <ele>363</ele>
        <time>2014-04-18T14:58:09Z</time>
      </trkpt><trkpt lat="50.626301961" lon="6.48071402684">
        <ele>361.6</ele>
        <time>2014-04-18T14:58:11Z</time>
      </trkpt><trkpt lat="50.6263560243" lon="6.48053498939">
        <ele>361.1</ele>
        <time>2014-04-18T14:58:12Z</time>
      </trkpt><trkpt lat="50.6263629813" lon="6.48038595915">
        <ele>361.1</ele>
        <time>2014-04-18T14:58:13Z</time>
      </trkpt><trkpt lat="50.626339009" lon="6.48019099608">
        <ele>360.6</ele>
        <time>2014-04-18T14:58:14Z</time>
      </trkpt><trkpt lat="50.6262980215" lon="6.48001598194">
        <ele>359.2</ele>
        <time>2014-04-18T14:58:15Z</time>
      </trkpt><trkpt lat="50.6262430362" lon="6.47982303053">
        <ele>358.2</ele>
        <time>2014-04-18T14:58:16Z</time>
      </trkpt><trkpt lat="50.6261919905" lon="6.47962002084">
        <ele>357.3</ele>
        <time>2014-04-18T14:58:17Z</time>
      </trkpt><trkpt lat="50.6258019805" lon="6.47750400938">
        <ele>346.2</ele>
        <time>2014-04-18T14:58:30Z</time>
      </trkpt><trkpt lat="50.6252030097" lon="6.47490603849">
        <ele>333.7</ele>
        <time>2014-04-18T14:58:45Z</time>
      </trkpt><trkpt lat="50.6251770258" lon="6.47475197911">
        <ele>333.2</ele>
        <time>2014-04-18T14:58:46Z</time>
      </trkpt><trkpt lat="50.6251890119" lon="6.47462096997">
        <ele>332.3</ele>
        <time>2014-04-18T14:58:47Z</time>
      </trkpt><trkpt lat="50.6252370402" lon="6.4743339736">
        <ele>330.4</ele>
        <time>2014-04-18T14:58:48Z</time>
      </trkpt><trkpt lat="50.6252679694" lon="6.47415099666">
        <ele>329.9</ele>
        <time>2014-04-18T14:58:49Z</time>
      </trkpt><trkpt lat="50.6253009941" lon="6.47376903333">
        <ele>328</ele>
        <time>2014-04-18T14:58:52Z</time>
      </trkpt><trkpt lat="50.6253009941" lon="6.47360298783">
        <ele>327.5</ele>
        <time>2014-04-18T14:58:52Z</time>
      </trkpt><trkpt lat="50.6252900138" lon="6.47344498895">
        <ele>326.5</ele>
        <time>2014-04-18T14:58:53Z</time>
      </trkpt><trkpt lat="50.6252699811" lon="6.47330299951">
        <ele>325.5</ele>
        <time>2014-04-18T14:58:54Z</time>
      </trkpt><trkpt lat="50.6252500322" lon="6.47316503339">
        <ele>324.6</ele>
        <time>2014-04-18T14:58:55Z</time>
      </trkpt><trkpt lat="50.6249590125" lon="6.47209198214">
        <ele>319.3</ele>
        <time>2014-04-18T14:59:01Z</time>
      </trkpt><trkpt lat="50.6248920411" lon="6.47195803933">
        <ele>318.8</ele>
        <time>2014-04-18T14:59:02Z</time>
      </trkpt><trkpt lat="50.6248059589" lon="6.47188696079">
        <ele>318.3</ele>
        <time>2014-04-18T14:59:03Z</time>
      </trkpt><trkpt lat="50.6247259956" lon="6.47181998938">
        <ele>317.9</ele>
        <time>2014-04-18T14:59:04Z</time>
      </trkpt><trkpt lat="50.624653995" lon="6.47175603546">
        <ele>316.9</ele>
        <time>2014-04-18T14:59:05Z</time>
      </trkpt><trkpt lat="50.6246140134" lon="6.47167598829">
        <ele>316.4</ele>
        <time>2014-04-18T14:59:05Z</time>
      </trkpt><trkpt lat="50.6245759595" lon="6.47160097025">
        <ele>315.9</ele>
        <time>2014-04-18T14:59:06Z</time>
      </trkpt><trkpt lat="50.6245710142" lon="6.4715210069">
        <ele>315.5</ele>
        <time>2014-04-18T14:59:06Z</time>
      </trkpt><trkpt lat="50.6246020272" lon="6.47144397721">
        <ele>315</ele>
        <time>2014-04-18T14:59:07Z</time>
      </trkpt><trkpt lat="50.6246620417" lon="6.47140399553">
        <ele>315</ele>
        <time>2014-04-18T14:59:07Z</time>
      </trkpt><trkpt lat="50.6247280072" lon="6.47138203494">
        <ele>314.5</ele>
        <time>2014-04-18T14:59:08Z</time>
      </trkpt><trkpt lat="50.6248249859" lon="6.47145797499">
        <ele>314</ele>
        <time>2014-04-18T14:59:09Z</time>
      </trkpt><trkpt lat="50.6249150075" lon="6.47159099579">
        <ele>313.5</ele>
        <time>2014-04-18T14:59:10Z</time>
      </trkpt><trkpt lat="50.6249949709" lon="6.47175100632">
        <ele>313.1</ele>
        <time>2014-04-18T14:59:11Z</time>
      </trkpt><trkpt lat="50.6256670319" lon="6.47368001752">
        <ele>306.8</ele>
        <time>2014-04-18T14:59:24Z</time>
      </trkpt><trkpt lat="50.6256869808" lon="6.47388101555">
        <ele>306.3</ele>
        <time>2014-04-18T14:59:25Z</time>
      </trkpt><trkpt lat="50.6256869808" lon="6.47408503108">
        <ele>305.4</ele>
        <time>2014-04-18T14:59:26Z</time>
      </trkpt><trkpt lat="50.6256869808" lon="6.47427999415">
        <ele>304.9</ele>
        <time>2014-04-18T14:59:27Z</time>
      </trkpt><trkpt lat="50.6256869808" lon="6.47446196526">
        <ele>303.9</ele>
        <time>2014-04-18T14:59:28Z</time>
      </trkpt><trkpt lat="50.6256869808" lon="6.47463798523">
        <ele>303</ele>
        <time>2014-04-18T14:59:29Z</time>
      </trkpt><trkpt lat="50.6257080194" lon="6.4748069644">
        <ele>302</ele>
        <time>2014-04-18T14:59:30Z</time>
      </trkpt><trkpt lat="50.6257409602" lon="6.47497502156">
        <ele>301</ele>
        <time>2014-04-18T14:59:31Z</time>
      </trkpt><trkpt lat="50.6257930119" lon="6.47514802404">
        <ele>300.6</ele>
        <time>2014-04-18T14:59:32Z</time>
      </trkpt><trkpt lat="50.625849003" lon="6.47533401847">
        <ele>299.6</ele>
        <time>2014-04-18T14:59:33Z</time>
      </trkpt><trkpt lat="50.6264749635" lon="6.47724500857">
        <ele>291.9</ele>
        <time>2014-04-18T14:59:45Z</time>
      </trkpt><trkpt lat="50.6268689968" lon="6.47847597487">
        <ele>285.7</ele>
        <time>2014-04-18T14:59:53Z</time>
      </trkpt><trkpt lat="50.6269170251" lon="6.47862399928">
        <ele>284.7</ele>
        <time>2014-04-18T14:59:54Z</time>
      </trkpt><trkpt lat="50.6269839965" lon="6.47874503396">
        <ele>283.7</ele>
        <time>2014-04-18T14:59:55Z</time>
      </trkpt><trkpt lat="50.6270679832" lon="6.47886296734">
        <ele>283.3</ele>
        <time>2014-04-18T14:59:56Z</time>
      </trkpt><trkpt lat="50.6271529756" lon="6.47898199037">
        <ele>282.3</ele>
        <time>2014-04-18T14:59:57Z</time>
      </trkpt><trkpt lat="50.627483977" lon="6.47945699282">
        <ele>278.9</ele>
        <time>2014-04-18T15:00:01Z</time>
      </trkpt><trkpt lat="50.627534017" lon="6.47957299836">
        <ele>278.4</ele>
        <time>2014-04-18T15:00:01Z</time>
      </trkpt><trkpt lat="50.6275399681" lon="6.47973502055">
        <ele>277.5</ele>
        <time>2014-04-18T15:00:02Z</time>
      </trkpt><trkpt lat="50.6275460031" lon="6.47990500554">
        <ele>276.5</ele>
        <time>2014-04-18T15:00:03Z</time>
      </trkpt><trkpt lat="50.6275529601" lon="6.48008001968">
        <ele>275.6</ele>
        <time>2014-04-18T15:00:04Z</time>
      </trkpt><trkpt lat="50.627558995" lon="6.48025201634">
        <ele>274.6</ele>
        <time>2014-04-18T15:00:05Z</time>
      </trkpt><trkpt lat="50.6275660358" lon="6.48042401299">
        <ele>273.6</ele>
        <time>2014-04-18T15:00:06Z</time>
      </trkpt><trkpt lat="50.627571987" lon="6.48059701547">
        <ele>272.7</ele>
        <time>2014-04-18T15:00:07Z</time>
      </trkpt><trkpt lat="50.62756503" lon="6.48077202961">
        <ele>271.7</ele>
        <time>2014-04-18T15:00:08Z</time>
      </trkpt><trkpt lat="50.6275439914" lon="6.48094000295">
        <ele>270.8</ele>
        <time>2014-04-18T15:00:09Z</time>
      </trkpt><trkpt lat="50.6275019981" lon="6.48110998794">
        <ele>269.8</ele>
        <time>2014-04-18T15:00:10Z</time>
      </trkpt><trkpt lat="50.6274470128" lon="6.4812450204">
        <ele>268.8</ele>
        <time>2014-04-18T15:00:11Z</time>
      </trkpt><trkpt lat="50.6273940392" lon="6.48137896322">
        <ele>267.4</ele>
        <time>2014-04-18T15:00:12Z</time>
      </trkpt><trkpt lat="50.6273429934" lon="6.4815519657">
        <ele>266.4</ele>
        <time>2014-04-18T15:00:13Z</time>
      </trkpt><trkpt lat="50.6273080409" lon="6.48172798567">
        <ele>265.9</ele>
        <time>2014-04-18T15:00:14Z</time>
      </trkpt><trkpt lat="50.6272750162" lon="6.48189302534">
        <ele>265.9</ele>
        <time>2014-04-18T15:00:15Z</time>
      </trkpt><trkpt lat="50.6272399798" lon="6.48204599507">
        <ele>265.9</ele>
        <time>2014-04-18T15:00:16Z</time>
      </trkpt><trkpt lat="50.6271720026" lon="6.48234497756">
        <ele>265.9</ele>
        <time>2014-04-18T15:00:18Z</time>
      </trkpt><trkpt lat="50.6271399837" lon="6.48248403333">
        <ele>265.9</ele>
        <time>2014-04-18T15:00:18Z</time>
      </trkpt><trkpt lat="50.6270610262" lon="6.48283498362">
        <ele>265.5</ele>
        <time>2014-04-18T15:00:20Z</time>
      </trkpt><trkpt lat="50.6270679832" lon="6.48287395947">
        <ele>265.5</ele>
        <time>2014-04-18T15:00:21Z</time>
      </trkpt><trkpt lat="50.6270870101" lon="6.48296699859">
        <ele>265.5</ele>
        <time>2014-04-18T15:00:21Z</time>
      </trkpt><trkpt lat="50.6271030195" lon="6.48304897361">
        <ele>265.5</ele>
        <time>2014-04-18T15:00:22Z</time>
      </trkpt><trkpt lat="50.6270949729" lon="6.48300999776">
        <ele>265.5</ele>
        <time>2014-04-18T15:00:22Z</time>
      </trkpt><trkpt lat="50.6271600164" lon="6.48308602162">
        <ele>265.5</ele>
        <time>2014-04-18T15:00:23Z</time>
      </trkpt><trkpt lat="50.6273949612" lon="6.4827639889">
        <ele>265.9</ele>
        <time>2014-04-18T15:00:25Z</time>
      </trkpt><trkpt lat="50.6274829712" lon="6.48253901862">
        <ele>265.5</ele>
        <time>2014-04-18T15:00:27Z</time>
      </trkpt><trkpt lat="50.6275770161" lon="6.48233097978">
        <ele>265.5</ele>
        <time>2014-04-18T15:00:28Z</time>
      </trkpt><trkpt lat="50.6278110389" lon="6.48202696815">
        <ele>265.5</ele>
        <time>2014-04-18T15:00:31Z</time>
      </trkpt><trkpt lat="50.6283919886" lon="6.4813079685">
        <ele>264</ele>
        <time>2014-04-18T15:00:37Z</time>
      </trkpt><trkpt lat="50.6285010371" lon="6.48116002791">
        <ele>263.5</ele>
        <time>2014-04-18T15:00:39Z</time>
      </trkpt><trkpt lat="50.6286169589" lon="6.4810199663">
        <ele>263.1</ele>
        <time>2014-04-18T15:00:40Z</time>
      </trkpt><trkpt lat="50.6287469622" lon="6.48099297658">
        <ele>263.1</ele>
        <time>2014-04-18T15:00:41Z</time>
      </trkpt><trkpt lat="50.6288539991" lon="6.48102600127">
        <ele>262.1</ele>
        <time>2014-04-18T15:00:42Z</time>
      </trkpt><trkpt lat="50.6289620418" lon="6.4810600318">
        <ele>261.6</ele>
        <time>2014-04-18T15:00:43Z</time>
      </trkpt><trkpt lat="50.6290669832" lon="6.48109196685">
        <ele>261.1</ele>
        <time>2014-04-18T15:00:44Z</time>
      </trkpt><trkpt lat="50.6291789655" lon="6.48112599738">
        <ele>260.7</ele>
        <time>2014-04-18T15:00:45Z</time>
      </trkpt><trkpt lat="50.629301006" lon="6.48116296157">
        <ele>259.7</ele>
        <time>2014-04-18T15:00:46Z</time>
      </trkpt><trkpt lat="50.6294229627" lon="6.48118400015">
        <ele>259.7</ele>
        <time>2014-04-18T15:00:47Z</time>
      </trkpt><trkpt lat="50.6305499934" lon="6.48135901429">
        <ele>251</ele>
        <time>2014-04-18T15:00:57Z</time>
      </trkpt><trkpt lat="50.6314979866" lon="6.48131199181">
        <ele>241.9</ele>
        <time>2014-04-18T15:01:06Z</time>
      </trkpt><trkpt lat="50.6324279588" lon="6.48102901876">
        <ele>233.7</ele>
        <time>2014-04-18T15:01:14Z</time>
      </trkpt><trkpt lat="50.6324850395" lon="6.48097302765">
        <ele>232.8</ele>
        <time>2014-04-18T15:01:15Z</time>
      </trkpt><trkpt lat="50.6325400248" lon="6.48091703653">
        <ele>231.8</ele>
        <time>2014-04-18T15:01:15Z</time>
      </trkpt><trkpt lat="50.6326820143" lon="6.48079600185">
        <ele>229.4</ele>
        <time>2014-04-18T15:01:17Z</time>
      </trkpt><trkpt lat="50.6327299587" lon="6.48077303544">
        <ele>228.9</ele>
        <time>2014-04-18T15:01:17Z</time>
      </trkpt><trkpt lat="50.6327769812" lon="6.48074897937">
        <ele>228.5</ele>
        <time>2014-04-18T15:01:17Z</time>
      </trkpt><trkpt lat="50.6328229979" lon="6.48072601296">
        <ele>228</ele>
        <time>2014-04-18T15:01:18Z</time>
      </trkpt><trkpt lat="50.6328710262" lon="6.48070204072">
        <ele>227.5</ele>
        <time>2014-04-18T15:01:18Z</time>
      </trkpt><trkpt lat="50.6329140253" lon="6.48068100214">
        <ele>227</ele>
        <time>2014-04-18T15:01:19Z</time>
      </trkpt><trkpt lat="50.6329590362" lon="6.48065803573">
        <ele>226.5</ele>
        <time>2014-04-18T15:01:19Z</time>
      </trkpt><trkpt lat="50.6329960003" lon="6.48065099493">
        <ele>226.1</ele>
        <time>2014-04-18T15:01:19Z</time>
      </trkpt><trkpt lat="50.6330410112" lon="6.48066901602">
        <ele>226.1</ele>
        <time>2014-04-18T15:01:20Z</time>
      </trkpt><trkpt lat="50.6330840103" lon="6.48068703711">
        <ele>225.6</ele>
        <time>2014-04-18T15:01:20Z</time>
      </trkpt><trkpt lat="50.6331260037" lon="6.48070296273">
        <ele>224.1</ele>
        <time>2014-04-18T15:01:21Z</time>
      </trkpt><trkpt lat="50.633161962" lon="6.48071796633">
        <ele>223.2</ele>
        <time>2014-04-18T15:01:21Z</time>
      </trkpt><trkpt lat="50.63328702" lon="6.48077697493">
        <ele>220.8</ele>
        <time>2014-04-18T15:01:22Z</time>
      </trkpt><trkpt lat="50.6333300192" lon="6.48079801351">
        <ele>219.8</ele>
        <time>2014-04-18T15:01:23Z</time>
      </trkpt><trkpt lat="50.633368995" lon="6.48081796244">
        <ele>219.3</ele>
        <time>2014-04-18T15:01:23Z</time>
      </trkpt><trkpt lat="50.6333990023" lon="6.48073699325">
        <ele>218.8</ele>
        <time>2014-04-18T15:01:23Z</time>
      </trkpt><trkpt lat="50.6334180292" lon="6.48068401963">
        <ele>218.8</ele>
        <time>2014-04-18T15:01:24Z</time>
      </trkpt><trkpt lat="50.6335069612" lon="6.48044303991">
        <ele>217.9</ele>
        <time>2014-04-18T15:01:25Z</time>
      </trkpt><trkpt lat="50.6335350405" lon="6.48036802188">
        <ele>217.4</ele>
        <time>2014-04-18T15:01:26Z</time>
      </trkpt><trkpt lat="50.6335639581" lon="6.4802879747">
        <ele>217.4</ele>
        <time>2014-04-18T15:01:26Z</time>
      </trkpt><trkpt lat="50.6335949712" lon="6.48020398803">
        <ele>216.9</ele>
        <time>2014-04-18T15:01:27Z</time>
      </trkpt><trkpt lat="50.63362699" lon="6.48011698388">
        <ele>216.4</ele>
        <time>2014-04-18T15:01:27Z</time>
      </trkpt><trkpt lat="50.6337190233" lon="6.47980299778">
        <ele>215.5</ele>
        <time>2014-04-18T15:01:29Z</time>
      </trkpt><trkpt lat="50.6337399781" lon="6.47971901111">
        <ele>215.5</ele>
        <time>2014-04-18T15:01:30Z</time>
      </trkpt><trkpt lat="50.63376504" lon="6.47956503555">
        <ele>215</ele>
        <time>2014-04-18T15:01:31Z</time>
      </trkpt><trkpt lat="50.63375297" lon="6.47845502011">
        <ele>214</ele>
        <time>2014-04-18T15:01:37Z</time>
      </trkpt><trkpt lat="50.6337180175" lon="6.47786200047">
        <ele>214</ele>
        <time>2014-04-18T15:01:40Z</time>
      </trkpt><trkpt lat="50.633715" lon="6.47780802101">
        <ele>214</ele>
        <time>2014-04-18T15:01:41Z</time>
      </trkpt><trkpt lat="50.6336989906" lon="6.47773995996">
        <ele>213.6</ele>
        <time>2014-04-18T15:01:41Z</time>
      </trkpt><trkpt lat="50.6336689834" lon="6.47767298855">
        <ele>213.6</ele>
        <time>2014-04-18T15:01:41Z</time>
      </trkpt><trkpt lat="50.6334119942" lon="6.47698801942">
        <ele>211.6</ele>
        <time>2014-04-18T15:01:46Z</time>
      </trkpt><trkpt lat="50.6334669795" lon="6.47654403001">
        <ele>211.2</ele>
        <time>2014-04-18T15:01:48Z</time>
      </trkpt><trkpt lat="50.6334789656" lon="6.47647798061">
        <ele>211.2</ele>
        <time>2014-04-18T15:01:49Z</time>
      </trkpt><trkpt lat="50.6334910356" lon="6.47641302086">
        <ele>210.7</ele>
        <time>2014-04-18T15:01:49Z</time>
      </trkpt><trkpt lat="50.6335030217" lon="6.47634697147">
        <ele>210.7</ele>
        <time>2014-04-18T15:01:50Z</time>
      </trkpt><trkpt lat="50.6335150078" lon="6.47628201172">
        <ele>210.7</ele>
        <time>2014-04-18T15:01:50Z</time>
      </trkpt><trkpt lat="50.6335249823" lon="6.47622702643">
        <ele>210.7</ele>
        <time>2014-04-18T15:01:50Z</time>
      </trkpt><trkpt lat="50.6335330289" lon="6.47618100978">
        <ele>210.7</ele>
        <time>2014-04-18T15:01:51Z</time>
      </trkpt><trkpt lat="50.6337350328" lon="6.47536503151">
        <ele>211.6</ele>
        <time>2014-04-18T15:01:55Z</time>
      </trkpt><trkpt lat="50.6337579992" lon="6.47527702153">
        <ele>211.6</ele>
        <time>2014-04-18T15:01:56Z</time>
      </trkpt><trkpt lat="50.6337910239" lon="6.47520401515">
        <ele>212.1</ele>
        <time>2014-04-18T15:01:56Z</time>
      </trkpt><trkpt lat="50.6338600069" lon="6.47505196743">
        <ele>212.1</ele>
        <time>2014-04-18T15:01:57Z</time>
      </trkpt><trkpt lat="50.6338989828" lon="6.4749659691">
        <ele>212.1</ele>
        <time>2014-04-18T15:01:58Z</time>
      </trkpt><trkpt lat="50.6341060158" lon="6.47467302158">
        <ele>212.1</ele>
        <time>2014-04-18T15:02:01Z</time>
      </trkpt><trkpt lat="50.6341589894" lon="6.47461996414">
        <ele>212.1</ele>
        <time>2014-04-18T15:02:01Z</time>
      </trkpt><trkpt lat="50.6342060119" lon="6.47457302548">
        <ele>212.1</ele>
        <time>2014-04-18T15:02:02Z</time>
      </trkpt><trkpt lat="50.6342520285" lon="6.47454301827">
        <ele>212.1</ele>
        <time>2014-04-18T15:02:02Z</time>
      </trkpt><trkpt lat="50.6342879869" lon="6.47453002632">
        <ele>212.1</ele>
        <time>2014-04-18T15:02:02Z</time>
      </trkpt><trkpt lat="50.6343240291" lon="6.47451703437">
        <ele>211.6</ele>
        <time>2014-04-18T15:02:03Z</time>
      </trkpt><trkpt lat="50.6343609933" lon="6.47450303659">
        <ele>211.6</ele>
        <time>2014-04-18T15:02:03Z</time>
      </trkpt><trkpt lat="50.6344029866" lon="6.47448803298">
        <ele>211.6</ele>
        <time>2014-04-18T15:02:03Z</time>
      </trkpt><trkpt lat="50.6344520207" lon="6.47447001189">
        <ele>211.6</ele>
        <time>2014-04-18T15:02:04Z</time>
      </trkpt><trkpt lat="50.6350590382" lon="6.47423297167">
        <ele>211.2</ele>
        <time>2014-04-18T15:02:09Z</time>
      </trkpt><trkpt lat="50.6351069827" lon="6.47417396307">
        <ele>211.2</ele>
        <time>2014-04-18T15:02:10Z</time>
      </trkpt><trkpt lat="50.6351570226" lon="6.47411503829">
        <ele>211.2</ele>
        <time>2014-04-18T15:02:10Z</time>
      </trkpt><trkpt lat="50.6352049671" lon="6.47405703552">
        <ele>211.2</ele>
        <time>2014-04-18T15:02:11Z</time>
      </trkpt><trkpt lat="50.6352540012" lon="6.47399802692">
        <ele>211.2</ele>
        <time>2014-04-18T15:02:11Z</time>
      </trkpt><trkpt lat="50.6353890337" lon="6.47369803861">
        <ele>211.2</ele>
        <time>2014-04-18T15:02:14Z</time>
      </trkpt><trkpt lat="50.6354420073" lon="6.47360801697">
        <ele>211.2</ele>
        <time>2014-04-18T15:02:14Z</time>
      </trkpt><trkpt lat="50.6354720145" lon="6.47360801697">
        <ele>211.6</ele>
        <time>2014-04-18T15:02:14Z</time>
      </trkpt><trkpt lat="50.6355000101" lon="6.47356602363">
        <ele>211.6</ele>
        <time>2014-04-18T15:02:15Z</time>
      </trkpt><trkpt lat="50.6355290115" lon="6.47352302447">
        <ele>212.1</ele>
        <time>2014-04-18T15:02:15Z</time>
      </trkpt><trkpt lat="50.6355539896" lon="6.47348597646">
        <ele>212.1</ele>
        <time>2014-04-18T15:02:15Z</time>
      </trkpt><trkpt lat="50.6355580129" lon="6.47347901948">
        <ele>212.1</ele>
        <time>2014-04-18T15:02:16Z</time>
      </trkpt><trkpt lat="50.6355399918" lon="6.47345303558">
        <ele>212.1</ele>
        <time>2014-04-18T15:02:16Z</time>
      </trkpt><trkpt lat="50.6355209649" lon="6.47342403419">
        <ele>212.1</ele>
        <time>2014-04-18T15:02:16Z</time>
      </trkpt><trkpt lat="50.6355030276" lon="6.47339796647">
        <ele>212.1</ele>
        <time>2014-04-18T15:02:16Z</time>
      </trkpt><trkpt lat="50.635481989" lon="6.47336603142">
        <ele>212.1</ele>
        <time>2014-04-18T15:02:16Z</time>
      </trkpt><trkpt lat="50.6354720145" lon="6.47335102782">
        <ele>212.1</ele>
        <time>2014-04-18T15:02:17Z</time>
      </trkpt><trkpt lat="50.6354580168" lon="6.47336502559">
        <ele>211.6</ele>
        <time>2014-04-18T15:02:17Z</time>
      </trkpt><trkpt lat="50.6354180351" lon="6.47340400144">
        <ele>211.6</ele>
        <time>2014-04-18T15:02:17Z</time>
      </trkpt><trkpt lat="50.6353860162" lon="6.47343602031">
        <ele>211.6</ele>
        <time>2014-04-18T15:02:17Z</time>
      </trkpt><trkpt lat="50.6353959907" lon="6.47347499616">
        <ele>211.2</ele>
        <time>2014-04-18T15:02:18Z</time>
      </trkpt><trkpt lat="50.6354120001" lon="6.47354003973">
        <ele>210.7</ele>
        <time>2014-04-18T15:02:18Z</time>
      </trkpt><trkpt lat="50.6354280096" lon="6.47360298783">
        <ele>210.7</ele>
        <time>2014-04-18T15:02:18Z</time>
      </trkpt><trkpt lat="50.6354629621" lon="6.47360801697">
        <ele>210.2</ele>
        <time>2014-04-18T15:02:19Z</time>
      </trkpt><trkpt lat="50.6354789715" lon="6.47359703667">
        <ele>210.2</ele>
        <time>2014-04-18T15:02:19Z</time>
      </trkpt><trkpt lat="50.6354939751" lon="6.47357499227">
        <ele>209.7</ele>
        <time>2014-04-18T15:02:19Z</time>
      </trkpt><trkpt lat="50.6355580129" lon="6.47347901948">
        <ele>210.2</ele>
        <time>2014-04-18T15:02:20Z</time>
      </trkpt><trkpt lat="50.635576034" lon="6.47347197868">
        <ele>209.7</ele>
        <time>2014-04-18T15:02:20Z</time>
      </trkpt><trkpt lat="50.6355519779" lon="6.47348798811">
        <ele>209.7</ele>
        <time>2014-04-18T15:02:20Z</time>
      </trkpt><trkpt lat="50.6355580129" lon="6.47347901948">
        <ele>209.7</ele>
        <time>2014-04-18T15:02:20Z</time>
      </trkpt><trkpt lat="50.6360719912" lon="6.47327399813">
        <ele>210.2</ele>
        <time>2014-04-18T15:02:25Z</time>
      </trkpt><trkpt lat="50.6364119612" lon="6.47307903506">
        <ele>209.7</ele>
        <time>2014-04-18T15:02:28Z</time>
      </trkpt><trkpt lat="50.6364390347" lon="6.47306101397">
        <ele>209.7</ele>
        <time>2014-04-18T15:02:28Z</time>
      </trkpt><trkpt lat="50.6363889948" lon="6.47318003699">
        <ele>208.7</ele>
        <time>2014-04-18T15:02:29Z</time>
      </trkpt><trkpt lat="50.6363040023" lon="6.47315204144">
        <ele>208.7</ele>
        <time>2014-04-18T15:02:30Z</time>
      </trkpt><trkpt lat="50.6359119806" lon="6.47333803587">
        <ele>208.7</ele>
        <time>2014-04-18T15:02:34Z</time>
      </trkpt><trkpt lat="50.6356639601" lon="6.47343702614">
        <ele>208.3</ele>
        <time>2014-04-18T15:02:36Z</time>
      </trkpt><trkpt lat="50.6355580129" lon="6.47347901948">
        <ele>208.3</ele>
        <time>2014-04-18T15:02:37Z</time>
      </trkpt><trkpt lat="50.6355549954" lon="6.47348295897">
        <ele>208.3</ele>
        <time>2014-04-18T15:02:37Z</time>
      </trkpt><trkpt lat="50.6355519779" lon="6.47348798811">
        <ele>208.3</ele>
        <time>2014-04-18T15:02:37Z</time>
      </trkpt><trkpt lat="50.6355539896" lon="6.4734839648">
        <ele>207.8</ele>
        <time>2014-04-18T15:02:37Z</time>
      </trkpt><trkpt lat="50.6355580129" lon="6.47347901948">
        <ele>207.8</ele>
        <time>2014-04-18T15:02:37Z</time>
      </trkpt><trkpt lat="50.6362879928" lon="6.47316302173">
        <ele>206.8</ele>
        <time>2014-04-18T15:02:44Z</time>
      </trkpt><trkpt lat="50.6362999789" lon="6.4731549751">
        <ele>206.8</ele>
        <time>2014-04-18T15:02:44Z</time>
      </trkpt><trkpt lat="50.6363129709" lon="6.47314600646">
        <ele>206.8</ele>
        <time>2014-04-18T15:02:44Z</time>
      </trkpt><trkpt lat="50.6363319978" lon="6.47313402034">
        <ele>206.8</ele>
        <time>2014-04-18T15:02:44Z</time>
      </trkpt><trkpt lat="50.6363559701" lon="6.47311801091">
        <ele>206.3</ele>
        <time>2014-04-18T15:02:44Z</time>
      </trkpt><trkpt lat="50.636374997" lon="6.47310401313">
        <ele>206.8</ele>
        <time>2014-04-18T15:02:45Z</time>
      </trkpt><trkpt lat="50.6363589875" lon="6.47298398428">
        <ele>208.7</ele>
        <time>2014-04-18T15:02:45Z</time>
      </trkpt><trkpt lat="50.6364119612" lon="6.47302597761">
        <ele>205.4</ele>
        <time>2014-04-18T15:02:46Z</time>
      </trkpt><trkpt lat="50.6363889948" lon="6.47302103229">
        <ele>207.8</ele>
        <time>2014-04-18T15:02:46Z</time>
      </trkpt><trkpt lat="50.6363900006" lon="6.47302203812">
        <ele>208.3</ele>
        <time>2014-04-18T15:02:46Z</time>
      </trkpt><trkpt lat="50.6363879889" lon="6.47301700898">
        <ele>208.3</ele>
        <time>2014-04-18T15:02:46Z</time>
      </trkpt><trkpt lat="50.6363979634" lon="6.47302698344">
        <ele>208.7</ele>
        <time>2014-04-18T15:02:46Z</time>
      </trkpt><trkpt lat="50.6363960356" lon="6.47303000093">
        <ele>208.7</ele>
        <time>2014-04-18T15:02:46Z</time>
      </trkpt><trkpt lat="50.6363050081" lon="6.47311398759">
        <ele>209.2</ele>
        <time>2014-04-18T15:02:47Z</time>
      </trkpt><trkpt lat="50.6362340134" lon="6.47318598814">
        <ele>208.7</ele>
        <time>2014-04-18T15:02:48Z</time>
      </trkpt><trkpt lat="50.6360370386" lon="6.4732879959">
        <ele>208.3</ele>
        <time>2014-04-18T15:02:50Z</time>
      </trkpt><trkpt lat="50.6357720029" lon="6.47339402698">
        <ele>207.3</ele>
        <time>2014-04-18T15:02:52Z</time>
      </trkpt><trkpt lat="50.6357239746" lon="6.47341297008">
        <ele>207.3</ele>
        <time>2014-04-18T15:02:52Z</time>
      </trkpt><trkpt lat="50.635689022" lon="6.47342696786">
        <ele>207.8</ele>
        <time>2014-04-18T15:02:53Z</time>
      </trkpt><trkpt lat="50.6356689893" lon="6.47343501449">
        <ele>207.8</ele>
        <time>2014-04-18T15:02:53Z</time>
      </trkpt><trkpt lat="50.6356480345" lon="6.47344297729">
        <ele>207.8</ele>
        <time>2014-04-18T15:02:53Z</time>
      </trkpt><trkpt lat="50.635519959" lon="6.47342202254">
        <ele>207.8</ele>
        <time>2014-04-18T15:02:54Z</time>
      </trkpt><trkpt lat="50.635494981" lon="6.47338497452">
        <ele>207.8</ele>
        <time>2014-04-18T15:02:55Z</time>
      </trkpt><trkpt lat="50.6354580168" lon="6.47336401977">
        <ele>207.8</ele>
        <time>2014-04-18T15:02:55Z</time>
      </trkpt><trkpt lat="50.6354190409" lon="6.47340299562">
        <ele>207.8</ele>
        <time>2014-04-18T15:02:55Z</time>
      </trkpt><trkpt lat="50.6354049593" lon="6.47351103835">
        <ele>207.8</ele>
        <time>2014-04-18T15:02:56Z</time>
      </trkpt><trkpt lat="50.6354209688" lon="6.47357700393">
        <ele>207.8</ele>
        <time>2014-04-18T15:02:56Z</time>
      </trkpt><trkpt lat="50.6354290154" lon="6.47360801697">
        <ele>207.3</ele>
        <time>2014-04-18T15:02:57Z</time>
      </trkpt><trkpt lat="50.6354720145" lon="6.47360801697">
        <ele>207.8</ele>
        <time>2014-04-18T15:02:57Z</time>
      </trkpt><trkpt lat="50.6355030276" lon="6.47356200032">
        <ele>207.3</ele>
        <time>2014-04-18T15:02:57Z</time>
      </trkpt><trkpt lat="50.6355489604" lon="6.47349201143">
        <ele>207.3</ele>
        <time>2014-04-18T15:02:58Z</time>
      </trkpt><trkpt lat="50.6355580129" lon="6.47347901948">
        <ele>206.8</ele>
        <time>2014-04-18T15:02:58Z</time>
      </trkpt><trkpt lat="50.6364459917" lon="6.47305699065">
        <ele>205.9</ele>
        <time>2014-04-18T15:03:06Z</time>
      </trkpt><trkpt lat="50.6377699971" lon="6.47221100517">
        <ele>204.9</ele>
        <time>2014-04-18T15:03:19Z</time>
      </trkpt><trkpt lat="50.6384520326" lon="6.4718650002">
        <ele>205.9</ele>
        <time>2014-04-18T15:03:25Z</time>
      </trkpt><trkpt lat="50.6385780126" lon="6.47178998217">
        <ele>205.9</ele>
        <time>2014-04-18T15:03:26Z</time>
      </trkpt><trkpt lat="50.6390860397" lon="6.47128103301">
        <ele>208.3</ele>
        <time>2014-04-18T15:03:31Z</time>
      </trkpt><trkpt lat="50.6392010394" lon="6.47108598612">
        <ele>208.7</ele>
        <time>2014-04-18T15:03:33Z</time>
      </trkpt><trkpt lat="50.6392520014" lon="6.47097500972">
        <ele>209.2</ele>
        <time>2014-04-18T15:03:34Z</time>
      </trkpt><trkpt lat="50.6392879598" lon="6.47083201446">
        <ele>209.7</ele>
        <time>2014-04-18T15:03:35Z</time>
      </trkpt><trkpt lat="50.6393229961" lon="6.47069103085">
        <ele>210.2</ele>
        <time>2014-04-18T15:03:35Z</time>
      </trkpt><trkpt lat="50.6393339764" lon="6.47056798451">
        <ele>211.2</ele>
        <time>2014-04-18T15:03:36Z</time>
      </trkpt><trkpt lat="50.6393339764" lon="6.47044401616">
        <ele>211.6</ele>
        <time>2014-04-18T15:03:37Z</time>
      </trkpt><trkpt lat="50.6393570267" lon="6.47003799677">
        <ele>214</ele>
        <time>2014-04-18T15:03:39Z</time>
      </trkpt><trkpt lat="50.6393670011" lon="6.46997697651">
        <ele>215</ele>
        <time>2014-04-18T15:03:39Z</time>
      </trkpt><trkpt lat="50.6394049712" lon="6.46991696209">
        <ele>216</ele>
        <time>2014-04-18T15:03:40Z</time>
      </trkpt><trkpt lat="50.6394479703" lon="6.46997303702">
        <ele>216.4</ele>
        <time>2014-04-18T15:03:40Z</time>
      </trkpt><trkpt lat="50.6394580286" lon="6.47006398067">
        <ele>216.4</ele>
        <time>2014-04-18T15:03:41Z</time>
      </trkpt><trkpt lat="50.6394469645" lon="6.47018400952">
        <ele>216.9</ele>
        <time>2014-04-18T15:03:42Z</time>
      </trkpt><trkpt lat="50.6394329667" lon="6.47033597343">
        <ele>217.4</ele>
        <time>2014-04-18T15:03:42Z</time>
      </trkpt><trkpt lat="50.6394229922" lon="6.47049598396">
        <ele>217.4</ele>
        <time>2014-04-18T15:03:43Z</time>
      </trkpt><trkpt lat="50.6394420192" lon="6.47064702585">
        <ele>217.9</ele>
        <time>2014-04-18T15:03:44Z</time>
      </trkpt><trkpt lat="50.6394590344" lon="6.47079002112">
        <ele>217.9</ele>
        <time>2014-04-18T15:03:45Z</time>
      </trkpt><trkpt lat="50.6395059731" lon="6.47087501362">
        <ele>218.4</ele>
        <time>2014-04-18T15:03:46Z</time>
      </trkpt><trkpt lat="50.639569005" lon="6.47096000612">
        <ele>217.9</ele>
        <time>2014-04-18T15:03:46Z</time>
      </trkpt><trkpt lat="50.6396329589" lon="6.4709999878">
        <ele>217.9</ele>
        <time>2014-04-18T15:03:47Z</time>
      </trkpt><trkpt lat="50.6400829833" lon="6.47103301249">
        <ele>216.4</ele>
        <time>2014-04-18T15:03:51Z</time>
      </trkpt><trkpt lat="50.6404439919" lon="6.47115597501">
        <ele>215.5</ele>
        <time>2014-04-18T15:03:54Z</time>
      </trkpt><trkpt lat="50.6406119652" lon="6.47122998722">
        <ele>214.5</ele>
        <time>2014-04-18T15:03:56Z</time>
      </trkpt><trkpt lat="50.6407520268" lon="6.47133501247">
        <ele>214</ele>
        <time>2014-04-18T15:03:57Z</time>
      </trkpt><trkpt lat="50.6408920046" lon="6.47144003771">
        <ele>213.6</ele>
        <time>2014-04-18T15:03:59Z</time>
      </trkpt><trkpt lat="50.6410329882" lon="6.47159401327">
        <ele>213.1</ele>
        <time>2014-04-18T15:04:00Z</time>
      </trkpt><trkpt lat="50.6411609799" lon="6.47174497135">
        <ele>212.1</ele>
        <time>2014-04-18T15:04:01Z</time>
      </trkpt><trkpt lat="50.6412869599" lon="6.47189299576">
        <ele>211.2</ele>
        <time>2014-04-18T15:04:03Z</time>
      </trkpt><trkpt lat="50.6414169632" lon="6.47207203321">
        <ele>210.7</ele>
        <time>2014-04-18T15:04:04Z</time>
      </trkpt><trkpt lat="50.6415919773" lon="6.47246497683">
        <ele>208.7</ele>
        <time>2014-04-18T15:04:07Z</time>
      </trkpt><trkpt lat="50.6416720245" lon="6.47264602594">
        <ele>207.8</ele>
        <time>2014-04-18T15:04:08Z</time>
      </trkpt><trkpt lat="50.6417479645" lon="6.47282296792">
        <ele>206.8</ele>
        <time>2014-04-18T15:04:09Z</time>
      </trkpt><trkpt lat="50.6420209631" lon="6.4738420397">
        <ele>203.5</ele>
        <time>2014-04-18T15:04:16Z</time>
      </trkpt><trkpt lat="50.6420079712" lon="6.4739639964">
        <ele>203.5</ele>
        <time>2014-04-18T15:04:16Z</time>
      </trkpt><trkpt lat="50.6419949792" lon="6.47422400303">
        <ele>203</ele>
        <time>2014-04-18T15:04:18Z</time>
      </trkpt><trkpt lat="50.6419949792" lon="6.47439700551">
        <ele>203</ele>
        <time>2014-04-18T15:04:19Z</time>
      </trkpt><trkpt lat="50.6419949792" lon="6.47459800355">
        <ele>202.5</ele>
        <time>2014-04-18T15:04:20Z</time>
      </trkpt><trkpt lat="50.6420079712" lon="6.47629701532">
        <ele>200.6</ele>
        <time>2014-04-18T15:04:29Z</time>
      </trkpt><trkpt lat="50.6420269981" lon="6.47657403722">
        <ele>200.6</ele>
        <time>2014-04-18T15:04:31Z</time>
      </trkpt><trkpt lat="50.6420620345" lon="6.47686203942">
        <ele>200.1</ele>
        <time>2014-04-18T15:04:33Z</time>
      </trkpt><trkpt lat="50.6421219651" lon="6.47716001607">
        <ele>199.6</ele>
        <time>2014-04-18T15:04:34Z</time>
      </trkpt><trkpt lat="50.6421860028" lon="6.47743703797">
        <ele>199.6</ele>
        <time>2014-04-18T15:04:36Z</time>
      </trkpt><trkpt lat="50.6422799639" lon="6.47769100964">
        <ele>199.6</ele>
        <time>2014-04-18T15:04:38Z</time>
      </trkpt><trkpt lat="50.6423709914" lon="6.47793802433">
        <ele>199.6</ele>
        <time>2014-04-18T15:04:39Z</time>
      </trkpt><trkpt lat="50.6424600072" lon="6.47818000987">
        <ele>199.1</ele>
        <time>2014-04-18T15:04:41Z</time>
      </trkpt><trkpt lat="50.6425810419" lon="6.47837799042">
        <ele>199.1</ele>
        <time>2014-04-18T15:04:42Z</time>
      </trkpt><trkpt lat="50.6427109614" lon="6.47858301178">
        <ele>199.1</ele>
        <time>2014-04-18T15:04:44Z</time>
      </trkpt><trkpt lat="50.6428540405" lon="6.47875903174">
        <ele>199.1</ele>
        <time>2014-04-18T15:04:46Z</time>
      </trkpt><trkpt lat="50.6430179905" lon="6.47892298177">
        <ele>199.1</ele>
        <time>2014-04-18T15:04:47Z</time>
      </trkpt><trkpt lat="50.6431859639" lon="6.4790900331">
        <ele>199.1</ele>
        <time>2014-04-18T15:04:49Z</time>
      </trkpt><trkpt lat="50.6433639955" lon="6.47923504002">
        <ele>199.1</ele>
        <time>2014-04-18T15:04:51Z</time>
      </trkpt><trkpt lat="50.6435599644" lon="6.47934903391">
        <ele>199.1</ele>
        <time>2014-04-18T15:04:53Z</time>
      </trkpt><trkpt lat="50.6437550113" lon="6.47946302779">
        <ele>199.1</ele>
        <time>2014-04-18T15:04:54Z</time>
      </trkpt><trkpt lat="50.6439590268" lon="6.47949898615">
        <ele>199.1</ele>
        <time>2014-04-18T15:04:56Z</time>
      </trkpt><trkpt lat="50.6441639643" lon="6.47951398976">
        <ele>199.1</ele>
        <time>2014-04-18T15:04:58Z</time>
      </trkpt><trkpt lat="50.6445640326" lon="6.4795119781">
        <ele>199.1</ele>
        <time>2014-04-18T15:05:02Z</time>
      </trkpt><trkpt lat="50.6447620131" lon="6.47949001752">
        <ele>199.1</ele>
        <time>2014-04-18T15:05:03Z</time>
      </trkpt><trkpt lat="50.6449459959" lon="6.47939203307">
        <ele>199.1</ele>
        <time>2014-04-18T15:05:05Z</time>
      </trkpt><trkpt lat="50.645134002" lon="6.47928197868">
        <ele>198.7</ele>
        <time>2014-04-18T15:05:07Z</time>
      </trkpt><trkpt lat="50.6453240197" lon="6.47916999646">
        <ele>198.7</ele>
        <time>2014-04-18T15:05:09Z</time>
      </trkpt><trkpt lat="50.6455159653" lon="6.4790570084">
        <ele>198.7</ele>
        <time>2014-04-18T15:05:10Z</time>
      </trkpt><trkpt lat="50.6474070065" lon="6.47758598439">
        <ele>197.7</ele>
        <time>2014-04-18T15:05:29Z</time>
      </trkpt><trkpt lat="50.6484839972" lon="6.47691199556">
        <ele>197.7</ele>
        <time>2014-04-18T15:05:39Z</time>
      </trkpt><trkpt lat="50.6495579705" lon="6.47683303803">
        <ele>199.1</ele>
        <time>2014-04-18T15:05:49Z</time>
      </trkpt><trkpt lat="50.649711024" lon="6.4769430086">
        <ele>199.1</ele>
        <time>2014-04-18T15:05:50Z</time>
      </trkpt><trkpt lat="50.6498649996" lon="6.47705297917">
        <ele>199.1</ele>
        <time>2014-04-18T15:05:52Z</time>
      </trkpt><trkpt lat="50.6500179693" lon="6.47716202773">
        <ele>199.1</ele>
        <time>2014-04-18T15:05:53Z</time>
      </trkpt><trkpt lat="50.6501730345" lon="6.47728197277">
        <ele>199.1</ele>
        <time>2014-04-18T15:05:55Z</time>
      </trkpt><trkpt lat="50.6503140181" lon="6.47744097747">
        <ele>199.1</ele>
        <time>2014-04-18T15:05:56Z</time>
      </trkpt><trkpt lat="50.6504590251" lon="6.47760400549">
        <ele>199.1</ele>
        <time>2014-04-18T15:05:58Z</time>
      </trkpt><trkpt lat="50.6505860109" lon="6.47781799547">
        <ele>199.6</ele>
        <time>2014-04-18T15:05:59Z</time>
      </trkpt><trkpt lat="50.6507050339" lon="6.47804296575">
        <ele>199.6</ele>
        <time>2014-04-18T15:06:01Z</time>
      </trkpt><trkpt lat="50.6508239731" lon="6.47826902568">
        <ele>200.1</ele>
        <time>2014-04-18T15:06:03Z</time>
      </trkpt><trkpt lat="50.6509239692" lon="6.47850899957">
        <ele>200.6</ele>
        <time>2014-04-18T15:06:04Z</time>
      </trkpt><trkpt lat="50.6510080397" lon="6.47875903174">
        <ele>200.6</ele>
        <time>2014-04-18T15:06:06Z</time>
      </trkpt><trkpt lat="50.6510659587" lon="6.47903001867">
        <ele>201.1</ele>
        <time>2014-04-18T15:06:07Z</time>
      </trkpt><trkpt lat="50.6511239614" lon="6.47930301726">
        <ele>201.1</ele>
        <time>2014-04-18T15:06:09Z</time>
      </trkpt><trkpt lat="50.6511500292" lon="6.47958096117">
        <ele>201.5</ele>
        <time>2014-04-18T15:06:11Z</time>
      </trkpt><trkpt lat="50.6511689723" lon="6.4798810333">
        <ele>202</ele>
        <time>2014-04-18T15:06:12Z</time>
      </trkpt><trkpt lat="50.6511650328" lon="6.48016601801">
        <ele>202.5</ele>
        <time>2014-04-18T15:06:14Z</time>
      </trkpt><trkpt lat="50.6511279847" lon="6.48047497496">
        <ele>202.5</ele>
        <time>2014-04-18T15:06:16Z</time>
      </trkpt><trkpt lat="50.6510930322" lon="6.48077496327">
        <ele>203</ele>
        <time>2014-04-18T15:06:17Z</time>
      </trkpt><trkpt lat="50.6510279886" lon="6.48106195964">
        <ele>203</ele>
        <time>2014-04-18T15:06:19Z</time>
      </trkpt><trkpt lat="50.6509630289" lon="6.48135096766">
        <ele>203.5</ele>
        <time>2014-04-18T15:06:21Z</time>
      </trkpt><trkpt lat="50.6508979853" lon="6.48164098151">
        <ele>203.9</ele>
        <time>2014-04-18T15:06:22Z</time>
      </trkpt><trkpt lat="50.6506310217" lon="6.48356798105">
        <ele>204.4</ele>
        <time>2014-04-18T15:06:34Z</time>
      </trkpt><trkpt lat="50.6508129928" lon="6.48562003858">
        <ele>203</ele>
        <time>2014-04-18T15:06:45Z</time>
      </trkpt><trkpt lat="50.6514800247" lon="6.48809404112">
        <ele>199.1</ele>
        <time>2014-04-18T15:07:00Z</time>
      </trkpt><trkpt lat="50.6524130143" lon="6.49124798365">
        <ele>196.3</ele>
        <time>2014-04-18T15:07:20Z</time>
      </trkpt><trkpt lat="50.653200997" lon="6.49390999228">
        <ele>196.3</ele>
        <time>2014-04-18T15:07:36Z</time>
      </trkpt><trkpt lat="50.6540719606" lon="6.4957550168">
        <ele>197.2</ele>
        <time>2014-04-18T15:07:49Z</time>
      </trkpt><trkpt lat="50.6551999971" lon="6.49674802087">
        <ele>197.7</ele>
        <time>2014-04-18T15:08:00Z</time>
      </trkpt><trkpt lat="50.6561589707" lon="6.49688799866">
        <ele>197.7</ele>
        <time>2014-04-18T15:08:09Z</time>
      </trkpt><trkpt lat="50.6575180124" lon="6.49644400924">
        <ele>195.8</ele>
        <time>2014-04-18T15:08:21Z</time>
      </trkpt><trkpt lat="50.6584710348" lon="6.4955629874">
        <ele>195.3</ele>
        <time>2014-04-18T15:08:31Z</time>
      </trkpt><trkpt lat="50.6597760133" lon="6.49421500973">
        <ele>196.3</ele>
        <time>2014-04-18T15:08:44Z</time>
      </trkpt><trkpt lat="50.6598109659" lon="6.49402096868">
        <ele>196.3</ele>
        <time>2014-04-18T15:08:46Z</time>
      </trkpt><trkpt lat="50.6598480139" lon="6.49381703697">
        <ele>196.3</ele>
        <time>2014-04-18T15:08:47Z</time>
      </trkpt><trkpt lat="50.6598849781" lon="6.49361201562">
        <ele>196.3</ele>
        <time>2014-04-18T15:08:48Z</time>
      </trkpt><trkpt lat="50.6599220261" lon="6.49340498261">
        <ele>196.3</ele>
        <time>2014-04-18T15:08:49Z</time>
      </trkpt><trkpt lat="50.6599599961" lon="6.49319501594">
        <ele>196.3</ele>
        <time>2014-04-18T15:08:50Z</time>
      </trkpt><trkpt lat="50.6603790075" lon="6.49073802866">
        <ele>194.3</ele>
        <time>2014-04-18T15:09:05Z</time>
      </trkpt><trkpt lat="50.6606950052" lon="6.4880269859">
        <ele>192.9</ele>
        <time>2014-04-18T15:09:20Z</time>
      </trkpt><trkpt lat="50.6607489847" lon="6.48620299995">
        <ele>192.4</ele>
        <time>2014-04-18T15:09:30Z</time>
      </trkpt><trkpt lat="50.6607799977" lon="6.48478302173">
        <ele>194.3</ele>
        <time>2014-04-18T15:09:38Z</time>
      </trkpt><trkpt lat="50.6608029641" lon="6.48460499011">
        <ele>194.8</ele>
        <time>2014-04-18T15:09:39Z</time>
      </trkpt><trkpt lat="50.6608779822" lon="6.48438001983">
        <ele>195.3</ele>
        <time>2014-04-18T15:09:41Z</time>
      </trkpt><trkpt lat="50.6609319616" lon="6.48428597488">
        <ele>196.3</ele>
        <time>2014-04-18T15:09:41Z</time>
      </trkpt><trkpt lat="50.6610250007" lon="6.48412202485">
        <ele>196.3</ele>
        <time>2014-04-18T15:09:42Z</time>
      </trkpt><trkpt lat="50.6611339655" lon="6.48396100849">
        <ele>196.7</ele>
        <time>2014-04-18T15:09:44Z</time>
      </trkpt><trkpt lat="50.6619190145" lon="6.48250096478">
        <ele>203</ele>
        <time>2014-04-18T15:09:54Z</time>
      </trkpt><trkpt lat="50.6620910112" lon="6.48216401227">
        <ele>204.4</ele>
        <time>2014-04-18T15:09:57Z</time>
      </trkpt><trkpt lat="50.6621680409" lon="6.48199603893">
        <ele>204.9</ele>
        <time>2014-04-18T15:09:58Z</time>
      </trkpt><trkpt lat="50.6621900015" lon="6.4817959629">
        <ele>205.9</ele>
        <time>2014-04-18T15:09:59Z</time>
      </trkpt><trkpt lat="50.662211962" lon="6.48160099983">
        <ele>206.3</ele>
        <time>2014-04-18T15:10:00Z</time>
      </trkpt><trkpt lat="50.6622330006" lon="6.48140603676">
        <ele>207.3</ele>
        <time>2014-04-18T15:10:01Z</time>
      </trkpt><trkpt lat="50.6622640137" lon="6.48121501319">
        <ele>208.3</ele>
        <time>2014-04-18T15:10:02Z</time>
      </trkpt><trkpt lat="50.6623319909" lon="6.48104402237">
        <ele>208.7</ele>
        <time>2014-04-18T15:10:04Z</time>
      </trkpt><trkpt lat="50.6624029856" lon="6.4808680024">
        <ele>209.2</ele>
        <time>2014-04-18T15:10:05Z</time>
      </trkpt><trkpt lat="50.6624749862" lon="6.48068795912">
        <ele>210.2</ele>
        <time>2014-04-18T15:10:06Z</time>
      </trkpt><trkpt lat="50.6625459809" lon="6.48051001132">
        <ele>210.7</ele>
        <time>2014-04-18T15:10:07Z</time>
      </trkpt><trkpt lat="50.6625980325" lon="6.48033399135">
        <ele>211.2</ele>
        <time>2014-04-18T15:10:08Z</time>
      </trkpt><trkpt lat="50.6626100186" lon="6.48012100719">
        <ele>211.6</ele>
        <time>2014-04-18T15:10:09Z</time>
      </trkpt><trkpt lat="50.6626370084" lon="6.47966402583">
        <ele>213.1</ele>
        <time>2014-04-18T15:10:12Z</time>
      </trkpt><trkpt lat="50.6626869645" lon="6.47943201475">
        <ele>213.6</ele>
        <time>2014-04-18T15:10:13Z</time>
      </trkpt><trkpt lat="50.6627380103" lon="6.47919799201">
        <ele>214.5</ele>
        <time>2014-04-18T15:10:15Z</time>
      </trkpt><trkpt lat="50.663067" lon="6.47786602378">
        <ele>218.8</ele>
        <time>2014-04-18T15:10:23Z</time>
      </trkpt><trkpt lat="50.6631329656" lon="6.47768497467">
        <ele>219.3</ele>
        <time>2014-04-18T15:10:24Z</time>
      </trkpt><trkpt lat="50.6632249989" lon="6.47751398385">
        <ele>219.8</ele>
        <time>2014-04-18T15:10:25Z</time>
      </trkpt><trkpt lat="50.6633209717" lon="6.47733603604">
        <ele>219.8</ele>
        <time>2014-04-18T15:10:26Z</time>
      </trkpt><trkpt lat="50.6634180341" lon="6.47716001607">
        <ele>220.3</ele>
        <time>2014-04-18T15:10:28Z</time>
      </trkpt><trkpt lat="50.6636699941" lon="6.47683898918">
        <ele>220.8</ele>
        <time>2014-04-18T15:10:31Z</time>
      </trkpt><trkpt lat="50.6637999974" lon="6.4766730275">
        <ele>220.3</ele>
        <time>2014-04-18T15:10:32Z</time>
      </trkpt><trkpt lat="50.6639460102" lon="6.47653497756">
        <ele>220.3</ele>
        <time>2014-04-18T15:10:34Z</time>
      </trkpt><trkpt lat="50.6641080324" lon="6.47644596174">
        <ele>219.8</ele>
        <time>2014-04-18T15:10:35Z</time>
      </trkpt><trkpt lat="50.664273994" lon="6.47635501809">
        <ele>219.3</ele>
        <time>2014-04-18T15:10:37Z</time>
      </trkpt><trkpt lat="50.6644469965" lon="6.47629098035">
        <ele>219.3</ele>
        <time>2014-04-18T15:10:38Z</time>
      </trkpt><trkpt lat="50.6646189932" lon="6.47625301033">
        <ele>218.8</ele>
        <time>2014-04-18T15:10:40Z</time>
      </trkpt><trkpt lat="50.664789984" lon="6.47623096593">
        <ele>218.4</ele>
        <time>2014-04-18T15:10:41Z</time>
      </trkpt><trkpt lat="50.6649580412" lon="6.47624999285">
        <ele>217.9</ele>
        <time>2014-04-18T15:10:43Z</time>
      </trkpt><trkpt lat="50.6651309598" lon="6.47627103142">
        <ele>217.4</ele>
        <time>2014-04-18T15:10:44Z</time>
      </trkpt><trkpt lat="50.665299017" lon="6.47634697147">
        <ele>216.9</ele>
        <time>2014-04-18T15:10:46Z</time>
      </trkpt><trkpt lat="50.6654679962" lon="6.47642400116">
        <ele>216.4</ele>
        <time>2014-04-18T15:10:47Z</time>
      </trkpt><trkpt lat="50.6656379811" lon="6.47651603445">
        <ele>215.5</ele>
        <time>2014-04-18T15:10:49Z</time>
      </trkpt><trkpt lat="50.66579598" lon="6.47664503194">
        <ele>215</ele>
        <time>2014-04-18T15:10:50Z</time>
      </trkpt><trkpt lat="50.6659519672" lon="6.47677201778">
        <ele>214.5</ele>
        <time>2014-04-18T15:10:52Z</time>
      </trkpt><trkpt lat="50.6661080383" lon="6.47691501305">
        <ele>214</ele>
        <time>2014-04-18T15:10:54Z</time>
      </trkpt><trkpt lat="50.6670510024" lon="6.47843196988">
        <ele>210.7</ele>
        <time>2014-04-18T15:11:05Z</time>
      </trkpt><trkpt lat="50.6675450318" lon="6.479116017">
        <ele>209.7</ele>
        <time>2014-04-18T15:11:11Z</time>
      </trkpt><trkpt lat="50.6676850095" lon="6.47925700061">
        <ele>209.7</ele>
        <time>2014-04-18T15:11:13Z</time>
      </trkpt><trkpt lat="50.667826999" lon="6.47939798422">
        <ele>209.2</ele>
        <time>2014-04-18T15:11:14Z</time>
      </trkpt><trkpt lat="50.6679649651" lon="6.47952899337">
        <ele>209.2</ele>
        <time>2014-04-18T15:11:16Z</time>
      </trkpt><trkpt lat="50.6681089662" lon="6.47964801639">
        <ele>208.7</ele>
        <time>2014-04-18T15:11:17Z</time>
      </trkpt><trkpt lat="50.6682569906" lon="6.47973996587">
        <ele>208.3</ele>
        <time>2014-04-18T15:11:18Z</time>
      </trkpt><trkpt lat="50.6694530044" lon="6.48003199138">
        <ele>206.8</ele>
        <time>2014-04-18T15:11:29Z</time>
      </trkpt><trkpt lat="50.6710240245" lon="6.48054697551">
        <ele>204.9</ele>
        <time>2014-04-18T15:11:43Z</time>
      </trkpt><trkpt lat="50.6719069742" lon="6.48148197681">
        <ele>203.5</ele>
        <time>2014-04-18T15:11:53Z</time>
      </trkpt><trkpt lat="50.6720300205" lon="6.48166696541">
        <ele>203.5</ele>
        <time>2014-04-18T15:11:54Z</time>
      </trkpt><trkpt lat="50.6730319932" lon="6.4831519872">
        <ele>202</ele>
        <time>2014-04-18T15:12:06Z</time>
      </trkpt><trkpt lat="50.6731630024" lon="6.48329799995">
        <ele>202</ele>
        <time>2014-04-18T15:12:08Z</time>
      </trkpt><trkpt lat="50.6733070035" lon="6.48338802159">
        <ele>201.5</ele>
        <time>2014-04-18T15:12:09Z</time>
      </trkpt><trkpt lat="50.6734380126" lon="6.4834699966">
        <ele>202</ele>
        <time>2014-04-18T15:12:10Z</time>
      </trkpt><trkpt lat="50.6735759787" lon="6.48353998549">
        <ele>202</ele>
        <time>2014-04-18T15:12:12Z</time>
      </trkpt><trkpt lat="50.673718974" lon="6.48354903795">
        <ele>202</ele>
        <time>2014-04-18T15:12:13Z</time>
      </trkpt><trkpt lat="50.6738710217" lon="6.48352297023">
        <ele>202.5</ele>
        <time>2014-04-18T15:12:14Z</time>
      </trkpt><trkpt lat="50.674007982" lon="6.48345096968">
        <ele>202.5</ele>
        <time>2014-04-18T15:12:15Z</time>
      </trkpt><trkpt lat="50.6741610356" lon="6.48336597718">
        <ele>202.5</ele>
        <time>2014-04-18T15:12:17Z</time>
      </trkpt><trkpt lat="50.6743020192" lon="6.48327302188">
        <ele>203</ele>
        <time>2014-04-18T15:12:18Z</time>
      </trkpt><trkpt lat="50.674441997" lon="6.48313203827">
        <ele>203.5</ele>
        <time>2014-04-18T15:12:20Z</time>
      </trkpt><trkpt lat="50.6745890155" lon="6.48298602551">
        <ele>203.9</ele>
        <time>2014-04-18T15:12:21Z</time>
      </trkpt><trkpt lat="50.6750650238" lon="6.48257497698">
        <ele>205.9</ele>
        <time>2014-04-18T15:12:26Z</time>
      </trkpt><trkpt lat="50.67524096" lon="6.48245796561">
        <ele>206.3</ele>
        <time>2014-04-18T15:12:28Z</time>
      </trkpt><trkpt lat="50.6754230149" lon="6.4823429659">
        <ele>207.3</ele>
        <time>2014-04-18T15:12:29Z</time>
      </trkpt><trkpt lat="50.6756240129" lon="6.48227700032">
        <ele>207.8</ele>
        <time>2014-04-18T15:12:31Z</time>
      </trkpt><trkpt lat="50.6758240052" lon="6.48227700032">
        <ele>208.7</ele>
        <time>2014-04-18T15:12:33Z</time>
      </trkpt><trkpt lat="50.6760229915" lon="6.48227700032">
        <ele>209.2</ele>
        <time>2014-04-18T15:12:35Z</time>
      </trkpt><trkpt lat="50.6762160268" lon="6.48231497034">
        <ele>210.2</ele>
        <time>2014-04-18T15:12:36Z</time>
      </trkpt><trkpt lat="50.6763969921" lon="6.482398035">
        <ele>210.7</ele>
        <time>2014-04-18T15:12:38Z</time>
      </trkpt><trkpt lat="50.6765780412" lon="6.48248797283">
        <ele>211.6</ele>
        <time>2014-04-18T15:12:40Z</time>
      </trkpt><trkpt lat="50.6767529715" lon="6.48260900751">
        <ele>212.1</ele>
        <time>2014-04-18T15:12:41Z</time>
      </trkpt><trkpt lat="50.6769149937" lon="6.48275803775">
        <ele>212.6</ele>
        <time>2014-04-18T15:12:43Z</time>
      </trkpt><trkpt lat="50.6770770159" lon="6.48290698417">
        <ele>213.1</ele>
        <time>2014-04-18T15:12:45Z</time>
      </trkpt><trkpt lat="50.6780739594" lon="6.48431899957">
        <ele>218.4</ele>
        <time>2014-04-18T15:12:57Z</time>
      </trkpt><trkpt lat="50.6788910273" lon="6.486020023">
        <ele>223.2</ele>
        <time>2014-04-18T15:13:08Z</time>
      </trkpt><trkpt lat="50.680044964" lon="6.48858597502">
        <ele>232.3</ele>
        <time>2014-04-18T15:13:26Z</time>
      </trkpt><trkpt lat="50.6810249761" lon="6.49116500281">
        <ele>246.2</ele>
        <time>2014-04-18T15:13:43Z</time>
      </trkpt><trkpt lat="50.6812630221" lon="6.49197603576">
        <ele>250.6</ele>
        <time>2014-04-18T15:13:48Z</time>
      </trkpt><trkpt lat="50.6813719869" lon="6.49221198633">
        <ele>252</ele>
        <time>2014-04-18T15:13:49Z</time>
      </trkpt><trkpt lat="50.6814810354" lon="6.49244802073">
        <ele>253.4</ele>
        <time>2014-04-18T15:13:51Z</time>
      </trkpt><trkpt lat="50.6819429621" lon="6.49324203841">
        <ele>258.3</ele>
        <time>2014-04-18T15:13:57Z</time>
      </trkpt><trkpt lat="50.6820650026" lon="6.49339199066">
        <ele>259.7</ele>
        <time>2014-04-18T15:13:58Z</time>
      </trkpt><trkpt lat="50.6823110115" lon="6.49369499646">
        <ele>262.6</ele>
        <time>2014-04-18T15:14:01Z</time>
      </trkpt><trkpt lat="50.6824189704" lon="6.4938700106">
        <ele>264.5</ele>
        <time>2014-04-18T15:14:03Z</time>
      </trkpt><trkpt lat="50.6825039629" lon="6.49406497367">
        <ele>266.4</ele>
        <time>2014-04-18T15:14:04Z</time>
      </trkpt><trkpt lat="50.6827049609" lon="6.49449102581">
        <ele>269.8</ele>
        <time>2014-04-18T15:14:07Z</time>
      </trkpt><trkpt lat="50.6827649754" lon="6.49455104023">
        <ele>270.3</ele>
        <time>2014-04-18T15:14:07Z</time>
      </trkpt><trkpt lat="50.6828280073" lon="6.49451902136">
        <ele>270.8</ele>
        <time>2014-04-18T15:14:08Z</time>
      </trkpt><trkpt lat="50.6828679889" lon="6.49447300471">
        <ele>271.2</ele>
        <time>2014-04-18T15:14:08Z</time>
      </trkpt><trkpt lat="50.6829209626" lon="6.49436697364">
        <ele>271.2</ele>
        <time>2014-04-18T15:14:09Z</time>
      </trkpt><trkpt lat="50.6829280034" lon="6.49429203942">
        <ele>272.2</ele>
        <time>2014-04-18T15:14:10Z</time>
      </trkpt><trkpt lat="50.6828900333" lon="6.49410202168">
        <ele>272.2</ele>
        <time>2014-04-18T15:14:11Z</time>
      </trkpt><trkpt lat="50.682848962" lon="6.49387696758">
        <ele>272.2</ele>
        <time>2014-04-18T15:14:12Z</time>
      </trkpt><trkpt lat="50.6826619618" lon="6.49297700264">
        <ele>276</ele>
        <time>2014-04-18T15:14:17Z</time>
      </trkpt><trkpt lat="50.682603037" lon="6.49278296158">
        <ele>277</ele>
        <time>2014-04-18T15:14:19Z</time>
      </trkpt><trkpt lat="50.6825450342" lon="6.49259001017">
        <ele>278</ele>
        <time>2014-04-18T15:14:20Z</time>
      </trkpt><trkpt lat="50.6824919768" lon="6.49241298437">
        <ele>278.9</ele>
        <time>2014-04-18T15:14:21Z</time>
      </trkpt><trkpt lat="50.6824639812" lon="6.49223595858">
        <ele>279.9</ele>
        <time>2014-04-18T15:14:22Z</time>
      </trkpt><trkpt lat="50.6824929826" lon="6.49207603186">
        <ele>280.4</ele>
        <time>2014-04-18T15:14:23Z</time>
      </trkpt><trkpt lat="50.6825420167" lon="6.49195298553">
        <ele>281.3</ele>
        <time>2014-04-18T15:14:24Z</time>
      </trkpt><trkpt lat="50.6826499756" lon="6.49190797471">
        <ele>282.3</ele>
        <time>2014-04-18T15:14:25Z</time>
      </trkpt><trkpt lat="50.6827479601" lon="6.49190696888">
        <ele>283.3</ele>
        <time>2014-04-18T15:14:25Z</time>
      </trkpt><trkpt lat="50.6828440167" lon="6.49197100662">
        <ele>284.2</ele>
        <time>2014-04-18T15:14:26Z</time>
      </trkpt><trkpt lat="50.6829470303" lon="6.49205599912">
        <ele>285.2</ele>
        <time>2014-04-18T15:14:27Z</time>
      </trkpt><trkpt lat="50.6830480322" lon="6.49213998578">
        <ele>286.1</ele>
        <time>2014-04-18T15:14:28Z</time>
      </trkpt><trkpt lat="50.6831429992" lon="6.49220796302">
        <ele>287.1</ele>
        <time>2014-04-18T15:14:29Z</time>
      </trkpt><trkpt lat="50.6832419895" lon="6.49225699715">
        <ele>288.1</ele>
        <time>2014-04-18T15:14:30Z</time>
      </trkpt><trkpt lat="50.6833429914" lon="6.49221299216">
        <ele>288.5</ele>
        <time>2014-04-18T15:14:31Z</time>
      </trkpt><trkpt lat="50.6834340189" lon="6.49212196469">
        <ele>289.5</ele>
        <time>2014-04-18T15:14:32Z</time>
      </trkpt><trkpt lat="50.6834780239" lon="6.49197301827">
        <ele>290.5</ele>
        <time>2014-04-18T15:14:33Z</time>
      </trkpt><trkpt lat="50.6834879983" lon="6.49180999026">
        <ele>291.4</ele>
        <time>2014-04-18T15:14:34Z</time>
      </trkpt><trkpt lat="50.6834709831" lon="6.49161502719">
        <ele>291.9</ele>
        <time>2014-04-18T15:14:35Z</time>
      </trkpt><trkpt lat="50.68345204" lon="6.49138301611">
        <ele>292.9</ele>
        <time>2014-04-18T15:14:36Z</time>
      </trkpt><trkpt lat="50.6833740044" lon="6.49110297672">
        <ele>293.3</ele>
        <time>2014-04-18T15:14:38Z</time>
      </trkpt><trkpt lat="50.6827689987" lon="6.48897003382">
        <ele>302.5</ele>
        <time>2014-04-18T15:14:51Z</time>
      </trkpt><trkpt lat="50.6826509815" lon="6.48855202831">
        <ele>304.9</ele>
        <time>2014-04-18T15:14:54Z</time>
      </trkpt><trkpt lat="50.6826059707" lon="6.48835002445">
        <ele>305.8</ele>
        <time>2014-04-18T15:14:55Z</time>
      </trkpt><trkpt lat="50.6826199684" lon="6.48811399005">
        <ele>306.8</ele>
        <time>2014-04-18T15:14:56Z</time>
      </trkpt><trkpt lat="50.682653999" lon="6.48790201172">
        <ele>307.8</ele>
        <time>2014-04-18T15:14:57Z</time>
      </trkpt><trkpt lat="50.6826880295" lon="6.48768399842">
        <ele>308.7</ele>
        <time>2014-04-18T15:14:59Z</time>
      </trkpt><trkpt lat="50.6827209704" lon="6.48747696541">
        <ele>309.7</ele>
        <time>2014-04-18T15:15:00Z</time>
      </trkpt><trkpt lat="50.682685012" lon="6.48731301539">
        <ele>310.6</ele>
        <time>2014-04-18T15:15:01Z</time>
      </trkpt><trkpt lat="50.6826440245" lon="6.48714001291">
        <ele>311.6</ele>
        <time>2014-04-18T15:15:02Z</time>
      </trkpt><trkpt lat="50.6826059707" lon="6.48697597906">
        <ele>312.6</ele>
        <time>2014-04-18T15:15:03Z</time>
      </trkpt><trkpt lat="50.6825700123" lon="6.48682300933">
        <ele>313.5</ele>
        <time>2014-04-18T15:15:04Z</time>
      </trkpt><trkpt lat="50.6825499795" lon="6.48668596521">
        <ele>314.5</ele>
        <time>2014-04-18T15:15:05Z</time>
      </trkpt><trkpt lat="50.6825499795" lon="6.48655503988">
        <ele>315</ele>
        <time>2014-04-18T15:15:05Z</time>
      </trkpt><trkpt lat="50.6825939845" lon="6.48648203351">
        <ele>315.9</ele>
        <time>2014-04-18T15:15:06Z</time>
      </trkpt><trkpt lat="50.6826560106" lon="6.48644004017">
        <ele>316.4</ele>
        <time>2014-04-18T15:15:06Z</time>
      </trkpt><trkpt lat="50.6827349681" lon="6.48645495996">
        <ele>317.4</ele>
        <time>2014-04-18T15:15:07Z</time>
      </trkpt><trkpt lat="50.6828150153" lon="6.48654095829">
        <ele>317.9</ele>
        <time>2014-04-18T15:15:08Z</time>
      </trkpt><trkpt lat="50.6829150114" lon="6.48664900102">
        <ele>318.8</ele>
        <time>2014-04-18T15:15:09Z</time>
      </trkpt><trkpt lat="50.6830269936" lon="6.4867700357">
        <ele>319.3</ele>
        <time>2014-04-18T15:15:10Z</time>
      </trkpt><trkpt lat="50.6831359584" lon="6.48688897491">
        <ele>319.8</ele>
        <time>2014-04-18T15:15:11Z</time>
      </trkpt><trkpt lat="50.6832369603" lon="6.48699802347">
        <ele>320.3</ele>
        <time>2014-04-18T15:15:12Z</time>
      </trkpt><trkpt lat="50.6833539717" lon="6.48702702485">
        <ele>320.7</ele>
        <time>2014-04-18T15:15:13Z</time>
      </trkpt><trkpt lat="50.6834760122" lon="6.48702400737">
        <ele>321.2</ele>
        <time>2014-04-18T15:15:15Z</time>
      </trkpt><trkpt lat="50.6836070213" lon="6.48697497323">
        <ele>321.7</ele>
        <time>2014-04-18T15:15:16Z</time>
      </trkpt><trkpt lat="50.683735013" lon="6.48687103763">
        <ele>322.2</ele>
        <time>2014-04-18T15:15:17Z</time>
      </trkpt><trkpt lat="50.6838630047" lon="6.48676701821">
        <ele>322.2</ele>
        <time>2014-04-18T15:15:18Z</time>
      </trkpt><trkpt lat="50.6839879788" lon="6.48666400462">
        <ele>322.7</ele>
        <time>2014-04-18T15:15:20Z</time>
      </trkpt><trkpt lat="50.684125023" lon="6.4865930099">
        <ele>323.1</ele>
        <time>2014-04-18T15:15:21Z</time>
      </trkpt><trkpt lat="50.6842749752" lon="6.48655596189">
        <ele>323.6</ele>
        <time>2014-04-18T15:15:22Z</time>
      </trkpt><trkpt lat="50.6847420149" lon="6.48643802851">
        <ele>324.6</ele>
        <time>2014-04-18T15:15:26Z</time>
      </trkpt><trkpt lat="50.6848769635" lon="6.48634096608">
        <ele>325.1</ele>
        <time>2014-04-18T15:15:28Z</time>
      </trkpt><trkpt lat="50.6850389857" lon="6.48622496054">
        <ele>325.1</ele>
        <time>2014-04-18T15:15:29Z</time>
      </trkpt><trkpt lat="50.6851160154" lon="6.48611700162">
        <ele>325.5</ele>
        <time>2014-04-18T15:15:30Z</time>
      </trkpt><trkpt lat="50.6852150057" lon="6.48598004133">
        <ele>326</ele>
        <time>2014-04-18T15:15:31Z</time>
      </trkpt><trkpt lat="50.6853170134" lon="6.48586797528">
        <ele>326.5</ele>
        <time>2014-04-18T15:15:32Z</time>
      </trkpt><trkpt lat="50.6854180153" lon="6.48577703163">
        <ele>327</ele>
        <time>2014-04-18T15:15:33Z</time>
      </trkpt><trkpt lat="50.6859469973" lon="6.48543303832">
        <ele>328.4</ele>
        <time>2014-04-18T15:15:38Z</time>
      </trkpt><trkpt lat="50.6871219724" lon="6.48526900448">
        <ele>328.4</ele>
        <time>2014-04-18T15:15:49Z</time>
      </trkpt><trkpt lat="50.6881269626" lon="6.48520597257">
        <ele>324.6</ele>
        <time>2014-04-18T15:15:58Z</time>
      </trkpt><trkpt lat="50.688256966" lon="6.48545701057">
        <ele>323.6</ele>
        <time>2014-04-18T15:15:59Z</time>
      </trkpt><trkpt lat="50.6882449798" lon="6.48553102277">
        <ele>323.6</ele>
        <time>2014-04-18T15:16:00Z</time>
      </trkpt><trkpt lat="50.6882299762" lon="6.48561802693">
        <ele>323.6</ele>
        <time>2014-04-18T15:16:00Z</time>
      </trkpt><trkpt lat="50.688212961" lon="6.48572104052">
        <ele>323.6</ele>
        <time>2014-04-18T15:16:01Z</time>
      </trkpt><trkpt lat="50.6881950237" lon="6.48583796807">
        <ele>323.6</ele>
        <time>2014-04-18T15:16:02Z</time>
      </trkpt><trkpt lat="50.6881759968" lon="6.48596403189">
        <ele>324.1</ele>
        <time>2014-04-18T15:16:02Z</time>
      </trkpt><trkpt lat="50.6878920179" lon="6.48763303645">
        <ele>328.4</ele>
        <time>2014-04-18T15:16:12Z</time>
      </trkpt><trkpt lat="50.6876269821" lon="6.48846502416">
        <ele>330.4</ele>
        <time>2014-04-18T15:16:17Z</time>
      </trkpt><trkpt lat="50.6874839868" lon="6.48878999054">
        <ele>330.4</ele>
        <time>2014-04-18T15:16:19Z</time>
      </trkpt><trkpt lat="50.6874259841" lon="6.48897799663">
        <ele>330.8</ele>
        <time>2014-04-18T15:16:21Z</time>
      </trkpt><trkpt lat="50.6873870082" lon="6.48918896914">
        <ele>330.8</ele>
        <time>2014-04-18T15:16:22Z</time>
      </trkpt><trkpt lat="50.6873499602" lon="6.48941100575">
        <ele>330.8</ele>
        <time>2014-04-18T15:16:23Z</time>
      </trkpt><trkpt lat="50.6873219647" lon="6.48964704014">
        <ele>331.3</ele>
        <time>2014-04-18T15:16:24Z</time>
      </trkpt><trkpt lat="50.6871199608" lon="6.49131403305">
        <ele>328.9</ele>
        <time>2014-04-18T15:16:34Z</time>
      </trkpt><trkpt lat="50.6868059747" lon="6.49344001897">
        <ele>325.5</ele>
        <time>2014-04-18T15:16:46Z</time>
      </trkpt><trkpt lat="50.6863680203" lon="6.49672103114">
        <ele>322.2</ele>
        <time>2014-04-18T15:17:05Z</time>
      </trkpt><trkpt lat="50.6862049922" lon="6.49786298163">
        <ele>321.2</ele>
        <time>2014-04-18T15:17:11Z</time>
      </trkpt><trkpt lat="50.6861299742" lon="6.4982349705">
        <ele>320.7</ele>
        <time>2014-04-18T15:17:14Z</time>
      </trkpt><trkpt lat="50.68604297" lon="6.49861802347">
        <ele>320.3</ele>
        <time>2014-04-18T15:17:16Z</time>
      </trkpt><trkpt lat="50.6852649618" lon="6.50125295855">
        <ele>314</ele>
        <time>2014-04-18T15:17:32Z</time>
      </trkpt><trkpt lat="50.6846390013" lon="6.50379896164">
        <ele>311.1</ele>
        <time>2014-04-18T15:17:47Z</time>
      </trkpt><trkpt lat="50.6838439777" lon="6.50665702298">
        <ele>316.9</ele>
        <time>2014-04-18T15:18:05Z</time>
      </trkpt><trkpt lat="50.6831180211" lon="6.50933696888">
        <ele>316.9</ele>
        <time>2014-04-18T15:18:21Z</time>
      </trkpt><trkpt lat="50.6824160367" lon="6.51194700971">
        <ele>315.9</ele>
        <time>2014-04-18T15:18:37Z</time>
      </trkpt><trkpt lat="50.6817260385" lon="6.51466601528">
        <ele>315.5</ele>
        <time>2014-04-18T15:18:53Z</time>
      </trkpt><trkpt lat="50.6813180074" lon="6.51631800458">
        <ele>314.5</ele>
        <time>2014-04-18T15:19:03Z</time>
      </trkpt><trkpt lat="50.6810289994" lon="6.51723397896">
        <ele>313.1</ele>
        <time>2014-04-18T15:19:09Z</time>
      </trkpt><trkpt lat="50.680968985" lon="6.51740597561">
        <ele>312.1</ele>
        <time>2014-04-18T15:19:10Z</time>
      </trkpt><trkpt lat="50.6808849983" lon="6.51754997671">
        <ele>311.6</ele>
        <time>2014-04-18T15:19:11Z</time>
      </trkpt><trkpt lat="50.6803319603" lon="6.51851900853">
        <ele>307.8</ele>
        <time>2014-04-18T15:19:18Z</time>
      </trkpt><trkpt lat="50.68028301" lon="6.51865001768">
        <ele>307.3</ele>
        <time>2014-04-18T15:19:19Z</time>
      </trkpt><trkpt lat="50.6802639831" lon="6.51878303848">
        <ele>306.3</ele>
        <time>2014-04-18T15:19:20Z</time>
      </trkpt><trkpt lat="50.6802499853" lon="6.51892301627">
        <ele>305.8</ele>
        <time>2014-04-18T15:19:21Z</time>
      </trkpt><trkpt lat="50.6802359875" lon="6.51906399988">
        <ele>305.4</ele>
        <time>2014-04-18T15:19:22Z</time>
      </trkpt><trkpt lat="50.6802550144" lon="6.5191869624">
        <ele>304.9</ele>
        <time>2014-04-18T15:19:22Z</time>
      </trkpt><trkpt lat="50.6802880391" lon="6.51931403205">
        <ele>304.4</ele>
        <time>2014-04-18T15:19:23Z</time>
      </trkpt><trkpt lat="50.6803199742" lon="6.51943900622">
        <ele>303.9</ele>
        <time>2014-04-18T15:19:24Z</time>
      </trkpt><trkpt lat="50.6803509872" lon="6.51955903508">
        <ele>303</ele>
        <time>2014-04-18T15:19:24Z</time>
      </trkpt><trkpt lat="50.6807610299" lon="6.52115000412">
        <ele>298.6</ele>
        <time>2014-04-18T15:19:34Z</time>
      </trkpt><trkpt lat="50.6809389777" lon="6.52184201404">
        <ele>296.7</ele>
        <time>2014-04-18T15:19:38Z</time>
      </trkpt><trkpt lat="50.6809569988" lon="6.52199498378">
        <ele>296.2</ele>
        <time>2014-04-18T15:19:39Z</time>
      </trkpt><trkpt lat="50.6809460185" lon="6.52212800458">
        <ele>296.2</ele>
        <time>2014-04-18T15:19:40Z</time>
      </trkpt><trkpt lat="50.6809340324" lon="6.52226898819">
        <ele>295.7</ele>
        <time>2014-04-18T15:19:41Z</time>
      </trkpt><trkpt lat="50.6809219625" lon="6.52241801843">
        <ele>295.7</ele>
        <time>2014-04-18T15:19:41Z</time>
      </trkpt><trkpt lat="50.6808490399" lon="6.52256503701">
        <ele>295.3</ele>
        <time>2014-04-18T15:19:43Z</time>
      </trkpt><trkpt lat="50.6807740219" lon="6.52269302867">
        <ele>295.3</ele>
        <time>2014-04-18T15:19:43Z</time>
      </trkpt><trkpt lat="50.6806949805" lon="6.52282697149">
        <ele>294.8</ele>
        <time>2014-04-18T15:19:44Z</time>
      </trkpt><trkpt lat="50.680616023" lon="6.52296099812">
        <ele>294.3</ele>
        <time>2014-04-18T15:19:46Z</time>
      </trkpt><trkpt lat="50.68053497" lon="6.52309896424">
        <ele>293.8</ele>
        <time>2014-04-18T15:19:47Z</time>
      </trkpt><trkpt lat="50.6804639753" lon="6.52325604111">
        <ele>293.3</ele>
        <time>2014-04-18T15:19:48Z</time>
      </trkpt><trkpt lat="50.6804069784" lon="6.52343197726">
        <ele>292.9</ele>
        <time>2014-04-18T15:19:49Z</time>
      </trkpt><trkpt lat="50.6803509872" lon="6.52360598557">
        <ele>292.9</ele>
        <time>2014-04-18T15:19:50Z</time>
      </trkpt><trkpt lat="50.6797850411" lon="6.52548998594">
        <ele>289</ele>
        <time>2014-04-18T15:20:01Z</time>
      </trkpt><trkpt lat="50.6791340187" lon="6.52718698606">
        <ele>287.6</ele>
        <time>2014-04-18T15:20:13Z</time>
      </trkpt><trkpt lat="50.6783320382" lon="6.52877602726">
        <ele>289</ele>
        <time>2014-04-18T15:20:24Z</time>
      </trkpt><trkpt lat="50.6781779788" lon="6.52896202169">
        <ele>289.5</ele>
        <time>2014-04-18T15:20:26Z</time>
      </trkpt><trkpt lat="50.6764630415" lon="6.53045802377">
        <ele>286.1</ele>
        <time>2014-04-18T15:20:43Z</time>
      </trkpt><trkpt lat="50.6737820059" lon="6.53211495839">
        <ele>287.1</ele>
        <time>2014-04-18T15:21:08Z</time>
      </trkpt><trkpt lat="50.6712560356" lon="6.53374004178">
        <ele>276.5</ele>
        <time>2014-04-18T15:21:32Z</time>
      </trkpt><trkpt lat="50.6711059995" lon="6.53388999403">
        <ele>275.1</ele>
        <time>2014-04-18T15:21:34Z</time>
      </trkpt><trkpt lat="50.670977002" lon="6.53407699428">
        <ele>273.6</ele>
        <time>2014-04-18T15:21:35Z</time>
      </trkpt><trkpt lat="50.6708599906" lon="6.53428696096">
        <ele>272.2</ele>
        <time>2014-04-18T15:21:37Z</time>
      </trkpt><trkpt lat="50.6707910076" lon="6.53453003615">
        <ele>270.8</ele>
        <time>2014-04-18T15:21:38Z</time>
      </trkpt><trkpt lat="50.670731999" lon="6.53479197063">
        <ele>269.3</ele>
        <time>2014-04-18T15:21:40Z</time>
      </trkpt><trkpt lat="50.6706729904" lon="6.5350570064">
        <ele>267.4</ele>
        <time>2014-04-18T15:21:42Z</time>
      </trkpt><trkpt lat="50.670675002" lon="6.53532799333">
        <ele>265.9</ele>
        <time>2014-04-18T15:21:43Z</time>
      </trkpt><trkpt lat="50.6706900056" lon="6.53562001884">
        <ele>265</ele>
        <time>2014-04-18T15:21:45Z</time>
      </trkpt><trkpt lat="50.6707070209" lon="6.53592595831">
        <ele>263.5</ele>
        <time>2014-04-18T15:21:46Z</time>
      </trkpt><trkpt lat="50.6708060112" lon="6.53859601356">
        <ele>249.1</ele>
        <time>2014-04-18T15:22:01Z</time>
      </trkpt><trkpt lat="50.670769969" lon="6.53881696053">
        <ele>247.7</ele>
        <time>2014-04-18T15:22:03Z</time>
      </trkpt><trkpt lat="50.6706989743" lon="6.53903204016">
        <ele>246.7</ele>
        <time>2014-04-18T15:22:04Z</time>
      </trkpt><trkpt lat="50.670612976" lon="6.5392180346">
        <ele>245.3</ele>
        <time>2014-04-18T15:22:05Z</time>
      </trkpt><trkpt lat="50.6704910193" lon="6.53940897435">
        <ele>243.8</ele>
        <time>2014-04-18T15:22:07Z</time>
      </trkpt><trkpt lat="50.6703659613" lon="6.53960502706">
        <ele>242.4</ele>
        <time>2014-04-18T15:22:08Z</time>
      </trkpt><trkpt lat="50.6693189777" lon="6.54128903523">
        <ele>238.5</ele>
        <time>2014-04-18T15:22:22Z</time>
      </trkpt><trkpt lat="50.6692219991" lon="6.54150302522">
        <ele>238.1</ele>
        <time>2014-04-18T15:22:23Z</time>
      </trkpt><trkpt lat="50.6691749766" lon="6.54175699688">
        <ele>238.1</ele>
        <time>2014-04-18T15:22:24Z</time>
      </trkpt><trkpt lat="50.6691390183" lon="6.54202303849">
        <ele>238.1</ele>
        <time>2014-04-18T15:22:26Z</time>
      </trkpt><trkpt lat="50.6691029761" lon="6.54229503125">
        <ele>238.1</ele>
        <time>2014-04-18T15:22:28Z</time>
      </trkpt><trkpt lat="50.6690319814" lon="6.5430840198">
        <ele>238.1</ele>
        <time>2014-04-18T15:22:32Z</time>
      </trkpt><trkpt lat="50.6690360047" lon="6.54331997037">
        <ele>238.5</ele>
        <time>2014-04-18T15:22:33Z</time>
      </trkpt><trkpt lat="50.6690960191" lon="6.54355902225">
        <ele>238.5</ele>
        <time>2014-04-18T15:22:35Z</time>
      </trkpt><trkpt lat="50.6691690255" lon="6.54379103333">
        <ele>239</ele>
        <time>2014-04-18T15:22:36Z</time>
      </trkpt><trkpt lat="50.6692550238" lon="6.54403100722">
        <ele>239</ele>
        <time>2014-04-18T15:22:38Z</time>
      </trkpt><trkpt lat="50.6693440396" lon="6.54426796362">
        <ele>239.5</ele>
        <time>2014-04-18T15:22:39Z</time>
      </trkpt><trkpt lat="50.6694639847" lon="6.54448002577">
        <ele>239.5</ele>
        <time>2014-04-18T15:22:41Z</time>
      </trkpt><trkpt lat="50.6701099779" lon="6.54588801786">
        <ele>244.3</ele>
        <time>2014-04-18T15:22:51Z</time>
      </trkpt><trkpt lat="50.670147026" lon="6.54609396122">
        <ele>245.3</ele>
        <time>2014-04-18T15:22:52Z</time>
      </trkpt><trkpt lat="50.6701350398" lon="6.54631398618">
        <ele>246.2</ele>
        <time>2014-04-18T15:22:53Z</time>
      </trkpt><trkpt lat="50.6701219641" lon="6.54654499143">
        <ele>247.2</ele>
        <time>2014-04-18T15:22:54Z</time>
      </trkpt><trkpt lat="50.6701099779" lon="6.54677096754">
        <ele>247.7</ele>
        <time>2014-04-18T15:22:56Z</time>
      </trkpt><trkpt lat="50.670065973" lon="6.54763103463">
        <ele>252</ele>
        <time>2014-04-18T15:23:00Z</time>
      </trkpt><trkpt lat="50.6700829882" lon="6.54785097577">
        <ele>252.5</ele>
        <time>2014-04-18T15:23:02Z</time>
      </trkpt><trkpt lat="50.6701200362" lon="6.54807401821">
        <ele>253</ele>
        <time>2014-04-18T15:23:03Z</time>
      </trkpt><trkpt lat="50.6702060346" lon="6.54876301065">
        <ele>254.9</ele>
        <time>2014-04-18T15:23:07Z</time>
      </trkpt><trkpt lat="50.6702200323" lon="6.54899602756">
        <ele>255.4</ele>
        <time>2014-04-18T15:23:08Z</time>
      </trkpt><trkpt lat="50.6702330243" lon="6.54922803864">
        <ele>255.9</ele>
        <time>2014-04-18T15:23:09Z</time>
      </trkpt><trkpt lat="50.6701939646" lon="6.54945896007">
        <ele>256.3</ele>
        <time>2014-04-18T15:23:11Z</time>
      </trkpt><trkpt lat="50.6701549888" lon="6.54969499446">
        <ele>256.8</ele>
        <time>2014-04-18T15:23:12Z</time>
      </trkpt><trkpt lat="50.6701000035" lon="6.54991996475">
        <ele>257.3</ele>
        <time>2014-04-18T15:23:14Z</time>
      </trkpt><trkpt lat="50.6700379774" lon="6.55015097">
        <ele>257.8</ele>
        <time>2014-04-18T15:23:15Z</time>
      </trkpt><trkpt lat="50.6699760351" lon="6.55038398691">
        <ele>257.8</ele>
        <time>2014-04-18T15:23:16Z</time>
      </trkpt><trkpt lat="50.6696329638" lon="6.55205097981">
        <ele>255.4</ele>
        <time>2014-04-18T15:23:26Z</time>
      </trkpt><trkpt lat="50.6696329638" lon="6.55227796175">
        <ele>254.9</ele>
        <time>2014-04-18T15:23:27Z</time>
      </trkpt><trkpt lat="50.6697519869" lon="6.55449204147">
        <ele>249.6</ele>
        <time>2014-04-18T15:23:40Z</time>
      </trkpt><trkpt lat="50.6697890349" lon="6.55505203642">
        <ele>248.6</ele>
        <time>2014-04-18T15:23:43Z</time>
      </trkpt><trkpt lat="50.6697789766" lon="6.55526300892">
        <ele>248.6</ele>
        <time>2014-04-18T15:23:44Z</time>
      </trkpt><trkpt lat="50.6698369794" lon="6.55529603362">
        <ele>248.6</ele>
        <time>2014-04-18T15:23:45Z</time>
      </trkpt><trkpt lat="50.6699130032" lon="6.55534096062">
        <ele>248.2</ele>
        <time>2014-04-18T15:23:45Z</time>
      </trkpt><trkpt lat="50.6699979957" lon="6.55539200641">
        <ele>248.2</ele>
        <time>2014-04-18T15:23:46Z</time>
      </trkpt><trkpt lat="50.6701010093" lon="6.5554540325">
        <ele>248.2</ele>
        <time>2014-04-18T15:23:47Z</time>
      </trkpt><trkpt lat="50.6702279951" lon="6.55552997254">
        <ele>248.2</ele>
        <time>2014-04-18T15:23:48Z</time>
      </trkpt><trkpt lat="50.6714499928" lon="6.55631703325">
        <ele>247.7</ele>
        <time>2014-04-18T15:24:00Z</time>
      </trkpt><trkpt lat="50.673039034" lon="6.55802601948">
        <ele>247.2</ele>
        <time>2014-04-18T15:24:17Z</time>
      </trkpt><trkpt lat="50.6740700081" lon="6.55991102569">
        <ele>246.7</ele>
        <time>2014-04-18T15:24:31Z</time>
      </trkpt><trkpt lat="50.6747839786" lon="6.56226198189">
        <ele>245.8</ele>
        <time>2014-04-18T15:24:45Z</time>
      </trkpt><trkpt lat="50.6750829611" lon="6.56491803937">
        <ele>245.3</ele>
        <time>2014-04-18T15:25:00Z</time>
      </trkpt><trkpt lat="50.6749719847" lon="6.56725801528">
        <ele>243.8</ele>
        <time>2014-04-18T15:25:14Z</time>
      </trkpt><trkpt lat="50.6744989939" lon="6.56968901865">
        <ele>243.8</ele>
        <time>2014-04-18T15:25:28Z</time>
      </trkpt><trkpt lat="50.6738169584" lon="6.57208004035">
        <ele>243.8</ele>
        <time>2014-04-18T15:25:42Z</time>
      </trkpt><trkpt lat="50.6730979588" lon="6.57442797907">
        <ele>243.8</ele>
        <time>2014-04-18T15:25:57Z</time>
      </trkpt><trkpt lat="50.6723139994" lon="6.57710096799">
        <ele>241</ele>
        <time>2014-04-18T15:26:13Z</time>
      </trkpt><trkpt lat="50.6718679983" lon="6.57889997587">
        <ele>239.5</ele>
        <time>2014-04-18T15:26:24Z</time>
      </trkpt><trkpt lat="50.6716779806" lon="6.5809520334">
        <ele>236.6</ele>
        <time>2014-04-18T15:26:36Z</time>
      </trkpt><trkpt lat="50.671310015" lon="6.58496503718">
        <ele>232.3</ele>
        <time>2014-04-18T15:26:58Z</time>
      </trkpt><trkpt lat="50.6707090326" lon="6.59135498106">
        <ele>229.4</ele>
        <time>2014-04-18T15:27:34Z</time>
      </trkpt><trkpt lat="50.6703190226" lon="6.59562698565">
        <ele>226.1</ele>
        <time>2014-04-18T15:27:59Z</time>
      </trkpt><trkpt lat="50.6703579985" lon="6.5983009804">
        <ele>221.2</ele>
        <time>2014-04-18T15:28:14Z</time>
      </trkpt><trkpt lat="50.6708279718" lon="6.60053702071">
        <ele>217.9</ele>
        <time>2014-04-18T15:28:27Z</time>
      </trkpt><trkpt lat="50.6720420066" lon="6.60402900539">
        <ele>213.1</ele>
        <time>2014-04-18T15:28:49Z</time>
      </trkpt><trkpt lat="50.672920011" lon="6.60646696575">
        <ele>210.2</ele>
        <time>2014-04-18T15:29:05Z</time>
      </trkpt><trkpt lat="50.6733759865" lon="6.60830201581">
        <ele>208.3</ele>
        <time>2014-04-18T15:29:16Z</time>
      </trkpt><trkpt lat="50.6734360009" lon="6.61027201451">
        <ele>205.9</ele>
        <time>2014-04-18T15:29:27Z</time>
      </trkpt><trkpt lat="50.6736639887" lon="6.61236698739">
        <ele>203.9</ele>
        <time>2014-04-18T15:29:38Z</time>
      </trkpt><trkpt lat="50.6743119936" lon="6.61398796365">
        <ele>201.1</ele>
        <time>2014-04-18T15:29:49Z</time>
      </trkpt><trkpt lat="50.6743720081" lon="6.6141079925">
        <ele>200.1</ele>
        <time>2014-04-18T15:29:50Z</time>
      </trkpt><trkpt lat="50.675152028" lon="6.61541003734">
        <ele>197.2</ele>
        <time>2014-04-18T15:30:00Z</time>
      </trkpt><trkpt lat="50.6758100074" lon="6.61720099859">
        <ele>194.8</ele>
        <time>2014-04-18T15:30:12Z</time>
      </trkpt><trkpt lat="50.6763710082" lon="6.61955296062">
        <ele>194.3</ele>
        <time>2014-04-18T15:30:26Z</time>
      </trkpt><trkpt lat="50.676453989" lon="6.61993802525">
        <ele>193.8</ele>
        <time>2014-04-18T15:30:28Z</time>
      </trkpt><trkpt lat="50.6765280012" lon="6.62011102773">
        <ele>193.4</ele>
        <time>2014-04-18T15:30:29Z</time>
      </trkpt><trkpt lat="50.6766279973" lon="6.62033599801">
        <ele>192.9</ele>
        <time>2014-04-18T15:30:31Z</time>
      </trkpt><trkpt lat="50.6775849592" lon="6.6222429648">
        <ele>191</ele>
        <time>2014-04-18T15:30:44Z</time>
      </trkpt><trkpt lat="50.6784460321" lon="6.6239090357">
        <ele>189.5</ele>
        <time>2014-04-18T15:30:56Z</time>
      </trkpt><trkpt lat="50.6792819593" lon="6.62551903166">
        <ele>188.6</ele>
        <time>2014-04-18T15:31:08Z</time>
      </trkpt><trkpt lat="50.6793930195" lon="6.6257979814">
        <ele>188.6</ele>
        <time>2014-04-18T15:31:10Z</time>
      </trkpt><trkpt lat="50.6794859748" lon="6.62607802078">
        <ele>188.6</ele>
        <time>2014-04-18T15:31:11Z</time>
      </trkpt><trkpt lat="50.6795579754" lon="6.62638002075">
        <ele>188.6</ele>
        <time>2014-04-18T15:31:13Z</time>
      </trkpt><trkpt lat="50.6802870333" lon="6.62939901464">
        <ele>185.7</ele>
        <time>2014-04-18T15:31:31Z</time>
      </trkpt><trkpt lat="50.6803830061" lon="6.62963697687">
        <ele>185.2</ele>
        <time>2014-04-18T15:31:33Z</time>
      </trkpt><trkpt lat="50.6804750394" lon="6.62986898795">
        <ele>184.7</ele>
        <time>2014-04-18T15:31:34Z</time>
      </trkpt><trkpt lat="50.6816299818" lon="6.63203503937">
        <ele>182.8</ele>
        <time>2014-04-18T15:31:50Z</time>
      </trkpt><trkpt lat="50.682552997" lon="6.63327002898">
        <ele>181.8</ele>
        <time>2014-04-18T15:32:01Z</time>
      </trkpt><trkpt lat="50.6836230308" lon="6.63423998281">
        <ele>181.4</ele>
        <time>2014-04-18T15:32:12Z</time>
      </trkpt><trkpt lat="50.6853089668" lon="6.63501396775">
        <ele>179.9</ele>
        <time>2014-04-18T15:32:27Z</time>
      </trkpt><trkpt lat="50.6870900374" lon="6.63525603712">
        <ele>178</ele>
        <time>2014-04-18T15:32:43Z</time>
      </trkpt><trkpt lat="50.68857003" lon="6.63545401767">
        <ele>175.1</ele>
        <time>2014-04-18T15:32:56Z</time>
      </trkpt><trkpt lat="50.6906599738" lon="6.63569499739">
        <ele>168.4</ele>
        <time>2014-04-18T15:33:15Z</time>
      </trkpt><trkpt lat="50.692286985" lon="6.63598299958">
        <ele>162.6</ele>
        <time>2014-04-18T15:33:29Z</time>
      </trkpt><trkpt lat="50.6947889831" lon="6.63687399589">
        <ele>156.8</ele>
        <time>2014-04-18T15:33:52Z</time>
      </trkpt><trkpt lat="50.6968909968" lon="6.63836999796">
        <ele>154.9</ele>
        <time>2014-04-18T15:34:12Z</time>
      </trkpt><trkpt lat="50.698776003" lon="6.64051199332">
        <ele>154.4</ele>
        <time>2014-04-18T15:34:32Z</time>
      </trkpt><trkpt lat="50.7003549859" lon="6.64319504052">
        <ele>153</ele>
        <time>2014-04-18T15:34:53Z</time>
      </trkpt><trkpt lat="50.7009449881" lon="6.64450303651">
        <ele>152.5</ele>
        <time>2014-04-18T15:35:02Z</time>
      </trkpt><trkpt lat="50.7017850224" lon="6.64707602933">
        <ele>151.5</ele>
        <time>2014-04-18T15:35:18Z</time>
      </trkpt><trkpt lat="50.7023809757" lon="6.64970199578">
        <ele>152</ele>
        <time>2014-04-18T15:35:33Z</time>
      </trkpt><trkpt lat="50.7027770206" lon="6.65237003937">
        <ele>156.4</ele>
        <time>2014-04-18T15:35:49Z</time>
      </trkpt><trkpt lat="50.7031200081" lon="6.65520102717">
        <ele>162.1</ele>
        <time>2014-04-18T15:36:05Z</time>
      </trkpt><trkpt lat="50.7038079947" lon="6.66094296612">
        <ele>156.8</ele>
        <time>2014-04-18T15:36:37Z</time>
      </trkpt><trkpt lat="50.7043779641" lon="6.66466402821">
        <ele>151.5</ele>
        <time>2014-04-18T15:36:59Z</time>
      </trkpt><trkpt lat="50.7048590016" lon="6.6663010139">
        <ele>151.1</ele>
        <time>2014-04-18T15:37:09Z</time>
      </trkpt><trkpt lat="50.7056169771" lon="6.6683079768">
        <ele>149.6</ele>
        <time>2014-04-18T15:37:22Z</time>
      </trkpt><trkpt lat="50.7064649742" lon="6.66985502467">
        <ele>149.6</ele>
        <time>2014-04-18T15:37:33Z</time>
      </trkpt><trkpt lat="50.7083000243" lon="6.67251996696">
        <ele>149.6</ele>
        <time>2014-04-18T15:37:55Z</time>
      </trkpt><trkpt lat="50.7097309828" lon="6.67450899258">
        <ele>150.1</ele>
        <time>2014-04-18T15:38:12Z</time>
      </trkpt><trkpt lat="50.7114320062" lon="6.67733402923">
        <ele>156.8</ele>
        <time>2014-04-18T15:38:34Z</time>
      </trkpt><trkpt lat="50.7139100321" lon="6.68029401451">
        <ele>152.5</ele>
        <time>2014-04-18T15:39:01Z</time>
      </trkpt><trkpt lat="50.7163869683" lon="6.68365599588">
        <ele>148.2</ele>
        <time>2014-04-18T15:39:30Z</time>
      </trkpt><trkpt lat="50.7188739628" lon="6.68703901581">
        <ele>149.6</ele>
        <time>2014-04-18T15:39:59Z</time>
      </trkpt><trkpt lat="50.7198089641" lon="6.68831298128">
        <ele>151.5</ele>
        <time>2014-04-18T15:40:10Z</time>
      </trkpt><trkpt lat="50.7201780193" lon="6.6888459865">
        <ele>152.5</ele>
        <time>2014-04-18T15:40:14Z</time>
      </trkpt><trkpt lat="50.720161004" lon="6.68888102286">
        <ele>152.5</ele>
        <time>2014-04-18T15:40:14Z</time>
      </trkpt><trkpt lat="50.720167039" lon="6.68900599703">
        <ele>152.5</ele>
        <time>2014-04-18T15:40:15Z</time>
      </trkpt><trkpt lat="50.7201869879" lon="6.68908596039">
        <ele>152</ele>
        <time>2014-04-18T15:40:16Z</time>
      </trkpt><trkpt lat="50.7203770056" lon="6.68911102228">
        <ele>152</ele>
        <time>2014-04-18T15:40:17Z</time>
      </trkpt><trkpt lat="50.7204350084" lon="6.68919098563">
        <ele>152</ele>
        <time>2014-04-18T15:40:18Z</time>
      </trkpt><trkpt lat="50.7205060031" lon="6.68929098174">
        <ele>152</ele>
        <time>2014-04-18T15:40:19Z</time>
      </trkpt><trkpt lat="50.7205930073" lon="6.68941101059">
        <ele>152</ele>
        <time>2014-04-18T15:40:20Z</time>
      </trkpt><trkpt lat="50.7206889801" lon="6.68954503722">
        <ele>152</ele>
        <time>2014-04-18T15:40:21Z</time>
      </trkpt><trkpt lat="50.7214460336" lon="6.69061699882">
        <ele>152.5</ele>
        <time>2014-04-18T15:40:30Z</time>
      </trkpt><trkpt lat="50.722808009" lon="6.69251399115">
        <ele>153.5</ele>
        <time>2014-04-18T15:40:46Z</time>
      </trkpt><trkpt lat="50.7249380182" lon="6.69542997144">
        <ele>154</ele>
        <time>2014-04-18T15:41:11Z</time>
      </trkpt><trkpt lat="50.7262350339" lon="6.69721003622">
        <ele>154</ele>
        <time>2014-04-18T15:41:26Z</time>
      </trkpt><trkpt lat="50.7286679652" lon="6.70056003146">
        <ele>152.5</ele>
        <time>2014-04-18T15:41:54Z</time>
      </trkpt><trkpt lat="50.729894992" lon="6.70217597857">
        <ele>151.5</ele>
        <time>2014-04-18T15:42:08Z</time>
      </trkpt><trkpt lat="50.7313759904" lon="6.70343301259">
        <ele>151.1</ele>
        <time>2014-04-18T15:42:23Z</time>
      </trkpt><trkpt lat="50.7330230344" lon="6.70413399115">
        <ele>150.1</ele>
        <time>2014-04-18T15:42:38Z</time>
      </trkpt><trkpt lat="50.737257991" lon="6.70574197546">
        <ele>146.7</ele>
        <time>2014-04-18T15:43:17Z</time>
      </trkpt><trkpt lat="50.7388649695" lon="6.70635796152">
        <ele>146.3</ele>
        <time>2014-04-18T15:43:31Z</time>
      </trkpt><trkpt lat="50.7402299624" lon="6.70692197978">
        <ele>145.3</ele>
        <time>2014-04-18T15:43:44Z</time>
      </trkpt><trkpt lat="50.7416960411" lon="6.70748197474">
        <ele>144.8</ele>
        <time>2014-04-18T15:43:57Z</time>
      </trkpt><trkpt lat="50.7421540283" lon="6.70760502107">
        <ele>144.3</ele>
        <time>2014-04-18T15:44:01Z</time>
      </trkpt><trkpt lat="50.7422599755" lon="6.70757099055">
        <ele>144.3</ele>
        <time>2014-04-18T15:44:02Z</time>
      </trkpt><trkpt lat="50.7423599716" lon="6.70749396086">
        <ele>144.3</ele>
        <time>2014-04-18T15:44:03Z</time>
      </trkpt><trkpt lat="50.7424449641" lon="6.70742698945">
        <ele>144.3</ele>
        <time>2014-04-18T15:44:04Z</time>
      </trkpt><trkpt lat="50.7425090019" lon="6.70737803914">
        <ele>143.9</ele>
        <time>2014-04-18T15:44:04Z</time>
      </trkpt><trkpt lat="50.7426619716" lon="6.7072549928">
        <ele>142.9</ele>
        <time>2014-04-18T15:44:06Z</time>
      </trkpt><trkpt lat="50.7427450363" lon="6.70718299225">
        <ele>142.9</ele>
        <time>2014-04-18T15:44:07Z</time>
      </trkpt><trkpt lat="50.7434129901" lon="6.70658603311">
        <ele>141.9</ele>
        <time>2014-04-18T15:44:14Z</time>
      </trkpt><trkpt lat="50.7442400325" lon="6.70581095852">
        <ele>141.5</ele>
        <time>2014-04-18T15:44:22Z</time>
      </trkpt><trkpt lat="50.7445280347" lon="6.70556603931">
        <ele>141.5</ele>
        <time>2014-04-18T15:44:25Z</time>
      </trkpt><trkpt lat="50.7446029689" lon="6.70556603931">
        <ele>141.5</ele>
        <time>2014-04-18T15:44:26Z</time>
      </trkpt><trkpt lat="50.7446779869" lon="6.70556603931">
        <ele>141.5</ele>
        <time>2014-04-18T15:44:26Z</time>
      </trkpt><trkpt lat="50.7447560225" lon="6.70565203764">
        <ele>141.5</ele>
        <time>2014-04-18T15:44:27Z</time>
      </trkpt><trkpt lat="50.74483498" lon="6.70577701181">
        <ele>141.5</ele>
        <time>2014-04-18T15:44:28Z</time>
      </trkpt><trkpt lat="50.7448919769" lon="6.7059319932">
        <ele>141.5</ele>
        <time>2014-04-18T15:44:29Z</time>
      </trkpt><trkpt lat="50.7449499797" lon="6.70608898625">
        <ele>141</ele>
        <time>2014-04-18T15:44:30Z</time>
      </trkpt><trkpt lat="50.7453450188" lon="6.70707503334">
        <ele>142.4</ele>
        <time>2014-04-18T15:44:37Z</time>
      </trkpt><trkpt lat="50.7454430033" lon="6.70723403804">
        <ele>142.9</ele>
        <time>2014-04-18T15:44:38Z</time>
      </trkpt><trkpt lat="50.7455640379" lon="6.70738499612">
        <ele>143.4</ele>
        <time>2014-04-18T15:44:39Z</time>
      </trkpt><trkpt lat="50.7466680184" lon="6.70864898711">
        <ele>144.3</ele>
        <time>2014-04-18T15:44:51Z</time>
      </trkpt><trkpt lat="50.7483490091" lon="6.71048303135">
        <ele>145.3</ele>
        <time>2014-04-18T15:45:09Z</time>
      </trkpt><trkpt lat="50.7504820358" lon="6.71281403862">
        <ele>146.7</ele>
        <time>2014-04-18T15:45:32Z</time>
      </trkpt><trkpt lat="50.7515580207" lon="6.71399102546">
        <ele>147.2</ele>
        <time>2014-04-18T15:45:44Z</time>
      </trkpt><trkpt lat="50.7534150314" lon="6.71588097699">
        <ele>147.7</ele>
        <time>2014-04-18T15:46:03Z</time>
      </trkpt><trkpt lat="50.7554580364" lon="6.71720598824">
        <ele>146.3</ele>
        <time>2014-04-18T15:46:23Z</time>
      </trkpt><trkpt lat="50.7569889911" lon="6.71824199148">
        <ele>144.3</ele>
        <time>2014-04-18T15:46:37Z</time>
      </trkpt><trkpt lat="50.7586839795" lon="6.72010101378">
        <ele>141.9</ele>
        <time>2014-04-18T15:46:55Z</time>
      </trkpt><trkpt lat="50.7602769602" lon="6.72269697301">
        <ele>140</ele>
        <time>2014-04-18T15:47:16Z</time>
      </trkpt><trkpt lat="50.7619700208" lon="6.72567296773">
        <ele>137.1</ele>
        <time>2014-04-18T15:47:38Z</time>
      </trkpt><trkpt lat="50.7635899913" lon="6.72844503075">
        <ele>136.6</ele>
        <time>2014-04-18T15:47:59Z</time>
      </trkpt><trkpt lat="50.7648160122" lon="6.73006701283">
        <ele>135.7</ele>
        <time>2014-04-18T15:48:13Z</time>
      </trkpt><trkpt lat="50.7664410118" lon="6.73135296442">
        <ele>130.4</ele>
        <time>2014-04-18T15:48:29Z</time>
      </trkpt><trkpt lat="50.76828897" lon="6.7319360096">
        <ele>123.7</ele>
        <time>2014-04-18T15:48:46Z</time>
      </trkpt><trkpt lat="50.7703779917" lon="6.73189896159">
        <ele>119.8</ele>
        <time>2014-04-18T15:49:04Z</time>
      </trkpt><trkpt lat="50.7731259987" lon="6.73184598796">
        <ele>118.4</ele>
        <time>2014-04-18T15:49:28Z</time>
      </trkpt><trkpt lat="50.7751469593" lon="6.73257102259">
        <ele>117.4</ele>
        <time>2014-04-18T15:49:46Z</time>
      </trkpt><trkpt lat="50.7769649941" lon="6.73388103023">
        <ele>116.9</ele>
        <time>2014-04-18T15:50:04Z</time>
      </trkpt><trkpt lat="50.7787479926" lon="6.73583099619">
        <ele>115.5</ele>
        <time>2014-04-18T15:50:23Z</time>
      </trkpt><trkpt lat="50.7814469654" lon="6.73905802891">
        <ele>115</ele>
        <time>2014-04-18T15:50:53Z</time>
      </trkpt><trkpt lat="50.7829279639" lon="6.74082904123">
        <ele>114.5</ele>
        <time>2014-04-18T15:51:09Z</time>
      </trkpt><trkpt lat="50.7845760137" lon="6.74279996194">
        <ele>114.1</ele>
        <time>2014-04-18T15:51:28Z</time>
      </trkpt><trkpt lat="50.786259016" lon="6.7448120378">
        <ele>113.1</ele>
        <time>2014-04-18T15:51:46Z</time>
      </trkpt><trkpt lat="50.7880809903" lon="6.74779800698">
        <ele>112.1</ele>
        <time>2014-04-18T15:52:09Z</time>
      </trkpt><trkpt lat="50.7893309835" lon="6.75097600557">
        <ele>109.7</ele>
        <time>2014-04-18T15:52:30Z</time>
      </trkpt><trkpt lat="50.7898860332" lon="6.75365000032">
        <ele>107.3</ele>
        <time>2014-04-18T15:52:46Z</time>
      </trkpt><trkpt lat="50.7901779748" lon="6.75651501864">
        <ele>104.4</ele>
        <time>2014-04-18T15:53:02Z</time>
      </trkpt><trkpt lat="50.7901349757" lon="6.75924701616">
        <ele>104.9</ele>
        <time>2014-04-18T15:53:17Z</time>
      </trkpt><trkpt lat="50.7898730412" lon="6.76122003235">
        <ele>104.9</ele>
        <time>2014-04-18T15:53:28Z</time>
      </trkpt><trkpt lat="50.7897540182" lon="6.7616989743">
        <ele>104.9</ele>
        <time>2014-04-18T15:53:31Z</time>
      </trkpt><trkpt lat="50.7896879688" lon="6.76174297929">
        <ele>104.9</ele>
        <time>2014-04-18T15:53:32Z</time>
      </trkpt><trkpt lat="50.7896499988" lon="6.76181799732">
        <ele>104.9</ele>
        <time>2014-04-18T15:53:32Z</time>
      </trkpt><trkpt lat="50.7896260265" lon="6.76188304089">
        <ele>104.9</ele>
        <time>2014-04-18T15:53:33Z</time>
      </trkpt><trkpt lat="50.7896449696" lon="6.7619759962">
        <ele>104.4</ele>
        <time>2014-04-18T15:53:33Z</time>
      </trkpt><trkpt lat="50.7897420321" lon="6.76217900589">
        <ele>104.4</ele>
        <time>2014-04-18T15:53:35Z</time>
      </trkpt><trkpt lat="50.7897159643" lon="6.76230297424">
        <ele>104.4</ele>
        <time>2014-04-18T15:53:36Z</time>
      </trkpt><trkpt lat="50.7896820176" lon="6.76245996729">
        <ele>104</ele>
        <time>2014-04-18T15:53:37Z</time>
      </trkpt><trkpt lat="50.7896400243" lon="6.76265702583">
        <ele>104</ele>
        <time>2014-04-18T15:53:38Z</time>
      </trkpt><trkpt lat="50.7895950135" lon="6.76287302747">
        <ele>104</ele>
        <time>2014-04-18T15:53:39Z</time>
      </trkpt><trkpt lat="50.789183965" lon="6.76480798982">
        <ele>103</ele>
        <time>2014-04-18T15:53:50Z</time>
      </trkpt><trkpt lat="50.7889009919" lon="6.76712198183">
        <ele>102</ele>
        <time>2014-04-18T15:54:03Z</time>
      </trkpt><trkpt lat="50.7889890019" lon="6.7704800237">
        <ele>100.1</ele>
        <time>2014-04-18T15:54:22Z</time>
      </trkpt><trkpt lat="50.7896009646" lon="6.77347496152">
        <ele>102.5</ele>
        <time>2014-04-18T15:54:40Z</time>
      </trkpt><trkpt lat="50.7906379737" lon="6.77616898902">
        <ele>104.9</ele>
        <time>2014-04-18T15:54:57Z</time>
      </trkpt><trkpt lat="50.7922590338" lon="6.77850997075">
        <ele>104</ele>
        <time>2014-04-18T15:55:17Z</time>
      </trkpt><trkpt lat="50.7936820295" lon="6.7799529992">
        <ele>102</ele>
        <time>2014-04-18T15:55:31Z</time>
      </trkpt><trkpt lat="50.7949659694" lon="6.78102303296">
        <ele>102</ele>
        <time>2014-04-18T15:55:44Z</time>
      </trkpt><trkpt lat="50.7953839749" lon="6.78134397604">
        <ele>102.5</ele>
        <time>2014-04-18T15:55:48Z</time>
      </trkpt><trkpt lat="50.7955119666" lon="6.78144296631">
        <ele>104</ele>
        <time>2014-04-18T15:55:50Z</time>
      </trkpt><trkpt lat="50.7957189996" lon="6.78158998489">
        <ele>104.9</ele>
        <time>2014-04-18T15:55:52Z</time>
      </trkpt><trkpt lat="50.7963300403" lon="6.78198703565">
        <ele>104.9</ele>
        <time>2014-04-18T15:55:57Z</time>
      </trkpt><trkpt lat="50.7974249683" lon="6.78267200477">
        <ele>104.9</ele>
        <time>2014-04-18T15:56:08Z</time>
      </trkpt><trkpt lat="50.8001469914" lon="6.78473697044">
        <ele>103</ele>
        <time>2014-04-18T15:56:34Z</time>
      </trkpt><trkpt lat="50.8013849985" lon="6.78623096086">
        <ele>101.6</ele>
        <time>2014-04-18T15:56:48Z</time>
      </trkpt><trkpt lat="50.8021449856" lon="6.7878100276">
        <ele>100.1</ele>
        <time>2014-04-18T15:56:59Z</time>
      </trkpt><trkpt lat="50.8023070078" lon="6.78819400258">
        <ele>99.2</ele>
        <time>2014-04-18T15:57:02Z</time>
      </trkpt><trkpt lat="50.8023250289" lon="6.78823800758">
        <ele>98.7</ele>
        <time>2014-04-18T15:57:02Z</time>
      </trkpt><trkpt lat="50.8024039865" lon="6.78842500784">
        <ele>99.2</ele>
        <time>2014-04-18T15:57:03Z</time>
      </trkpt><trkpt lat="50.8028229978" lon="6.78982696496">
        <ele>100.1</ele>
        <time>2014-04-18T15:57:12Z</time>
      </trkpt><trkpt lat="50.8032359742" lon="6.79208203219">
        <ele>100.1</ele>
        <time>2014-04-18T15:57:25Z</time>
      </trkpt><trkpt lat="50.8033219725" lon="6.79293799214">
        <ele>101.6</ele>
        <time>2014-04-18T15:57:30Z</time>
      </trkpt><trkpt lat="50.8033349644" lon="6.79306698963">
        <ele>102</ele>
        <time>2014-04-18T15:57:31Z</time>
      </trkpt><trkpt lat="50.8033409994" lon="6.79313102737">
        <ele>102</ele>
        <time>2014-04-18T15:57:31Z</time>
      </trkpt><trkpt lat="50.8034170233" lon="6.79395999759">
        <ele>102.5</ele>
        <time>2014-04-18T15:57:36Z</time>
      </trkpt><trkpt lat="50.8036320191" lon="6.79644498043">
        <ele>104</ele>
        <time>2014-04-18T15:57:50Z</time>
      </trkpt><trkpt lat="50.8041370288" lon="6.79938803427">
        <ele>100.1</ele>
        <time>2014-04-18T15:58:07Z</time>
      </trkpt><trkpt lat="50.8049810026" lon="6.80166598409">
        <ele>97.2</ele>
        <time>2014-04-18T15:58:21Z</time>
      </trkpt><trkpt lat="50.8063760027" lon="6.8037690036">
        <ele>94.4</ele>
        <time>2014-04-18T15:58:38Z</time>
      </trkpt><trkpt lat="50.8081709873" lon="6.80564596318">
        <ele>91</ele>
        <time>2014-04-18T15:58:57Z</time>
      </trkpt><trkpt lat="50.8096089866" lon="6.80633897893">
        <ele>89.1</ele>
        <time>2014-04-18T15:59:10Z</time>
      </trkpt><trkpt lat="50.8114560228" lon="6.80646001361">
        <ele>88.6</ele>
        <time>2014-04-18T15:59:27Z</time>
      </trkpt><trkpt lat="50.8140870184" lon="6.80650502443">
        <ele>88.1</ele>
        <time>2014-04-18T15:59:50Z</time>
      </trkpt><trkpt lat="50.8158909716" lon="6.80699997582">
        <ele>90</ele>
        <time>2014-04-18T16:00:06Z</time>
      </trkpt><trkpt lat="50.8174060006" lon="6.80814796127">
        <ele>91.9</ele>
        <time>2014-04-18T16:00:21Z</time>
      </trkpt><trkpt lat="50.8188679721" lon="6.81008602493">
        <ele>94.4</ele>
        <time>2014-04-18T16:00:38Z</time>
      </trkpt><trkpt lat="50.8200019598" lon="6.81219801307">
        <ele>96.3</ele>
        <time>2014-04-18T16:00:53Z</time>
      </trkpt><trkpt lat="50.8209630288" lon="6.81481501088">
        <ele>98.7</ele>
        <time>2014-04-18T16:01:10Z</time>
      </trkpt><trkpt lat="50.8217130415" lon="6.81773702614">
        <ele>101.1</ele>
        <time>2014-04-18T16:01:28Z</time>
      </trkpt><trkpt lat="50.8224209771" lon="6.82059802115">
        <ele>103</ele>
        <time>2014-04-18T16:01:45Z</time>
      </trkpt><trkpt lat="50.8233810402" lon="6.82468101382">
        <ele>103</ele>
        <time>2014-04-18T16:02:09Z</time>
      </trkpt><trkpt lat="50.8251150046" lon="6.83172700927">
        <ele>99.6</ele>
        <time>2014-04-18T16:02:51Z</time>
      </trkpt><trkpt lat="50.8256500214" lon="6.83399498463">
        <ele>99.6</ele>
        <time>2014-04-18T16:03:04Z</time>
      </trkpt><trkpt lat="50.8260899875" lon="6.835878985">
        <ele>100.1</ele>
        <time>2014-04-18T16:03:16Z</time>
      </trkpt><trkpt lat="50.8263550233" lon="6.83701599017">
        <ele>101.1</ele>
        <time>2014-04-18T16:03:22Z</time>
      </trkpt><trkpt lat="50.8266880363" lon="6.83830101974">
        <ele>102</ele>
        <time>2014-04-18T16:03:30Z</time>
      </trkpt><trkpt lat="50.8271460235" lon="6.8399110157">
        <ele>103</ele>
        <time>2014-04-18T16:03:40Z</time>
      </trkpt><trkpt lat="50.8280520234" lon="6.84304802679">
        <ele>105.4</ele>
        <time>2014-04-18T16:03:59Z</time>
      </trkpt><trkpt lat="50.8294640388" lon="6.84769202024">
        <ele>108.8</ele>
        <time>2014-04-18T16:04:28Z</time>
      </trkpt><trkpt lat="50.8306039777" lon="6.85091796331">
        <ele>111.7</ele>
        <time>2014-04-18T16:04:48Z</time>
      </trkpt><trkpt lat="50.8323690388" lon="6.85585901141">
        <ele>116</ele>
        <time>2014-04-18T16:05:20Z</time>
      </trkpt><trkpt lat="50.8342510276" lon="6.86075496487">
        <ele>120.3</ele>
        <time>2014-04-18T16:05:52Z</time>
      </trkpt><trkpt lat="50.8362879977" lon="6.86497097835">
        <ele>122.7</ele>
        <time>2014-04-18T16:06:21Z</time>
      </trkpt><trkpt lat="50.8372339793" lon="6.86673503369">
        <ele>121.7</ele>
        <time>2014-04-18T16:06:34Z</time>
      </trkpt><trkpt lat="50.8382200263" lon="6.86793096364">
        <ele>119.3</ele>
        <time>2014-04-18T16:06:45Z</time>
      </trkpt><trkpt lat="50.8386220224" lon="6.8683320377">
        <ele>118.4</ele>
        <time>2014-04-18T16:06:49Z</time>
      </trkpt><trkpt lat="50.838901978" lon="6.86857201159">
        <ele>117.9</ele>
        <time>2014-04-18T16:06:52Z</time>
      </trkpt><trkpt lat="50.8396359812" lon="6.86905497685">
        <ele>117.4</ele>
        <time>2014-04-18T16:06:59Z</time>
      </trkpt><trkpt lat="50.8404729981" lon="6.86951899901">
        <ele>116.9</ele>
        <time>2014-04-18T16:07:07Z</time>
      </trkpt><trkpt lat="50.8422620315" lon="6.87004999258">
        <ele>113.6</ele>
        <time>2014-04-18T16:07:23Z</time>
      </trkpt><trkpt lat="50.8435909823" lon="6.87035903335">
        <ele>110.2</ele>
        <time>2014-04-18T16:07:35Z</time>
      </trkpt><trkpt lat="50.8449849766" lon="6.87068399973">
        <ele>109.7</ele>
        <time>2014-04-18T16:07:47Z</time>
      </trkpt><trkpt lat="50.8479090035" lon="6.87137500383">
        <ele>108.8</ele>
        <time>2014-04-18T16:08:13Z</time>
      </trkpt><trkpt lat="50.8507180307" lon="6.87208998017">
        <ele>107.8</ele>
        <time>2014-04-18T16:08:38Z</time>
      </trkpt><trkpt lat="50.8524290286" lon="6.87284996733">
        <ele>109.7</ele>
        <time>2014-04-18T16:08:54Z</time>
      </trkpt><trkpt lat="50.8538139705" lon="6.87378899194">
        <ele>111.2</ele>
        <time>2014-04-18T16:09:07Z</time>
      </trkpt><trkpt lat="50.8548020292" lon="6.87451796606">
        <ele>112.6</ele>
        <time>2014-04-18T16:09:17Z</time>
      </trkpt><trkpt lat="50.8561650105" lon="6.87548004091">
        <ele>115</ele>
        <time>2014-04-18T16:09:30Z</time>
      </trkpt><trkpt lat="50.8575969748" lon="6.87643901445">
        <ele>116</ele>
        <time>2014-04-18T16:09:44Z</time>
      </trkpt><trkpt lat="50.8590750396" lon="6.87689297833">
        <ele>116</ele>
        <time>2014-04-18T16:09:57Z</time>
      </trkpt><trkpt lat="50.860676989" lon="6.8768290244">
        <ele>116.5</ele>
        <time>2014-04-18T16:10:11Z</time>
      </trkpt><trkpt lat="50.8624139708" lon="6.87635502778">
        <ele>116</ele>
        <time>2014-04-18T16:10:27Z</time>
      </trkpt><trkpt lat="50.8642210253" lon="6.87611103058">
        <ele>114.5</ele>
        <time>2014-04-18T16:10:43Z</time>
      </trkpt><trkpt lat="50.8643829636" lon="6.87611103058">
        <ele>114.5</ele>
        <time>2014-04-18T16:10:44Z</time>
      </trkpt><trkpt lat="50.86454398" lon="6.87612896785">
        <ele>114.1</ele>
        <time>2014-04-18T16:10:46Z</time>
      </trkpt><trkpt lat="50.8659279998" lon="6.87644395977">
        <ele>112.1</ele>
        <time>2014-04-18T16:10:58Z</time>
      </trkpt><trkpt lat="50.867323" lon="6.87714996748">
        <ele>110.2</ele>
        <time>2014-04-18T16:11:11Z</time>
      </trkpt><trkpt lat="50.868706014" lon="6.87825000845">
        <ele>106.8</ele>
        <time>2014-04-18T16:11:24Z</time>
      </trkpt><trkpt lat="50.869762972" lon="6.87934602611">
        <ele>102.5</ele>
        <time>2014-04-18T16:11:36Z</time>
      </trkpt><trkpt lat="50.8711339999" lon="6.88078897074">
        <ele>97.2</ele>
        <time>2014-04-18T16:11:50Z</time>
      </trkpt><trkpt lat="50.8725020103" lon="6.88224398531">
        <ele>90</ele>
        <time>2014-04-18T16:12:05Z</time>
      </trkpt><trkpt lat="50.8735189866" lon="6.88343103044">
        <ele>84.3</ele>
        <time>2014-04-18T16:12:16Z</time>
      </trkpt><trkpt lat="50.8748669643" lon="6.88506801613">
        <ele>77</ele>
        <time>2014-04-18T16:12:31Z</time>
      </trkpt><trkpt lat="50.874981964" lon="6.8852519989">
        <ele>76.6</ele>
        <time>2014-04-18T16:12:32Z</time>
      </trkpt><trkpt lat="50.8749890048" lon="6.88529097475">
        <ele>76.1</ele>
        <time>2014-04-18T16:12:32Z</time>
      </trkpt><trkpt lat="50.8750099596" lon="6.88541796058">
        <ele>75.6</ele>
        <time>2014-04-18T16:12:33Z</time>
      </trkpt><trkpt lat="50.8750559762" lon="6.88552499749">
        <ele>75.1</ele>
        <time>2014-04-18T16:12:34Z</time>
      </trkpt><trkpt lat="50.8751969598" lon="6.88559498638">
        <ele>75.1</ele>
        <time>2014-04-18T16:12:35Z</time>
      </trkpt><trkpt lat="50.8752240334" lon="6.88561803661">
        <ele>74.6</ele>
        <time>2014-04-18T16:12:35Z</time>
      </trkpt><trkpt lat="50.8753179945" lon="6.88569598831">
        <ele>74.6</ele>
        <time>2014-04-18T16:12:36Z</time>
      </trkpt><trkpt lat="50.8754550386" lon="6.8858099822">
        <ele>74.2</ele>
        <time>2014-04-18T16:12:38Z</time>
      </trkpt><trkpt lat="50.8755189925" lon="6.88587502576">
        <ele>73.7</ele>
        <time>2014-04-18T16:12:38Z</time>
      </trkpt><trkpt lat="50.8763010241" lon="6.88667197712">
        <ele>69.8</ele>
        <time>2014-04-18T16:12:47Z</time>
      </trkpt><trkpt lat="50.8766020183" lon="6.88690298237">
        <ele>69.8</ele>
        <time>2014-04-18T16:12:50Z</time>
      </trkpt><trkpt lat="50.8771399688" lon="6.88727698289">
        <ele>68.9</ele>
        <time>2014-04-18T16:12:55Z</time>
      </trkpt><trkpt lat="50.8780720364" lon="6.88818700612">
        <ele>67.4</ele>
        <time>2014-04-18T16:13:04Z</time>
      </trkpt><trkpt lat="50.8788310178" lon="6.88899703324">
        <ele>66.5</ele>
        <time>2014-04-18T16:13:12Z</time>
      </trkpt><trkpt lat="50.8795480058" lon="6.88976196572">
        <ele>65</ele>
        <time>2014-04-18T16:13:20Z</time>
      </trkpt><trkpt lat="50.8804339729" lon="6.89070099033">
        <ele>63.6</ele>
        <time>2014-04-18T16:13:29Z</time>
      </trkpt><trkpt lat="50.8804949932" lon="6.89076703973">
        <ele>64.1</ele>
        <time>2014-04-18T16:13:30Z</time>
      </trkpt><trkpt lat="50.8805870265" lon="6.89087499864">
        <ele>64.6</ele>
        <time>2014-04-18T16:13:31Z</time>
      </trkpt><trkpt lat="50.881477017" lon="6.89172802493">
        <ele>63.6</ele>
        <time>2014-04-18T16:13:40Z</time>
      </trkpt><trkpt lat="50.8826550096" lon="6.8929249607">
        <ele>62.1</ele>
        <time>2014-04-18T16:13:53Z</time>
      </trkpt><trkpt lat="50.8837439865" lon="6.89403397031">
        <ele>61.2</ele>
        <time>2014-04-18T16:14:04Z</time>
      </trkpt><trkpt lat="50.8848519903" lon="6.8951790221">
        <ele>61.7</ele>
        <time>2014-04-18T16:14:16Z</time>
      </trkpt><trkpt lat="50.8859839663" lon="6.89638299868">
        <ele>61.7</ele>
        <time>2014-04-18T16:14:28Z</time>
      </trkpt><trkpt lat="50.8869710192" lon="6.89742403105">
        <ele>61.2</ele>
        <time>2014-04-18T16:14:38Z</time>
      </trkpt><trkpt lat="50.8870339673" lon="6.89749997109">
        <ele>61.2</ele>
        <time>2014-04-18T16:14:39Z</time>
      </trkpt><trkpt lat="50.8871280123" lon="6.89761203714">
        <ele>61.2</ele>
        <time>2014-04-18T16:14:40Z</time>
      </trkpt><trkpt lat="50.8871140145" lon="6.89766702242">
        <ele>61.2</ele>
        <time>2014-04-18T16:14:40Z</time>
      </trkpt><trkpt lat="50.8871410042" lon="6.89797597937">
        <ele>61.2</ele>
        <time>2014-04-18T16:14:42Z</time>
      </trkpt><trkpt lat="50.8872280084" lon="6.89808896743">
        <ele>61.2</ele>
        <time>2014-04-18T16:14:43Z</time>
      </trkpt><trkpt lat="50.8873079717" lon="6.89811503515">
        <ele>61.2</ele>
        <time>2014-04-18T16:14:44Z</time>
      </trkpt><trkpt lat="50.8874040283" lon="6.89807999879">
        <ele>60.7</ele>
        <time>2014-04-18T16:14:45Z</time>
      </trkpt><trkpt lat="50.8875249792" lon="6.89800699241">
        <ele>60.7</ele>
        <time>2014-04-18T16:14:46Z</time>
      </trkpt><trkpt lat="50.887607038" lon="6.89807496965">
        <ele>60.7</ele>
        <time>2014-04-18T16:14:46Z</time>
      </trkpt><trkpt lat="50.8876880072" lon="6.8981430307">
        <ele>60.7</ele>
        <time>2014-04-18T16:14:47Z</time>
      </trkpt><trkpt lat="50.8884530235" lon="6.89892296679">
        <ele>60.2</ele>
        <time>2014-04-18T16:14:55Z</time>
      </trkpt><trkpt lat="50.8895200398" lon="6.90003599972">
        <ele>60.2</ele>
        <time>2014-04-18T16:15:07Z</time>
      </trkpt><trkpt lat="50.8907500003" lon="6.9013510365">
        <ele>60.2</ele>
        <time>2014-04-18T16:15:20Z</time>
      </trkpt><trkpt lat="50.8921190165" lon="6.90278400667">
        <ele>60.2</ele>
        <time>2014-04-18T16:15:34Z</time>
      </trkpt><trkpt lat="50.893348977" lon="6.90406601876">
        <ele>59.7</ele>
        <time>2014-04-18T16:15:47Z</time>
      </trkpt><trkpt lat="50.8943940327" lon="6.90514803864">
        <ele>59.7</ele>
        <time>2014-04-18T16:15:58Z</time>
      </trkpt><trkpt lat="50.8952270262" lon="6.90603802912">
        <ele>59.7</ele>
        <time>2014-04-18T16:16:07Z</time>
      </trkpt><trkpt lat="50.8963510394" lon="6.90725198016">
        <ele>59.3</ele>
        <time>2014-04-18T16:16:19Z</time>
      </trkpt><trkpt lat="50.8971029799" lon="6.90821296535">
        <ele>58.8</ele>
        <time>2014-04-18T16:16:27Z</time>
      </trkpt><trkpt lat="50.8971739747" lon="6.90832301974">
        <ele>58.8</ele>
        <time>2014-04-18T16:16:28Z</time>
      </trkpt><trkpt lat="50.8972130343" lon="6.90844103694">
        <ele>58.3</ele>
        <time>2014-04-18T16:16:29Z</time>
      </trkpt><trkpt lat="50.8972130343" lon="6.90858302638">
        <ele>58.3</ele>
        <time>2014-04-18T16:16:30Z</time>
      </trkpt><trkpt lat="50.8972130343" lon="6.90873398446">
        <ele>58.3</ele>
        <time>2014-04-18T16:16:31Z</time>
      </trkpt><trkpt lat="50.8972130343" lon="6.90894101746">
        <ele>58.3</ele>
        <time>2014-04-18T16:16:32Z</time>
      </trkpt><trkpt lat="50.8971680235" lon="6.90904101357">
        <ele>57.8</ele>
        <time>2014-04-18T16:16:32Z</time>
      </trkpt><trkpt lat="50.8970990404" lon="6.90919498913">
        <ele>57.8</ele>
        <time>2014-04-18T16:16:34Z</time>
      </trkpt><trkpt lat="50.8970270399" lon="6.90935701132">
        <ele>57.8</ele>
        <time>2014-04-18T16:16:35Z</time>
      </trkpt><trkpt lat="50.8964210283" lon="6.9107570406">
        <ele>58.3</ele>
        <time>2014-04-18T16:16:44Z</time>
      </trkpt><trkpt lat="50.8963640314" lon="6.91092903726">
        <ele>58.3</ele>
        <time>2014-04-18T16:16:45Z</time>
      </trkpt><trkpt lat="50.8963109739" lon="6.91109298728">
        <ele>58.3</ele>
        <time>2014-04-18T16:16:46Z</time>
      </trkpt><trkpt lat="50.8963109739" lon="6.91134503111">
        <ele>58.8</ele>
        <time>2014-04-18T16:16:48Z</time>
      </trkpt><trkpt lat="50.896322038" lon="6.91144796088">
        <ele>58.8</ele>
        <time>2014-04-18T16:16:48Z</time>
      </trkpt><trkpt lat="50.8963409811" lon="6.91162297502">
        <ele>59.3</ele>
        <time>2014-04-18T16:16:49Z</time>
      </trkpt><trkpt lat="50.8963590022" lon="6.91179899499">
        <ele>59.3</ele>
        <time>2014-04-18T16:16:50Z</time>
      </trkpt><trkpt lat="50.8964780252" lon="6.91292602569">
        <ele>60.2</ele>
        <time>2014-04-18T16:16:56Z</time>
      </trkpt><trkpt lat="50.896467967" lon="6.91310699098">
        <ele>60.2</ele>
        <time>2014-04-18T16:16:57Z</time>
      </trkpt><trkpt lat="50.8964460064" lon="6.91330899484">
        <ele>59.7</ele>
        <time>2014-04-18T16:16:59Z</time>
      </trkpt><trkpt lat="50.8963969722" lon="6.91350404173">
        <ele>59.7</ele>
        <time>2014-04-18T16:17:00Z</time>
      </trkpt><trkpt lat="50.8963360358" lon="6.91370797344">
        <ele>59.7</ele>
        <time>2014-04-18T16:17:01Z</time>
      </trkpt><trkpt lat="50.8962719981" lon="6.91392104141">
        <ele>59.7</ele>
        <time>2014-04-18T16:17:02Z</time>
      </trkpt><trkpt lat="50.8956140187" lon="6.91551896743">
        <ele>60.2</ele>
        <time>2014-04-18T16:17:13Z</time>
      </trkpt><trkpt lat="50.8945080265" lon="6.91796698608">
        <ele>59.7</ele>
        <time>2014-04-18T16:17:30Z</time>
      </trkpt><trkpt lat="50.8930710331" lon="6.92112503573">
        <ele>59.3</ele>
        <time>2014-04-18T16:17:51Z</time>
      </trkpt><trkpt lat="50.8902790211" lon="6.92724399269">
        <ele>58.8</ele>
        <time>2014-04-18T16:18:33Z</time>
      </trkpt><trkpt lat="50.8875069581" lon="6.93409795873">
        <ele>55.4</ele>
        <time>2014-04-18T16:19:19Z</time>
      </trkpt><trkpt lat="50.8857999835" lon="6.93968198262">
        <ele>52.5</ele>
        <time>2014-04-18T16:19:53Z</time>
      </trkpt><trkpt lat="50.8844339848" lon="6.94593396038">
        <ele>49.2</ele>
        <time>2014-04-18T16:20:30Z</time>
      </trkpt><trkpt lat="50.8838029951" lon="6.95102697238">
        <ele>47.7</ele>
        <time>2014-04-18T16:20:59Z</time>
      </trkpt><trkpt lat="50.8836510312" lon="6.95570298471">
        <ele>45.3</ele>
        <time>2014-04-18T16:21:25Z</time>
      </trkpt><trkpt lat="50.8839309867" lon="6.96066398174">
        <ele>43.4</ele>
        <time>2014-04-18T16:21:52Z</time>
      </trkpt><trkpt lat="50.8847250044" lon="6.96554903872">
        <ele>42.4</ele>
        <time>2014-04-18T16:22:20Z</time>
      </trkpt><trkpt lat="50.8857930265" lon="6.9697910361">
        <ele>42.9</ele>
        <time>2014-04-18T16:22:46Z</time>
      </trkpt><trkpt lat="50.8874190319" lon="6.9741969835">
        <ele>46.8</ele>
        <time>2014-04-18T16:23:14Z</time>
      </trkpt><trkpt lat="50.889462959" lon="6.97824301198">
        <ele>50.6</ele>
        <time>2014-04-18T16:23:43Z</time>
      </trkpt><trkpt lat="50.8918890171" lon="6.98176500387">
        <ele>54.5</ele>
        <time>2014-04-18T16:24:12Z</time>
      </trkpt><trkpt lat="50.895536989" lon="6.98599300347">
        <ele>58.8</ele>
        <time>2014-04-18T16:24:52Z</time>
      </trkpt><trkpt lat="50.8999229874" lon="6.99097302742">
        <ele>63.1</ele>
        <time>2014-04-18T16:25:39Z</time>
      </trkpt><trkpt lat="50.9027770255" lon="6.99436903931">
        <ele>61.2</ele>
        <time>2014-04-18T16:26:11Z</time>
      </trkpt><trkpt lat="50.9054469969" lon="6.99765197933">
        <ele>58.3</ele>
        <time>2014-04-18T16:26:41Z</time>
      </trkpt><trkpt lat="50.9066489618" lon="6.99904396199">
        <ele>56.4</ele>
        <time>2014-04-18T16:26:54Z</time>
      </trkpt><trkpt lat="50.9070079587" lon="6.99964703992">
        <ele>55.9</ele>
        <time>2014-04-18T16:26:58Z</time>
      </trkpt><trkpt lat="50.9070979804" lon="6.99985097162">
        <ele>55.4</ele>
        <time>2014-04-18T16:27:00Z</time>
      </trkpt><trkpt lat="50.9071849845" lon="7.00006999075">
        <ele>55.4</ele>
        <time>2014-04-18T16:27:01Z</time>
      </trkpt><trkpt lat="50.9072370362" lon="7.00029999018">
        <ele>55.4</ele>
        <time>2014-04-18T16:27:03Z</time>
      </trkpt><trkpt lat="50.9072780237" lon="7.00056100264">
        <ele>54.9</ele>
        <time>2014-04-18T16:27:04Z</time>
      </trkpt><trkpt lat="50.9073190112" lon="7.00082201511">
        <ele>54.9</ele>
        <time>2014-04-18T16:27:06Z</time>
      </trkpt><trkpt lat="50.9074630123" lon="7.00156096369">
        <ele>53.5</ele>
        <time>2014-04-18T16:27:10Z</time>
      </trkpt><trkpt lat="50.9075670317" lon="7.00171099976">
        <ele>53.5</ele>
        <time>2014-04-18T16:27:11Z</time>
      </trkpt><trkpt lat="50.9076770023" lon="7.00186698698">
        <ele>53</ele>
        <time>2014-04-18T16:27:12Z</time>
      </trkpt><trkpt lat="50.9079139587" lon="7.00218801387">
        <ele>52.1</ele>
        <time>2014-04-18T16:27:15Z</time>
      </trkpt><trkpt lat="50.9089519735" lon="7.00348100625">
        <ele>48.2</ele>
        <time>2014-04-18T16:27:27Z</time>
      </trkpt><trkpt lat="50.9091790393" lon="7.00373397209">
        <ele>47.2</ele>
        <time>2014-04-18T16:27:29Z</time>
      </trkpt><trkpt lat="50.9091900196" lon="7.0037450362">
        <ele>46.8</ele>
        <time>2014-04-18T16:27:29Z</time>
      </trkpt><trkpt lat="50.9093149938" lon="7.00403303839">
        <ele>46.8</ele>
        <time>2014-04-18T16:27:31Z</time>
      </trkpt><trkpt lat="50.9093149938" lon="7.00409498066">
        <ele>47.2</ele>
        <time>2014-04-18T16:27:32Z</time>
      </trkpt><trkpt lat="50.9093149938" lon="7.00417502783">
        <ele>47.2</ele>
        <time>2014-04-18T16:27:32Z</time>
      </trkpt><trkpt lat="50.9093149938" lon="7.00427703559">
        <ele>47.2</ele>
        <time>2014-04-18T16:27:33Z</time>
      </trkpt><trkpt lat="50.9092900157" lon="7.00441701338">
        <ele>47.2</ele>
        <time>2014-04-18T16:27:33Z</time>
      </trkpt><trkpt lat="50.9092539735" lon="7.00452497229">
        <ele>47.2</ele>
        <time>2014-04-18T16:27:34Z</time>
      </trkpt><trkpt lat="50.9092289954" lon="7.00459999032">
        <ele>47.2</ele>
        <time>2014-04-18T16:27:35Z</time>
      </trkpt><trkpt lat="50.908665983" lon="7.00606103987">
        <ele>46.8</ele>
        <time>2014-04-18T16:27:44Z</time>
      </trkpt><trkpt lat="50.9078589734" lon="7.00876998715">
        <ele>46.8</ele>
        <time>2014-04-18T16:28:01Z</time>
      </trkpt><trkpt lat="50.9068160132" lon="7.01243497431">
        <ele>51.6</ele>
        <time>2014-04-18T16:28:23Z</time>
      </trkpt><trkpt lat="50.9065829962" lon="7.01471200213">
        <ele>54.9</ele>
        <time>2014-04-18T16:28:36Z</time>
      </trkpt><trkpt lat="50.9064180404" lon="7.01569695957">
        <ele>55.4</ele>
        <time>2014-04-18T16:28:42Z</time>
      </trkpt><trkpt lat="50.9063199721" lon="7.016008012">
        <ele>55.4</ele>
        <time>2014-04-18T16:28:43Z</time>
      </trkpt><trkpt lat="50.9054770041" lon="7.01795496047">
        <ele>50.1</ele>
        <time>2014-04-18T16:28:57Z</time>
      </trkpt><trkpt lat="50.9043639712" lon="7.02010600828">
        <ele>45.8</ele>
        <time>2014-04-18T16:29:12Z</time>
      </trkpt><trkpt lat="50.9034410398" lon="7.021818012">
        <ele>45.3</ele>
        <time>2014-04-18T16:29:25Z</time>
      </trkpt><trkpt lat="50.9031399619" lon="7.02227499336">
        <ele>45.8</ele>
        <time>2014-04-18T16:29:28Z</time>
      </trkpt><trkpt lat="50.9030819591" lon="7.02228102833">
        <ele>45.8</ele>
        <time>2014-04-18T16:29:29Z</time>
      </trkpt><trkpt lat="50.903019011" lon="7.02228102833">
        <ele>45.8</ele>
        <time>2014-04-18T16:29:29Z</time>
      </trkpt><trkpt lat="50.9029539675" lon="7.02228102833">
        <ele>45.8</ele>
        <time>2014-04-18T16:29:30Z</time>
      </trkpt><trkpt lat="50.9028350282" lon="7.02228102833">
        <ele>45.8</ele>
        <time>2014-04-18T16:29:31Z</time>
      </trkpt><trkpt lat="50.9028030094" lon="7.02223702334">
        <ele>45.8</ele>
        <time>2014-04-18T16:29:31Z</time>
      </trkpt><trkpt lat="50.9027389716" lon="7.0221470017">
        <ele>45.8</ele>
        <time>2014-04-18T16:29:32Z</time>
      </trkpt><trkpt lat="50.9018609673" lon="7.02096397988">
        <ele>45.3</ele>
        <time>2014-04-18T16:29:42Z</time>
      </trkpt><trkpt lat="50.9006699827" lon="7.01941601001">
        <ele>45.3</ele>
        <time>2014-04-18T16:29:56Z</time>
      </trkpt><trkpt lat="50.9006320126" lon="7.01936203055">
        <ele>45.8</ele>
        <time>2014-04-18T16:29:56Z</time>
      </trkpt><trkpt lat="50.9006040171" lon="7.01932095923">
        <ele>46.3</ele>
        <time>2014-04-18T16:29:57Z</time>
      </trkpt><trkpt lat="50.9007009957" lon="7.01913395897">
        <ele>46.8</ele>
        <time>2014-04-18T16:29:58Z</time>
      </trkpt><trkpt lat="50.9007500298" lon="7.01904100366">
        <ele>46.8</ele>
        <time>2014-04-18T16:29:59Z</time>
      </trkpt><trkpt lat="50.9008109663" lon="7.01892600395">
        <ele>46.8</ele>
        <time>2014-04-18T16:29:59Z</time>
      </trkpt></trkseg>
  </trk>
</gpx>